GFSSW_sfc_wetblb_003.txt.gz
Wetbulb
57.52 57.45 57.34 57.30 57.47 57.92 58.20 58.48 58.74 58.95 59.21 59.27 59.41 59.61 59.40 59.03 59.16 59.12 56.39 61.34 63.26 75.74 74.74 72.24 68.86 71.10 71.28 67.18 67.84 65.17 59.61 56.07 56.68 59.32 60.68 65.52 63.73 67.53 68.93 66.67 67.10 68.08 67.74 68.82 71.10
57.03 56.94 56.93 57.04 57.26 57.43 57.71 57.96 58.24 58.44 58.60 58.89 58.92 59.36 59.18 59.03 57.04 56.76 64.94 69.39 72.41 75.35 69.24 65.43 64.10 66.32 62.13 59.44 62.80 61.87 59.52 58.03 60.72 62.69 62.52 64.36 65.15 66.10 65.73 65.36 65.24 66.63 69.68 70.68 71.41
56.49 56.64 56.44 56.59 57.02 57.17 57.44 57.68 57.75 57.76 57.86 58.06 58.47 59.03 58.60 59.29 56.05 55.05 71.84 70.83 73.29 72.86 67.77 64.08 62.90 59.93 55.54 58.13 60.26 61.74 59.01 60.94 61.21 62.77 65.27 64.83 64.53 67.18 64.77 62.79 65.49 65.88 68.16 69.78 70.32
56.11 56.08 56.11 56.32 56.69 56.94 57.16 57.21 57.26 57.18 57.34 57.63 58.35 59.02 58.74 58.19 49.39 56.34 73.56 71.08 72.49 69.23 60.68 58.88 57.33 55.24 53.73 53.29 58.54 58.22 61.35 62.03 61.74 64.25 64.78 64.25 66.53 64.66 65.17 64.24 67.96 69.13 70.04 70.10 69.61
55.67 55.68 55.84 55.88 56.27 56.45 56.73 56.87 56.65 56.55 57.00 57.33 58.23 58.57 56.70 53.43 54.21 58.02 70.49 73.71 69.83 65.14 58.04 56.74 54.78 54.28 52.48 55.79 56.83 56.75 57.58 60.86 62.83 64.39 65.00 66.18 64.77 64.79 65.05 66.82 69.30 70.05 69.98 69.75 69.85
55.35 55.80 56.02 56.00 56.25 56.29 56.71 56.78 56.29 56.07 56.54 57.66 57.71 57.43 55.01 50.24 58.11 59.74 68.14 68.47 67.37 62.43 58.48 57.20 56.04 57.02 55.26 57.56 56.99 56.98 57.96 59.26 63.11 63.67 64.53 63.68 64.19 64.95 65.50 68.63 68.48 69.02 69.15 69.89 70.12
55.03 55.53 55.83 55.97 55.62 55.79 56.19 56.03 55.55 55.56 56.74 58.04 57.71 57.80 54.50 54.25 58.79 59.36 61.27 63.70 65.01 61.25 57.23 57.59 58.17 57.95 58.36 56.37 57.28 61.69 59.57 61.46 61.97 63.11 62.99 65.16 61.62 62.59 66.50 68.48 67.44 67.76 68.79 69.66 70.41
55.04 55.08 55.22 55.38 55.57 55.49 55.48 55.01 54.56 56.13 57.84 58.42 58.53 58.10 54.29 60.37 60.91 60.84 61.77 59.32 60.15 60.47 59.08 59.65 58.97 56.52 55.69 58.02 60.52 59.24 60.20 56.56 61.03 63.32 63.89 63.31 57.50 64.07 67.33 67.40 66.31 67.05 68.04 68.89 69.90
54.96 55.06 55.44 55.56 55.00 54.18 53.97 53.61 55.08 57.35 58.33 59.30 57.57 55.64 55.25 63.96 59.61 61.64 62.47 56.87 55.97 59.22 59.54 58.91 58.27 55.23 55.48 54.93 56.90 57.62 54.61 56.27 58.04 63.24 63.15 62.20 58.86 63.98 67.29 67.07 66.45 66.99 67.75 68.67 69.58
54.71 54.65 54.67 54.65 53.79 53.54 52.67 53.30 54.70 57.92 58.80 59.29 59.49 54.83 58.51 56.88 59.16 60.48 61.04 56.86 54.55 55.23 55.15 54.91 54.40 51.80 53.16 54.23 49.75 53.88 55.19 56.81 57.28 60.30 62.64 60.63 60.26 63.82 65.89 66.25 66.21 67.36 67.95 68.61 69.34
54.40 54.18 54.15 54.09 53.00 52.37 51.97 51.52 52.34 51.68 55.32 54.54 54.65 56.31 56.64 59.10 59.42 59.28 58.67 57.70 53.58 53.38 50.78 52.27 49.48 47.48 51.16 54.30 56.60 57.02 57.15 56.51 58.86 60.77 60.32 60.11 60.22 62.43 64.96 65.28 65.37 66.85 67.78 68.44 69.06
54.05 53.79 53.62 53.21 52.41 52.02 50.70 45.60 49.59 48.70 44.44 49.21 49.72 51.60 54.52 56.32 52.53 55.99 59.34 55.17 53.75 50.59 49.20 48.62 46.76 51.22 53.44 54.15 53.38 57.24 56.59 56.80 58.29 60.36 60.39 59.44 59.19 62.57 64.46 64.43 65.47 65.89 66.92 67.82 69.15
53.74 53.33 53.07 51.72 51.62 50.81 46.48 46.88 50.95 50.42 44.08 47.31 49.59 50.28 52.21 53.34 51.25 52.76 56.59 55.48 53.11 51.61 49.18 46.97 48.41 51.19 52.00 52.12 51.35 53.85 55.20 56.58 56.59 58.16 59.89 59.58 57.72 59.87 63.65 65.14 65.44 66.22 67.23 67.81 67.99
53.37 53.11 51.89 50.39 47.89 47.59 48.68 51.20 51.27 49.71 44.32 47.42 49.91 53.39 54.70 54.57 51.52 56.44 57.07 55.91 51.40 51.38 49.97 49.29 50.30 49.65 50.41 51.44 53.38 51.16 56.30 57.35 57.42 56.17 52.86 59.10 50.92 57.97 61.52 62.55 63.93 65.13 65.92 66.59 67.53
52.98 52.57 51.17 50.21 48.08 47.23 49.33 51.24 51.60 49.90 37.08 49.41 51.43 57.26 55.76 53.80 52.33 53.60 58.14 55.70 51.81 50.45 50.09 48.37 47.74 48.52 49.02 50.95 53.93 53.44 55.03 55.45 57.11 55.96 54.44 55.23 52.42 55.81 60.07 59.79 62.64 64.71 65.69 66.75 67.60
52.34 51.44 51.03 49.29 48.55 49.99 51.52 50.83 50.48 44.38 36.78 46.71 52.88 51.22 51.02 52.71 52.85 54.10 54.29 56.20 56.19 52.43 49.30 50.84 51.42 50.65 51.10 53.40 54.60 54.65 53.51 53.07 54.25 54.13 47.99 52.64 53.12 52.38 57.23 59.79 62.21 64.74 65.77 66.58 67.39
50.84 50.08 50.05 49.82 46.91 50.45 50.75 48.67 42.45 38.39 47.32 45.63 47.96 49.68 49.26 48.91 50.74 51.32 50.80 50.49 49.83 47.38 47.68 50.18 49.82 51.05 51.52 50.46 54.60 53.76 51.82 46.52 45.48 45.88 45.68 52.68 52.61 54.20 58.97 61.83 63.04 63.79 64.96 66.45 67.60
49.40 49.15 50.03 50.47 51.48 51.81 48.56 43.77 36.26 42.64 44.46 48.14 48.42 48.23 46.23 48.20 49.42 49.68 49.87 48.28 52.67 51.93 48.88 46.12 43.93 50.00 52.13 50.72 50.49 51.59 51.69 47.96 42.70 43.81 46.68 51.06 49.10 53.76 60.66 61.99 63.58 65.27 66.11 66.77 66.99
49.40 48.53 46.89 49.69 51.36 50.44 44.64 36.49 39.43 42.98 47.99 47.81 48.14 45.70 45.93 47.51 47.78 48.70 48.92 48.99 51.05 52.27 47.59 45.99 46.08 50.54 51.39 53.29 53.71 51.12 49.03 53.86 50.02 47.32 46.97 50.17 53.75 56.10 59.15 59.93 61.31 62.91 64.88 65.88 66.85
46.52 44.38 44.53 52.21 52.71 47.74 41.71 37.55 40.93 47.02 48.97 46.33 43.70 46.36 43.85 45.44 45.72 46.80 47.61 50.62 50.84 52.80 54.87 49.71 45.14 49.57 50.92 52.41 53.50 52.55 53.93 47.87 48.73 44.58 42.64 47.16 48.88 50.18 56.98 58.89 61.59 61.79 63.58 65.68 67.56
44.54 39.38 47.30 52.95 48.96 44.63 38.49 38.88 41.72 45.45 48.12 44.99 44.44 44.81 46.10 44.12 45.71 45.59 46.52 49.61 50.56 51.22 53.95 52.41 48.50 46.79 49.61 48.77 48.44 49.72 49.36 50.30 51.26 49.48 45.93 44.30 47.74 57.10 59.51 62.30 61.62 62.44 63.96 65.54 67.04
42.56 35.26 46.97 50.68 44.04 42.90 40.05 40.91 42.92 44.70 46.21 45.15 46.48 46.57 45.29 45.39 44.57 45.03 45.48 49.32 51.64 51.31 48.43 51.91 49.95 45.95 47.09 50.72 51.87 51.87 51.00 51.81 47.84 47.41 48.23 48.41 48.46 57.37 58.80 60.54 62.00 62.60 63.74 65.40 67.62
38.45 39.01 47.71 47.85 38.68 41.11 43.14 42.88 45.27 45.86 46.89 47.00 45.31 47.36 47.81 45.32 43.26 46.37 47.75 51.21 51.81 51.32 51.79 50.22 47.99 44.28 45.80 49.47 50.77 49.28 50.70 52.22 52.40 52.21 50.34 46.00 48.24 58.01 57.86 58.54 60.37 61.80 64.14 64.72 66.26
39.72 34.58 42.92 45.27 42.49 40.82 39.95 41.08 41.64 46.92 47.02 48.83 47.83 49.34 48.25 46.97 49.04 47.11 47.34 51.38 54.07 52.97 58.60 55.94 51.33 48.74 44.41 47.00 49.45 47.33 49.12 51.04 50.80 47.98 48.58 48.87 50.81 55.53 57.77 58.74 60.80 62.08 64.18 64.47 64.92
40.55 37.98 41.44 39.01 41.66 41.63 40.13 39.86 39.59 40.36 46.15 47.11 47.49 47.71 47.29 45.06 46.40 46.27 48.53 49.47 51.31 56.17 56.15 54.58 48.99 50.67 51.48 51.53 50.04 48.67 48.02 49.64 49.44 51.66 49.28 50.65 51.62 55.68 59.97 61.66 62.52 64.05 65.07 63.38 64.08
38.39 39.50 40.42 39.02 40.49 40.07 39.56 39.45 39.81 41.55 42.50 43.59 44.29 46.46 47.68 45.61 47.30 46.25 49.50 50.31 50.91 54.93 55.30 50.86 50.29 47.98 47.46 50.74 50.04 47.68 49.09 50.03 50.75 51.05 51.49 52.31 52.67 57.96 60.63 62.08 61.92 62.34 64.01 63.20 63.62
43.15 42.96 39.31 37.33 38.23 37.74 38.84 39.62 40.32 41.74 44.27 45.44 44.40 43.08 43.03 46.24 48.56 50.05 51.65 52.43 53.61 52.78 54.51 54.96 51.64 50.31 46.54 48.58 47.77 45.88 49.29 49.93 51.49 53.03 52.76 50.54 55.22 59.40 57.58 59.02 61.46 63.03 64.01 64.59 65.03

GFSSW_sfc_wetblb_006.txt.gz
Wetbulb
57.31 57.37 57.34 57.36 57.74 58.17 58.39 58.60 58.78 58.76 58.97 59.01 59.34 59.77 60.11 59.92 59.52 62.28 60.49 65.09 65.68 75.29 76.30 71.19 70.75 70.78 70.76 67.63 68.42 68.05 61.54 58.50 58.65 59.64 61.27 65.59 64.26 67.81 69.22 67.92 68.42 69.47 68.56 70.76 72.12
57.03 56.96 56.92 56.98 57.25 57.79 58.06 58.28 58.35 58.37 58.32 58.48 58.65 59.11 59.86 59.59 61.21 59.88 69.08 70.29 72.39 76.38 69.63 67.50 65.37 68.55 64.57 61.40 63.63 63.48 61.20 59.30 61.80 63.11 63.72 64.61 64.99 67.06 66.67 66.61 66.62 68.34 70.13 71.32 71.67
56.59 56.60 56.63 56.63 56.96 57.30 57.61 57.87 57.94 57.95 57.99 58.02 58.21 58.99 59.75 60.06 59.78 57.57 70.64 71.86 73.95 75.51 66.47 66.43 63.90 64.48 58.33 58.79 59.88 61.49 60.40 62.66 62.67 63.39 65.82 65.16 65.14 67.79 65.15 64.33 66.47 67.26 68.95 70.28 70.77
55.90 56.13 56.26 56.47 56.82 56.92 57.13 57.37 57.48 57.37 57.30 57.63 58.05 58.64 59.61 61.51 50.27 60.06 71.65 72.69 74.61 72.40 64.18 63.03 60.10 58.31 55.42 55.77 59.25 58.25 60.86 61.46 63.16 64.62 65.25 65.01 66.90 65.25 65.74 65.12 68.46 69.72 70.84 70.76 70.39
55.45 55.60 55.88 56.00 56.41 56.70 56.89 57.21 57.10 56.55 56.78 57.27 58.16 58.33 60.40 57.82 56.57 65.42 70.16 71.85 68.08 68.63 60.62 59.75 56.76 57.12 54.77 57.34 58.18 57.79 59.21 60.18 61.85 63.80 64.56 66.95 65.49 65.31 65.85 68.06 69.76 70.60 70.89 70.50 70.80
55.17 55.70 56.04 56.10 56.23 56.49 56.83 56.59 56.34 55.81 56.29 57.17 57.92 57.81 59.84 52.65 60.59 64.11 67.14 68.68 65.65 63.44 59.97 59.14 57.38 58.25 56.67 57.35 57.88 59.26 59.24 59.63 60.85 63.08 65.09 65.25 65.62 66.64 66.94 68.42 69.75 70.03 70.33 70.82 70.87
55.25 55.31 55.59 55.59 55.64 55.93 56.09 55.28 54.96 55.02 56.15 57.30 58.59 59.55 58.66 56.06 61.11 62.06 62.93 63.52 65.66 63.48 59.55 59.83 59.73 57.24 57.97 57.02 59.93 59.50 58.54 61.68 62.42 63.95 64.41 66.48 63.77 64.15 67.97 69.08 69.47 69.53 70.35 70.69 71.24
55.04 54.72 54.72 54.72 54.90 55.37 54.89 54.62 54.11 55.97 57.21 59.34 58.98 61.51 56.66 62.51 64.43 62.91 63.72 62.75 63.92 65.84 62.34 61.84 60.59 58.24 57.52 60.39 58.80 58.03 59.52 57.43 62.39 64.25 65.39 65.40 59.35 65.35 68.80 68.54 68.74 69.19 69.85 70.02 71.17
54.68 54.39 54.81 54.92 55.01 54.58 53.68 53.52 55.14 57.92 58.70 59.52 61.08 60.81 56.40 63.78 61.86 63.84 64.60 60.41 60.91 62.51 61.51 60.50 59.36 57.46 57.64 56.15 56.07 57.99 55.02 56.46 60.55 64.95 64.58 64.32 60.08 65.65 68.86 68.45 68.24 68.77 69.09 69.71 70.80
54.73 54.59 54.48 54.26 53.86 53.06 52.73 53.97 56.70 59.41 60.60 62.03 62.48 58.70 60.78 57.15 62.82 61.71 64.99 60.85 58.92 60.12 58.13 57.13 56.41 54.64 55.43 54.95 51.43 54.57 55.13 57.08 57.47 62.88 64.36 62.70 61.74 65.25 67.91 67.84 67.45 68.89 69.05 69.36 69.83
54.48 54.17 53.92 53.57 53.02 52.04 53.20 56.46 57.00 57.16 59.37 56.60 56.37 58.00 56.93 60.22 61.74 60.37 62.72 58.88 58.20 57.71 52.44 54.74 51.55 50.21 53.88 56.60 57.19 57.36 57.19 56.74 59.08 63.63 62.84 61.72 61.82 63.99 67.28 67.50 67.36 68.52 69.15 69.35 69.64
54.01 53.90 53.43 52.96 51.99 51.65 53.97 50.54 51.71 51.27 48.06 53.14 53.26 53.88 56.34 58.02 53.88 57.06 61.85 57.71 55.29 52.55 54.08 51.81 49.21 53.49 55.21 56.24 56.17 56.85 56.05 56.43 59.45 62.79 62.46 61.42 61.13 63.85 65.70 67.09 67.61 67.82 68.88 69.93 70.37
53.72 53.51 52.83 52.24 51.24 54.49 51.99 52.37 54.83 53.47 48.38 51.25 53.05 52.49 54.37 55.50 53.35 54.88 58.62 57.93 54.89 52.43 51.94 50.51 51.14 53.86 53.60 53.71 54.46 56.10 55.71 56.54 57.89 61.24 62.65 60.97 59.93 61.30 64.03 66.91 67.94 68.25 68.99 70.49 70.60
53.55 53.20 52.19 51.02 51.29 52.66 52.85 55.26 56.02 54.19 46.81 50.35 52.14 55.21 56.51 56.72 53.58 58.64 58.68 57.13 54.97 52.28 52.85 51.16 53.57 51.88 51.34 52.08 55.21 53.85 57.37 57.40 57.68 58.02 54.95 61.31 53.44 59.11 62.15 64.34 66.22 67.82 68.11 68.53 70.56
53.04 52.46 51.23 50.27 50.73 51.15 52.97 54.95 55.30 53.82 40.98 51.85 53.52 59.85 58.45 56.02 56.08 55.84 58.84 56.57 53.17 53.01 53.72 50.99 50.72 50.44 50.05 51.53 54.81 54.80 58.10 57.09 56.98 57.36 57.38 58.10 55.75 57.77 61.48 61.07 64.29 67.01 68.23 68.42 68.94
52.75 51.57 50.70 51.89 53.31 53.36 54.90 55.17 55.09 46.89 40.57 48.91 54.18 53.58 53.96 55.34 54.87 55.94 55.58 57.77 56.94 53.86 54.36 53.29 54.79 52.83 52.36 53.50 54.98 57.14 56.43 57.06 57.24 56.04 51.93 56.48 55.56 54.85 57.83 60.79 62.25 65.61 67.88 68.89 68.48
51.30 49.94 50.19 52.19 49.96 55.80 55.41 50.96 44.77 41.90 49.59 47.98 49.80 53.28 52.42 51.01 52.61 54.03 52.65 52.06 51.14 49.26 49.47 51.43 51.42 52.74 53.23 51.80 54.12 55.33 54.82 50.19 49.21 49.52 49.34 57.01 55.15 56.19 58.99 60.76 62.20 61.86 65.53 68.92 69.35
49.58 48.59 52.50 53.20 55.08 54.55 51.95 44.99 40.01 45.21 47.00 51.02 51.01 52.01 50.18 51.64 51.48 52.59 52.00 49.86 52.78 52.77 50.71 48.05 45.57 51.26 53.01 51.91 52.38 53.01 54.07 50.45 46.06 47.13 49.63 55.87 52.03 55.34 60.80 61.97 62.31 63.15 65.12 68.39 69.32
48.85 51.58 50.94 54.70 54.91 54.61 48.32 39.62 42.67 45.80 48.83 48.02 49.50 48.33 49.39 51.12 50.06 51.39 51.56 51.28 52.05 53.82 49.98 49.26 48.54 53.26 53.16 53.62 53.78 53.28 52.00 56.33 52.65 53.35 50.13 52.15 55.44 58.59 60.37 61.13 62.22 62.83 64.99 66.62 68.85
48.45 48.74 49.31 54.73 56.99 52.69 45.01 40.20 44.79 47.17 48.84 50.55 46.81 49.27 47.14 48.87 48.76 50.06 50.53 52.87 52.13 54.35 56.35 53.47 48.75 53.05 53.00 54.01 54.15 53.65 56.36 51.17 53.03 48.28 46.43 50.36 52.30 53.55 57.88 58.55 60.16 61.83 64.24 66.76 68.90
48.59 44.09 52.34 57.80 56.36 49.93 41.70 43.03 44.99 47.55 48.12 48.02 47.20 47.51 48.44 48.44 49.60 49.43 49.58 52.34 53.79 53.96 56.16 54.77 51.99 50.71 52.97 50.63 50.17 51.42 51.56 53.93 54.18 52.49 48.18 47.53 50.65 58.63 58.81 60.07 60.09 60.75 65.03 66.09 68.20
46.37 40.47 52.72 56.46 46.62 47.38 44.26 46.26 46.00 46.50 47.60 46.64 48.34 47.69 47.61 49.02 48.78 49.05 48.89 51.17 54.48 55.31 53.08 55.71 53.31 48.87 48.94 52.88 53.58 53.56 52.69 54.17 50.38 51.01 52.41 51.54 50.98 59.11 60.04 60.36 60.83 61.15 62.32 63.80 68.19
43.03 43.25 51.72 51.52 39.82 42.04 46.70 45.68 46.94 46.16 46.31 46.18 45.26 47.44 48.98 47.93 46.85 48.64 49.62 52.16 52.71 53.78 53.96 55.51 52.07 48.13 49.02 50.54 52.43 50.51 52.18 53.86 54.42 54.71 53.57 49.22 51.08 59.01 60.00 60.29 61.72 63.65 65.13 66.40 68.54
43.67 39.17 45.15 49.24 46.93 43.92 43.45 43.78 44.43 48.19 47.10 48.00 47.75 48.53 46.72 46.97 49.44 47.81 49.10 51.13 53.35 53.42 60.16 58.66 52.71 50.43 47.20 49.82 51.58 49.33 49.85 51.77 52.12 50.92 51.66 51.87 53.91 56.89 58.01 59.30 60.39 62.25 65.29 66.35 68.99
44.02 41.24 44.52 39.65 44.83 45.09 45.60 44.80 42.53 43.37 48.01 49.35 47.62 48.29 47.32 45.64 47.36 47.79 49.96 51.73 54.08 57.73 57.07 57.61 52.60 53.34 52.26 52.31 52.42 51.44 50.33 50.31 49.92 51.38 50.73 53.20 53.41 56.51 58.86 59.52 60.55 61.47 63.00 66.00 68.53
40.15 41.55 43.90 41.02 42.00 41.09 40.71 41.50 42.22 43.54 45.77 45.99 46.70 47.13 48.28 47.25 48.36 47.47 49.35 50.56 50.14 54.57 54.13 56.91 53.03 54.32 52.04 52.92 52.46 50.55 51.87 51.22 50.80 51.13 51.71 52.37 53.06 58.25 59.83 60.70 60.42 61.04 62.13 65.57 68.34
45.80 45.84 40.53 38.95 37.69 37.73 39.28 41.06 41.29 44.35 46.10 47.29 47.30 46.70 46.49 49.17 51.83 53.53 54.32 54.62 54.96 53.69 54.01 55.05 54.38 53.42 49.82 53.01 52.36 49.33 52.10 52.25 51.77 52.39 52.28 50.28 54.42 57.20 57.41 59.26 61.00 61.94 64.57 65.74 68.29

GFSSW_sfc_wetblb_009.txt.gz
Wetbulb
57.45 57.40 57.41 57.52 57.86 58.03 58.33 58.63 58.72 59.15 59.17 59.31 59.32 59.67 60.14 60.26 59.80 62.85 62.39 67.47 69.09 74.12 76.20 71.23 70.99 68.08 69.32 67.18 67.94 66.81 59.48 58.78 58.92 59.19 60.29 63.73 62.42 65.73 68.54 67.01 68.07 69.11 70.32 71.88 73.89
57.00 56.97 57.03 57.13 57.48 57.73 58.13 58.39 58.46 58.54 58.60 58.74 59.11 59.18 60.00 60.07 62.28 60.33 70.04 74.66 74.74 74.61 68.44 66.17 64.65 66.24 64.99 64.82 65.15 63.33 57.82 59.54 62.24 63.89 62.59 63.20 63.17 64.79 65.10 65.53 66.33 67.64 71.49 72.78 73.57
56.46 56.69 56.77 57.04 57.17 57.45 57.77 58.23 58.13 58.13 57.86 58.16 58.26 59.06 59.69 60.44 60.31 59.54 71.17 72.16 75.55 74.79 65.54 65.98 65.19 65.16 62.75 63.17 62.03 62.24 60.78 63.05 63.11 63.64 64.89 63.62 63.58 65.35 64.30 63.18 66.19 66.66 69.24 71.23 72.38
56.20 56.24 56.21 56.63 56.83 57.21 57.40 57.78 57.76 57.33 57.29 57.54 57.97 58.62 59.71 62.28 52.18 63.61 72.06 72.37 75.05 69.65 66.47 63.40 63.20 60.90 60.69 58.44 61.14 59.32 62.16 62.40 63.21 63.98 64.21 63.61 65.39 63.56 63.40 64.76 67.82 69.31 70.49 70.92 71.47
55.75 55.67 55.83 55.69 55.96 56.35 56.92 57.22 56.88 56.46 56.53 57.00 57.77 58.72 60.78 58.74 57.50 67.66 72.99 72.20 69.90 66.31 64.91 61.48 60.39 59.98 58.70 59.00 60.36 59.34 60.94 61.29 62.17 63.42 63.67 66.05 64.52 63.55 63.23 65.84 68.50 70.14 70.19 70.24 71.33
55.21 55.81 56.02 56.03 55.72 56.14 56.39 56.48 56.07 55.59 56.19 57.00 57.70 58.30 60.15 54.33 62.12 65.01 64.51 66.61 64.68 64.77 61.99 61.40 60.49 60.66 59.09 59.17 59.18 60.94 60.83 60.64 61.60 61.91 63.69 63.80 64.07 65.07 65.05 67.05 68.01 69.49 69.34 70.16 70.77
55.12 55.30 55.70 55.52 55.12 55.30 55.74 55.69 54.86 55.07 56.19 57.74 58.27 60.29 58.75 57.46 62.15 62.57 65.36 64.54 65.02 63.37 61.17 61.13 61.38 58.96 59.15 58.03 60.83 60.76 58.39 60.84 61.49 61.73 62.11 64.42 61.86 62.11 66.24 68.04 67.55 68.72 69.52 69.71 70.61
54.90 55.14 55.30 55.00 54.73 55.00 54.98 54.23 54.18 55.85 57.99 59.10 60.08 61.63 56.69 63.23 65.10 62.75 62.56 62.01 63.96 64.65 62.59 62.35 61.17 59.41 58.68 60.83 59.99 58.25 58.86 56.42 61.41 61.88 62.58 63.08 58.91 64.22 67.04 66.78 66.37 67.92 68.99 69.46 70.29
54.85 54.95 54.95 55.06 54.65 54.24 53.39 53.33 54.66 58.21 59.40 60.08 62.15 62.34 56.60 65.17 61.63 63.26 63.47 61.44 62.48 62.49 63.74 62.14 60.84 57.36 57.93 55.38 55.10 57.84 54.31 56.40 58.37 62.63 63.47 62.47 59.22 64.86 67.54 66.09 66.20 67.27 68.42 69.15 69.98
54.57 54.55 54.51 54.40 53.89 53.17 52.32 52.90 57.50 59.30 61.23 63.64 64.06 60.11 60.77 58.72 61.98 63.14 64.35 62.49 59.79 60.73 59.33 58.57 57.10 54.89 55.01 55.05 50.89 54.70 55.32 57.26 58.97 60.47 63.22 61.10 60.76 65.05 67.14 66.45 65.28 66.49 67.61 68.72 69.20
54.51 54.32 54.01 53.52 53.02 51.93 53.33 58.98 58.28 59.44 61.38 58.68 59.41 58.21 58.99 61.24 63.82 61.32 63.25 60.91 59.24 58.94 54.19 55.85 52.32 50.60 53.77 56.42 57.12 57.84 57.33 56.56 58.99 61.08 61.32 61.17 61.35 63.88 66.63 66.80 65.65 66.26 66.73 67.98 68.97
54.18 53.95 53.66 52.96 52.07 51.36 54.47 53.95 54.03 53.55 49.30 54.69 55.90 56.66 58.59 59.49 56.11 59.64 63.17 57.10 55.69 53.46 55.67 53.43 50.38 54.06 56.24 57.15 56.67 56.85 56.49 56.98 59.53 60.05 61.09 60.89 60.48 63.92 66.62 66.26 67.05 66.62 66.63 67.22 68.41
53.91 53.74 53.00 52.20 51.23 55.35 53.49 54.48 56.45 56.17 49.98 52.46 55.49 55.01 56.13 57.40 54.26 55.83 58.78 58.62 54.68 53.12 53.76 51.51 52.68 54.87 54.86 55.69 55.62 56.36 55.91 56.88 57.09 61.40 62.27 60.93 59.00 61.12 64.39 67.34 67.71 67.81 68.36 68.33 68.14
53.79 53.48 52.59 50.87 51.74 53.91 53.89 57.15 57.23 56.37 47.45 50.79 52.87 54.63 56.46 57.01 53.44 57.75 59.41 57.15 56.38 53.15 53.52 53.25 55.03 53.19 53.14 53.72 55.73 53.99 57.66 57.82 57.48 57.19 55.41 60.04 53.48 60.11 62.01 63.14 66.44 67.34 67.86 67.99 68.54
53.70 53.08 51.70 50.06 51.56 52.24 54.32 56.28 56.02 55.15 41.74 53.74 54.43 59.99 58.74 56.32 58.00 57.23 60.47 57.45 54.39 54.32 54.31 52.07 52.51 52.69 51.77 53.15 56.18 54.90 58.15 57.76 57.76 57.85 57.88 56.68 54.84 57.39 61.38 60.92 63.54 66.54 68.01 68.36 68.76
53.10 52.15 51.32 52.89 54.44 55.88 56.54 55.86 54.98 46.62 42.16 51.22 55.35 54.49 55.32 56.34 55.92 57.80 56.87 58.58 57.97 55.07 55.01 54.12 56.50 54.22 53.98 54.98 56.07 57.34 56.85 57.51 57.18 56.39 51.98 56.65 54.66 56.43 57.68 61.17 63.00 65.43 67.67 69.20 69.13
51.81 50.42 50.48 52.83 50.56 56.25 55.84 52.72 44.78 42.53 52.02 50.46 51.62 53.67 53.64 53.14 54.01 55.18 53.78 52.92 51.65 49.33 50.59 53.02 53.26 55.30 54.99 52.60 55.27 55.39 54.37 50.16 49.96 49.71 49.42 56.64 55.50 57.59 61.48 62.72 63.22 63.32 65.35 68.23 70.08
50.27 48.75 52.92 54.98 57.24 56.36 52.72 46.53 40.43 47.62 48.90 52.95 52.83 53.60 51.42 53.66 53.43 54.01 53.26 51.26 53.74 53.34 51.55 49.50 47.97 53.16 54.76 52.98 52.01 53.31 53.71 49.96 46.52 48.13 50.61 56.02 52.66 56.43 62.84 62.94 63.73 64.13 63.96 65.91 69.21
49.32 53.66 53.27 55.48 56.65 55.60 48.94 40.90 43.60 47.44 51.26 50.96 51.99 50.40 51.31 52.79 52.89 52.39 53.03 52.17 53.48 53.92 50.73 50.60 50.14 55.01 54.81 54.71 53.71 52.70 51.59 56.11 52.53 54.24 51.36 53.43 56.34 59.65 62.07 62.38 62.40 62.62 62.97 63.56 67.38
49.95 51.43 52.19 56.08 58.04 53.74 46.20 41.49 46.63 49.63 51.24 51.08 48.38 51.06 49.59 51.35 51.12 51.58 52.11 54.46 53.43 54.80 55.99 53.72 50.40 54.43 54.18 54.79 54.10 52.50 55.56 51.47 53.84 48.79 47.38 51.36 53.26 54.13 58.93 59.92 61.14 61.97 62.21 63.63 65.87
50.28 47.13 54.64 56.91 57.53 50.46 42.29 44.26 46.70 49.35 50.32 48.65 48.91 49.63 50.34 50.28 51.57 51.35 51.24 53.36 54.77 55.02 55.87 54.10 53.16 52.76 54.93 52.31 50.83 50.88 50.45 53.72 53.99 52.99 49.21 48.24 52.11 59.39 60.67 61.62 61.01 62.01 62.56 63.47 65.36
49.13 43.92 54.26 57.98 47.71 48.16 45.73 47.52 47.56 48.86 51.07 48.87 49.12 49.91 50.65 51.36 50.65 51.02 50.81 53.04 55.75 55.67 53.11 55.17 53.38 50.78 52.13 55.36 55.53 53.63 51.94 52.20 51.09 51.79 52.77 53.27 52.32 59.93 60.96 61.55 61.83 62.19 63.11 63.76 65.71
45.64 47.31 53.57 51.57 40.38 43.27 47.11 47.46 49.04 48.68 49.33 48.89 47.81 48.74 50.44 49.74 48.92 51.26 52.08 54.84 54.89 54.84 54.57 55.29 51.91 48.77 50.82 53.21 54.54 52.35 52.80 52.98 53.00 54.64 54.31 50.86 52.07 60.35 61.48 61.42 62.58 62.33 63.17 64.43 65.68
45.12 42.01 47.61 48.71 47.77 44.10 43.38 44.67 45.13 49.86 49.06 49.51 49.09 49.71 47.93 47.46 50.55 49.45 50.67 53.28 54.72 54.24 61.20 59.21 53.93 51.71 48.81 51.50 53.21 50.57 51.42 52.08 52.02 49.99 51.64 51.79 54.36 58.24 59.71 60.36 61.25 62.24 63.06 64.68 65.82
44.37 42.83 45.66 41.18 44.05 43.27 43.20 42.62 43.03 43.19 49.52 50.08 48.20 47.76 47.47 45.54 46.85 47.52 50.43 52.22 53.18 56.87 55.74 55.26 52.04 53.50 53.46 54.05 54.22 52.75 50.76 50.99 50.44 51.92 50.78 52.99 54.13 57.43 60.84 60.90 61.56 62.23 63.11 63.17 64.34
42.21 42.31 44.45 43.28 44.87 41.95 40.81 40.94 40.62 43.14 44.37 43.34 44.99 47.61 48.15 46.34 47.74 46.80 49.44 51.15 51.96 53.52 54.19 55.51 51.94 54.39 51.96 53.26 52.84 51.40 52.92 52.51 51.60 51.39 51.88 52.86 53.38 58.71 60.66 62.38 62.05 61.92 62.59 62.57 63.34
46.84 47.87 44.37 40.74 41.60 40.45 39.79 40.26 41.34 43.10 44.50 46.38 44.49 44.74 47.17 48.56 50.17 52.43 54.20 53.42 53.63 54.12 54.10 54.52 53.84 53.66 50.34 53.79 53.29 49.96 52.20 52.77 53.66 54.14 52.80 50.27 54.26 57.61 58.54 60.64 62.32 61.97 62.65 63.11 63.76

GFSSW_sfc_wetblb_012.txt.gz
Wetbulb
57.26 57.32 57.55 57.50 57.82 58.08 58.55 58.72 58.93 59.06 59.09 59.11 59.01 59.32 59.86 59.94 59.65 62.24 61.22 66.45 68.79 75.82 74.18 67.98 70.67 68.97 68.60 64.84 66.76 66.80 59.91 57.94 58.47 58.50 58.53 62.89 61.22 66.27 68.58 66.95 68.95 69.16 68.80 70.62 72.55
56.92 57.08 56.84 56.86 57.17 57.50 57.73 58.24 58.33 58.37 58.37 58.51 58.72 59.02 59.52 60.03 59.49 58.83 65.50 73.65 74.50 74.74 63.03 61.32 62.89 66.30 62.71 63.55 64.75 63.94 58.87 58.98 61.79 62.54 61.09 62.35 62.37 62.72 63.77 64.77 66.04 68.39 70.44 71.63 72.47
56.24 56.42 56.35 56.42 56.48 56.64 57.02 57.53 57.62 57.58 57.53 57.80 58.08 58.89 59.35 59.96 58.46 59.10 74.18 75.33 75.30 72.96 61.87 61.78 62.65 63.72 61.26 63.41 63.04 62.89 58.31 61.88 62.66 63.91 63.57 62.22 62.21 63.52 62.99 61.97 65.11 66.98 68.87 70.29 71.55
56.05 56.13 56.19 56.07 56.16 56.08 56.29 56.70 56.88 56.86 56.97 57.28 57.76 58.28 59.53 60.38 50.75 62.10 73.63 73.63 75.08 67.70 62.35 60.61 60.59 60.33 59.61 60.07 62.39 58.72 62.85 63.29 63.37 65.10 64.30 61.95 63.80 62.37 63.45 63.70 67.61 70.15 70.92 70.64 70.56
55.52 55.87 56.26 55.91 55.83 55.94 56.32 56.71 56.51 56.20 56.31 56.79 57.61 58.35 60.06 56.30 57.85 63.99 73.55 72.23 68.29 64.06 61.40 60.78 59.20 60.14 58.18 60.26 60.48 58.61 61.48 62.41 62.43 62.84 63.63 64.17 62.89 62.70 62.59 66.06 68.08 69.48 70.56 70.32 70.38
54.74 55.45 55.82 56.02 56.06 56.14 56.20 56.03 55.92 55.48 55.74 56.86 57.83 58.20 58.49 51.37 61.68 66.32 64.39 65.87 63.28 62.52 60.56 61.87 60.01 61.50 59.83 59.60 59.00 60.13 60.13 60.58 61.01 61.09 62.61 63.60 63.45 63.17 63.29 65.84 66.87 68.07 68.76 70.10 70.51
55.12 55.40 55.54 55.50 55.33 55.60 55.68 55.36 55.18 54.74 55.79 57.54 59.14 59.01 56.29 53.57 62.72 63.67 62.93 63.81 63.01 63.23 59.82 61.93 62.17 60.08 60.42 58.18 60.80 59.85 57.55 59.49 59.88 60.67 61.07 63.05 61.31 61.36 64.48 65.28 66.09 66.68 68.00 69.29 70.29
55.20 55.43 55.36 55.40 55.53 55.24 54.70 54.06 54.25 55.00 56.84 59.65 59.64 60.28 54.05 59.94 62.42 61.59 62.98 62.36 63.82 64.01 62.35 62.63 61.95 59.30 59.01 59.87 58.21 56.46 57.17 54.52 59.13 60.83 61.43 61.52 58.05 61.67 65.53 64.48 64.42 66.36 67.06 68.10 69.32
54.89 55.09 55.17 55.17 54.74 54.09 53.17 53.21 54.33 56.55 59.52 60.42 60.32 60.67 56.47 66.13 60.82 62.84 63.21 59.39 60.43 61.78 62.85 62.42 60.52 56.58 57.02 54.47 53.28 55.26 52.39 54.16 56.35 61.44 60.87 60.08 58.15 63.09 65.66 64.96 64.01 65.59 66.65 67.33 69.02
54.62 54.64 54.53 54.35 53.94 53.00 52.32 53.05 57.50 58.33 61.09 62.93 62.47 58.89 61.53 58.91 61.73 61.77 62.70 60.98 58.82 60.00 58.26 58.67 57.15 54.18 53.44 52.75 48.26 51.49 52.85 55.18 55.66 59.91 60.22 60.40 58.56 60.79 64.57 64.73 64.43 64.70 66.04 67.30 67.65
54.52 54.22 54.08 53.75 52.99 52.20 51.67 56.94 57.54 56.97 59.71 58.55 58.98 56.53 58.01 62.53 62.41 61.65 62.94 61.27 60.10 57.69 53.58 56.91 52.42 50.32 52.77 53.98 55.17 54.93 55.29 55.13 57.35 61.16 59.55 60.04 56.68 56.56 61.74 64.83 63.87 64.94 65.56 66.67 67.85
54.24 54.04 53.83 53.38 52.32 51.61 53.28 55.29 54.70 54.33 48.82 53.74 55.14 58.26 61.35 61.98 57.88 60.33 62.24 57.87 56.15 52.56 55.46 53.32 50.10 53.37 54.70 55.58 54.63 54.91 54.44 55.39 58.23 61.10 60.52 60.36 58.76 60.03 63.60 65.28 64.56 64.67 64.73 65.67 66.63
53.91 53.71 53.38 52.69 51.61 54.59 55.22 53.20 58.26 56.24 49.04 51.05 53.72 53.00 55.41 60.09 56.97 56.42 59.84 58.95 54.51 52.47 53.67 51.30 52.55 54.16 53.18 53.56 53.59 54.25 53.91 55.07 55.82 59.62 60.29 58.78 57.50 61.46 64.23 64.83 65.72 65.65 66.20 66.10 66.88
53.56 53.52 52.90 51.51 52.87 52.73 52.70 57.62 56.58 56.08 45.52 49.32 52.94 54.01 55.13 55.66 52.74 57.99 58.88 58.26 56.18 52.11 52.59 53.01 55.00 53.12 51.78 51.93 54.23 52.02 56.48 56.29 55.85 56.72 53.60 59.20 51.51 57.84 61.28 63.42 64.19 65.17 65.89 66.22 67.06
53.38 53.03 51.89 50.79 49.74 51.20 55.43 56.76 56.24 54.33 39.44 54.21 53.99 59.56 56.96 53.54 55.01 54.84 58.69 56.35 52.81 53.65 53.94 51.21 52.64 52.02 50.82 51.63 54.62 54.09 57.35 56.36 56.01 55.72 56.62 57.67 54.72 58.53 61.93 60.64 63.70 64.84 66.12 67.00 68.10
53.11 52.22 51.65 51.91 53.24 54.81 56.77 56.11 54.43 44.93 39.90 51.32 55.24 53.57 52.74 53.48 54.19 57.62 55.19 56.65 56.17 53.10 54.96 54.04 56.27 54.61 53.32 54.03 54.40 56.66 55.78 55.76 55.73 55.04 50.31 55.82 54.46 55.16 58.87 59.45 61.26 65.14 66.42 67.58 68.27
52.00 50.87 50.45 52.14 49.24 55.56 55.83 52.53 43.32 40.53 52.48 50.78 52.30 54.35 53.77 52.21 52.50 55.19 52.84 52.04 51.09 48.49 49.55 52.93 53.00 54.90 55.22 52.25 54.05 53.50 52.38 49.04 48.12 49.25 48.70 55.97 55.00 57.28 61.72 62.95 62.94 62.12 65.19 68.13 69.26
50.36 49.31 52.14 54.27 56.36 56.52 53.48 46.36 39.14 46.90 47.64 53.65 53.40 53.57 51.35 53.92 53.08 53.51 53.51 51.24 53.38 52.31 50.33 48.43 47.24 52.60 55.09 52.49 51.22 51.74 51.59 49.71 44.78 46.91 49.38 55.33 52.03 56.33 63.16 63.92 63.80 64.67 63.35 67.77 68.97
49.46 53.13 53.12 54.99 56.33 55.94 49.17 39.10 42.90 46.89 51.12 51.22 52.24 50.44 51.12 52.50 52.93 52.35 52.38 52.02 52.81 53.13 49.91 49.05 49.00 55.25 54.76 55.36 53.35 51.43 49.37 53.72 50.52 52.27 49.76 52.55 55.07 58.11 61.76 62.89 62.87 62.89 64.04 65.48 68.55
49.01 49.88 52.88 57.68 56.48 53.45 45.40 40.55 45.56 49.05 50.95 51.22 48.00 50.65 49.02 51.32 50.99 51.78 51.84 54.30 53.53 54.27 55.11 52.71 48.99 53.92 54.89 55.33 54.97 52.33 54.33 48.28 50.03 45.96 46.01 50.68 53.05 54.50 58.77 61.79 63.00 63.33 63.04 64.20 64.83
48.85 47.49 53.08 56.26 55.87 50.14 42.28 43.21 46.27 49.58 49.74 47.12 46.43 47.06 49.16 50.65 51.88 51.28 51.38 53.91 55.06 54.86 55.21 53.25 52.06 51.64 54.67 52.68 51.05 50.74 49.79 50.72 51.46 51.08 48.20 47.96 51.49 60.44 61.50 63.99 63.46 63.64 63.97 64.04 65.06
47.90 41.91 54.44 56.61 46.92 48.06 44.68 47.26 47.55 48.69 50.79 49.47 49.73 48.32 47.44 48.43 50.33 50.98 51.34 53.23 56.07 55.95 52.78 54.30 51.85 49.79 50.98 55.36 55.48 53.49 51.41 50.83 47.44 49.04 51.06 50.89 52.12 59.91 63.00 62.26 63.91 63.38 64.06 64.92 65.28
43.83 44.90 52.23 51.60 40.48 42.26 45.30 45.67 48.34 48.29 49.17 49.24 48.28 49.35 50.16 47.69 47.24 49.56 51.91 55.25 56.07 54.89 53.26 55.19 51.42 48.32 48.39 52.45 55.21 51.81 52.17 52.26 51.26 51.61 49.68 48.85 51.11 59.98 63.34 60.97 64.70 63.73 64.38 65.97 67.88
43.20 39.53 45.67 48.08 47.53 44.04 42.68 43.06 42.92 47.49 47.77 48.58 48.85 50.23 49.28 48.11 49.82 48.63 49.46 53.03 55.25 55.32 60.62 58.91 52.52 51.08 47.65 50.55 53.37 51.82 51.95 52.56 51.15 48.00 49.45 50.15 54.05 57.15 60.91 61.84 62.46 64.78 64.59 65.87 68.15
44.05 40.97 44.48 38.58 41.89 42.59 41.91 42.40 40.93 41.93 46.80 48.45 46.38 46.95 46.46 45.54 47.05 46.74 48.84 50.29 53.32 57.75 56.59 54.50 51.22 52.47 51.87 52.30 53.25 52.93 51.94 52.11 51.16 52.17 49.64 51.91 52.57 57.09 59.93 62.25 61.82 64.36 65.37 65.15 67.96
38.99 40.48 44.04 41.74 42.76 41.55 39.86 39.13 38.94 41.64 43.83 41.08 42.26 45.31 46.04 44.03 43.96 41.92 47.67 50.23 50.79 53.86 53.52 53.96 51.28 52.34 50.91 53.03 52.77 51.58 53.40 52.64 51.93 52.11 52.52 52.77 52.60 57.82 59.88 61.94 62.77 62.91 63.18 65.00 65.79
44.99 46.01 42.81 40.29 39.83 38.86 39.58 39.61 39.69 41.91 43.53 45.04 43.49 42.43 42.45 44.13 46.82 47.41 49.17 50.36 51.92 52.78 53.68 53.59 51.12 51.62 48.31 51.84 51.97 49.33 52.58 53.47 53.58 52.81 52.59 50.29 54.63 58.44 58.13 59.95 63.13 64.42 65.47 65.55 66.11

GFSSW_sfc_wetblb_015.txt.gz
Wetbulb
57.06 57.23 57.14 57.06 57.07 57.18 57.39 57.79 58.06 58.44 58.42 58.51 58.54 59.01 59.61 59.71 59.26 59.33 57.57 62.23 66.30 73.94 74.33 64.05 69.46 67.32 67.82 65.81 68.14 67.45 57.62 55.14 56.36 57.14 57.36 60.68 63.74 67.22 69.17 66.74 67.33 68.42 67.33 69.08 70.80
56.72 56.92 56.86 56.84 56.82 56.82 56.90 56.98 57.24 57.45 57.53 57.92 58.08 58.46 59.23 59.58 56.78 54.57 62.76 70.60 72.13 75.06 63.72 59.96 57.44 65.35 62.00 62.01 62.17 60.90 55.87 57.37 61.88 61.45 58.14 61.18 64.55 65.06 66.13 65.64 65.58 66.94 69.55 70.61 70.99
56.03 55.88 55.83 56.21 56.14 56.22 56.45 57.04 56.68 56.77 56.85 57.21 57.63 58.14 59.13 58.58 55.08 55.37 73.86 70.66 71.11 73.41 62.84 60.06 57.90 57.36 56.51 60.26 59.45 59.94 55.19 61.24 61.87 63.07 62.75 59.98 60.21 63.60 64.28 63.07 65.23 65.02 67.76 69.59 69.63
55.31 55.22 55.38 55.66 55.75 56.10 56.16 56.63 56.61 56.35 56.37 56.74 57.42 57.97 59.18 56.89 45.60 60.54 73.18 74.20 74.37 70.64 62.93 58.52 55.63 52.67 53.09 55.13 59.28 57.36 61.03 61.71 62.77 63.59 61.27 59.87 60.83 61.91 62.53 64.56 68.52 68.56 69.30 69.38 68.54
55.23 55.37 55.45 55.39 55.52 56.03 56.10 56.46 56.42 56.22 55.93 56.49 57.07 58.15 55.89 52.40 54.45 61.55 73.90 73.83 69.37 64.00 59.69 56.99 54.25 53.76 52.65 56.48 57.87 57.12 59.70 62.29 63.81 63.02 62.07 62.15 61.00 61.75 62.44 67.94 69.54 69.45 69.07 68.97 68.72
55.61 55.80 55.83 56.06 56.07 56.22 56.28 55.88 55.64 55.54 55.49 56.24 57.54 58.23 54.46 47.17 56.39 58.83 65.72 65.97 64.02 61.68 57.84 57.68 56.23 57.13 55.74 56.66 55.86 58.24 58.62 60.38 60.45 62.20 62.17 60.48 61.46 62.55 64.13 68.71 68.34 68.51 67.53 68.92 68.98
55.70 55.72 55.65 55.69 55.68 55.48 55.89 55.19 55.24 54.93 55.08 56.57 58.40 57.99 53.76 50.36 57.31 61.36 60.81 62.35 61.87 60.19 56.99 58.14 59.20 56.85 55.99 55.24 58.63 57.50 54.53 56.25 57.45 56.93 61.20 63.12 58.96 59.08 64.32 66.72 67.13 67.52 68.00 68.32 68.54
55.56 55.46 55.44 55.54 55.75 55.46 54.78 54.32 54.50 54.98 55.90 57.32 59.74 56.76 50.66 57.81 58.03 56.64 56.65 57.31 61.99 59.76 60.12 59.29 58.96 56.91 54.47 56.55 56.43 53.76 51.68 47.85 55.11 57.23 58.31 59.62 54.26 61.44 63.15 64.92 65.17 66.70 67.57 68.18 68.24
55.07 54.95 54.89 54.89 54.70 54.33 53.25 53.35 55.01 56.87 57.40 60.19 56.83 55.29 52.96 64.62 57.88 58.21 57.80 57.09 58.58 59.01 59.48 61.68 57.47 53.80 53.81 50.15 47.72 48.89 45.88 48.44 51.80 57.68 58.39 58.08 53.81 60.76 62.21 63.66 63.24 64.92 66.06 67.17 67.73
54.70 54.55 54.33 54.27 53.77 53.13 52.50 52.97 54.99 57.19 58.95 61.00 60.41 53.60 58.53 56.71 59.19 59.58 59.79 59.81 56.87 55.90 56.12 55.89 53.13 49.37 49.42 46.36 42.51 44.81 46.14 49.01 50.32 55.52 57.73 56.13 55.14 59.33 61.82 61.95 62.83 63.92 64.78 65.69 66.45
54.53 54.10 53.87 53.64 53.07 52.13 50.23 48.55 50.72 50.13 55.63 55.40 54.87 54.63 54.50 58.12 61.37 59.13 59.66 57.66 56.19 53.07 49.28 52.25 47.74 46.49 47.71 48.82 50.14 50.67 49.71 49.85 52.80 57.90 58.44 57.18 56.97 59.11 59.35 60.52 60.90 62.99 63.55 64.51 65.63
54.18 53.91 53.66 53.15 52.53 51.42 50.11 49.46 51.66 50.45 46.00 51.27 51.32 53.54 58.73 60.38 56.91 58.02 60.14 54.16 52.98 49.76 51.82 48.83 46.84 50.72 52.78 51.89 50.28 50.19 49.36 49.48 53.18 57.96 57.90 57.35 56.94 59.41 59.08 58.56 60.81 62.69 63.37 64.10 65.41
54.19 53.60 53.19 52.53 51.31 51.82 48.28 48.76 53.75 52.44 44.18 47.43 50.39 50.15 50.79 53.52 54.47 56.37 57.72 55.61 52.84 50.13 50.40 47.27 49.95 54.14 52.17 50.67 49.98 49.19 48.21 49.56 50.43 57.05 58.40 57.28 54.46 55.46 58.74 61.15 62.02 63.15 64.23 64.98 64.97
54.13 53.50 52.77 51.62 50.17 48.15 48.88 54.86 55.25 53.03 39.14 45.04 48.25 50.54 51.58 51.73 50.01 57.00 59.81 56.07 53.70 50.03 50.66 48.84 53.15 52.13 50.46 49.13 49.63 46.77 52.43 52.62 52.17 51.38 50.16 58.16 48.23 53.47 59.27 61.41 61.88 62.89 62.55 63.84 65.16
53.97 53.17 51.77 51.24 46.67 46.83 52.49 54.24 53.86 50.37 33.05 51.42 51.12 55.48 51.84 48.60 50.86 53.84 59.89 54.84 51.75 52.20 49.41 47.65 50.45 50.56 49.35 48.87 50.17 48.81 53.43 52.62 52.44 50.75 51.61 53.61 48.91 53.25 58.25 56.26 57.93 61.44 62.65 63.26 64.49
53.48 52.38 51.39 49.34 48.75 50.37 53.06 53.10 50.95 38.87 34.49 48.03 52.34 50.31 47.93 48.86 49.69 52.22 54.64 55.32 53.67 52.39 52.02 51.20 53.72 51.39 51.12 52.64 51.36 51.97 51.08 51.32 51.64 49.98 45.21 50.75 51.26 49.19 54.21 56.36 57.95 62.16 63.04 63.53 64.24
52.42 50.99 49.59 50.19 45.34 52.18 51.85 49.48 37.51 34.84 49.33 48.74 48.72 50.71 48.82 47.42 48.03 49.03 49.04 48.02 46.07 43.31 44.30 48.39 50.35 53.18 53.19 49.30 50.12 49.25 43.71 42.32 41.71 42.96 41.51 49.39 50.58 52.52 57.36 59.56 61.62 62.40 62.47 65.16 65.04
50.82 49.34 50.14 52.21 53.00 52.01 49.82 41.29 33.48 44.22 43.84 49.82 49.40 50.26 48.44 49.79 48.62 48.99 48.55 45.89 48.77 47.07 43.61 42.43 41.88 50.25 53.18 49.85 46.96 46.76 45.54 42.23 36.22 39.87 42.86 48.33 46.88 52.35 59.37 61.62 63.21 63.64 63.98 64.97 65.79
49.83 48.52 48.35 51.16 53.77 52.44 45.51 35.67 38.23 43.03 47.28 46.73 45.94 46.37 47.59 50.55 50.40 48.58 48.15 47.17 48.38 48.66 44.37 43.53 44.11 52.72 53.35 53.33 51.02 46.17 44.20 47.52 40.76 43.86 41.52 45.59 48.43 53.09 59.70 59.37 61.51 61.96 64.02 64.63 63.99
46.71 46.15 47.71 53.23 55.49 50.46 42.10 37.06 41.58 46.59 46.56 45.10 39.53 44.64 41.14 43.61 45.68 48.76 47.51 51.13 50.39 51.42 51.88 47.46 42.53 50.62 52.91 53.06 52.11 48.54 48.55 42.63 44.62 37.50 38.55 44.49 45.55 48.10 53.59 57.59 59.50 60.28 60.97 62.94 63.56
46.03 42.56 49.30 52.73 52.95 46.22 37.63 39.32 43.05 47.04 47.75 44.58 43.18 42.52 43.40 43.38 44.44 43.93 46.90 51.65 52.98 52.93 52.53 49.96 46.96 47.05 50.11 48.56 47.37 47.68 45.65 44.11 43.52 44.19 40.01 39.40 44.83 50.84 54.20 59.35 59.11 60.41 61.86 62.63 63.97
44.16 36.94 49.77 50.87 39.97 44.34 40.32 43.29 44.69 45.83 48.68 46.99 46.98 45.23 43.76 44.58 43.26 43.98 44.31 46.88 53.84 53.79 49.98 50.61 46.68 43.39 46.07 51.30 52.73 50.50 46.33 44.76 41.80 37.95 41.95 42.75 44.16 53.81 54.68 59.78 61.08 61.09 61.51 62.23 61.68
39.95 40.42 48.58 48.30 34.96 37.88 42.51 43.39 45.21 43.86 43.81 43.71 44.05 46.80 47.65 44.40 41.79 45.12 46.43 50.93 51.18 50.27 51.18 51.15 46.78 41.36 43.59 46.85 50.08 48.61 49.30 46.78 46.93 42.50 40.84 39.04 44.08 53.57 54.15 56.82 58.98 60.64 61.57 61.55 61.62
41.19 34.84 41.73 44.60 44.26 39.95 38.82 38.69 38.08 44.33 43.42 44.35 43.93 45.14 43.51 42.62 45.47 43.57 45.11 49.87 51.53 50.10 59.35 55.97 47.79 45.67 42.38 43.92 46.82 46.97 48.93 49.32 46.28 42.82 42.61 43.44 44.53 48.81 52.19 55.71 57.00 59.73 61.23 61.86 63.53
42.88 37.37 40.45 34.05 37.63 37.67 39.15 38.76 36.65 36.68 42.23 42.03 41.27 41.28 39.46 36.64 40.50 41.45 44.58 43.54 47.22 53.05 51.68 47.78 46.17 47.36 48.37 49.64 49.60 48.41 49.16 49.22 46.73 46.29 42.96 44.11 45.30 47.63 50.80 57.67 57.76 58.83 60.29 59.84 61.14
39.01 37.25 39.74 36.57 38.29 37.18 37.69 36.88 36.72 38.09 39.00 37.72 37.97 40.78 40.21 38.63 40.12 37.70 40.35 40.98 39.93 44.98 43.17 46.01 44.66 47.49 45.98 49.89 49.35 47.98 50.04 51.05 49.44 48.99 48.25 48.29 47.75 50.61 52.60 56.64 59.83 59.66 60.30 58.01 58.41
46.12 44.84 40.62 36.90 35.58 34.34 35.39 36.55 36.64 38.86 40.60 41.43 40.24 39.87 38.31 41.33 43.54 43.21 43.59 43.55 43.53 42.15 41.23 42.36 43.19 44.14 41.36 47.92 47.83 45.03 48.14 49.54 50.65 51.36 50.07 46.68 49.87 51.30 51.49 52.61 55.28 59.09 59.93 58.61 60.11

GFSSW_sfc_wetblb_018.txt.gz
Wetbulb
56.44 56.44 56.33 56.35 56.57 56.83 56.99 57.31 57.57 57.61 57.59 57.67 57.92 58.21 58.95 59.26 58.77 58.18 54.55 59.38 62.83 76.12 75.57 71.59 70.57 69.26 70.87 69.20 68.00 67.81 55.49 52.97 53.87 56.51 60.22 64.77 63.33 66.91 67.98 65.46 66.62 67.78 66.47 67.98 69.63
56.02 56.02 55.95 56.05 56.44 56.61 56.90 56.82 57.07 57.06 57.10 57.24 57.49 57.79 58.52 59.11 55.68 53.98 60.85 69.67 71.29 74.07 64.25 65.57 65.25 65.41 62.46 63.76 65.51 60.38 53.38 56.16 60.14 60.15 60.74 64.31 64.50 65.15 64.21 64.01 64.61 65.63 68.12 69.23 69.66
55.84 55.61 55.54 55.81 56.07 56.09 56.41 56.39 56.46 56.50 56.50 56.56 57.01 57.47 58.43 58.49 52.70 53.02 72.81 70.69 71.63 73.42 63.72 61.53 58.91 60.95 59.50 60.21 58.88 60.30 55.64 59.96 61.31 62.55 63.74 64.25 64.69 66.05 63.69 61.63 64.38 64.11 66.05 67.93 68.49
55.69 55.50 55.35 55.43 55.87 56.02 56.25 56.15 56.14 56.14 56.04 56.34 56.87 57.48 58.70 55.92 41.76 57.17 74.09 74.08 71.72 68.12 62.77 59.24 55.50 50.36 49.07 50.08 54.68 54.76 59.77 60.40 62.20 63.50 61.46 63.16 65.71 64.49 64.82 64.73 67.44 67.78 67.94 67.91 67.43
55.30 55.22 55.48 55.32 55.37 55.70 55.90 56.11 56.11 55.64 55.80 56.02 56.67 57.76 53.88 49.77 51.62 57.24 72.40 72.98 69.42 65.37 60.61 57.26 53.17 50.59 48.76 51.16 54.03 54.87 57.80 61.73 63.36 62.47 60.53 61.77 63.11 64.69 64.91 67.15 68.62 68.58 68.40 67.50 67.27
55.93 55.96 55.82 55.80 55.91 56.04 56.26 56.11 55.81 55.48 55.40 55.85 56.49 57.49 51.37 42.11 52.49 55.74 58.72 64.93 63.07 60.31 58.18 56.07 54.17 53.93 51.64 52.56 52.29 55.85 56.18 56.70 61.15 61.92 61.72 58.78 60.91 62.66 65.18 67.66 67.88 67.81 67.35 67.74 67.60
55.55 55.61 55.39 55.55 55.66 55.79 55.66 55.08 55.20 55.10 55.28 56.16 56.72 56.68 52.58 46.78 54.50 55.82 59.18 60.08 60.64 60.55 56.59 56.95 56.82 53.75 53.15 52.28 55.70 55.73 52.46 54.41 55.68 60.71 60.51 62.34 58.65 61.68 66.03 67.15 66.65 66.87 67.46 67.59 68.04
55.28 55.24 55.32 55.30 55.24 55.16 54.60 54.08 54.43 55.02 56.12 56.93 57.57 55.66 47.62 56.72 56.22 54.14 54.25 53.31 55.81 59.35 58.98 58.01 57.15 54.39 52.56 54.77 53.26 50.18 48.40 45.85 52.20 56.00 60.78 58.77 53.47 62.94 66.58 65.57 64.94 66.56 67.15 67.20 67.61
54.99 55.13 55.09 54.95 54.60 54.04 53.31 53.38 54.51 57.03 57.34 58.82 54.65 52.19 48.58 62.62 57.24 57.28 54.57 53.49 54.23 55.52 57.55 60.54 54.97 51.76 51.41 48.36 44.88 45.67 43.61 45.65 48.74 56.84 60.31 57.00 53.14 60.01 66.21 65.25 64.39 65.08 66.35 67.23 67.44
54.88 54.80 54.61 54.27 53.71 52.96 52.44 52.96 53.64 56.37 58.53 59.72 59.37 50.05 52.59 53.30 59.31 57.04 55.08 55.47 54.56 55.54 54.94 54.64 51.08 47.74 45.51 43.69 39.67 42.54 43.19 45.38 46.78 52.19 57.20 54.61 53.89 59.25 65.28 64.83 64.52 65.09 65.50 66.16 66.26
54.90 54.44 54.28 53.75 52.98 51.95 50.22 45.85 46.49 45.00 52.24 51.33 51.70 52.17 53.83 56.40 60.63 56.81 57.07 54.95 54.52 51.39 47.24 49.49 45.46 45.34 45.57 46.36 47.46 47.21 46.14 45.92 49.62 53.90 54.91 55.31 55.29 58.17 62.71 64.09 63.85 64.38 64.94 65.38 66.23
54.67 54.30 53.97 53.35 52.53 51.40 48.37 45.86 47.99 48.45 41.14 49.16 50.47 52.94 56.04 56.09 54.03 57.48 57.70 52.03 50.63 47.16 47.33 45.66 44.54 47.90 50.36 49.35 47.71 47.10 45.80 46.11 49.33 52.11 54.99 54.71 55.36 57.91 60.50 61.95 63.52 63.67 64.31 65.14 66.15
54.44 54.03 53.44 52.74 51.55 48.13 44.36 45.08 50.51 49.49 39.52 44.57 48.86 48.67 48.81 51.20 49.80 52.17 54.68 52.70 49.69 46.73 47.11 44.60 46.95 51.41 50.46 49.24 47.24 46.18 44.82 45.92 46.18 50.25 55.92 55.82 53.78 56.11 57.95 58.86 61.88 63.74 64.59 65.32 65.69
54.13 53.89 52.95 51.56 45.50 45.91 45.97 50.03 50.88 50.05 35.47 41.44 44.42 47.38 48.87 49.39 46.32 53.89 57.14 53.95 51.08 47.62 48.64 46.47 50.88 49.85 49.11 48.63 48.00 41.66 48.96 49.02 48.50 46.18 43.37 53.99 44.82 54.30 56.50 57.58 59.69 61.50 62.52 63.71 64.95
53.97 53.46 52.02 51.10 44.07 44.31 48.29 49.74 50.51 44.13 32.00 49.35 47.50 51.79 48.66 46.74 48.35 50.10 54.99 52.91 50.25 49.19 47.65 45.64 48.28 48.32 48.22 49.04 50.24 46.37 49.54 49.29 49.30 46.52 42.94 48.32 46.06 50.23 55.85 55.57 57.90 60.09 61.63 63.39 64.66
53.52 52.58 51.53 46.80 44.28 46.82 49.22 48.45 44.81 36.76 31.57 44.69 49.39 45.97 44.81 45.41 46.80 50.34 52.11 54.16 53.25 50.25 50.08 48.21 51.31 50.30 49.93 51.63 51.47 51.37 46.74 46.66 46.19 45.99 39.87 46.07 49.63 46.97 52.38 55.98 58.95 61.08 62.29 62.84 64.24
52.39 50.97 49.98 49.26 41.86 47.07 48.19 44.46 34.33 30.69 45.33 45.78 44.04 45.46 43.48 43.58 45.23 45.69 50.28 49.12 47.28 40.46 42.81 48.23 49.42 50.39 50.39 46.89 49.00 46.90 40.64 36.88 36.69 37.79 39.22 45.22 45.87 49.78 56.16 59.19 60.56 61.21 60.45 62.80 64.34
50.49 49.68 48.60 48.34 47.00 47.52 44.79 37.03 28.64 40.08 40.70 45.70 44.04 45.12 43.65 43.91 44.09 45.34 44.29 47.48 49.48 42.82 40.07 41.24 41.05 47.09 50.81 48.86 44.79 43.34 42.71 38.58 32.85 33.85 38.08 44.28 42.01 49.13 56.82 61.34 62.20 62.46 61.53 62.94 63.19
49.67 44.33 44.53 44.50 48.22 46.50 38.72 30.53 32.45 38.22 42.97 42.00 42.48 39.90 40.86 44.33 43.03 43.68 43.37 44.18 47.43 48.28 41.40 38.21 40.96 48.35 50.31 50.64 49.95 45.27 39.91 44.77 37.86 37.99 37.16 41.31 45.20 49.68 54.51 58.69 60.97 61.13 61.65 62.25 62.97
45.22 41.11 42.38 48.46 48.47 43.63 35.03 33.00 35.74 43.19 43.90 43.51 36.80 39.87 37.19 39.95 40.57 41.13 39.97 45.82 46.50 48.99 48.98 43.54 38.11 45.71 49.35 50.06 50.34 46.19 46.26 40.21 35.71 34.18 34.81 38.14 41.53 44.24 48.74 52.90 57.38 60.12 61.31 62.68 63.70
42.16 36.56 43.27 47.26 44.71 39.04 32.74 33.08 39.67 44.30 45.22 41.56 39.51 38.68 40.23 39.85 41.08 40.28 41.16 45.46 48.08 47.88 48.73 46.60 41.82 43.22 46.17 45.02 46.03 45.53 43.35 40.25 40.88 37.84 37.29 33.71 41.23 47.60 49.33 52.00 56.19 60.15 62.50 63.28 63.92
38.36 31.71 43.67 47.29 32.99 33.12 34.21 37.51 42.34 42.05 44.94 43.26 43.49 42.47 40.67 41.30 40.01 40.99 41.24 43.96 49.65 48.48 43.54 46.40 43.31 40.93 43.83 47.80 50.29 49.60 45.69 41.83 40.15 36.09 38.15 41.73 42.37 50.54 51.19 52.56 57.44 60.57 62.90 63.94 64.70
35.52 35.06 43.28 40.99 28.22 30.23 35.13 38.80 40.52 40.18 40.03 40.14 39.24 40.94 41.82 38.65 36.66 41.25 42.96 48.49 47.43 46.48 43.64 46.29 41.79 39.66 38.80 41.91 43.77 44.70 46.79 46.47 38.90 38.20 40.01 37.69 40.14 49.32 48.95 52.68 57.72 58.35 59.91 62.20 63.74
36.12 31.46 34.07 36.50 37.19 33.16 32.45 35.27 35.35 41.80 40.67 41.17 39.52 41.36 39.42 37.07 38.44 38.16 40.33 45.75 46.06 45.76 51.46 45.75 42.13 40.37 40.72 43.26 44.04 42.14 46.28 46.16 45.01 41.40 41.37 41.88 40.83 45.07 47.02 49.88 52.88 55.74 60.53 59.83 60.96
36.35 31.94 34.11 29.18 31.89 33.96 35.14 35.31 34.27 33.73 38.86 39.58 36.90 38.43 37.78 33.82 36.63 36.87 41.19 41.30 44.34 47.41 44.08 40.22 33.65 40.10 43.44 46.72 47.26 46.14 46.32 46.97 44.45 45.80 42.52 44.65 41.58 44.11 46.12 47.49 51.15 54.03 58.47 59.54 59.52
37.60 36.11 36.96 34.34 33.38 31.78 34.08 33.75 33.38 34.84 36.66 35.28 35.83 38.21 37.61 34.09 36.79 35.98 38.89 36.35 37.19 41.13 39.37 39.08 34.39 39.03 41.35 46.80 47.59 46.23 47.88 48.31 47.71 47.38 46.12 44.23 42.92 47.07 48.96 49.12 52.16 55.80 57.33 57.63 58.31
44.35 44.01 39.48 36.17 31.93 28.43 29.52 32.56 33.22 36.62 38.44 40.08 38.85 37.39 36.06 37.38 40.78 41.50 41.91 40.67 39.54 37.71 37.05 36.07 34.70 35.42 34.53 44.17 46.00 42.75 47.10 47.34 47.23 48.24 47.34 42.97 45.60 48.11 48.52 50.39 51.67 52.86 56.80 58.34 57.16

GFSSW_sfc_wetblb_021.txt.gz
Wetbulb
56.46 56.31 56.25 56.18 56.54 56.76 56.95 57.12 57.21 57.27 57.25 57.36 57.50 57.59 57.91 58.58 58.34 57.12 50.80 57.36 59.92 76.33 77.21 74.80 72.24 71.53 71.22 69.29 68.34 66.60 53.36 51.56 52.69 54.92 59.29 63.61 62.50 66.05 67.15 64.28 65.47 66.86 65.34 66.62 69.07
56.12 56.10 55.91 55.84 56.12 56.31 56.62 56.79 56.90 56.99 56.95 56.90 57.06 57.31 57.79 58.48 54.62 52.80 60.26 68.68 70.40 75.82 72.53 70.28 66.87 69.11 65.55 65.76 66.38 60.96 52.27 54.10 57.99 59.15 61.47 63.67 63.81 64.15 63.63 63.25 63.85 64.75 67.29 68.67 68.91
55.89 55.76 55.69 55.71 55.91 56.06 56.16 56.43 56.51 56.62 56.64 56.47 56.70 57.19 57.73 57.75 50.89 48.63 70.66 68.89 72.35 75.39 68.96 68.25 66.75 65.70 60.17 59.37 64.40 61.85 55.57 58.40 60.70 62.31 64.83 63.42 63.71 64.90 62.91 60.83 63.36 62.69 65.27 67.03 67.23
55.46 55.45 55.42 55.49 55.54 55.54 55.84 56.01 55.94 56.03 56.05 56.12 56.49 56.94 58.07 55.27 40.82 53.81 74.85 73.05 72.57 70.07 61.26 58.80 55.63 54.70 53.62 56.42 59.65 54.14 60.67 61.63 61.23 63.66 64.41 62.83 64.78 62.96 63.49 62.82 66.33 66.27 66.76 66.81 66.19
55.11 55.14 55.15 55.26 55.23 55.26 55.45 55.46 55.56 55.34 55.45 56.06 56.10 56.65 52.88 47.87 47.96 53.20 72.98 72.11 70.10 63.01 58.81 55.83 52.41 51.01 47.17 48.63 52.62 56.41 57.18 57.95 61.57 61.48 64.84 65.28 63.60 63.47 63.13 66.29 67.36 67.21 66.78 66.19 66.58
55.59 55.80 55.94 55.94 56.06 55.70 55.88 55.71 55.59 54.97 55.26 55.88 56.23 56.30 48.98 39.33 50.71 55.10 54.96 64.34 64.11 61.60 58.26 55.84 53.47 52.23 49.91 49.74 49.95 53.54 54.58 55.27 57.36 58.98 62.60 63.46 63.53 63.91 64.49 66.90 66.34 66.25 65.74 66.31 66.68
55.77 55.85 55.71 55.71 56.02 56.06 55.58 54.91 55.08 54.91 55.34 56.25 56.60 55.02 51.29 44.73 52.04 54.33 56.07 58.23 60.63 60.64 55.19 56.26 55.34 52.17 50.76 49.04 52.90 53.61 51.11 52.45 53.40 54.92 59.99 64.56 59.65 61.49 65.41 66.32 65.27 65.45 65.85 66.47 66.90
55.81 55.73 55.60 55.62 55.58 55.33 54.48 53.94 54.12 55.22 57.04 57.25 57.51 53.95 44.06 54.51 54.69 52.46 52.14 50.51 58.96 58.61 56.75 56.60 56.12 52.10 50.76 52.94 51.74 48.22 47.09 45.02 51.10 52.98 59.27 59.77 53.40 62.80 65.38 65.01 64.03 65.08 65.70 65.96 66.52
55.51 55.47 55.39 55.19 54.92 54.26 53.21 53.29 54.49 57.27 57.68 58.21 53.95 49.99 45.11 60.05 56.22 55.30 52.85 51.60 51.98 53.11 56.28 60.31 53.78 50.16 50.00 47.55 43.49 43.82 42.36 44.73 47.68 52.12 57.59 56.40 52.08 62.32 65.06 64.74 63.75 64.68 65.29 65.80 66.09
55.32 55.10 54.85 54.69 54.11 53.11 52.38 53.19 53.31 56.02 58.85 58.43 58.28 47.91 51.05 50.70 58.37 56.67 53.49 53.80 51.77 51.39 53.11 52.71 49.76 45.52 43.39 42.61 39.32 41.60 41.97 43.54 45.04 51.92 56.38 53.25 52.70 61.78 63.86 64.32 64.03 64.62 65.34 65.61 65.85
55.03 54.67 54.28 54.07 53.27 51.94 50.35 46.43 44.68 43.51 48.98 48.94 49.89 50.02 51.31 54.57 58.40 56.10 53.69 51.97 51.92 50.69 46.36 48.66 45.39 41.51 44.77 45.17 46.60 45.88 44.33 44.43 47.47 52.26 53.91 54.92 52.88 60.04 63.07 63.21 63.51 64.10 64.74 65.21 65.54
54.67 54.34 54.01 53.38 52.24 51.78 46.78 42.77 45.28 44.07 38.83 47.07 47.02 48.47 52.80 53.53 50.23 52.39 54.67 48.83 48.64 44.81 46.57 44.16 43.36 47.09 49.25 47.68 46.62 45.56 44.07 44.38 46.60 50.41 50.44 51.11 52.69 58.98 62.32 62.55 63.39 63.79 64.52 65.17 66.01
54.30 53.91 53.48 52.64 51.62 46.90 43.94 43.88 48.46 44.83 36.86 42.96 46.49 46.30 47.19 50.37 48.65 49.87 52.30 50.26 47.70 45.51 45.01 43.98 44.64 49.44 48.79 47.11 45.39 42.93 42.81 44.87 44.40 48.34 50.85 52.35 50.09 53.99 61.70 63.23 64.03 64.48 65.15 65.74 65.80
54.01 53.62 52.74 51.48 44.37 44.85 44.53 47.41 47.58 46.92 34.01 40.84 42.76 45.73 47.32 49.46 46.47 53.11 55.44 51.81 48.38 46.59 46.52 44.12 48.29 48.23 47.00 46.25 46.43 40.15 46.34 47.29 46.19 43.98 40.02 51.27 43.25 50.03 53.73 60.20 62.05 63.06 64.22 64.94 65.38
53.40 52.78 51.37 50.87 42.96 42.71 45.88 47.57 48.67 41.45 30.87 48.37 44.83 49.69 46.59 45.57 46.23 48.19 54.92 51.69 47.96 46.74 45.88 43.90 46.21 46.49 45.64 47.26 47.52 45.64 48.41 46.96 46.69 43.28 40.15 44.50 43.57 47.27 53.60 54.34 57.66 61.21 63.04 64.66 65.49
52.70 51.85 51.11 46.34 43.08 45.27 46.99 46.44 42.12 35.36 30.09 43.77 46.70 43.77 42.65 43.76 45.27 48.39 49.69 51.86 52.30 48.13 47.03 47.24 49.90 49.17 47.88 49.53 49.56 50.07 46.22 43.86 43.07 40.95 36.06 43.65 43.61 43.72 50.39 54.13 56.55 59.76 62.03 63.82 64.84
51.45 50.19 49.41 48.59 40.88 44.75 46.29 41.98 32.94 29.05 43.47 42.68 41.04 42.94 41.88 41.76 43.73 45.25 46.38 46.13 45.07 41.88 42.59 45.51 47.87 47.64 49.69 45.94 47.60 46.16 39.92 35.16 33.12 34.30 36.81 42.04 41.81 46.16 52.05 58.17 58.54 58.62 60.71 63.08 64.10
50.05 49.25 47.45 47.40 44.96 45.64 41.72 35.57 26.92 38.43 37.59 43.09 42.65 42.49 40.67 42.37 42.12 43.43 45.76 44.88 48.46 43.20 41.57 41.55 39.15 47.30 48.18 46.52 44.40 42.46 42.05 33.37 29.37 30.92 35.90 41.04 39.12 44.47 53.79 57.93 60.90 61.49 61.52 62.58 63.42
49.44 44.36 41.59 43.85 47.39 44.22 36.70 28.46 30.83 35.51 41.66 40.66 41.51 38.11 38.39 41.65 41.54 41.83 39.39 45.92 48.25 45.17 41.04 38.57 40.69 47.30 50.78 49.24 48.44 42.25 40.80 44.18 35.57 34.48 34.17 38.34 42.80 47.62 51.89 54.31 57.08 59.61 61.39 61.58 62.66
44.16 39.86 39.63 46.22 45.63 40.90 33.97 30.79 33.47 41.40 42.06 41.54 35.36 38.42 34.70 38.00 38.58 38.82 38.95 43.24 44.05 48.70 44.43 41.74 36.46 43.38 48.24 49.20 48.32 46.88 45.10 39.10 32.81 32.67 32.73 35.21 38.77 41.14 46.49 51.10 54.57 57.66 58.49 60.12 62.52
38.99 34.95 41.23 44.56 41.17 36.54 29.58 30.88 37.48 42.52 43.36 39.19 36.92 36.16 37.22 37.65 39.23 37.44 39.24 43.54 46.41 45.62 46.12 41.18 39.22 41.10 43.97 42.61 44.19 41.96 42.11 37.67 38.40 36.34 35.84 33.02 38.61 45.40 48.34 50.41 52.49 56.16 60.12 61.10 61.30
35.71 30.18 41.77 43.14 31.86 29.69 29.29 33.26 40.65 40.32 42.21 40.08 40.47 39.08 37.63 38.60 36.91 37.47 38.92 42.69 46.79 45.98 41.00 42.39 35.23 39.30 41.01 45.65 48.43 46.34 44.99 40.23 37.88 35.22 34.21 39.04 39.96 47.15 50.11 51.22 51.76 54.53 58.30 61.37 62.71
33.61 32.17 41.75 39.36 28.40 27.81 32.38 36.54 39.79 38.40 37.87 38.39 37.51 38.94 40.35 36.66 33.92 39.35 40.17 46.14 46.13 43.90 42.27 42.89 35.61 32.88 35.86 39.09 42.09 42.50 43.47 45.54 41.39 38.10 40.61 36.03 38.24 46.53 49.15 49.09 53.22 54.46 56.71 59.36 61.40
34.88 30.53 33.19 34.10 33.88 30.75 30.57 32.30 34.21 40.65 39.02 38.83 37.84 39.75 37.80 36.03 37.47 35.94 37.78 44.38 44.17 44.08 49.57 41.89 34.53 34.60 34.27 36.86 40.92 40.92 44.38 45.28 43.80 39.30 41.62 41.77 40.49 43.16 46.30 47.38 49.79 55.31 57.11 58.76 60.96
36.61 30.54 31.77 28.14 30.81 31.43 32.56 32.68 33.26 32.33 38.78 39.23 35.32 37.43 36.29 30.42 34.68 34.87 38.70 40.11 41.72 45.71 41.99 37.74 31.42 34.65 38.05 41.19 42.77 43.03 43.04 45.61 42.32 44.43 41.73 44.36 40.83 44.60 45.78 46.87 48.44 50.95 54.51 56.80 59.53
36.58 36.13 37.74 34.11 34.67 33.64 31.20 31.46 33.13 33.51 34.35 34.39 35.68 36.22 35.05 32.30 33.71 31.75 35.71 35.10 35.35 39.51 36.89 36.53 33.60 34.91 36.23 42.42 43.77 42.73 44.67 45.52 45.92 45.83 44.43 44.29 41.53 45.59 48.42 47.66 47.02 48.68 50.09 55.40 57.69
41.77 43.15 38.99 35.82 34.61 32.06 30.48 30.69 32.14 34.43 37.40 38.59 36.40 35.02 33.54 36.12 38.61 38.49 39.09 38.81 37.73 35.62 34.06 34.32 33.40 32.48 30.40 38.64 39.52 38.64 44.10 45.52 46.37 46.75 46.20 43.37 44.95 46.22 46.27 46.51 47.31 48.90 51.09 53.68 56.86

GFSSW_sfc_wetblb_024.txt.gz
Wetbulb
56.37 56.37 56.33 56.32 56.57 56.79 56.83 57.08 57.23 57.36 57.57 57.40 57.50 57.52 57.65 58.24 58.06 56.01 48.64 55.20 57.77 73.61 76.07 73.10 71.45 69.86 70.82 68.96 68.58 66.50 53.48 50.54 51.65 54.97 56.23 62.80 61.54 65.02 66.22 63.18 64.64 65.70 64.43 65.83 68.47
56.20 56.03 55.96 56.01 56.11 56.16 56.30 56.53 56.78 56.91 56.91 56.99 57.11 57.17 57.36 58.10 54.32 51.01 59.17 67.52 72.92 76.41 72.62 69.08 67.97 68.94 66.35 66.32 66.62 61.81 53.57 53.61 57.31 57.69 59.69 62.87 62.94 63.42 62.65 61.88 63.04 63.73 66.07 67.55 68.19
55.92 55.75 55.75 55.75 55.94 55.99 56.11 56.09 56.05 56.09 56.22 56.31 56.68 56.94 57.21 57.36 49.08 47.34 68.84 67.89 76.11 76.63 73.06 70.71 70.02 68.09 63.21 62.41 64.64 62.09 57.03 58.21 58.97 60.24 63.35 62.47 62.77 64.01 61.98 59.53 62.60 61.69 63.98 66.37 66.60
55.77 55.66 55.61 55.63 55.91 55.85 55.89 56.02 55.87 55.76 55.88 56.02 56.30 56.73 57.11 53.91 40.64 60.67 73.72 70.31 75.53 72.67 70.79 67.44 66.29 61.48 57.82 58.35 62.90 55.24 59.58 62.14 59.93 62.43 62.90 62.27 63.57 62.16 62.87 62.36 65.72 65.33 65.97 66.35 65.98
55.83 55.75 55.70 55.52 55.74 55.77 55.82 55.77 55.63 55.31 55.55 55.72 56.15 56.46 52.16 46.14 45.81 67.00 72.19 70.69 72.95 64.30 64.39 60.79 62.47 56.43 49.01 52.79 57.35 56.79 58.38 58.31 59.70 60.03 62.94 63.99 62.81 62.90 62.86 65.56 66.33 66.18 66.36 65.82 66.08
56.34 56.37 56.22 56.24 56.09 55.99 56.05 56.01 55.66 54.94 55.09 55.70 56.31 56.11 46.98 37.14 48.81 53.78 67.30 67.76 68.60 62.43 56.94 55.59 54.77 53.31 49.41 48.46 50.78 51.66 55.39 55.22 54.11 54.56 58.39 61.59 62.68 63.19 63.90 65.87 64.98 65.56 65.26 65.72 65.70
55.98 56.01 56.05 55.99 56.08 55.89 55.75 54.94 54.67 54.49 55.34 56.39 56.83 53.95 49.76 42.01 50.41 51.29 61.02 59.95 62.81 60.58 55.46 55.52 54.28 52.89 50.45 47.98 50.95 50.87 49.28 51.37 52.36 52.93 57.24 62.96 59.21 60.71 64.38 65.23 64.08 64.32 64.97 65.34 65.79
55.55 55.63 55.66 55.44 55.61 55.30 54.38 53.77 54.39 55.44 57.31 58.11 57.60 52.43 41.98 51.45 53.51 51.75 50.47 52.32 60.37 58.83 54.97 56.80 54.73 50.43 48.65 50.75 50.20 46.62 45.73 43.35 49.60 52.42 56.50 61.37 54.84 62.17 64.51 63.95 63.30 64.06 64.48 65.11 65.89
55.43 55.43 55.35 55.23 54.73 54.07 52.78 53.44 55.12 58.82 58.35 58.26 52.04 48.02 43.06 58.06 54.19 53.00 50.70 49.07 52.61 55.57 56.16 58.69 53.53 49.26 48.27 45.57 42.50 42.37 41.05 43.54 46.74 51.86 54.95 58.70 53.48 60.72 64.41 63.51 62.91 63.65 64.02 64.76 65.33
54.84 54.72 54.64 54.49 53.75 52.78 52.10 53.40 53.90 57.70 57.01 56.91 56.45 45.97 50.04 49.85 55.65 56.26 51.18 51.84 50.22 51.46 51.70 52.23 48.10 44.52 42.19 41.65 37.72 40.12 40.60 41.88 44.16 50.07 54.44 56.05 51.65 58.22 63.08 63.08 62.83 63.64 64.09 64.38 64.77
54.43 54.14 53.90 53.32 52.76 51.66 49.90 44.32 42.52 41.81 42.95 48.82 48.44 48.51 51.25 52.88 55.21 53.19 52.40 50.56 51.07 48.10 44.41 47.02 43.46 41.68 42.49 43.32 45.10 45.06 43.31 43.52 46.10 50.66 52.75 52.48 53.21 58.63 61.89 62.71 62.36 63.01 63.60 64.17 64.81
54.08 53.63 53.40 52.66 51.79 51.61 45.08 42.99 42.67 41.96 37.21 45.25 44.81 46.73 52.48 50.76 48.53 50.88 52.67 47.40 46.63 43.52 46.04 42.43 43.15 46.36 47.79 46.08 45.88 44.74 43.26 42.83 45.38 48.93 47.02 47.76 52.10 58.19 61.12 61.88 63.00 63.42 63.52 64.17 65.11
53.69 53.34 52.78 51.92 51.38 45.21 42.49 42.69 46.17 42.62 35.04 41.48 44.82 45.19 46.05 48.02 46.55 47.80 50.19 47.89 45.12 43.74 45.46 44.35 44.02 49.25 48.37 45.31 43.90 41.66 42.53 42.68 43.66 46.68 47.57 49.93 48.08 51.08 60.33 61.74 63.66 64.35 64.90 65.46 65.19
53.69 53.15 52.06 50.92 43.17 43.20 41.31 44.60 45.05 45.00 32.28 39.57 41.24 44.81 47.49 47.15 43.71 51.83 52.50 49.78 46.31 45.04 43.74 42.95 47.15 47.70 45.23 45.36 45.24 38.03 45.09 46.20 45.19 42.11 38.97 48.85 39.86 48.62 54.72 59.23 61.19 62.71 64.05 64.74 65.54
53.34 52.81 51.24 50.61 42.08 40.63 42.88 45.70 46.11 39.02 29.66 46.82 42.12 47.97 45.96 44.42 44.75 47.06 53.00 49.89 45.54 44.80 44.95 42.90 44.50 45.06 44.24 45.39 46.28 44.90 46.78 45.48 44.85 41.69 38.75 41.95 41.53 44.05 52.81 55.99 58.63 61.49 62.97 64.69 65.97
52.75 52.01 51.06 45.38 42.03 43.74 44.97 44.78 39.76 34.98 29.07 42.42 44.13 42.02 41.47 42.54 43.90 46.76 48.97 50.59 50.05 46.16 44.97 45.76 47.88 48.09 46.42 47.81 47.81 48.13 44.85 41.93 40.46 38.80 34.83 40.52 41.43 39.59 47.98 54.78 59.23 61.91 63.40 64.33 65.20
51.51 50.40 49.06 47.68 40.24 43.98 44.45 39.43 31.51 28.36 41.62 40.42 39.39 41.74 40.65 40.45 42.02 43.28 44.32 45.20 44.25 39.39 39.37 43.51 46.36 46.09 47.74 44.30 45.32 44.68 40.02 33.09 32.05 32.82 36.18 40.11 40.08 44.90 48.82 56.06 58.10 60.84 62.69 64.27 65.51
49.87 49.09 45.74 46.18 45.08 43.62 40.06 34.32 25.09 36.34 35.17 41.48 41.36 40.99 38.38 40.89 40.97 42.33 41.54 43.09 45.26 43.17 40.21 39.18 37.10 45.66 46.92 45.15 42.56 41.19 39.03 32.84 28.99 29.42 35.42 39.18 37.45 42.01 49.99 56.12 59.23 59.94 61.33 63.16 64.25
49.26 42.02 40.93 42.79 45.46 42.36 36.00 26.30 28.36 32.66 39.71 38.24 39.58 36.59 36.87 40.18 39.67 39.89 38.37 41.34 46.01 41.82 40.34 38.13 39.88 46.95 47.94 47.09 48.06 40.65 40.35 41.61 34.05 32.60 32.39 35.92 40.41 46.65 50.37 50.48 55.60 58.09 59.27 59.91 62.13
43.21 39.98 38.26 44.76 43.10 39.68 33.18 28.88 31.42 39.45 40.29 39.16 33.11 36.94 33.39 36.29 36.99 36.86 37.36 42.19 42.44 45.69 42.89 40.11 36.84 43.36 48.47 48.44 47.14 43.40 43.64 37.91 32.40 30.46 28.78 33.96 36.38 40.66 45.62 49.64 52.17 55.16 57.79 59.87 61.32
37.63 33.77 39.69 44.05 40.51 35.11 25.75 28.61 34.46 40.45 41.39 36.69 34.57 34.00 35.36 35.03 36.42 35.15 37.52 41.96 44.43 44.13 44.33 39.20 36.99 38.03 43.41 43.36 44.96 40.58 39.46 36.33 38.72 34.32 31.84 29.58 36.12 43.23 46.78 49.07 50.38 53.78 58.00 59.71 60.94
33.86 28.93 40.11 40.95 30.21 28.49 26.06 31.47 37.77 38.02 40.07 38.28 38.52 37.19 35.97 37.41 35.35 35.80 37.61 40.72 45.19 44.75 40.20 40.89 33.66 36.60 39.02 42.62 47.05 48.55 44.06 38.62 37.92 34.56 32.77 33.48 38.29 46.24 47.05 49.89 51.08 52.59 56.89 59.56 60.52
32.45 33.74 40.18 38.30 25.28 25.88 31.90 34.08 37.04 36.66 36.61 35.93 35.62 38.01 38.60 35.29 32.20 37.99 38.76 44.31 44.20 42.05 41.09 41.21 33.74 30.77 33.75 39.35 41.68 39.86 44.78 41.17 43.57 36.84 37.90 35.34 38.95 47.75 46.92 48.07 50.01 51.13 53.31 56.43 59.69
33.26 29.79 32.25 34.46 31.47 28.57 30.68 29.13 32.18 39.52 38.38 38.29 36.50 38.71 36.43 34.43 36.34 34.66 37.43 42.89 43.55 44.23 47.99 41.47 33.00 32.13 30.57 33.96 38.27 37.54 40.95 42.09 42.72 40.10 41.07 40.62 42.13 43.56 46.07 47.05 48.85 50.64 53.53 54.81 57.07
33.76 28.72 32.77 27.31 29.05 33.15 33.10 30.19 31.78 31.06 36.71 38.46 36.78 36.18 32.20 29.20 32.56 32.58 36.04 37.87 41.07 43.78 40.09 36.82 32.13 33.51 35.92 39.26 40.50 40.26 40.67 41.73 39.97 42.84 40.19 43.56 43.73 45.24 46.10 47.02 49.18 50.00 54.06 55.65 57.58
35.10 36.24 37.36 34.64 34.74 33.39 32.78 27.37 30.08 32.53 32.74 32.33 35.15 35.69 35.05 29.66 32.02 30.27 32.89 33.20 34.30 37.71 34.76 34.93 31.85 33.21 34.11 40.09 40.31 38.49 41.63 43.01 43.36 42.56 42.48 44.41 42.31 45.76 48.06 47.95 48.47 49.25 50.75 52.08 55.30
42.43 41.65 38.18 36.05 32.41 29.33 29.00 30.71 31.31 32.94 34.57 37.08 35.93 33.66 32.37 34.56 37.36 36.90 36.34 36.07 36.28 34.84 33.06 32.30 32.50 31.74 29.38 36.63 37.73 36.01 41.43 42.91 43.03 44.00 44.05 41.14 44.94 47.63 45.94 46.92 48.19 49.69 49.99 50.20 52.09

GFSSW_sfc_wetblb_027.txt.gz
Wetbulb
56.64 56.53 56.57 56.51 56.64 56.74 56.87 56.95 56.97 57.10 57.14 57.40 57.32 57.48 57.73 58.28 57.84 56.74 51.42 56.74 58.55 73.41 74.37 71.85 70.86 70.60 71.85 69.49 70.28 67.90 61.09 57.87 57.03 59.30 60.34 65.90 64.30 66.72 67.94 65.17 65.80 66.86 66.14 67.98 70.28
56.72 56.59 56.42 56.50 56.65 56.61 56.80 56.84 56.88 56.82 56.99 56.86 56.98 57.25 57.50 57.91 54.87 52.31 60.57 65.68 68.01 75.69 70.77 68.00 66.61 68.81 67.24 67.70 68.65 65.89 61.01 58.87 61.44 62.01 61.72 65.20 65.59 65.53 64.56 63.97 64.32 65.54 67.74 69.08 69.71
56.55 56.23 56.20 56.41 56.50 56.50 56.50 56.71 56.67 56.69 56.71 56.66 56.70 57.04 57.20 57.36 51.33 50.89 68.13 66.93 72.25 75.37 70.81 70.05 69.75 67.88 64.98 65.98 66.94 65.96 60.34 62.99 61.93 62.92 64.48 65.39 65.26 66.81 64.30 61.94 64.90 64.49 65.86 67.73 68.43
56.20 56.02 56.18 56.29 56.32 56.28 56.22 56.39 56.44 56.33 56.44 56.39 56.53 56.68 56.93 55.16 45.10 61.77 74.20 68.82 74.78 72.67 70.70 69.53 68.43 64.89 62.87 62.01 66.64 61.57 63.91 63.42 63.20 63.78 65.35 64.87 66.72 65.04 64.97 64.05 67.11 67.87 67.80 67.87 67.57
55.82 55.78 55.70 55.76 55.77 55.80 56.20 56.44 56.48 55.90 55.85 56.22 56.32 56.25 54.34 50.06 47.59 66.71 72.01 71.52 74.25 71.22 67.90 66.95 65.86 64.39 60.72 62.78 62.53 62.67 61.96 62.42 63.86 62.88 61.72 66.73 65.31 65.36 65.10 67.20 68.57 68.27 67.50 67.14 67.41
55.68 55.99 56.02 56.02 56.11 56.15 56.21 55.73 55.42 55.09 55.45 56.13 56.03 55.64 50.41 41.72 51.36 63.61 65.74 70.78 71.31 69.48 66.99 67.03 66.22 65.06 58.44 56.01 59.33 58.53 58.37 57.48 57.89 57.71 59.42 63.75 64.34 65.55 66.56 68.13 67.15 66.92 66.69 67.31 67.65
55.30 55.56 55.71 55.71 55.54 55.55 55.46 54.77 54.40 54.78 55.55 56.23 56.38 54.33 50.36 46.68 52.88 61.14 67.49 68.81 70.21 67.30 65.05 65.44 64.25 63.25 58.17 52.67 55.75 54.09 51.14 53.34 54.61 56.60 56.69 62.07 60.71 62.56 67.13 67.67 65.94 66.01 66.56 67.27 67.81
54.51 54.92 55.18 55.16 55.24 54.92 54.09 53.63 54.74 58.49 57.63 56.54 57.46 53.92 46.66 53.08 55.08 52.82 64.14 60.78 69.63 66.45 63.84 63.32 60.44 63.04 54.39 54.81 53.45 51.77 52.25 49.66 54.09 55.41 56.75 59.86 53.34 62.39 67.27 66.57 65.63 65.63 66.16 66.84 67.91
54.66 54.66 54.82 54.66 54.27 53.44 52.61 53.28 56.02 59.28 59.47 58.17 53.71 52.12 46.08 58.51 52.54 53.36 55.74 57.63 64.14 64.28 60.54 61.53 59.12 55.19 53.50 50.27 47.95 49.85 47.80 49.02 51.31 55.99 58.70 59.70 55.44 61.24 67.14 66.54 65.67 65.26 65.95 66.57 67.52
54.59 54.39 54.16 53.90 53.26 52.26 52.18 52.37 55.96 58.15 57.20 57.67 55.05 48.90 50.70 50.76 55.79 54.08 54.45 58.82 57.81 58.57 56.47 55.37 54.56 51.75 51.03 48.73 43.38 45.54 46.50 48.72 49.76 53.81 55.31 57.88 57.86 60.69 65.91 66.14 65.77 65.77 66.21 66.55 66.80
54.55 54.24 53.77 53.21 52.37 51.44 50.75 50.97 48.18 47.59 47.10 52.26 52.56 50.05 53.20 55.00 59.47 55.07 52.87 53.75 54.92 54.10 49.13 52.89 48.95 46.81 48.62 49.79 49.69 48.40 48.18 48.85 51.12 53.80 55.27 55.08 56.68 60.52 65.14 65.78 65.56 65.83 65.98 66.31 67.12
53.96 53.87 53.58 52.89 51.76 51.42 49.62 46.35 44.14 44.80 40.13 47.77 46.24 48.78 53.66 54.00 50.39 53.65 53.29 49.55 49.64 47.35 50.67 49.12 46.64 50.45 51.25 50.51 49.25 48.01 47.17 48.36 50.88 52.77 53.29 54.16 55.87 59.86 63.93 64.96 66.08 66.03 66.13 66.30 67.59
53.69 53.34 52.84 52.21 51.45 48.37 46.32 45.52 48.89 48.13 40.64 45.11 47.09 47.21 49.09 50.73 49.07 51.53 51.81 50.54 48.54 47.57 47.92 47.65 49.05 51.73 50.19 49.20 48.06 47.93 46.54 47.64 48.69 51.06 52.22 53.27 52.29 55.80 62.41 64.85 66.42 67.28 67.87 67.17 67.73
53.28 52.99 51.96 51.09 47.47 46.15 45.38 47.75 48.80 47.72 39.49 44.49 44.49 47.47 48.61 50.43 47.62 53.80 54.64 52.66 49.34 46.99 48.34 48.51 51.90 49.99 49.09 48.40 49.48 45.78 49.62 49.07 48.69 48.46 46.23 53.37 46.80 53.90 57.50 61.70 63.90 65.85 66.75 67.47 68.15
53.05 52.12 51.01 50.24 46.16 44.90 47.24 48.78 49.43 45.70 34.42 47.27 44.81 51.20 50.25 48.82 48.75 49.45 54.67 53.17 48.85 48.25 49.09 47.16 48.73 48.52 47.88 48.58 50.91 48.01 51.11 49.59 49.75 48.82 48.28 49.00 47.81 52.23 57.42 58.26 61.69 64.47 66.27 67.42 68.59
52.25 51.17 50.87 47.63 47.09 48.02 48.72 48.11 46.33 39.07 33.52 44.68 45.86 44.89 45.64 47.54 47.31 49.84 50.71 54.91 53.87 49.51 49.94 49.58 51.93 51.71 50.76 51.98 51.88 52.79 50.33 49.60 48.86 48.55 42.98 47.87 47.33 49.21 52.83 57.24 61.45 64.53 66.23 67.54 68.51
50.99 49.90 49.27 48.83 44.45 49.04 47.66 45.41 38.13 34.31 44.72 42.07 42.95 45.49 44.73 44.58 45.14 47.15 47.43 48.27 47.89 44.39 44.87 48.31 48.58 51.13 52.37 49.19 51.38 50.95 48.08 42.65 40.92 41.04 41.32 49.75 46.80 49.58 54.82 58.62 59.15 62.84 65.52 67.17 68.63
49.46 48.72 47.15 48.05 49.44 47.68 46.80 40.27 32.07 38.15 38.68 43.24 43.30 43.95 42.57 44.45 44.93 45.48 46.30 45.98 50.95 49.10 46.32 43.77 41.80 48.94 51.26 49.95 47.97 48.62 48.18 42.63 37.46 39.33 42.06 48.34 44.79 49.43 55.47 57.64 61.20 62.60 65.63 67.38 68.21
48.89 46.73 46.31 48.00 48.09 47.17 43.32 32.35 33.69 36.34 38.79 38.28 41.52 40.62 41.34 43.38 43.45 44.03 44.42 46.17 49.68 49.80 45.99 44.37 44.40 50.29 51.14 51.74 51.30 47.78 46.01 49.86 44.06 43.38 42.63 45.57 48.94 52.48 54.85 55.86 58.86 61.35 62.69 65.58 67.58
45.61 42.47 43.72 47.39 46.97 46.66 39.66 32.40 35.73 40.14 40.66 40.87 35.66 39.33 37.51 40.53 41.75 42.62 43.48 44.56 45.82 47.82 49.11 48.62 44.61 50.02 50.56 52.12 51.69 49.52 51.19 43.77 45.33 38.90 38.21 43.45 44.73 47.17 52.92 54.47 56.53 58.59 61.06 63.19 65.12
43.51 39.32 45.33 47.22 46.30 41.50 32.94 32.94 35.50 40.89 41.83 38.82 37.65 37.01 38.77 38.41 40.59 40.25 41.43 43.74 44.66 46.10 48.96 47.35 45.92 45.30 50.30 48.32 47.73 46.88 46.63 48.00 47.79 45.64 41.15 39.92 43.78 52.90 55.04 57.84 57.46 58.47 60.36 62.36 63.99
41.04 35.44 45.81 45.69 36.72 36.47 33.05 34.90 37.99 38.87 42.07 39.67 40.58 39.66 38.72 39.77 39.32 40.31 40.42 42.65 45.56 47.13 44.33 46.05 45.19 44.68 46.31 51.55 52.61 50.92 49.11 48.70 44.15 43.20 44.91 44.67 44.68 53.10 55.36 56.98 58.35 58.69 60.23 62.71 65.20
37.91 36.88 45.64 45.28 30.61 31.59 35.13 34.91 36.81 37.93 38.40 38.66 37.42 40.39 41.51 39.20 36.92 39.96 41.46 45.21 45.76 46.78 44.30 46.05 43.24 42.70 44.43 47.97 49.14 48.74 50.52 49.86 49.78 49.25 44.86 42.14 45.04 54.28 54.87 54.68 56.93 57.50 59.44 61.52 63.67
40.15 33.83 39.38 40.12 38.42 32.94 31.31 32.65 32.90 39.58 38.35 39.23 38.57 39.82 38.07 38.01 40.56 38.01 39.19 43.09 44.22 45.65 47.75 46.53 43.02 42.83 42.87 44.79 44.97 43.85 45.91 49.56 48.52 45.64 45.77 46.30 47.87 51.43 53.17 53.88 56.34 58.16 59.60 60.63 62.53
40.87 35.54 37.46 31.92 34.48 34.95 35.28 33.14 32.07 32.83 37.10 38.92 36.76 35.83 34.37 33.77 35.84 36.20 38.58 40.05 42.50 44.68 44.42 44.56 39.42 41.24 41.92 42.61 43.27 43.53 44.08 45.30 45.02 47.96 46.38 48.19 48.94 51.52 53.83 55.45 57.24 58.52 59.87 59.79 61.40
38.97 37.49 38.78 35.01 36.79 34.74 34.31 32.82 31.95 33.63 34.06 32.91 33.82 35.43 35.47 33.87 34.61 34.09 36.26 37.98 37.59 42.23 41.19 43.11 38.96 40.18 38.98 42.12 43.35 41.94 44.45 44.91 45.66 46.35 46.54 47.29 47.76 53.92 54.28 57.27 57.66 58.01 59.50 60.39 60.02
45.31 43.87 38.89 35.27 35.64 33.28 32.91 33.60 33.40 35.25 36.59 37.20 35.70 33.95 33.43 35.07 38.97 39.89 40.80 40.77 40.05 38.24 38.30 38.73 38.75 37.45 35.31 40.50 40.60 39.40 43.84 45.41 46.57 48.14 48.01 45.22 49.84 53.36 53.26 54.46 55.88 58.18 59.88 60.94 61.49

GFSSW_sfc_wetblb_030.txt.gz
Wetbulb
57.26 57.11 56.96 57.02 57.13 57.30 57.34 57.55 57.62 57.75 57.73 57.85 57.70 57.67 57.92 58.43 58.11 59.38 54.55 60.00 60.98 73.13 74.75 72.17 73.21 72.96 73.09 70.89 71.96 71.07 63.83 60.23 60.36 60.78 62.82 68.13 66.38 68.65 69.39 67.49 68.05 68.63 69.06 70.85 72.22
56.90 56.79 56.74 56.83 56.92 57.02 57.15 57.00 57.21 57.30 57.36 57.44 57.45 57.52 57.60 57.86 57.75 55.02 63.62 68.57 68.26 76.14 69.82 69.12 69.44 70.24 68.44 68.63 69.73 67.40 62.84 60.73 63.23 63.06 63.07 66.89 67.09 67.65 66.56 66.15 66.59 67.65 70.32 71.45 72.07
56.49 56.44 56.33 56.27 56.51 56.45 56.51 56.70 56.66 56.81 56.84 56.95 57.28 57.24 57.39 58.19 54.82 54.16 68.52 68.13 70.46 75.05 67.82 70.00 69.61 68.38 65.28 67.68 67.84 66.72 62.42 63.49 62.81 63.96 64.99 66.79 67.13 68.98 66.03 64.30 67.05 66.97 68.63 70.36 70.87
56.00 55.72 55.86 55.80 56.00 55.96 56.05 56.38 56.33 56.15 56.28 56.53 56.83 57.01 57.23 57.89 48.25 59.94 73.97 68.61 72.44 68.56 66.09 66.61 67.32 64.71 63.11 63.17 66.98 63.36 64.93 64.57 64.09 63.81 63.86 64.61 68.24 67.01 67.28 66.02 69.42 70.25 70.46 70.58 70.20
55.16 55.36 55.76 55.74 55.34 55.60 56.01 56.42 56.02 55.43 55.62 56.01 56.57 56.46 57.33 53.19 51.51 60.74 70.66 68.98 69.70 66.06 64.27 64.28 64.92 63.80 60.96 63.58 64.54 64.27 63.42 63.25 64.72 64.11 62.95 63.39 65.45 65.91 67.05 69.01 70.08 70.80 70.17 70.13 70.46
54.93 55.40 55.64 55.72 55.84 55.78 56.08 55.52 55.24 54.78 55.56 56.12 56.24 56.17 54.86 47.73 55.78 56.73 64.23 65.07 67.33 65.89 64.25 65.39 65.15 65.26 62.41 62.40 62.80 62.02 63.64 62.67 61.63 60.41 61.02 59.57 63.94 66.07 67.27 70.11 69.61 69.60 69.40 70.16 70.28
55.21 55.55 55.54 55.71 55.78 55.72 55.41 54.70 54.01 55.26 57.82 57.83 56.81 56.93 53.85 53.16 55.20 57.94 65.29 67.18 69.04 67.39 63.59 65.97 66.74 65.29 61.53 59.13 59.79 61.41 55.03 56.77 57.34 58.42 58.56 60.73 60.30 62.82 66.97 69.93 69.04 68.90 69.34 69.71 70.33
55.16 55.34 55.52 55.42 55.57 54.93 54.08 53.78 54.43 58.24 58.87 57.03 57.64 56.94 52.87 57.40 58.69 59.74 64.47 66.88 70.03 68.81 65.81 66.93 65.36 66.14 60.65 58.38 55.91 55.10 55.61 53.32 58.49 58.42 58.73 59.02 56.67 62.70 67.40 68.75 68.37 68.88 68.67 68.93 69.97
54.90 54.96 54.80 54.88 54.47 53.97 52.78 53.62 56.69 59.55 58.41 58.28 57.27 56.09 52.58 58.02 52.39 56.06 64.87 62.82 67.84 66.54 66.60 65.40 64.42 60.71 60.87 56.13 52.83 54.02 52.45 54.71 56.54 58.80 58.95 58.61 57.72 61.61 66.86 68.16 68.04 68.77 68.44 68.77 69.40
54.57 54.22 54.20 53.93 53.64 52.84 52.29 53.49 57.93 59.18 59.43 60.08 57.95 52.12 54.30 52.61 55.77 54.53 59.14 60.65 64.93 62.55 59.62 59.35 57.15 54.27 55.62 53.31 48.71 51.20 51.60 54.87 55.49 57.93 58.10 58.25 58.70 61.25 66.21 66.92 67.46 68.56 68.72 68.97 69.25
54.34 53.79 53.66 53.33 52.77 51.77 52.79 55.20 54.21 54.30 52.60 55.14 57.03 54.13 55.08 56.60 59.45 54.05 55.27 59.67 61.87 60.13 53.00 55.17 51.48 49.31 51.25 53.36 54.01 54.45 53.57 53.37 56.20 58.42 56.47 57.18 57.86 60.03 64.35 66.37 66.77 68.34 68.64 69.06 69.58
53.87 53.64 53.13 52.53 51.93 51.85 55.01 50.08 46.89 47.03 43.37 51.07 51.03 53.44 58.43 58.08 55.01 54.89 55.57 55.33 54.61 53.12 54.54 52.05 49.21 52.89 53.55 53.02 52.26 52.27 51.48 52.29 55.81 56.88 55.93 57.60 57.62 59.94 62.71 65.91 66.99 68.09 68.71 69.38 70.12
53.72 53.13 52.42 51.80 51.53 53.21 51.69 48.98 53.20 52.37 45.03 49.73 52.05 51.39 52.58 55.10 53.67 53.76 54.49 54.53 52.64 52.02 51.54 50.13 51.20 53.46 52.26 51.63 50.56 50.89 50.92 52.07 52.61 55.43 56.01 55.10 54.59 57.10 60.19 65.69 67.21 68.48 69.55 70.21 70.28
53.52 52.84 51.72 50.51 51.74 51.87 50.30 53.14 53.97 52.58 43.49 47.46 48.39 51.23 52.85 54.53 51.39 57.87 54.32 53.98 52.17 50.62 51.31 51.08 53.65 51.73 51.25 50.08 51.02 48.80 52.36 52.00 51.67 51.74 49.35 56.06 49.88 56.97 58.98 61.41 64.51 66.61 68.55 69.24 70.51
53.25 52.13 51.02 49.87 51.05 49.08 50.58 53.51 53.42 51.20 37.26 49.89 48.64 54.43 53.10 52.56 54.75 53.43 57.40 52.68 49.90 50.85 51.67 49.42 50.39 50.89 50.03 50.88 52.49 49.98 52.34 51.55 51.30 50.67 51.40 52.18 51.01 54.66 58.74 57.62 60.77 64.12 66.94 69.03 70.55
52.53 51.29 50.38 52.02 52.76 52.03 53.43 53.21 52.03 41.63 36.41 47.04 48.34 47.82 48.21 50.70 51.21 53.90 54.31 54.88 54.01 51.73 52.39 51.75 54.53 53.42 52.95 53.47 53.20 53.37 51.55 51.50 51.47 49.82 45.75 51.00 51.34 52.32 55.57 58.45 60.11 63.26 66.26 68.71 69.96
51.21 49.78 51.27 52.08 48.30 53.03 52.83 50.37 40.21 37.23 46.77 44.71 45.80 48.36 48.65 48.39 49.48 50.54 50.55 50.32 50.04 47.31 47.43 50.24 51.06 53.27 53.96 51.64 53.52 52.27 50.27 45.19 43.86 44.11 44.04 52.01 50.48 52.86 57.18 59.52 60.76 61.91 64.13 68.52 70.21
49.68 48.48 51.36 52.10 53.30 52.85 50.68 43.93 34.30 40.99 42.10 46.27 45.37 46.80 45.98 48.71 48.50 48.91 49.36 48.67 51.61 51.88 49.60 46.70 44.85 50.86 53.68 52.32 51.01 50.94 50.30 45.85 41.48 42.66 44.98 51.12 47.86 52.16 58.30 60.06 61.02 62.45 63.30 67.11 69.40
48.90 51.94 51.39 51.75 52.85 52.76 46.19 36.63 37.45 40.09 42.37 41.56 44.58 44.18 46.63 47.40 47.53 48.16 48.14 49.24 51.21 53.27 49.05 48.41 47.99 52.48 53.45 54.06 53.77 51.20 49.13 52.04 47.26 48.66 45.98 48.70 51.14 54.70 57.46 58.50 59.66 60.45 62.14 63.23 67.90
49.79 49.14 49.36 52.39 52.85 50.33 42.42 35.71 39.46 42.27 42.71 43.32 39.84 43.14 41.97 44.57 45.51 46.88 47.80 48.90 50.93 53.69 54.37 52.49 48.32 52.12 52.33 53.99 53.86 52.95 53.74 47.42 48.30 43.15 42.39 46.40 48.56 49.61 54.48 56.25 58.81 59.65 61.45 63.67 67.41
49.48 45.12 49.56 52.47 51.58 45.14 37.18 37.07 39.18 42.91 43.36 40.80 40.29 40.51 42.75 42.82 44.55 45.57 46.60 46.89 48.77 49.36 52.46 52.84 51.46 51.25 52.56 50.49 49.91 50.51 49.96 50.73 50.49 48.61 44.99 44.25 48.15 55.62 55.77 57.83 58.05 59.81 62.19 63.69 66.39
47.57 40.57 50.10 51.81 42.63 42.37 37.77 38.39 39.39 40.79 43.44 42.46 42.95 41.48 41.76 43.11 43.34 44.60 45.14 46.89 48.83 50.48 49.43 52.96 51.39 48.99 49.64 53.31 53.99 53.04 51.42 51.37 46.88 46.85 48.39 48.49 49.09 55.34 56.00 57.23 59.27 59.96 61.92 63.99 66.12
44.07 44.29 50.73 49.14 36.26 36.97 39.39 38.78 40.12 39.79 40.34 40.08 40.10 42.84 43.74 42.31 40.47 43.43 44.98 47.09 47.84 49.51 48.96 51.58 49.03 46.41 48.67 51.58 53.46 51.37 52.15 52.86 52.11 51.98 49.40 46.43 49.29 56.65 57.24 57.33 59.48 60.08 61.19 62.92 64.43
44.40 39.09 44.93 46.02 45.32 39.08 36.83 37.17 36.77 41.24 39.64 40.58 39.94 41.29 41.27 40.95 43.56 41.42 43.07 45.30 46.61 47.08 48.16 49.34 50.43 49.05 46.51 49.20 51.76 49.80 51.20 52.22 51.47 48.71 49.11 50.09 51.37 54.12 54.81 56.15 57.31 58.85 60.50 61.46 63.87
45.27 39.81 40.88 36.80 38.74 38.86 38.00 38.00 35.68 34.81 39.94 40.82 38.20 36.47 35.72 36.53 39.25 40.38 42.09 44.10 45.73 47.27 48.10 48.44 46.70 47.72 50.43 47.72 47.82 50.53 50.62 51.47 50.86 51.63 49.32 51.41 51.96 54.67 56.43 57.11 58.31 59.65 60.51 61.09 61.91
41.20 38.67 43.24 39.40 40.15 37.07 37.06 36.01 35.37 35.78 35.92 36.05 35.36 36.94 36.15 34.46 35.84 34.14 38.81 42.18 42.09 45.57 45.54 46.94 44.32 46.04 45.21 47.35 46.91 46.32 48.97 49.92 51.02 52.06 52.45 52.49 52.42 57.25 58.52 58.35 58.71 59.44 60.05 60.03 60.96
48.72 47.61 42.70 36.72 38.64 36.37 35.96 36.61 35.24 36.87 39.39 39.18 38.74 37.61 37.03 37.59 41.15 42.58 44.10 44.05 43.81 42.29 42.80 43.09 43.66 42.83 42.77 46.79 45.96 43.49 47.97 49.13 50.44 52.00 51.80 49.42 53.77 56.81 56.26 57.04 58.23 58.79 59.44 59.85 61.49

GFSSW_sfc_wetblb_033.txt.gz
Wetbulb
57.04 56.89 56.74 56.80 56.89 57.02 57.08 57.31 57.61 57.67 57.84 57.95 57.98 58.10 58.10 58.55 58.33 59.74 56.14 62.19 64.35 70.53 72.93 69.82 71.36 72.60 72.90 70.77 72.02 71.90 62.79 60.64 59.58 59.46 62.60 66.05 64.29 67.91 69.96 68.58 69.42 69.83 70.41 71.40 72.39
56.38 56.48 56.27 56.18 56.42 56.51 56.59 56.70 56.87 57.10 57.35 57.41 57.57 57.83 58.02 58.24 58.20 56.28 64.93 71.37 71.16 72.44 69.37 67.21 68.28 70.87 68.97 68.26 69.26 67.10 58.40 60.12 63.69 63.45 63.19 65.74 64.74 65.79 66.63 66.92 67.46 69.24 71.88 72.07 72.65
56.06 55.93 55.90 55.76 56.02 56.07 56.27 56.35 56.42 56.60 56.62 56.80 57.23 57.40 57.68 58.57 57.09 56.53 72.40 70.75 72.02 74.28 65.17 68.41 69.23 69.63 66.21 67.03 67.14 66.68 60.77 62.85 63.57 64.58 66.20 65.81 65.33 66.49 65.46 64.80 67.55 68.18 69.97 71.09 71.53
55.56 55.58 55.58 55.73 55.80 55.84 55.99 55.99 55.91 55.94 56.09 56.27 56.88 57.08 57.49 59.07 50.47 64.35 71.63 70.59 71.58 67.55 63.00 66.11 66.61 66.16 64.18 63.35 66.59 63.45 65.88 64.51 64.42 64.69 64.61 64.74 66.77 66.00 65.46 65.46 69.78 71.01 71.58 71.46 70.68
55.30 55.51 56.05 55.99 55.82 55.95 56.50 56.61 55.82 55.24 55.37 55.96 56.53 56.99 57.56 55.73 54.11 66.48 72.88 70.00 63.56 64.41 60.93 64.39 64.25 65.34 62.52 63.44 64.80 63.78 64.90 65.61 65.68 64.74 63.87 65.31 65.45 65.58 66.17 67.71 69.82 71.37 71.53 71.22 71.28
55.42 55.89 56.01 55.93 55.98 56.23 56.19 55.83 55.42 54.85 55.58 56.85 57.34 56.93 56.81 52.75 60.60 60.41 62.51 64.15 62.53 64.46 60.54 63.65 63.73 66.18 64.10 63.32 63.25 64.91 64.80 64.71 64.88 64.41 63.76 61.89 64.50 66.00 68.03 69.49 69.75 70.23 70.57 71.20 71.39
55.42 55.55 55.45 55.48 55.71 55.67 55.44 55.01 54.53 56.61 58.66 59.31 58.86 57.73 57.06 56.97 60.21 58.05 63.47 63.32 64.87 64.52 60.36 63.24 64.45 64.92 65.08 62.30 64.99 64.75 59.70 63.15 63.76 62.82 60.99 62.45 61.38 63.56 68.34 70.09 69.16 69.32 70.27 70.75 71.56
55.27 55.29 55.35 55.25 55.24 54.95 54.32 54.06 54.79 59.56 58.40 58.72 58.20 58.27 56.32 62.48 63.93 58.34 62.94 63.88 66.19 66.54 63.61 64.08 64.49 64.44 64.31 64.28 60.02 60.72 60.98 56.49 60.47 61.07 61.22 61.06 57.51 63.38 67.37 68.90 68.74 69.21 69.33 69.91 71.00
55.00 54.98 54.84 54.63 54.39 53.84 53.13 53.61 55.70 59.17 57.76 58.40 58.96 58.43 56.61 60.64 56.80 60.80 61.43 63.29 65.79 66.71 66.54 64.70 64.44 62.44 63.14 59.13 55.34 56.35 54.05 55.78 57.61 61.48 60.49 59.75 58.09 62.56 66.73 67.68 68.21 69.30 69.35 69.31 70.10
54.73 54.50 54.30 54.11 53.47 52.66 52.66 53.72 58.10 58.05 60.23 61.67 61.30 55.65 57.99 56.05 58.77 58.08 60.97 63.57 64.62 64.69 63.30 62.25 61.62 58.27 59.87 58.26 51.04 52.69 53.46 56.34 56.57 60.12 59.86 58.73 58.81 61.52 65.02 66.57 67.16 69.07 69.56 69.42 69.27
54.43 54.27 53.82 53.20 52.60 52.04 53.77 56.69 54.92 57.05 59.08 57.17 57.75 56.50 57.88 59.69 59.14 56.14 61.55 62.01 64.26 62.25 57.62 60.35 56.49 55.13 55.49 59.06 58.05 56.80 55.30 54.98 58.41 60.31 59.19 58.84 59.49 60.93 63.84 65.47 66.06 68.27 69.24 69.45 69.58
54.23 54.00 53.47 52.80 52.22 52.00 56.13 51.66 50.71 51.16 46.03 51.73 52.04 52.40 57.23 59.75 56.24 55.31 59.38 56.77 60.36 56.60 57.22 55.56 53.45 55.79 55.73 55.31 56.48 56.22 54.68 55.03 57.78 59.78 59.33 58.84 58.44 60.80 62.51 64.38 65.99 67.77 68.63 69.54 70.37
54.22 53.79 52.82 51.81 51.67 55.10 53.55 51.45 54.86 54.83 46.77 49.03 52.58 52.00 53.20 58.51 56.10 57.02 55.04 56.96 57.52 57.08 54.10 51.72 53.16 55.14 53.31 52.63 52.54 53.39 53.57 54.40 54.54 57.91 59.25 57.86 56.57 58.27 61.46 63.59 66.24 67.89 69.74 69.88 70.46
54.00 53.40 52.31 50.88 52.12 53.71 51.52 53.73 55.07 54.90 43.47 47.55 50.60 52.76 54.12 55.35 54.05 59.52 55.95 55.67 56.40 55.36 56.43 53.55 55.50 53.45 52.61 51.71 52.44 49.90 54.16 54.66 54.19 54.06 52.11 57.64 50.71 57.07 59.50 60.33 64.48 66.16 68.47 69.38 70.31
53.59 52.74 51.07 49.41 53.55 51.95 51.99 53.95 54.68 53.16 37.17 50.79 50.83 56.83 55.65 52.29 55.35 55.70 58.90 53.90 53.12 53.40 55.17 53.08 53.12 52.44 51.53 52.11 53.63 51.61 54.40 53.31 53.68 53.14 53.43 53.89 52.90 56.29 59.40 58.20 61.06 64.65 67.46 68.93 70.49
52.97 51.73 50.89 53.28 54.11 52.97 54.04 53.59 53.45 42.60 36.96 48.43 50.78 50.12 50.92 52.29 53.73 56.90 55.62 55.05 56.17 53.51 54.40 54.29 56.20 54.55 53.92 54.55 54.44 54.68 52.56 52.68 52.78 51.45 47.63 51.83 51.93 53.41 56.24 59.09 60.79 63.54 65.46 67.77 69.15
51.24 50.06 50.90 53.48 49.72 53.67 54.07 50.64 40.56 36.49 47.88 47.19 47.36 50.82 50.54 50.76 51.38 54.02 53.21 49.85 49.31 47.48 48.80 51.99 52.67 54.57 55.00 52.91 54.61 53.34 50.82 45.89 44.60 44.95 45.07 52.44 51.07 53.96 58.48 59.96 61.23 62.14 64.15 66.16 68.74
49.66 48.88 53.78 53.70 53.90 53.57 51.83 44.44 34.34 41.50 43.90 47.64 46.67 47.29 46.31 50.46 51.24 51.93 52.14 50.79 51.35 51.13 49.87 48.08 46.64 52.34 54.82 53.44 52.33 52.10 51.08 46.73 42.47 43.64 45.98 51.63 48.77 52.77 59.02 60.95 62.03 63.73 64.23 65.85 67.63
49.08 55.06 53.44 52.65 53.67 53.13 47.25 37.91 38.44 41.75 43.44 42.18 44.47 45.77 46.77 50.15 50.35 51.02 50.70 51.07 52.59 51.80 48.78 49.85 49.34 54.70 54.77 55.06 55.10 52.51 50.11 53.14 49.98 50.52 47.86 49.53 52.26 55.69 58.41 59.10 60.68 62.05 63.36 64.68 66.98
52.00 52.31 53.33 53.26 54.12 51.35 44.17 38.19 40.13 43.24 43.01 42.64 39.25 45.21 44.13 47.45 48.13 49.74 50.22 52.50 52.37 54.15 55.90 53.96 50.38 54.43 54.17 55.43 54.90 54.39 54.56 48.69 49.78 45.77 45.06 48.81 50.69 50.68 55.75 57.21 59.42 60.85 62.16 63.71 65.93
52.48 47.52 51.81 53.62 53.30 46.96 38.93 39.67 41.19 43.46 43.64 40.88 39.73 39.95 41.36 41.69 44.54 48.14 50.17 50.91 52.34 53.06 55.72 54.47 53.27 53.18 54.87 51.92 51.27 51.62 51.71 52.03 51.57 50.09 46.96 46.43 49.51 56.70 57.49 58.83 58.98 60.66 62.07 63.31 64.32
50.38 43.86 52.73 53.16 43.96 46.47 39.97 40.66 41.00 42.03 43.99 42.83 43.27 42.95 41.26 41.91 41.57 44.55 46.41 49.65 50.45 52.53 51.87 55.18 53.20 50.30 51.76 54.44 55.46 54.53 52.79 53.24 48.34 49.12 50.03 50.60 50.74 57.22 57.96 58.14 60.03 60.58 62.39 63.37 65.19
47.42 47.35 53.61 50.92 39.12 40.03 41.18 40.95 41.80 40.98 40.71 40.45 39.96 42.53 43.80 41.55 38.76 42.38 45.37 49.97 49.80 51.25 51.09 53.77 51.41 48.42 51.23 52.81 54.23 52.38 53.18 54.09 53.58 53.04 50.93 47.89 50.24 58.08 58.53 58.69 60.36 60.51 62.30 64.16 65.83
47.65 42.64 46.41 47.56 46.02 41.43 39.47 38.83 37.57 42.15 41.35 41.94 41.22 42.11 41.24 40.78 43.37 41.98 42.48 47.07 49.07 49.39 50.37 51.92 51.84 50.54 49.37 51.65 52.93 50.78 52.15 53.15 53.18 50.33 50.70 51.33 52.75 55.64 57.12 58.43 60.08 61.14 62.56 63.57 64.74
46.81 42.89 44.14 39.17 41.24 41.44 40.97 39.57 36.69 36.58 41.61 42.32 40.21 39.66 38.50 36.71 38.01 36.96 42.67 45.77 48.76 49.25 51.23 51.25 48.40 51.86 52.65 53.85 53.35 52.68 51.74 52.25 51.66 52.94 50.61 53.04 53.52 56.24 58.06 58.48 59.61 61.17 62.24 62.81 63.82
42.53 41.09 44.03 42.07 42.33 39.65 39.74 38.70 37.48 39.11 39.68 38.49 38.12 39.30 39.72 37.37 39.40 37.00 39.87 41.53 42.95 46.75 47.61 50.84 46.37 50.69 50.39 53.10 51.59 50.35 53.08 52.87 52.83 52.98 53.39 53.91 54.24 58.94 59.83 60.19 59.74 59.97 60.45 60.69 61.87
48.33 47.35 43.04 40.32 40.49 38.14 38.81 39.31 38.38 40.48 40.67 41.89 40.38 38.92 38.12 39.52 42.91 44.67 44.98 45.54 45.23 44.25 44.09 45.83 47.29 48.10 46.03 51.25 50.45 47.09 51.42 53.06 53.95 54.70 54.28 52.09 56.03 59.25 58.18 58.44 59.53 60.25 60.87 61.11 61.88

GFSSW_sfc_wetblb_036.txt.gz
Wetbulb
56.75 56.58 56.60 56.56 56.60 56.86 57.01 57.05 57.38 57.42 57.62 57.78 57.86 58.14 58.55 59.05 58.55 58.60 54.06 59.51 62.54 72.78 71.74 67.07 65.02 68.65 71.64 70.45 70.73 70.46 60.50 58.19 59.22 60.04 60.20 64.75 64.84 68.35 69.86 68.21 69.60 70.57 68.61 69.84 71.61
56.24 56.22 56.18 56.24 56.33 56.46 56.64 56.87 56.98 57.10 57.14 57.29 57.41 57.75 58.09 58.57 56.84 55.64 63.53 69.37 72.52 70.98 60.38 64.05 62.28 67.12 67.25 67.83 67.85 65.49 58.04 57.15 63.35 63.25 63.06 63.82 64.06 65.95 66.18 66.39 67.79 68.27 70.10 70.72 70.89
55.78 55.72 55.53 55.88 56.07 56.14 56.28 56.41 56.47 56.61 56.64 56.58 56.85 57.32 57.83 58.34 56.03 55.92 73.15 68.87 72.15 69.90 61.22 64.90 65.26 66.68 65.24 66.72 65.83 64.67 60.32 62.87 63.32 64.93 65.55 63.63 63.83 66.75 64.77 64.05 67.76 66.63 67.87 69.47 69.54
55.50 55.37 55.69 55.63 55.85 55.81 55.91 56.35 55.99 56.14 56.29 56.34 56.47 57.11 57.48 57.46 50.72 61.86 73.48 71.41 71.63 61.67 61.03 61.67 63.99 64.27 64.01 62.58 65.39 62.22 63.22 64.26 64.31 65.64 64.94 63.56 63.69 63.63 64.69 65.61 70.49 70.11 69.87 69.85 69.08
55.37 55.72 56.13 56.00 55.71 55.91 56.39 56.54 55.83 55.52 55.82 56.57 56.56 56.91 56.49 54.24 54.39 63.58 73.05 71.26 63.23 58.64 60.14 59.68 61.77 63.35 62.49 63.72 63.97 62.64 62.66 64.91 65.06 65.32 66.03 64.59 63.30 63.90 64.64 68.63 70.68 70.83 70.22 69.59 69.72
56.00 55.97 55.87 55.80 56.13 56.20 56.22 55.94 55.62 55.40 57.23 58.76 57.69 57.25 54.83 51.78 62.86 64.00 65.37 64.79 60.32 58.51 59.59 59.75 61.69 64.06 64.31 63.68 62.24 64.30 64.84 64.19 65.44 64.89 63.54 62.75 63.66 63.47 64.96 67.96 69.00 69.91 69.46 69.99 69.94
55.79 55.79 55.65 55.65 55.78 55.93 55.74 55.27 54.83 55.56 58.42 60.28 59.45 57.33 54.70 55.43 63.55 60.97 62.14 63.94 62.13 60.88 58.26 60.05 62.54 62.56 64.63 62.69 64.77 63.22 61.03 63.36 63.77 63.71 62.44 62.59 60.61 63.02 66.39 68.03 67.54 68.71 69.57 70.01 70.27
55.52 55.68 55.54 55.63 55.47 55.18 54.80 54.44 54.39 56.42 60.44 58.98 60.16 57.42 54.12 64.20 63.45 62.51 58.33 59.99 62.26 62.43 61.66 61.32 62.11 62.31 62.69 64.93 63.05 60.47 61.03 57.33 62.24 63.40 62.63 60.68 55.89 63.32 67.60 67.53 66.78 67.83 68.80 69.74 70.29
55.41 55.41 55.37 55.15 54.60 54.16 53.35 53.68 54.71 58.32 58.90 58.70 57.96 56.82 55.98 64.64 60.94 62.46 60.69 59.43 61.33 63.22 63.10 62.50 60.99 58.92 60.36 59.25 57.83 58.92 54.75 57.37 59.15 62.97 61.03 59.39 56.89 62.45 66.75 67.01 67.05 67.54 67.89 68.60 70.23
54.99 55.01 54.69 54.35 53.77 53.08 52.66 53.75 57.88 58.53 59.00 60.71 61.11 56.25 58.37 57.77 60.53 61.59 62.32 59.76 60.10 61.83 60.82 59.79 58.36 55.15 56.33 56.68 52.05 53.86 53.47 56.57 56.61 59.35 59.71 58.09 57.50 61.58 64.16 65.99 67.02 68.12 67.94 68.41 68.84
54.99 54.56 54.17 53.72 52.91 52.17 52.94 55.71 50.86 55.96 52.60 53.52 57.01 55.58 57.82 61.58 61.05 58.50 60.83 58.21 61.22 60.55 56.36 59.19 54.79 52.29 54.41 57.29 58.20 57.25 54.60 54.15 57.58 60.01 58.13 57.57 57.83 61.07 63.71 64.05 66.11 67.91 68.21 68.30 68.70
54.64 54.34 53.85 53.23 52.42 52.10 52.85 50.40 49.55 50.68 45.35 50.90 51.35 51.75 55.59 59.17 56.59 57.14 59.71 55.27 57.33 55.98 58.59 56.60 53.37 56.34 57.26 57.46 56.91 57.10 54.94 53.75 56.18 59.05 59.13 58.45 57.30 60.15 62.54 63.44 64.22 67.03 68.30 68.56 68.58
54.34 53.90 52.96 52.29 51.79 55.14 53.37 50.74 53.51 53.36 45.53 46.84 50.30 50.27 51.04 54.19 54.14 56.64 56.47 56.31 55.69 56.11 56.74 54.43 55.81 58.14 56.77 55.94 54.02 56.19 54.96 54.36 54.15 56.80 59.01 58.06 56.34 58.97 61.15 62.99 64.95 66.68 68.79 69.51 69.41
53.80 53.33 52.44 51.06 52.40 54.33 51.38 52.87 53.45 53.65 40.92 45.02 49.21 51.32 51.85 52.25 50.93 59.28 57.37 57.96 56.22 54.74 57.05 55.75 57.96 56.19 55.34 54.38 54.65 50.98 56.58 55.74 55.12 54.07 51.52 58.78 50.85 58.04 59.20 60.09 62.96 64.46 67.32 68.41 69.87
53.22 52.56 51.40 50.20 51.77 52.00 51.47 53.12 53.37 52.19 33.35 50.69 51.11 57.27 54.37 49.58 53.28 53.33 60.07 55.86 53.74 53.77 57.05 54.75 53.70 53.49 52.96 53.49 53.51 51.02 54.63 54.43 53.84 53.06 52.98 53.40 51.92 55.68 59.10 58.13 60.53 63.82 66.69 67.91 69.90
52.54 51.75 50.96 53.76 54.36 54.31 53.17 52.91 51.46 40.72 33.64 47.36 52.13 51.02 50.97 50.92 50.47 54.20 55.78 56.96 56.51 54.52 56.21 56.86 58.41 54.96 53.82 54.37 53.81 54.29 52.47 52.33 52.16 51.44 48.00 51.58 51.69 53.46 56.21 58.76 60.81 63.17 65.37 68.57 69.48
51.40 49.98 50.50 54.12 50.73 53.41 52.91 49.93 39.09 34.59 45.19 44.08 44.53 47.30 47.72 49.28 49.72 50.46 52.43 52.42 48.69 47.58 50.18 53.86 55.02 56.78 55.75 52.71 54.07 53.00 50.06 45.18 44.44 44.98 44.36 51.90 50.66 53.67 57.53 60.53 61.54 61.97 65.09 68.37 69.72
50.08 49.04 54.92 55.37 54.47 53.23 50.68 43.79 34.19 39.52 41.13 45.15 44.02 44.46 44.27 48.61 49.78 50.34 50.78 50.44 51.43 50.08 49.25 47.85 46.34 53.27 55.31 53.14 51.49 51.22 50.08 45.56 41.15 42.51 44.62 50.92 47.91 52.13 58.59 60.16 61.56 63.25 64.91 66.87 68.52
49.43 55.40 55.20 55.02 54.28 52.83 46.77 38.15 37.95 40.05 42.71 40.72 41.86 41.81 44.06 46.72 46.85 49.40 49.94 50.64 52.12 50.71 48.31 48.84 48.28 54.59 55.22 54.63 54.12 51.36 48.52 51.97 47.82 48.83 45.91 47.91 50.79 54.33 58.04 58.38 60.12 60.78 63.45 65.23 66.80
50.41 52.31 53.16 55.01 53.86 50.99 44.03 38.34 41.01 43.70 42.89 41.86 36.86 39.76 36.96 40.57 41.51 43.54 48.74 52.00 52.13 52.46 53.41 51.75 48.31 53.11 53.96 55.22 54.22 52.86 54.22 47.68 48.93 43.80 43.96 47.47 50.60 50.26 54.68 57.25 59.25 60.68 61.33 64.29 66.27
52.02 48.98 53.00 54.94 53.35 47.56 40.16 40.10 41.96 43.88 43.20 39.82 38.20 37.70 38.35 36.68 39.68 41.26 45.03 48.52 51.21 52.47 54.92 51.86 50.91 51.11 54.02 51.65 50.81 51.18 51.28 50.91 50.51 49.08 45.59 45.82 48.29 57.97 57.45 58.48 59.58 60.93 62.34 64.07 65.93
50.43 45.24 54.14 53.43 43.72 44.25 40.79 41.98 42.35 42.51 44.34 42.25 42.42 40.51 39.15 38.97 38.01 39.05 42.46 46.17 51.69 50.74 49.37 54.15 50.09 48.07 51.23 55.16 55.07 53.43 52.02 52.81 47.77 47.98 49.67 49.73 49.81 57.52 59.51 60.30 60.57 60.71 62.56 64.43 66.35
46.43 48.36 53.58 50.94 39.71 40.26 42.83 41.51 41.93 40.76 41.12 40.99 39.94 41.14 41.82 38.52 35.33 40.06 40.50 48.01 49.82 48.92 48.21 50.60 49.82 46.97 48.65 53.17 54.56 52.14 52.53 53.02 53.18 51.73 50.33 47.54 49.31 58.34 59.12 59.23 61.93 61.10 63.41 64.61 67.23
47.76 42.28 47.26 47.85 45.93 41.69 39.95 39.06 38.91 43.48 41.52 40.34 40.41 42.01 40.05 38.14 40.49 36.82 39.45 45.03 47.74 48.83 54.13 51.79 49.47 49.58 47.32 50.55 54.16 51.30 51.48 52.82 52.06 49.28 50.02 50.31 52.34 55.40 57.15 58.09 60.47 62.56 64.30 65.05 67.28
46.74 43.68 44.19 39.63 41.50 42.00 41.43 40.57 37.49 38.47 40.51 43.05 40.16 39.02 38.91 35.00 36.37 36.20 38.65 42.03 45.52 50.84 50.11 51.14 47.63 50.94 52.05 53.88 53.85 51.79 51.21 51.92 51.65 53.22 50.44 52.23 52.85 56.10 59.00 59.57 61.32 62.56 64.95 65.73 67.18
43.33 41.41 43.32 42.49 43.52 41.41 40.50 39.27 38.25 39.74 39.24 38.68 37.73 39.83 40.05 36.50 37.39 35.55 38.83 39.53 39.63 45.54 45.61 48.80 46.34 49.92 49.62 52.54 53.09 51.87 52.20 52.14 52.35 52.32 53.03 53.42 53.73 58.44 60.36 62.00 61.78 63.04 63.35 64.46 65.37
48.41 46.85 41.62 39.49 40.83 38.86 39.60 39.90 39.66 40.98 41.95 42.18 40.69 39.69 37.87 40.22 42.59 43.21 43.39 42.96 42.82 42.13 43.22 43.59 45.48 46.06 44.20 50.72 51.36 49.08 52.35 52.69 53.03 53.85 53.48 52.02 56.59 59.53 59.41 60.18 61.12 61.70 61.92 61.96 61.86

GFSSW_sfc_wetblb_039.txt.gz
Wetbulb
56.47 56.28 56.28 56.26 56.55 56.66 56.92 56.96 57.14 57.27 57.42 57.73 57.70 57.78 58.22 58.77 58.49 56.24 51.91 56.49 59.08 68.12 72.63 66.59 64.03 63.97 69.96 68.86 70.11 68.01 58.30 56.15 56.35 58.21 59.96 64.59 64.73 68.52 70.01 66.88 68.08 68.59 67.03 67.92 69.58
56.07 56.05 55.86 56.15 56.26 56.41 56.53 56.78 57.02 56.89 57.12 57.36 57.36 57.48 57.77 58.54 54.50 52.37 60.73 67.00 67.77 68.07 61.09 60.77 59.50 60.66 62.53 66.26 66.99 63.51 58.07 57.17 61.10 62.50 61.16 63.99 65.11 66.34 65.98 65.17 65.19 66.51 68.69 69.63 69.62
55.86 55.83 56.03 56.03 56.11 56.26 56.32 56.48 56.57 56.56 56.76 56.86 56.95 57.12 57.37 57.27 52.93 54.52 69.65 67.29 69.22 70.86 59.05 57.01 61.65 59.47 59.56 63.77 64.34 63.24 58.41 61.48 62.49 64.30 64.79 63.62 64.12 66.47 65.04 62.48 64.62 64.22 66.35 68.78 68.58
55.65 55.87 56.29 56.06 55.97 55.99 56.20 56.44 56.40 56.33 56.39 56.58 57.29 56.92 57.15 54.97 46.27 58.18 72.10 70.59 69.45 65.89 58.21 55.64 56.94 56.87 58.05 59.44 64.20 60.95 63.55 63.67 64.09 64.84 64.19 62.37 63.97 63.66 66.34 65.53 67.86 68.04 68.41 68.39 68.02
55.82 56.40 56.48 56.57 56.36 56.72 56.79 56.83 56.44 55.92 56.23 57.27 58.28 56.75 54.35 50.12 50.94 60.20 73.03 72.18 66.37 59.80 55.21 53.99 54.50 57.57 56.25 61.15 62.78 61.44 63.26 65.01 64.92 63.59 63.90 63.06 62.75 65.02 66.19 68.26 68.84 68.46 68.32 67.63 68.32
56.44 56.32 56.30 56.14 56.33 56.40 56.54 56.13 56.16 55.44 56.17 58.02 59.36 56.70 51.47 46.18 60.45 60.72 65.77 65.82 62.47 56.65 54.57 55.07 56.20 59.22 59.40 61.33 61.01 62.78 63.44 63.84 63.75 63.43 64.05 62.01 62.96 63.92 67.01 68.33 67.53 67.46 66.83 67.59 67.99
56.07 56.17 55.93 56.05 55.91 56.19 55.83 55.41 55.22 55.13 55.97 58.95 59.66 56.69 51.28 48.46 60.69 61.51 63.58 60.25 58.23 56.59 53.14 56.29 58.46 56.89 60.06 58.66 63.79 62.92 60.50 63.41 63.60 63.17 62.87 63.98 59.70 60.87 67.54 68.19 66.44 66.80 66.90 67.56 68.06
56.06 56.05 55.69 55.73 55.52 55.29 54.93 54.35 54.68 55.47 56.43 60.13 59.49 56.10 48.28 59.17 59.10 58.19 60.00 60.98 58.77 57.91 56.03 56.84 58.94 55.68 56.04 60.41 61.06 59.09 58.97 55.22 61.46 62.27 62.80 62.04 55.34 62.46 66.50 66.87 65.52 66.70 67.07 67.26 67.71
55.57 55.33 55.28 55.06 54.66 54.18 53.29 53.50 56.66 56.91 58.42 58.68 56.02 53.28 49.83 63.62 59.00 60.68 60.21 57.65 59.16 58.01 58.58 59.61 57.10 53.44 54.34 54.22 53.27 55.01 51.83 52.85 56.77 61.85 61.66 56.45 53.43 61.81 64.77 65.90 65.49 66.12 66.98 67.20 67.41
54.98 54.73 54.55 54.39 53.93 53.00 52.54 53.95 57.69 56.50 58.74 59.22 58.71 50.66 55.05 54.44 59.03 60.71 60.63 59.43 56.27 56.75 56.55 55.63 53.84 50.15 50.73 50.12 45.70 49.78 50.37 52.91 53.86 59.58 59.38 55.70 53.95 61.93 64.25 64.86 64.03 65.63 66.58 66.88 67.20
54.63 54.20 53.97 53.77 53.25 52.23 50.47 47.80 45.50 48.35 47.93 43.11 45.70 48.47 48.78 58.31 58.86 59.31 60.17 58.46 55.43 54.88 50.99 54.11 49.11 46.61 48.78 51.26 52.83 55.06 54.24 52.03 55.03 59.23 57.19 56.36 54.30 61.49 63.58 63.60 64.09 64.64 65.46 66.55 67.27
54.18 54.01 53.60 53.18 52.38 51.75 50.73 46.31 45.56 46.55 41.02 47.15 47.79 48.10 50.42 51.93 49.74 54.71 59.62 54.04 50.91 49.72 53.03 51.38 48.07 51.82 53.21 52.76 52.08 53.56 52.96 52.61 54.01 56.93 55.69 55.58 54.38 57.20 62.39 63.81 64.32 64.83 64.93 65.61 67.13
54.01 53.49 52.89 52.15 51.77 52.51 50.21 47.41 50.35 49.03 40.54 43.71 46.33 46.59 47.15 48.85 47.38 49.72 54.80 54.82 50.08 50.15 51.88 49.77 52.16 55.94 54.49 51.61 50.43 51.38 51.11 52.32 52.00 54.03 55.91 55.34 53.46 55.46 61.48 62.30 63.14 64.77 66.92 67.03 66.73
53.75 53.29 52.23 50.84 49.79 49.71 49.90 50.86 50.45 49.71 35.36 41.74 44.27 48.34 48.97 48.71 46.33 53.70 55.39 54.03 51.82 49.20 52.93 52.42 56.07 54.74 53.35 51.50 51.85 48.18 54.33 54.99 54.67 52.01 46.76 54.78 44.66 52.04 57.85 59.48 62.33 62.82 63.00 65.49 66.55
53.19 52.56 51.27 50.79 47.39 48.00 51.31 51.20 50.35 47.53 27.89 47.85 47.10 53.88 49.65 45.53 47.30 49.71 54.76 53.48 49.43 49.95 52.59 51.54 53.76 53.32 51.66 52.72 54.27 51.17 54.12 54.03 54.42 51.46 47.67 50.53 48.81 52.13 55.33 56.86 59.30 61.69 62.24 66.37 66.79
52.50 51.64 51.02 50.68 50.14 52.11 52.44 50.56 47.95 34.63 30.35 41.82 45.37 43.79 43.26 45.66 48.02 50.39 50.93 53.74 53.30 50.76 52.77 52.98 58.39 55.82 54.54 55.73 55.68 56.03 52.29 49.68 51.78 49.42 42.65 46.57 48.22 48.59 53.49 55.03 57.45 62.34 65.01 66.58 67.33
51.25 50.08 49.37 51.86 47.54 53.03 52.01 46.83 34.29 29.70 42.67 39.94 39.39 41.79 41.18 43.05 46.21 47.10 47.03 45.99 45.89 43.12 45.50 50.10 52.30 56.26 55.24 52.19 54.20 52.81 46.09 38.89 38.23 40.99 40.03 44.53 44.27 46.01 53.68 57.61 58.48 60.12 63.79 66.74 67.90
49.97 49.46 51.87 54.15 54.01 53.52 47.92 40.10 30.01 38.65 38.44 42.02 40.46 40.21 38.57 41.36 41.37 42.47 41.68 43.76 49.66 47.42 43.83 43.95 43.46 52.53 55.57 50.94 48.27 49.05 46.95 37.80 32.68 35.90 39.36 44.72 42.47 46.92 53.74 55.80 59.32 60.67 64.59 66.69 67.41
49.93 51.57 52.15 54.52 55.25 51.35 43.11 33.23 34.62 37.91 40.49 38.44 38.45 35.65 36.39 39.24 39.86 39.33 39.38 42.62 48.36 50.51 43.04 43.25 44.58 54.27 56.02 54.63 51.79 47.46 44.54 46.48 39.24 41.67 37.99 40.64 44.06 49.08 52.33 54.07 54.87 55.80 61.09 65.77 66.85
47.97 49.39 51.01 54.50 52.71 47.68 39.93 35.84 38.78 41.78 40.86 39.80 33.47 36.11 33.07 36.61 36.34 36.87 37.26 43.93 45.06 47.05 48.62 46.28 40.64 50.77 53.72 55.64 53.97 49.68 49.39 42.41 43.02 34.61 34.92 41.27 42.91 44.62 48.19 50.62 53.98 54.12 55.39 64.58 66.56
48.48 46.34 51.50 53.30 50.50 44.12 36.22 38.61 40.34 42.77 42.55 38.40 36.33 35.25 35.43 36.16 36.81 35.66 36.99 41.30 44.65 43.78 45.92 44.65 43.85 44.64 49.75 49.56 48.69 47.31 46.04 46.26 42.49 40.94 36.03 36.47 42.34 51.04 50.29 51.84 53.17 54.84 56.09 62.45 65.82
46.47 41.24 53.14 53.71 41.53 42.11 37.63 40.09 41.63 40.41 42.93 40.63 40.28 38.17 35.84 36.68 35.16 34.86 35.70 40.12 45.29 44.41 37.44 45.06 42.14 41.33 43.92 50.45 53.36 50.91 47.44 46.13 42.58 39.06 42.34 41.07 43.43 54.10 53.62 54.26 54.56 55.79 56.40 59.72 64.87
42.95 44.98 52.33 50.44 36.40 37.19 40.48 39.91 41.29 39.71 40.16 39.37 37.58 38.88 38.90 36.81 33.21 36.79 38.59 43.79 44.47 41.76 40.66 43.99 39.14 38.93 42.02 45.61 49.24 48.74 48.71 48.35 45.60 44.24 42.22 39.29 41.99 54.82 55.02 54.38 55.23 55.94 57.33 58.05 62.78
44.63 38.34 44.26 45.55 44.29 39.25 37.75 37.76 37.44 42.55 41.06 41.03 39.48 39.21 37.58 36.12 38.01 35.61 36.27 41.48 43.25 42.97 49.09 46.63 41.04 39.29 39.34 42.99 46.41 46.63 48.76 48.92 46.76 43.97 43.96 44.06 45.18 50.00 53.96 53.83 56.16 56.04 59.16 59.21 62.46
44.40 39.73 41.62 36.01 38.52 38.52 39.81 39.09 36.93 36.83 41.11 40.90 38.03 38.41 35.89 32.10 34.13 34.48 37.15 38.81 41.57 44.62 42.25 40.19 36.21 42.92 46.59 48.96 49.72 50.70 48.82 49.27 46.99 46.99 44.73 45.74 46.99 50.64 52.28 55.14 57.06 58.21 59.32 61.02 61.82
41.14 40.04 40.46 37.44 39.38 38.94 38.95 37.77 37.24 38.38 38.86 36.73 36.25 38.18 36.92 33.82 33.75 32.65 36.30 36.37 36.58 39.81 37.69 39.77 36.18 42.18 43.25 49.38 50.84 49.70 51.40 50.29 49.60 49.26 48.50 48.92 47.23 54.33 55.99 57.65 58.00 58.58 58.69 57.83 59.38
47.30 46.63 41.22 37.78 37.03 36.14 36.78 38.15 38.19 39.89 40.70 41.12 39.69 37.24 35.94 38.06 40.31 40.80 41.07 40.59 39.61 37.83 35.91 36.58 37.51 37.63 37.91 46.76 47.32 44.22 49.29 50.78 50.07 50.99 49.73 46.72 49.24 54.66 54.00 56.97 56.48 57.53 57.99 57.53 58.18

GFSSW_sfc_wetblb_042.txt.gz
Wetbulb
56.30 56.23 56.25 56.31 56.50 56.74 56.76 57.03 57.13 57.34 57.45 57.59 57.57 57.69 57.68 58.04 58.28 55.66 50.99 55.76 56.64 66.15 74.01 69.90 67.69 68.07 70.11 68.05 67.76 65.97 56.79 56.25 56.92 58.08 59.72 64.73 63.95 67.89 68.33 65.55 66.84 67.56 63.84 62.79 64.87
56.04 56.18 56.28 56.25 56.41 56.46 56.61 56.79 56.96 57.21 57.16 57.20 57.29 57.34 57.48 57.69 54.01 51.38 58.00 63.83 66.25 66.75 66.37 64.42 61.49 62.19 64.56 65.43 66.63 63.55 57.99 58.29 61.90 61.98 60.91 63.45 64.07 65.61 64.86 65.08 64.78 64.25 64.02 66.78 66.64
55.95 56.04 56.12 56.21 56.16 56.27 56.49 56.56 56.76 56.84 56.79 56.95 57.04 57.51 57.27 56.75 51.64 53.77 66.47 66.36 68.10 67.74 60.69 64.09 60.92 58.67 55.45 61.82 64.42 63.36 57.86 60.99 61.96 63.79 64.93 63.00 65.52 66.69 64.41 62.22 64.04 62.84 64.74 66.20 66.07
55.80 55.81 56.15 56.15 56.00 56.09 56.19 56.34 56.31 56.32 56.42 56.69 57.04 58.14 56.77 54.12 46.71 56.36 72.06 68.07 68.75 64.05 59.53 54.27 53.58 53.48 53.44 55.85 62.15 58.99 63.80 63.14 62.12 64.44 63.99 62.26 64.76 64.84 65.45 64.70 67.06 66.44 67.03 66.79 66.45
55.97 56.36 56.60 56.65 56.29 56.54 56.69 56.66 56.23 55.79 55.96 56.41 57.62 57.37 53.56 48.22 48.80 58.92 71.59 69.59 66.46 61.25 55.88 52.93 50.56 52.55 51.99 56.44 59.20 59.54 61.62 63.78 64.48 63.91 62.76 63.38 63.37 64.34 65.11 67.14 67.94 67.60 66.97 66.40 67.07
56.27 56.25 56.04 56.10 56.30 56.47 56.47 56.01 55.64 55.66 55.62 56.19 58.37 56.80 50.28 43.63 57.12 58.69 66.15 63.75 61.04 58.74 54.91 53.53 52.04 53.41 54.97 55.26 57.72 61.56 61.71 63.48 63.66 61.61 62.43 60.75 62.83 65.15 65.22 67.32 66.75 66.84 66.00 66.65 66.89
55.84 55.89 55.63 55.61 55.96 56.01 55.92 55.08 55.09 56.13 56.93 55.84 59.57 56.13 50.29 47.33 56.22 56.71 64.17 60.35 60.63 57.38 53.21 53.90 54.37 54.89 55.23 55.73 59.20 59.58 59.08 62.19 61.60 61.71 61.00 63.27 60.17 62.61 65.81 66.68 65.61 65.93 66.31 66.84 67.35
55.68 55.68 55.48 55.49 55.49 55.28 54.63 54.08 55.03 58.13 56.84 56.43 59.95 55.44 47.36 57.35 57.06 55.90 56.66 57.59 59.88 57.33 54.16 55.02 54.66 53.15 51.56 54.50 53.66 55.56 56.63 55.11 61.14 61.99 63.32 61.89 56.52 64.12 65.90 65.07 64.23 65.15 65.78 66.49 67.21
55.28 55.25 55.15 54.83 54.60 54.13 53.43 53.55 55.92 57.71 58.65 59.35 54.33 52.09 47.17 60.69 57.14 57.07 57.41 57.74 55.14 53.86 53.98 56.36 52.81 50.47 50.74 47.47 45.07 49.59 47.47 51.88 57.43 63.08 62.04 60.90 56.62 64.12 65.59 64.26 63.47 64.37 65.08 65.96 66.33
54.95 54.71 54.57 54.31 53.81 52.97 52.58 53.74 55.65 57.96 58.35 58.97 58.12 49.20 51.08 51.90 53.59 55.51 57.97 59.16 54.64 53.66 52.68 51.63 48.65 45.07 47.04 43.72 40.68 44.81 47.73 50.38 52.32 57.20 60.54 59.34 58.14 63.13 64.63 64.15 63.83 64.19 64.60 65.34 65.85
54.60 54.30 54.09 53.58 53.08 52.10 50.17 45.09 42.95 39.98 42.12 39.37 41.73 50.40 48.31 50.23 52.33 53.18 57.29 56.94 56.42 51.67 46.67 49.53 45.31 42.89 45.88 46.98 48.47 50.32 50.41 50.78 53.89 57.25 56.64 57.84 59.29 61.82 64.05 63.79 63.74 64.12 64.33 64.93 65.81
54.07 53.91 53.45 53.02 52.20 51.89 47.69 41.99 41.26 43.71 36.81 44.86 45.17 44.71 46.83 47.66 44.36 47.86 54.65 52.18 50.92 47.67 49.08 46.78 44.71 49.03 50.81 49.12 48.88 49.22 47.59 50.41 54.53 56.94 53.99 53.68 57.72 60.57 62.94 63.47 64.32 64.49 64.86 65.40 65.98
54.01 53.54 52.96 51.94 51.51 47.95 45.16 45.29 47.83 41.73 34.53 41.29 44.12 43.88 44.41 45.08 43.84 44.90 49.14 51.76 49.30 46.90 47.83 46.41 49.10 52.81 51.10 49.21 47.79 47.51 46.32 48.06 50.63 54.55 53.57 52.09 52.60 57.48 61.82 63.79 63.10 64.25 66.57 66.72 66.46
53.60 53.17 52.14 51.22 45.53 45.48 46.07 48.57 49.60 43.94 30.85 38.83 42.93 46.40 46.68 46.21 43.00 50.59 50.66 49.89 50.40 46.13 47.46 47.40 52.35 51.47 50.23 49.03 48.91 43.94 50.36 50.56 51.34 49.58 45.10 51.99 44.87 55.41 59.28 59.88 61.02 62.66 64.56 65.52 66.39
52.94 52.10 51.03 50.65 43.68 44.56 48.12 48.23 49.79 41.67 25.74 44.34 42.76 49.17 45.93 42.65 45.77 46.32 50.77 49.30 46.69 47.77 46.36 46.76 49.51 50.36 48.66 49.79 51.43 47.57 51.00 50.23 51.14 47.60 44.54 49.58 43.78 52.02 58.85 57.48 60.06 61.30 63.22 64.99 66.53
52.17 51.01 51.18 47.62 44.79 47.42 48.72 49.37 41.68 32.23 27.36 39.62 42.05 40.67 40.97 42.04 43.55 46.04 46.37 49.18 51.09 47.30 49.14 48.14 54.11 53.19 52.47 53.81 53.85 53.65 50.71 49.60 48.91 45.04 40.99 47.54 45.28 45.45 55.43 58.23 59.80 61.05 61.34 62.88 65.18
50.67 49.93 49.93 49.99 42.96 47.48 48.42 40.84 30.52 26.13 40.30 36.82 35.58 38.30 38.02 37.97 40.19 41.86 41.14 39.83 38.07 37.87 41.33 46.50 47.88 52.93 55.44 51.33 52.94 52.01 45.14 39.43 38.73 37.57 38.53 47.59 41.86 46.58 54.64 60.87 61.21 61.14 62.48 63.69 64.06
49.72 49.47 49.50 51.23 48.62 48.37 42.37 34.89 26.37 35.59 33.82 38.19 37.30 36.65 34.71 38.62 38.73 39.81 38.52 36.30 42.66 39.99 38.65 39.99 39.18 48.45 53.49 52.01 50.05 48.69 45.44 37.58 34.32 32.63 39.46 41.98 38.22 43.92 51.45 57.55 62.78 63.60 64.64 63.79 63.89
49.55 45.90 46.17 49.02 51.05 46.72 37.71 27.76 28.26 33.25 37.46 35.99 36.23 32.27 32.91 37.76 38.55 37.20 36.31 37.25 41.03 41.54 34.12 34.33 40.58 50.82 52.66 54.59 52.87 48.19 45.38 45.80 36.73 35.14 35.23 38.67 41.28 46.18 49.97 50.18 53.74 61.18 63.72 63.29 65.33
45.11 42.70 44.46 51.34 48.63 41.38 34.73 31.75 33.48 39.02 39.24 37.44 30.40 33.84 29.26 33.24 33.95 34.58 34.82 40.83 40.62 42.81 42.84 37.88 33.72 46.43 51.24 52.72 53.53 48.06 47.80 39.95 36.04 32.22 30.90 37.51 38.57 40.86 45.82 48.05 49.05 52.31 61.57 63.27 66.41
40.81 38.97 46.82 52.19 44.23 37.35 29.67 31.18 36.79 40.43 41.30 36.44 33.59 32.02 31.31 30.51 32.44 33.93 34.91 39.49 42.21 41.35 42.13 38.69 35.09 40.50 44.51 45.60 47.89 46.57 45.40 41.61 41.99 36.77 33.75 32.76 39.65 46.27 46.63 48.81 49.14 50.38 60.52 64.53 66.02
39.47 35.56 47.09 49.76 35.68 32.91 30.91 35.78 40.31 37.78 40.75 37.71 37.18 34.42 31.33 33.26 31.73 33.35 34.63 38.27 43.73 42.29 36.40 40.25 37.93 33.67 40.70 47.16 48.35 52.41 44.51 43.49 41.01 35.56 36.27 36.89 41.73 50.40 50.16 51.28 51.59 52.15 53.86 64.76 66.93
38.24 38.08 46.09 43.16 29.64 30.24 35.60 38.82 39.76 38.52 36.03 36.72 35.41 36.29 35.09 31.24 29.78 35.43 37.78 42.27 43.33 40.91 38.40 40.17 37.96 30.88 36.76 40.10 43.50 42.86 48.22 43.78 41.13 39.88 37.45 39.10 41.81 50.18 50.59 53.01 53.17 54.09 53.09 58.16 65.56
38.06 32.25 37.34 38.76 37.36 33.76 33.57 35.18 35.92 42.14 39.69 39.12 37.12 36.38 34.21 31.54 33.00 33.09 35.82 40.92 42.89 41.30 43.32 42.18 32.20 31.93 30.70 35.70 41.32 41.40 45.45 47.71 43.13 39.87 40.74 41.72 42.87 47.44 49.49 51.95 51.64 50.68 53.73 58.29 64.24
37.29 32.97 35.81 30.62 33.74 35.41 36.05 36.51 35.99 35.42 39.46 38.66 35.00 36.27 32.88 27.19 29.21 30.97 36.10 37.59 40.19 41.22 40.41 37.71 28.84 32.27 34.01 38.01 41.17 43.29 46.12 46.83 43.81 45.78 42.22 43.99 43.82 47.01 48.76 53.35 52.08 53.42 55.23 58.25 63.05
36.14 35.20 36.13 36.95 35.63 35.14 35.90 34.96 36.45 37.39 37.45 36.20 35.44 37.32 34.70 29.93 31.92 30.19 34.90 34.76 35.15 38.01 36.53 37.30 30.84 32.24 32.42 42.62 45.11 45.43 49.22 49.28 46.82 46.87 45.21 44.54 44.89 48.69 51.28 54.80 54.71 55.31 57.62 58.24 60.96
40.58 40.77 40.40 38.58 36.69 35.48 34.60 35.66 35.83 38.69 39.98 40.69 38.69 36.48 33.79 35.52 37.98 37.75 38.67 39.27 38.46 36.60 35.83 34.64 31.76 28.97 29.62 41.12 45.46 41.80 45.13 48.46 48.04 47.73 47.18 43.14 46.43 49.79 54.31 57.55 57.11 53.55 55.84 55.55 58.58

GFSSW_sfc_wetblb_045.txt.gz
Wetbulb
56.36 56.30 56.32 56.46 56.47 56.66 56.75 56.95 57.12 57.50 57.62 57.77 57.68 57.38 57.48 57.43 57.54 54.93 49.38 54.75 56.07 64.18 68.81 66.49 68.81 67.07 68.82 67.12 67.62 64.62 55.53 54.47 57.42 57.54 59.74 64.57 62.94 66.96 67.83 65.08 66.20 65.28 61.45 63.11 65.87
56.19 56.26 56.25 56.29 56.36 56.51 56.58 56.55 56.84 57.10 57.27 57.32 57.33 57.10 57.59 56.90 53.16 50.52 57.13 63.14 64.22 67.89 66.28 64.92 63.08 65.18 64.88 65.02 65.89 62.15 55.87 56.82 61.74 61.85 60.15 62.99 64.68 65.03 64.27 64.23 61.10 59.98 62.74 64.16 65.73
55.96 56.02 56.01 56.07 56.17 56.23 56.32 56.38 56.50 56.54 56.67 56.87 56.84 57.14 57.62 56.08 50.68 52.44 65.85 64.14 67.20 70.16 66.79 65.66 64.74 63.73 60.43 63.02 63.86 63.53 58.21 60.63 61.75 63.24 62.77 61.98 64.69 66.41 63.73 61.61 61.69 57.94 60.20 62.97 64.52
55.78 55.78 55.67 55.78 56.10 56.12 56.24 56.43 56.32 56.30 56.23 56.30 56.63 57.70 56.67 53.45 45.01 55.91 72.36 66.88 68.78 66.44 61.62 60.91 57.81 53.75 53.80 54.86 60.99 59.62 62.91 63.87 63.07 64.34 64.17 61.87 65.47 64.49 64.81 64.44 65.04 62.00 62.16 62.68 63.29
55.67 56.04 56.33 56.02 55.82 56.02 56.10 56.10 55.98 55.73 55.83 55.84 56.35 57.26 52.30 45.53 46.41 56.70 70.74 65.81 64.71 59.49 57.14 55.77 54.46 53.09 51.70 54.68 57.93 59.74 61.36 63.22 65.28 65.30 62.89 62.92 64.21 64.21 64.49 66.52 63.88 64.19 62.90 62.11 62.72
55.83 56.14 56.17 56.12 56.35 56.47 56.37 56.01 55.44 55.63 56.55 56.13 56.64 56.97 49.14 40.62 52.99 58.05 63.87 61.76 61.23 55.95 54.02 51.43 52.50 54.38 52.80 52.94 56.98 59.10 59.52 60.60 62.36 62.29 59.96 60.28 61.32 64.06 65.03 65.99 64.28 64.27 62.42 62.82 63.19
56.06 55.98 55.90 55.85 56.15 56.23 55.81 55.28 54.92 56.28 59.09 56.54 58.28 55.25 49.23 46.37 55.58 56.00 61.42 59.65 61.29 55.76 52.52 53.35 52.63 53.48 51.85 52.85 57.08 57.09 55.62 57.75 59.75 60.95 61.01 63.12 60.98 61.85 65.16 65.45 63.93 64.05 64.37 64.35 65.81
55.85 55.80 55.74 55.75 55.79 55.46 54.67 54.42 55.14 57.93 56.72 57.72 60.10 55.23 46.65 55.76 56.60 57.14 56.53 56.88 59.13 55.68 53.24 53.72 53.07 51.98 50.29 53.33 51.45 52.86 52.20 48.61 57.55 61.79 61.45 60.40 53.58 62.72 65.21 64.08 63.01 63.79 64.54 64.76 65.80
55.14 55.16 55.19 55.06 54.68 54.42 53.39 53.86 55.79 58.41 59.49 59.71 53.33 50.58 46.44 59.66 55.52 54.29 55.58 55.35 57.26 54.92 52.96 56.16 51.14 47.07 49.69 46.64 42.97 45.43 44.10 50.19 53.70 61.14 61.28 59.84 56.69 62.76 64.88 63.81 62.87 63.20 63.86 64.86 65.26
54.65 54.49 54.30 54.35 53.78 53.16 52.75 54.20 54.97 58.86 58.20 58.28 57.16 45.64 47.91 46.86 48.35 48.94 53.60 57.15 53.12 52.68 50.84 49.17 46.12 42.62 42.40 41.61 39.48 41.24 45.18 47.50 49.52 55.80 60.22 57.05 57.53 62.15 63.77 63.42 63.19 63.68 63.86 64.49 64.98
54.39 54.08 53.71 53.32 52.91 52.36 50.22 42.72 40.48 38.16 40.09 37.65 40.60 44.97 45.03 47.15 49.55 48.26 50.18 55.61 52.94 48.69 43.21 45.97 41.54 40.33 43.39 46.25 46.13 47.89 48.57 49.16 52.36 56.14 57.45 57.48 57.23 61.01 62.69 62.89 62.62 62.93 63.46 64.10 64.92
54.04 53.73 53.15 52.42 52.19 52.10 46.36 41.82 42.92 43.53 35.46 42.68 43.60 43.10 44.88 44.92 42.85 46.29 49.52 50.74 50.07 44.64 46.44 43.42 40.76 45.12 46.86 47.15 46.27 45.49 44.29 45.86 51.01 54.75 53.17 53.87 56.88 61.29 62.21 61.92 62.77 63.02 63.23 63.84 64.83
53.73 53.17 52.36 51.62 51.65 47.22 43.31 43.43 46.11 40.08 33.22 39.34 42.83 43.08 43.62 42.69 42.19 43.70 45.14 48.30 47.74 46.89 45.98 43.41 45.59 49.47 48.23 46.48 44.92 44.51 43.41 45.15 46.89 52.19 52.82 54.76 54.34 58.88 61.89 62.93 63.49 64.01 64.56 64.73 64.68
53.27 52.86 51.60 51.10 45.36 43.95 44.25 45.13 46.15 42.87 30.05 37.69 40.45 44.13 44.49 44.21 41.53 48.84 49.32 46.56 47.26 46.02 47.78 45.41 50.04 48.75 46.90 46.33 46.33 39.39 47.77 48.76 48.54 48.32 43.46 50.57 45.30 56.07 59.56 60.44 61.95 62.91 63.71 64.24 65.16
53.02 52.17 50.80 50.76 42.24 42.39 46.12 45.91 45.06 40.73 24.45 42.10 39.85 46.50 43.58 39.64 42.59 44.92 49.42 46.91 42.78 44.03 44.92 44.28 46.83 47.07 46.34 47.36 49.05 45.62 48.60 47.70 47.78 44.12 44.17 46.52 42.51 49.74 58.07 57.40 60.01 62.34 63.99 65.02 65.75
52.48 51.23 50.96 46.85 43.54 45.48 46.44 43.73 40.75 31.68 25.99 37.10 40.02 38.93 38.00 39.78 41.28 44.20 44.98 49.06 47.80 44.37 45.45 45.16 50.11 49.51 49.09 50.99 50.85 50.56 46.96 45.79 44.82 42.44 38.93 45.04 44.02 42.29 53.49 56.21 60.14 62.06 63.01 64.60 66.31
51.13 50.09 49.47 49.61 41.96 46.91 45.26 39.37 30.25 25.01 37.59 34.38 33.88 36.34 35.40 37.29 38.69 40.26 40.64 39.31 36.91 35.33 35.88 43.51 45.77 48.47 51.63 47.87 49.86 49.12 41.58 35.41 34.52 34.92 38.20 44.35 42.37 47.13 56.10 59.47 60.89 61.28 62.40 63.15 65.96
49.85 49.00 47.95 50.57 48.47 47.10 40.42 34.78 24.94 33.96 31.52 35.72 35.71 34.36 33.13 37.55 37.08 38.30 36.32 35.73 40.61 38.24 34.76 32.48 36.64 45.85 49.78 49.08 46.68 46.42 45.31 35.58 30.39 32.76 38.99 42.35 38.33 43.85 54.15 60.83 62.58 63.54 63.79 64.36 64.96
49.22 43.65 44.73 47.26 50.26 43.87 37.10 27.17 27.50 31.10 36.05 34.48 33.69 30.91 31.54 36.17 35.32 35.37 34.72 36.01 39.31 38.97 31.88 32.98 34.05 42.58 45.94 50.90 51.58 45.85 43.69 46.64 37.25 32.29 34.85 40.49 39.79 45.14 50.20 56.34 60.55 61.94 63.36 63.65 63.19
43.18 39.95 42.14 49.86 45.16 39.83 33.24 30.29 30.91 37.35 37.19 35.76 28.85 31.74 27.40 30.25 30.80 30.97 33.24 39.41 39.65 41.59 39.94 36.00 31.10 39.29 44.96 48.99 50.67 50.03 48.48 40.45 36.01 33.29 28.98 34.82 37.27 41.88 45.02 47.12 54.87 60.54 61.70 63.15 64.08
39.45 38.20 45.31 49.25 41.86 35.62 28.50 28.52 34.72 39.21 39.77 34.64 31.95 29.88 29.69 28.73 30.27 30.57 32.71 39.16 41.11 39.93 42.17 36.79 35.76 36.25 41.99 42.37 44.20 44.41 45.43 42.63 43.62 37.55 38.14 30.42 37.84 44.05 45.43 48.38 49.64 57.54 61.29 62.17 64.06
36.97 33.22 45.24 44.19 34.79 30.07 28.94 33.82 39.99 37.07 39.11 36.27 35.22 33.24 30.10 31.30 30.00 30.79 33.09 36.94 42.55 41.30 36.74 39.30 37.41 34.84 36.22 44.75 44.98 43.90 45.33 40.35 42.69 36.96 34.00 35.77 41.34 47.44 48.08 49.09 48.63 51.65 58.47 61.18 64.29
37.42 35.22 44.24 41.61 29.32 29.32 33.66 36.98 38.73 37.14 35.82 35.66 34.13 34.92 34.20 30.45 27.33 33.92 36.06 41.57 42.81 40.20 37.17 39.53 36.03 26.71 34.89 37.06 42.11 40.23 41.85 43.16 42.52 36.82 34.96 39.76 42.48 47.14 46.93 48.42 50.82 50.75 51.34 58.63 62.57
37.38 31.75 35.91 36.01 35.05 31.29 32.61 34.46 36.01 41.70 39.40 38.03 36.05 35.04 32.04 29.58 31.77 31.08 34.33 40.54 41.17 40.17 44.84 41.32 35.64 29.71 28.97 30.38 35.27 33.34 36.34 38.66 39.53 37.33 38.08 40.58 43.66 46.07 47.62 47.92 49.03 50.65 52.06 53.99 61.86
35.05 31.46 33.54 29.88 31.24 31.97 34.25 34.82 34.91 35.79 40.08 38.23 35.34 36.16 32.12 26.16 27.80 29.63 33.93 34.39 39.26 42.16 40.05 37.87 29.85 31.87 32.56 34.54 35.17 34.44 34.67 36.91 38.26 42.30 41.01 42.36 41.07 44.95 45.56 47.33 51.68 53.94 51.55 52.34 60.29
35.32 34.63 34.73 34.32 35.24 35.94 34.95 33.50 34.66 36.28 36.51 36.17 35.39 37.03 34.74 28.37 29.87 27.48 31.78 30.96 31.83 36.03 36.25 37.66 29.57 31.51 30.85 35.15 35.85 34.04 38.50 41.05 42.10 45.43 42.76 42.06 42.67 45.08 53.80 56.14 57.79 57.14 53.41 53.35 62.00
38.66 40.13 40.49 38.48 36.88 35.67 35.72 36.51 36.28 38.13 39.58 40.71 38.73 36.81 35.40 36.35 36.50 35.13 35.03 33.90 34.65 34.15 34.37 34.02 32.77 29.50 25.46 33.98 35.94 36.76 40.95 43.23 45.87 44.06 44.09 41.26 43.89 52.03 55.25 57.24 57.89 58.96 58.06 55.64 60.61

GFSSW_sfc_wetblb_048.txt.gz
Wetbulb
56.22 56.26 56.34 56.51 56.66 56.79 57.02 57.14 57.21 57.57 57.51 57.63 57.65 57.50 57.03 57.07 56.39 54.55 48.65 53.95 55.78 64.88 69.50 71.50 68.51 67.29 67.44 66.03 68.33 64.74 55.60 53.20 57.10 57.40 60.05 64.36 63.10 66.63 67.52 64.20 64.57 63.45 61.87 64.48 67.62
56.26 56.30 56.36 56.40 56.42 56.57 56.64 56.93 57.20 57.35 57.46 57.39 57.32 57.14 57.36 56.75 52.61 49.90 56.53 62.13 64.02 67.76 67.46 66.99 63.21 64.75 64.00 64.81 66.43 60.66 54.53 54.92 61.40 61.98 60.28 63.47 64.23 65.22 63.83 63.29 59.53 60.48 63.74 66.17 66.27
56.31 56.24 56.25 56.44 56.43 56.48 56.53 56.72 56.99 57.04 57.02 56.96 56.87 57.00 57.55 55.22 48.95 50.28 65.81 63.15 65.39 68.83 65.64 63.65 63.45 64.89 61.55 63.47 63.77 62.64 57.42 60.21 62.05 62.92 63.49 62.28 64.53 65.78 63.08 60.96 59.49 58.86 61.78 64.27 64.99
56.29 56.18 56.01 56.16 56.38 56.46 56.59 56.64 56.53 56.63 56.60 56.35 56.40 56.73 56.73 52.80 41.94 55.06 72.15 65.05 67.10 67.31 64.23 62.54 62.47 58.62 57.15 56.90 62.56 59.18 62.84 63.26 63.15 64.49 63.22 61.83 65.01 63.98 64.07 64.15 63.80 62.33 63.66 64.06 63.80
55.83 55.91 56.16 55.91 56.07 56.36 56.76 56.44 56.12 56.07 56.48 56.63 55.88 56.65 50.89 43.14 45.24 55.03 67.56 65.39 63.73 63.60 61.17 57.66 58.90 53.47 54.80 56.92 57.81 59.59 62.05 62.69 64.68 64.89 63.92 63.53 62.98 63.65 63.95 63.58 62.99 63.22 63.56 63.37 63.77
55.79 56.09 56.09 56.05 56.24 56.17 56.69 56.39 55.41 56.14 57.78 57.38 56.27 56.54 47.22 37.96 51.31 57.11 62.02 61.45 62.15 59.67 58.85 55.15 58.40 54.84 53.18 54.28 56.44 59.02 61.06 61.24 61.75 60.65 61.61 61.36 61.60 63.89 63.09 62.01 61.26 61.72 62.03 63.57 63.86
55.48 55.68 55.54 55.67 55.96 55.86 55.86 55.38 55.04 56.94 57.79 57.10 58.21 54.69 47.92 45.38 54.90 56.48 60.24 57.28 57.77 59.26 54.35 52.63 55.37 55.85 51.51 51.23 55.77 56.63 52.16 54.80 56.81 59.23 59.42 61.51 59.99 60.73 62.39 61.83 59.80 60.22 61.53 63.30 63.63
55.27 55.52 55.24 55.40 55.25 55.08 54.82 54.35 54.99 57.06 56.99 58.17 59.07 52.86 45.49 54.73 55.37 56.37 59.32 56.61 58.76 53.95 51.66 52.57 52.46 50.79 48.96 52.19 50.16 50.03 50.39 47.55 55.74 58.34 60.24 59.58 52.86 62.43 62.77 61.46 59.51 59.64 60.39 61.76 62.74
55.14 54.99 54.85 54.67 54.39 53.86 53.43 53.74 55.54 59.02 58.63 59.54 52.37 47.80 44.22 58.55 49.80 50.15 52.86 54.24 56.46 54.83 53.72 55.91 49.84 46.17 48.31 45.44 42.78 43.43 44.19 48.15 52.50 58.82 59.51 57.55 55.47 62.41 63.51 62.01 60.34 59.96 59.98 60.78 61.80
54.61 54.34 54.12 53.86 53.35 52.93 52.76 53.83 58.60 58.24 58.07 57.90 56.08 43.61 45.95 44.48 46.67 48.03 49.66 57.21 54.77 53.78 51.79 47.92 44.41 40.59 40.59 41.29 36.86 41.07 41.90 46.66 49.72 53.89 58.15 55.80 56.19 61.59 62.63 62.22 61.44 61.42 61.72 61.76 62.37
54.52 54.07 53.72 53.13 52.73 52.28 49.82 41.13 39.93 38.57 40.81 36.26 39.01 41.04 44.07 45.88 47.92 46.28 47.73 53.83 51.06 48.24 42.64 43.85 39.37 38.68 41.83 45.21 45.68 46.12 46.64 47.76 51.27 54.41 55.97 55.05 56.83 60.41 62.23 62.06 61.39 61.76 62.20 62.67 62.85
54.07 53.80 53.27 52.60 52.23 52.25 45.17 41.49 42.50 43.34 35.79 40.88 41.73 41.53 43.72 43.33 42.24 46.79 47.81 49.77 47.29 42.47 44.00 40.53 38.21 43.40 44.37 44.78 45.28 44.96 42.09 44.24 49.30 53.72 53.22 53.10 54.75 60.59 61.63 61.76 62.38 62.25 62.24 62.92 63.92
53.82 53.35 52.60 51.83 51.57 46.28 42.79 42.22 44.88 39.18 32.91 38.51 41.47 41.72 42.76 40.94 41.41 43.45 46.42 45.21 46.42 43.53 43.27 39.19 42.15 46.32 44.79 43.40 42.39 43.08 41.28 42.32 45.83 49.55 53.35 51.65 50.07 57.05 61.38 62.22 63.14 63.75 64.15 64.04 64.10
53.49 52.93 51.75 51.08 44.95 42.96 42.18 44.11 45.28 41.80 29.45 36.83 38.50 42.58 43.31 42.22 39.79 47.26 47.25 44.94 44.11 44.53 44.82 43.20 47.24 45.80 43.53 42.62 43.36 35.74 46.45 47.27 45.69 44.94 41.07 50.73 41.70 52.20 58.30 59.60 61.23 62.03 63.06 63.56 64.41
53.22 52.21 50.96 50.45 41.25 41.71 44.40 44.80 41.62 38.99 22.76 39.69 38.81 45.07 41.72 38.43 40.41 42.97 49.01 46.61 41.07 41.73 43.43 43.70 44.59 45.21 43.15 43.50 45.66 42.04 46.81 45.61 45.87 43.14 41.09 45.28 43.54 45.72 57.48 57.13 59.19 61.15 62.47 63.80 64.71
52.40 51.35 50.97 46.16 42.61 45.41 45.60 43.42 39.20 30.46 24.18 35.18 38.86 37.70 37.92 39.26 40.60 42.46 45.49 47.42 46.99 43.22 42.88 42.40 47.38 47.43 47.40 48.35 48.14 48.74 44.78 43.68 42.47 40.22 36.17 42.62 45.10 43.24 51.26 57.09 59.52 61.80 63.11 64.05 64.61
51.29 50.27 48.86 48.73 43.66 46.35 44.31 38.49 29.38 23.92 35.97 32.94 32.42 35.01 33.93 35.67 37.20 38.26 39.63 38.50 35.07 33.22 33.95 40.86 43.09 45.49 47.76 44.93 47.81 46.45 41.78 33.22 31.75 32.96 36.58 43.34 43.95 44.70 49.82 57.86 60.63 61.72 63.09 64.55 65.39
49.90 48.90 46.59 49.55 47.72 45.81 39.48 34.12 23.07 32.73 29.96 34.14 34.16 32.89 31.61 34.96 35.02 36.44 35.92 34.95 39.28 36.74 33.23 32.38 35.04 43.29 46.94 45.40 43.62 44.61 40.98 33.21 27.86 29.65 38.14 40.75 37.97 44.02 53.01 56.53 61.51 62.94 64.38 65.21 65.42
49.12 41.35 42.84 45.71 47.83 41.22 36.93 26.60 26.62 29.31 34.57 32.99 32.01 29.27 29.53 33.45 33.17 33.58 33.38 35.42 37.73 37.03 30.97 30.65 33.15 42.36 44.82 45.81 47.21 43.08 40.46 43.48 35.66 31.81 33.34 41.82 40.71 46.83 50.06 52.81 57.95 60.18 62.41 63.54 64.58
41.54 38.09 41.20 47.97 43.32 39.27 32.89 29.56 29.88 35.58 35.80 34.57 26.99 30.14 25.97 28.50 29.74 30.05 30.19 38.30 37.99 40.01 41.04 34.81 29.52 38.72 42.80 45.73 46.88 45.37 47.02 38.62 35.41 31.09 28.23 34.79 36.71 43.92 45.41 49.50 53.17 57.21 60.02 62.35 64.32
38.06 36.91 43.44 46.75 40.41 35.35 27.66 27.01 33.27 37.82 38.73 33.94 30.80 28.62 28.76 27.81 29.12 28.71 30.75 37.59 40.16 38.91 39.47 34.10 33.50 34.95 40.46 39.95 40.96 41.61 44.09 41.48 42.12 37.87 33.32 30.30 35.99 44.91 46.68 50.77 51.77 53.53 60.32 61.83 63.41
35.51 32.00 44.14 42.74 34.37 29.48 28.03 31.93 38.82 35.88 38.12 35.07 34.18 32.55 30.18 30.76 28.74 29.74 31.40 35.61 41.79 38.96 34.57 37.53 33.50 32.27 34.84 42.08 42.97 41.13 39.04 40.90 41.63 36.30 34.22 35.40 39.80 47.10 48.16 49.19 49.93 53.19 56.66 62.25 64.00
36.53 35.50 42.79 40.39 28.09 27.83 32.11 35.10 37.45 35.76 34.98 34.58 33.01 33.69 33.23 30.06 25.88 32.45 34.69 40.84 41.79 38.42 34.68 35.88 35.83 24.77 31.27 34.83 37.78 36.86 38.61 35.26 34.56 38.60 41.16 38.95 39.64 49.84 46.95 47.73 48.51 50.03 52.93 56.56 60.96
35.80 31.23 34.70 35.38 32.92 29.33 31.80 32.50 34.25 40.37 37.65 37.30 35.76 34.73 31.05 28.40 30.15 29.01 32.97 39.69 41.11 39.85 44.14 39.91 31.25 28.14 26.12 30.21 33.46 31.77 35.46 36.77 32.87 30.89 38.16 41.07 44.22 46.11 47.75 47.41 49.09 49.84 51.22 51.41 54.23
34.34 31.07 32.40 28.89 30.90 32.54 36.08 33.37 33.26 34.04 39.11 39.51 35.80 35.98 32.77 26.81 27.56 28.41 32.05 34.72 38.90 42.46 38.52 34.44 27.78 31.60 31.94 33.77 34.42 33.96 34.08 35.61 33.68 35.02 33.72 41.63 40.67 43.80 47.07 47.74 49.41 53.36 53.80 53.66 53.98
34.84 33.73 34.03 32.28 36.78 35.84 35.55 31.69 34.07 35.59 35.78 34.97 35.07 37.27 36.79 31.73 30.75 28.48 31.09 29.13 31.88 35.83 33.92 33.07 28.24 32.52 29.61 34.22 34.75 33.60 36.50 37.59 37.76 38.03 38.72 40.39 40.94 47.07 53.15 56.78 58.31 59.04 60.16 59.75 56.90
39.45 41.59 40.62 38.35 37.39 35.88 35.66 36.74 36.68 38.21 38.03 39.90 39.32 36.92 34.09 36.56 39.37 38.83 34.17 32.56 32.26 32.72 30.82 31.86 29.74 30.84 24.83 31.67 32.52 32.64 37.43 40.78 41.25 41.81 42.10 39.57 43.29 49.09 55.33 56.97 56.08 56.78 58.58 60.36 61.56

GFSSW_sfc_wetblb_051.txt.gz
Wetbulb
57.01 57.07 57.09 57.09 57.30 57.45 57.48 57.52 57.78 57.84 58.18 58.24 58.01 57.73 57.06 56.97 56.43 55.02 50.08 56.35 57.02 65.25 70.46 71.92 69.70 69.24 69.01 67.57 68.64 66.15 58.70 56.03 58.12 59.03 59.84 63.85 63.80 67.54 68.61 63.20 65.00 65.34 64.91 67.19 69.59
57.03 56.84 56.90 56.89 57.09 57.33 57.51 57.53 57.64 57.58 57.73 57.68 57.44 57.40 56.56 56.98 53.37 51.36 58.24 60.30 63.14 68.96 68.32 66.75 64.25 66.26 64.08 65.62 66.41 61.93 59.41 58.15 62.04 62.60 61.51 64.48 65.01 66.05 64.82 63.86 62.15 63.38 66.63 68.32 69.01
56.61 56.34 56.26 56.49 56.78 56.92 57.21 57.31 57.35 57.35 57.44 57.43 57.22 56.91 56.66 56.08 50.45 52.51 63.07 68.08 64.72 67.22 69.06 67.01 66.10 64.87 62.83 65.68 65.09 64.13 59.57 62.64 63.55 64.09 65.31 63.24 64.88 67.72 65.26 63.05 63.90 62.83 64.95 66.24 67.69
55.99 55.82 55.81 56.02 56.16 56.53 56.91 56.86 56.82 56.82 56.99 57.22 56.95 56.36 56.60 54.33 46.48 54.21 67.36 68.67 66.10 66.62 68.38 62.69 63.94 61.31 59.51 60.56 65.04 61.16 64.24 64.67 64.23 65.32 64.20 64.10 66.88 65.57 66.19 66.08 67.83 66.43 66.85 66.93 66.64
55.76 55.76 55.94 55.87 55.86 56.03 56.31 56.29 56.19 56.34 56.91 57.62 56.64 56.20 54.49 48.59 48.14 57.95 66.74 65.49 65.39 65.28 62.15 59.20 60.72 60.12 56.25 59.62 62.60 61.97 63.62 64.93 65.22 65.73 65.80 66.29 64.44 64.66 65.94 66.75 67.01 66.91 66.78 65.94 66.53
56.03 56.16 56.00 56.07 56.08 56.06 55.67 55.56 55.50 56.00 57.79 58.47 56.42 56.79 52.33 44.32 54.28 58.83 63.53 63.29 64.36 63.03 61.86 61.93 60.75 61.71 59.02 60.88 60.35 62.35 62.30 63.58 64.07 63.99 64.76 62.91 63.57 65.64 65.38 66.14 65.22 65.71 65.56 66.13 66.21
55.90 55.82 55.71 55.79 55.96 55.24 55.17 54.84 54.94 56.10 57.81 57.70 58.21 55.66 50.63 48.93 57.24 58.89 62.73 62.00 64.70 63.10 60.50 62.57 63.16 60.55 57.84 56.19 60.95 60.77 58.12 59.28 60.18 62.05 61.98 63.48 60.49 63.11 64.98 65.48 63.98 64.71 65.37 65.68 66.30
55.19 55.61 55.39 55.46 55.35 55.08 54.83 53.93 54.84 56.70 57.62 58.88 59.21 55.50 49.68 56.81 59.42 59.54 61.79 60.65 63.19 61.83 59.69 58.98 60.53 60.42 54.70 56.14 53.62 53.92 54.76 54.07 60.05 61.44 62.35 62.64 57.43 64.30 64.67 64.49 63.18 64.00 64.54 64.84 65.78
55.10 55.10 54.95 54.74 54.60 54.10 53.40 54.63 55.86 58.91 58.99 59.35 56.42 53.56 46.83 58.75 49.99 51.75 54.52 57.22 58.90 61.89 57.63 58.15 56.46 55.52 54.97 51.77 50.03 51.69 49.00 52.18 56.59 61.71 61.75 61.62 58.25 64.74 64.63 63.93 62.51 63.23 64.07 64.45 65.01
54.72 54.47 54.33 54.00 53.64 53.15 52.92 55.11 60.43 59.79 59.05 58.88 56.36 48.91 49.21 46.19 49.04 49.99 54.50 60.14 56.58 56.97 54.01 52.09 53.86 49.75 49.98 49.43 43.14 47.16 48.15 52.96 55.87 59.86 60.82 59.98 59.57 63.93 64.09 63.63 62.19 62.55 63.61 64.25 64.40
54.41 53.98 53.89 53.56 52.90 52.46 51.78 48.50 47.70 47.26 47.86 43.53 43.95 44.32 46.56 48.72 50.81 50.87 51.74 56.78 55.78 52.05 46.81 49.67 46.30 45.09 47.17 49.42 50.75 51.15 50.66 51.95 56.81 60.20 59.35 59.88 60.22 62.99 64.52 64.30 62.43 62.30 62.57 63.53 64.25
54.04 53.79 53.46 52.72 52.42 52.33 50.12 48.17 47.33 47.95 42.68 44.43 44.03 44.56 46.43 47.14 45.46 48.25 53.60 53.09 52.27 46.95 48.01 45.76 43.27 47.87 49.03 48.07 48.51 48.73 48.84 51.21 55.61 57.22 58.11 58.42 58.70 63.05 64.27 64.43 64.51 63.17 62.71 63.08 64.16
53.85 53.46 52.72 52.19 52.06 50.69 48.74 48.18 50.42 47.33 42.04 43.04 45.42 45.42 45.60 47.01 45.05 45.64 49.80 48.53 50.51 48.01 46.58 44.24 46.14 48.52 46.68 45.77 45.23 46.92 47.11 49.44 50.52 52.09 56.44 56.43 55.87 59.22 64.01 65.25 65.62 65.80 65.58 65.18 64.55
53.66 53.05 52.08 51.10 49.36 47.85 47.37 49.28 50.53 47.97 39.84 40.85 42.51 44.76 46.76 45.48 43.53 48.49 52.80 48.28 46.53 48.31 48.19 47.85 50.71 46.91 45.96 44.86 46.20 43.18 48.63 50.04 49.78 48.87 49.81 56.53 50.45 56.70 60.92 62.54 64.15 65.20 65.71 65.90 66.07
53.27 52.43 51.33 50.58 49.56 48.11 49.58 50.75 47.02 45.19 31.48 40.83 42.09 48.31 46.84 43.87 44.62 45.34 52.54 50.66 44.75 45.32 48.02 47.43 47.78 47.08 45.38 45.97 47.55 45.17 48.31 47.13 48.96 48.85 48.77 50.80 50.08 55.39 59.86 59.99 62.52 64.85 66.08 66.71 67.21
52.72 51.64 51.03 49.76 48.93 50.53 50.84 48.74 46.85 38.05 30.17 37.29 41.75 40.53 41.58 43.32 43.06 45.44 47.86 50.44 49.05 46.44 47.21 47.13 52.66 51.20 49.92 49.95 48.64 49.39 48.36 47.67 47.44 47.03 43.20 49.16 49.33 51.68 56.21 59.86 62.63 65.02 66.19 67.22 67.71
51.51 50.46 49.64 51.03 47.75 51.94 49.82 46.43 37.53 32.34 38.89 35.50 37.24 39.53 39.52 38.71 40.46 42.33 42.87 42.40 41.40 40.20 40.80 43.91 46.01 49.76 52.19 48.62 50.32 48.50 45.50 41.09 39.25 38.95 39.86 50.87 48.20 50.77 57.07 61.01 63.33 64.70 65.82 67.34 68.32
50.13 48.42 49.26 51.82 51.59 49.36 47.22 42.67 31.50 35.38 35.62 39.49 38.60 38.25 36.38 38.29 38.69 39.56 39.82 39.67 42.17 40.61 41.20 39.27 38.72 45.98 49.90 49.17 47.57 47.49 46.71 40.82 36.11 37.69 39.92 49.25 45.60 50.12 57.16 58.94 62.25 65.26 66.92 67.79 68.12
48.85 47.00 49.60 50.78 50.24 48.05 45.72 35.85 35.04 35.86 38.29 37.14 37.19 34.91 34.98 36.93 37.39 37.61 38.39 39.00 40.59 40.92 37.42 38.32 38.55 45.19 47.33 49.06 50.02 47.64 44.63 49.07 43.67 44.16 42.14 44.67 49.41 54.07 56.41 57.39 59.27 61.85 65.30 66.55 67.78
45.46 45.02 47.99 50.40 47.21 47.12 42.83 35.27 36.70 39.74 39.93 39.16 33.60 36.06 32.71 34.48 34.84 35.78 35.78 41.17 39.98 41.39 43.78 39.35 35.63 43.27 45.23 48.18 49.57 48.93 51.35 43.73 44.81 37.31 37.05 42.61 44.82 46.77 53.81 55.43 57.71 59.54 62.59 66.14 68.07
44.54 45.34 48.99 49.04 48.20 44.04 38.06 35.78 37.88 41.54 41.86 38.27 35.76 34.86 35.34 34.08 35.29 34.99 35.35 40.07 41.55 40.24 43.20 41.24 37.20 39.44 43.91 44.58 45.55 46.19 45.87 47.93 47.95 45.28 39.75 38.87 43.65 53.11 54.72 57.99 57.93 59.41 61.89 64.60 67.36
43.05 41.18 48.88 47.96 41.85 38.52 37.70 36.96 39.34 40.51 42.10 40.07 39.39 38.04 36.12 35.76 34.49 34.93 34.86 38.32 43.24 41.59 36.65 40.91 38.71 33.91 38.52 46.26 47.29 45.63 45.94 47.78 43.73 42.95 45.46 44.91 44.47 53.83 56.68 58.16 59.46 60.03 61.57 64.01 66.86
40.09 40.16 48.23 47.93 36.69 36.26 37.87 37.68 39.15 39.83 39.76 39.08 37.56 38.50 38.78 36.17 32.85 36.37 38.03 42.60 43.22 41.03 38.22 40.80 36.67 30.45 35.19 42.28 43.63 42.63 42.93 43.77 45.57 45.78 45.01 41.37 44.07 55.30 56.61 56.84 57.54 57.74 60.00 62.20 66.24
42.10 38.46 42.20 42.23 40.20 36.52 33.13 35.52 36.13 41.68 40.21 40.94 39.01 39.39 37.05 35.17 37.65 34.53 36.69 41.13 43.21 42.10 44.32 42.64 36.45 32.94 31.00 34.62 38.05 37.09 39.49 41.03 42.06 44.08 45.39 47.19 48.57 52.22 53.69 55.80 57.40 57.45 58.51 58.10 61.59
41.40 37.76 38.40 35.83 37.74 37.94 37.40 35.90 34.76 34.70 40.63 41.45 38.42 37.54 35.91 32.87 33.76 34.15 36.95 38.79 41.50 42.88 42.18 40.08 32.32 34.36 35.31 36.19 36.68 36.12 37.02 39.30 39.11 43.67 43.01 48.39 48.92 53.82 55.86 56.74 57.97 57.08 60.05 62.07 62.29
41.51 40.33 41.03 38.94 37.92 37.40 36.53 34.90 34.38 36.23 36.12 35.02 35.40 37.82 38.33 35.35 35.59 32.52 35.11 36.92 37.21 40.70 39.39 39.00 33.10 34.31 32.06 35.99 37.12 35.30 38.60 39.79 40.85 42.11 42.57 44.11 45.72 52.68 58.89 60.51 59.95 61.89 62.88 63.33 64.59
44.10 44.44 42.17 39.18 38.15 36.19 36.71 37.08 37.02 38.60 39.03 39.29 38.80 36.78 35.42 35.93 39.90 40.52 41.35 40.17 38.00 37.71 37.99 36.70 34.64 31.68 28.45 36.14 35.93 34.01 39.44 41.00 43.46 45.25 45.81 44.13 49.79 53.62 56.30 59.76 59.26 60.08 60.98 61.53 63.40

GFSSW_sfc_wetblb_054.txt.gz
Wetbulb
57.49 57.15 57.21 57.29 57.57 57.80 57.97 58.13 58.37 58.52 58.59 58.63 58.35 58.10 57.19 56.75 56.93 57.60 53.71 58.81 59.80 65.32 69.39 71.23 71.24 70.44 70.96 68.83 70.17 69.47 61.57 60.69 61.19 60.39 62.49 66.26 64.09 68.38 69.61 65.65 67.13 68.61 68.55 70.34 71.21
57.05 56.96 56.80 56.89 57.19 57.33 57.64 57.83 58.07 58.15 58.30 58.17 57.98 57.27 56.85 56.93 57.26 55.15 59.88 59.59 62.69 68.18 70.61 68.65 66.96 67.86 66.47 67.64 67.99 65.79 61.44 61.28 63.71 64.73 61.94 65.03 66.58 68.37 67.56 66.31 65.96 66.41 69.56 70.44 70.40
56.66 56.51 56.54 56.71 56.72 56.95 57.24 57.53 57.53 57.80 57.90 57.95 57.67 56.95 56.66 57.97 54.89 56.87 63.48 64.74 64.41 67.36 68.97 68.95 67.88 66.13 63.30 66.70 67.00 65.65 61.47 64.69 63.60 64.46 66.32 65.61 66.44 69.52 67.38 65.34 67.09 66.40 67.72 68.70 69.93
56.17 56.20 56.19 56.24 56.44 56.56 56.79 56.93 56.90 56.88 57.11 57.81 57.61 56.61 56.71 58.05 50.40 57.76 68.51 68.78 67.31 65.91 65.74 64.51 64.64 61.75 60.47 61.36 65.82 62.69 65.64 66.36 65.18 66.89 66.14 64.71 67.27 67.10 67.86 68.30 70.56 69.82 69.64 69.74 69.20
56.13 56.55 56.67 56.39 56.11 56.33 56.51 56.49 56.29 56.28 56.89 58.47 57.72 56.95 57.80 53.86 50.34 60.18 66.58 69.06 65.47 66.87 64.65 62.92 61.65 60.51 57.56 60.22 61.85 62.98 64.93 66.01 66.36 66.39 66.96 67.38 66.03 65.85 67.36 69.89 70.78 70.29 69.54 69.19 69.32
56.34 56.38 56.22 56.30 56.55 56.39 56.02 55.65 55.57 55.98 57.70 59.17 57.44 57.83 56.58 48.98 58.20 61.96 64.62 64.15 61.79 64.36 64.91 62.44 60.46 60.94 58.78 58.73 59.15 62.55 63.58 66.22 65.92 66.04 66.60 65.77 65.64 66.05 68.22 70.29 69.68 69.31 68.76 69.24 69.20
56.23 56.07 55.95 56.07 56.04 55.74 55.35 54.97 55.36 56.45 57.93 58.04 58.41 58.53 55.07 52.68 59.00 63.56 64.61 63.73 64.85 62.66 61.44 61.89 62.70 60.55 57.91 57.40 61.62 61.26 60.48 62.88 62.99 64.40 63.41 66.18 63.18 64.00 69.18 69.74 68.67 68.75 68.89 68.90 69.35
55.73 55.76 55.60 55.54 55.11 54.87 54.47 54.79 55.62 57.19 57.96 59.00 59.33 59.81 52.93 57.49 59.03 59.59 63.07 62.64 66.68 64.48 63.53 64.24 62.45 61.38 57.04 58.20 55.20 55.10 58.77 57.22 63.79 61.88 63.42 64.06 59.42 66.47 69.16 68.88 67.90 68.32 68.38 68.28 69.01
55.30 55.24 55.16 55.03 54.82 54.30 53.89 54.77 58.21 58.79 59.13 59.54 59.97 56.95 49.14 58.72 52.32 54.13 56.00 60.35 64.51 61.00 62.84 63.47 60.94 59.02 58.80 52.61 50.68 52.15 51.19 55.36 60.04 63.85 62.66 63.44 61.66 67.17 68.79 68.72 67.67 68.04 68.10 68.10 68.53
55.03 54.63 54.53 54.39 54.12 53.54 53.08 54.31 60.32 59.88 60.15 60.57 58.55 52.73 51.31 49.25 52.79 53.16 58.36 61.99 59.95 59.10 55.38 56.01 56.11 53.42 53.85 51.31 46.52 50.08 50.02 54.37 56.51 62.94 63.98 62.53 62.46 66.39 67.49 67.82 67.43 67.97 67.92 67.95 67.93
54.74 54.28 54.22 53.81 53.30 52.98 55.25 54.52 55.43 50.94 51.81 48.22 48.10 47.95 48.89 51.96 54.10 54.11 60.70 59.79 58.71 57.74 50.93 52.72 50.60 48.41 50.26 52.13 52.36 52.72 53.10 52.83 59.63 62.62 62.64 62.15 62.41 65.50 66.89 67.26 66.95 67.44 67.44 67.62 68.02
54.43 54.26 53.83 53.09 52.75 52.71 56.07 51.85 50.42 51.77 47.31 48.73 48.26 48.84 49.78 50.74 49.15 51.68 58.62 55.92 54.38 51.98 52.85 49.68 47.01 52.12 52.70 51.88 50.98 51.21 52.30 53.62 57.76 60.71 62.16 61.99 61.69 64.59 66.96 66.97 67.40 67.10 67.27 67.59 68.37
54.32 53.95 53.19 52.48 52.66 55.87 53.15 51.64 55.09 54.03 47.58 47.05 48.61 48.27 48.20 50.43 47.53 48.46 54.14 54.61 53.68 51.11 50.36 48.33 49.90 51.65 50.52 50.37 49.01 49.74 49.41 52.06 54.10 57.14 59.46 60.91 59.78 61.90 66.30 67.89 68.41 68.11 68.19 68.46 68.36
54.20 53.68 52.54 50.88 52.77 54.77 52.82 54.85 56.22 54.55 44.26 44.45 45.70 47.23 49.20 49.41 46.50 50.86 54.28 52.29 51.60 51.31 51.93 50.43 52.78 49.63 49.00 48.22 49.50 47.00 50.30 50.20 52.73 53.08 52.87 60.31 53.15 59.71 63.11 65.46 67.08 68.13 67.83 67.82 68.16
53.77 52.87 51.61 50.45 55.15 53.44 53.90 56.33 54.47 51.35 35.93 43.90 45.03 50.77 49.35 47.08 47.25 47.98 54.11 52.89 48.52 49.45 52.49 50.02 50.60 50.05 48.32 49.11 50.79 48.38 51.25 49.62 49.56 51.87 53.41 54.83 54.61 57.06 62.23 62.41 65.47 67.59 68.54 69.03 68.89
53.21 52.16 51.11 55.05 56.01 54.85 56.23 55.02 51.19 42.17 35.40 40.78 44.65 43.79 44.73 46.02 45.57 48.32 49.36 53.04 52.75 48.95 50.85 50.91 54.95 53.38 52.54 52.66 51.96 51.87 50.06 49.58 49.55 47.95 46.09 52.83 53.66 55.46 58.72 61.40 64.42 67.42 68.54 69.36 69.96
51.62 50.53 52.02 55.72 52.91 56.08 55.85 50.92 42.04 37.67 42.56 39.90 41.27 43.39 43.16 42.52 43.45 45.04 45.19 45.89 45.19 43.05 43.96 47.78 48.79 52.80 54.32 51.20 53.14 51.15 48.29 44.06 42.47 41.76 41.14 51.83 51.75 55.02 59.90 62.82 63.97 65.91 68.10 69.54 70.66
50.20 49.10 51.08 55.25 56.34 55.30 53.50 46.41 37.28 40.22 40.37 42.88 42.10 42.08 40.62 42.14 42.35 42.38 42.51 42.94 45.77 45.29 43.95 43.04 42.13 48.23 52.61 52.01 50.29 49.93 49.32 44.64 40.30 41.55 42.84 48.14 47.26 53.38 60.26 62.15 64.29 66.44 68.38 69.73 70.46
49.51 55.68 56.09 55.50 55.14 54.99 49.72 41.51 40.96 40.73 42.07 40.73 41.38 39.71 40.16 41.20 41.32 41.40 41.63 42.10 44.25 45.05 41.37 42.94 42.29 49.68 50.55 52.57 53.27 50.81 47.73 51.63 47.56 48.91 46.15 47.10 48.67 53.70 58.85 60.26 61.83 62.76 65.38 67.93 69.58
51.44 54.45 52.91 55.35 53.99 52.04 47.25 40.27 42.09 43.13 42.98 42.31 38.47 40.45 38.32 39.79 39.13 39.98 40.16 44.11 43.21 44.39 46.51 44.62 40.02 47.44 49.48 51.19 52.24 51.37 53.93 46.86 47.56 41.50 41.22 46.18 47.55 47.18 54.87 57.69 60.03 61.48 62.97 65.98 68.98
51.81 50.40 53.32 55.51 53.46 49.85 44.29 43.05 42.30 44.42 44.48 41.32 40.22 39.64 40.06 39.33 39.81 39.76 39.69 42.91 44.65 43.32 44.94 44.13 41.33 43.16 46.60 47.05 46.68 48.74 48.23 49.88 50.24 48.07 43.65 43.11 46.74 54.07 54.76 56.89 59.33 61.00 63.07 64.92 67.95
50.86 47.38 53.92 55.66 48.35 48.54 44.80 41.94 41.00 43.88 45.34 43.35 42.89 42.13 41.06 41.08 39.55 39.18 38.68 41.15 45.17 44.03 39.98 43.75 41.79 38.93 41.47 48.55 51.27 49.94 49.43 49.91 44.91 45.48 47.90 47.70 47.97 55.71 56.22 56.97 59.49 61.28 63.14 64.70 66.76
48.35 48.82 54.23 54.52 45.68 44.17 43.91 42.56 43.08 42.86 43.40 42.68 41.38 42.44 43.02 40.51 36.81 39.75 40.10 43.80 45.13 42.72 41.27 44.26 39.35 35.66 37.98 42.23 46.60 46.06 49.22 50.51 50.15 50.50 47.70 45.46 47.72 56.91 56.65 58.58 59.10 60.15 62.05 64.76 66.16
48.82 46.21 48.97 48.89 47.58 42.20 41.01 41.01 40.43 44.15 43.42 43.94 42.97 43.66 41.71 40.07 41.96 38.18 39.31 42.88 44.83 43.68 44.66 43.75 40.25 37.77 35.09 38.42 41.56 40.58 45.04 46.78 47.66 45.53 46.87 48.62 51.20 54.38 56.53 56.83 59.28 60.78 62.05 62.71 64.78
48.66 43.67 44.42 41.54 41.36 41.50 42.44 40.45 36.18 37.05 42.81 44.14 41.42 41.55 39.49 36.70 38.04 38.05 39.94 40.95 43.46 44.21 45.01 43.34 37.20 39.36 39.84 39.93 39.89 40.03 40.48 42.55 42.69 46.52 45.59 49.48 50.66 55.25 56.53 57.00 58.75 60.58 61.66 61.87 62.26
47.74 45.42 48.24 43.60 42.90 42.39 40.73 40.14 38.24 38.63 39.09 37.84 38.68 40.19 39.05 38.01 39.17 36.76 39.63 39.46 39.59 43.26 42.36 44.05 36.37 38.36 36.33 39.18 38.99 37.54 40.62 42.34 43.22 44.44 46.11 48.59 48.82 57.15 58.34 60.95 62.04 61.61 63.54 64.27 64.82
51.33 49.78 46.76 40.66 39.79 37.73 37.44 37.86 37.68 40.01 40.26 41.25 40.23 37.79 35.79 38.59 43.42 41.90 44.67 44.49 43.44 41.06 41.07 40.24 38.65 36.61 33.30 38.24 37.66 35.05 40.34 43.17 44.55 46.37 46.86 45.37 51.43 57.18 57.21 59.59 62.38 63.17 64.18 64.24 65.57

GFSSW_sfc_wetblb_057.txt.gz
Wetbulb
57.63 57.69 57.81 57.56 57.73 57.92 58.17 58.53 58.64 58.83 58.94 59.05 58.94 58.62 57.97 57.44 57.30 59.40 56.07 61.16 61.68 67.92 68.63 70.60 70.75 70.98 71.50 68.64 69.10 70.52 62.64 58.85 58.89 59.92 63.72 67.07 64.34 67.54 69.50 68.01 69.08 70.25 70.10 70.92 72.49
57.35 57.20 57.22 57.13 57.18 57.51 57.83 57.95 58.25 58.33 58.48 58.52 58.44 58.38 57.67 57.35 58.85 57.93 62.70 61.51 62.33 65.33 69.59 67.26 67.51 68.91 66.91 67.90 68.34 65.55 63.24 59.31 65.97 65.05 64.83 66.91 66.89 67.44 66.82 67.48 68.19 68.73 71.58 71.52 71.83
56.99 57.07 57.08 56.83 56.94 57.32 57.57 57.80 57.84 57.88 57.96 58.07 58.35 58.40 57.75 58.45 58.34 59.41 65.02 64.47 64.95 65.79 70.47 69.32 68.74 67.33 64.59 66.59 67.46 67.02 63.18 65.27 65.36 66.84 66.45 65.38 65.52 68.56 66.98 65.45 67.97 67.81 68.91 69.44 70.99
56.68 56.61 56.79 56.57 56.66 57.01 57.30 57.58 57.51 57.48 57.59 57.76 58.71 58.09 57.44 59.74 53.14 60.85 67.01 68.53 67.41 66.96 69.80 67.30 66.00 63.16 61.88 62.24 66.54 63.29 65.72 65.54 64.81 67.72 65.89 65.19 68.25 66.85 67.96 66.07 70.30 71.00 70.33 70.21 70.08
56.61 57.02 57.11 56.74 56.29 56.70 56.93 56.94 56.64 56.63 57.11 58.16 59.43 58.05 58.30 56.51 53.96 60.60 67.84 69.72 67.03 63.68 66.37 65.30 63.11 62.53 59.22 61.49 63.78 63.37 64.34 66.92 67.36 67.29 66.03 66.05 64.21 64.59 67.63 70.80 71.92 71.61 70.35 69.70 70.07
56.56 56.64 56.60 56.54 56.53 56.39 56.40 56.25 56.16 56.41 57.47 59.85 59.41 58.10 59.31 53.34 59.17 64.74 65.50 67.81 63.12 62.21 63.82 64.21 62.48 63.43 60.08 59.66 60.56 62.73 63.74 65.55 66.09 67.87 67.83 65.08 65.26 67.00 68.01 71.21 70.75 70.49 69.77 70.27 70.44
56.40 56.38 56.27 56.19 56.04 55.88 55.82 55.40 56.84 56.74 58.71 58.38 58.72 60.00 58.88 54.56 59.55 64.91 65.62 63.09 62.38 63.24 62.61 64.70 64.11 62.11 60.16 58.49 61.55 61.62 60.33 64.28 65.74 66.55 66.48 67.38 63.90 64.62 69.36 71.07 69.99 69.76 70.28 70.41 70.46
55.97 55.87 56.06 55.90 55.36 55.18 55.00 54.75 57.46 58.01 58.35 59.27 59.89 62.62 54.77 57.52 59.65 61.18 65.22 64.32 64.18 64.52 65.34 64.81 63.61 61.81 59.96 60.04 57.52 58.19 59.68 58.73 64.87 65.41 66.62 65.68 58.84 65.69 70.34 70.17 69.35 69.72 69.68 70.02 70.25
55.62 55.64 55.56 55.51 55.33 54.83 54.26 54.18 58.66 59.31 59.93 60.66 61.83 61.63 52.13 58.54 54.93 57.36 61.74 62.27 64.56 64.05 64.09 63.71 62.75 59.02 59.74 54.62 53.52 54.26 53.11 56.76 60.43 64.19 64.49 63.90 60.22 64.85 69.79 69.76 69.27 69.79 69.42 69.47 69.97
55.14 55.34 55.20 55.06 54.34 53.93 53.60 53.85 58.75 60.32 60.73 62.65 61.01 55.53 53.16 51.42 55.00 55.90 59.40 63.22 63.87 60.11 60.70 60.54 58.73 55.74 56.40 54.54 47.58 50.65 51.61 55.60 58.14 63.28 63.80 62.59 62.68 64.02 68.46 68.90 68.86 69.54 69.31 69.24 69.35
55.10 54.95 54.73 54.40 53.62 52.93 54.84 57.86 57.69 56.32 55.93 51.27 51.43 50.67 51.53 54.43 56.63 56.23 61.40 61.50 62.99 57.95 52.96 56.74 53.67 50.78 54.27 55.73 54.33 53.12 53.94 53.87 58.47 63.21 61.90 60.72 61.92 63.20 67.55 68.12 68.55 69.06 68.86 69.16 69.41
55.03 54.67 54.44 53.87 53.09 52.63 55.44 53.89 52.83 54.63 50.43 51.53 51.27 51.53 52.73 54.21 51.36 55.33 61.56 57.00 56.55 54.06 54.99 52.26 49.60 54.09 54.72 54.09 52.85 52.45 52.22 53.77 57.36 61.82 61.54 60.43 60.19 63.87 67.01 67.42 68.95 69.19 68.75 68.91 69.70
54.67 54.42 53.74 53.03 52.43 54.96 55.62 53.74 57.04 56.28 50.32 49.96 50.99 50.57 51.01 52.84 50.06 51.26 56.25 57.46 54.41 53.87 54.27 51.59 52.35 54.06 53.51 52.65 51.10 51.48 51.16 54.00 55.69 60.27 63.36 60.81 58.88 62.55 65.62 67.86 69.01 69.85 69.85 69.40 69.80
54.42 54.18 53.07 51.85 51.91 57.26 55.27 57.01 57.67 56.28 47.25 47.01 47.76 49.74 51.35 51.72 48.90 52.88 54.95 55.06 54.20 52.14 52.70 52.74 54.80 51.97 51.69 50.97 52.54 49.71 52.86 52.06 53.65 55.48 53.86 61.25 51.76 59.05 60.51 65.44 67.25 68.45 69.22 68.92 69.49
53.93 53.29 51.95 50.50 57.01 55.56 55.82 57.73 56.85 54.49 37.97 47.29 47.73 52.62 51.10 49.46 50.23 50.31 54.27 53.84 50.49 51.34 53.47 51.06 51.45 51.29 50.45 51.23 52.74 51.05 53.83 51.75 50.81 52.10 54.60 54.98 55.06 59.37 62.76 61.09 65.26 67.82 68.63 69.59 69.83
53.17 52.20 51.53 56.22 58.12 56.80 57.93 57.32 53.94 43.61 37.05 43.53 47.16 46.48 47.02 48.14 48.12 49.98 50.60 52.94 53.56 50.95 52.10 52.22 56.02 54.04 52.61 53.53 53.63 54.28 52.21 51.89 51.38 49.38 46.03 53.26 55.26 56.35 57.15 61.97 64.33 67.41 69.00 69.57 69.92
51.66 50.55 51.87 57.62 55.38 58.15 57.98 53.90 43.99 39.44 46.67 43.42 44.32 46.08 46.28 45.79 46.27 47.04 47.41 48.18 46.34 44.81 44.81 48.54 49.69 53.26 55.32 52.13 53.69 52.80 50.59 45.39 43.89 43.46 42.91 51.09 53.04 56.82 61.69 63.23 63.23 66.04 68.38 70.13 70.59
50.00 49.02 54.96 57.02 58.44 58.04 56.39 49.10 39.91 43.83 44.07 45.98 44.91 44.80 43.82 45.33 45.89 45.33 45.71 45.15 48.81 47.27 45.55 43.96 43.67 49.52 52.36 52.52 51.64 51.59 50.59 46.69 41.94 43.16 44.75 49.58 47.90 54.53 61.64 64.49 64.82 64.34 67.97 69.81 70.60
49.33 57.41 58.22 58.44 58.10 57.30 52.33 44.10 44.04 45.32 45.64 43.87 44.87 42.88 43.90 44.49 43.73 44.29 45.06 45.17 47.09 48.32 43.80 43.97 44.01 51.40 51.58 52.55 53.12 51.64 49.07 52.69 48.94 50.49 47.79 48.53 50.13 54.00 59.99 61.51 64.16 63.96 66.59 67.53 70.03
54.80 55.96 55.33 58.16 58.36 54.84 49.06 44.08 46.13 46.86 46.18 45.33 41.89 44.01 42.29 44.19 42.21 43.83 44.72 46.99 45.97 47.27 48.82 46.56 43.01 50.16 49.76 52.15 53.08 51.87 54.56 48.06 48.41 43.14 43.02 48.01 49.69 48.46 52.91 57.18 61.09 62.67 64.34 66.67 70.08
54.71 53.06 56.22 58.90 57.08 51.89 46.14 46.98 46.07 47.55 47.49 44.70 43.90 43.54 43.35 43.32 43.39 43.47 43.74 45.77 47.05 46.79 47.25 46.78 45.38 45.73 48.75 48.44 47.90 49.24 48.91 50.88 51.29 48.86 44.64 44.77 48.69 56.47 55.29 55.60 58.73 61.60 64.11 65.83 68.50
55.18 50.33 57.24 58.29 49.94 51.77 48.59 46.64 41.45 47.23 48.37 46.67 46.02 45.13 44.01 44.68 43.69 43.28 42.89 44.87 47.78 47.22 43.33 46.22 44.13 41.65 44.49 49.85 51.17 50.22 48.93 48.77 47.01 47.17 49.06 48.68 49.43 57.54 57.68 57.21 58.50 61.35 63.27 64.77 66.71
52.69 53.46 57.43 57.24 46.96 48.37 48.02 46.54 46.88 46.33 46.77 46.20 45.02 46.14 46.54 43.90 41.05 43.23 44.18 46.49 46.63 45.18 43.60 46.13 41.93 38.09 40.72 44.91 47.71 46.59 49.45 50.62 50.46 50.42 48.71 46.40 48.44 58.09 58.22 58.07 59.03 59.40 61.22 64.15 65.70
52.74 49.58 52.66 52.64 51.36 48.00 46.49 44.50 44.43 47.12 46.22 46.47 46.04 47.00 44.99 43.46 45.30 41.56 42.58 44.83 46.63 46.15 46.22 44.90 42.29 40.48 38.07 41.33 44.12 44.07 46.33 49.05 49.22 46.08 47.22 48.79 51.54 55.39 57.09 57.07 58.81 60.38 61.83 63.48 65.93
53.01 47.93 49.19 45.20 46.54 47.11 46.88 44.89 41.76 42.09 45.97 46.68 43.70 43.32 42.51 40.13 40.73 40.69 43.49 44.13 45.59 46.97 45.30 44.76 38.87 41.57 42.03 42.94 42.85 42.37 43.83 46.63 47.02 49.01 46.75 50.26 51.05 55.10 57.36 58.47 59.83 61.01 62.27 62.97 63.98
51.13 49.90 50.84 48.32 47.34 46.41 44.10 42.42 40.68 41.39 42.90 42.19 41.65 42.43 43.15 41.33 42.14 40.08 41.73 42.87 42.59 45.22 44.39 45.07 39.33 41.69 39.50 42.03 41.82 40.15 42.10 43.44 45.40 46.79 47.58 48.85 49.45 56.18 57.80 60.13 60.92 60.44 62.20 62.20 63.44
54.26 53.84 51.64 42.24 45.79 43.98 42.23 41.43 41.54 42.98 43.87 44.12 42.08 42.30 40.97 42.73 45.48 46.88 47.64 46.95 45.58 43.58 42.36 42.56 40.58 37.80 36.27 40.86 40.52 37.26 40.78 41.80 43.45 46.04 46.63 45.12 51.04 55.70 56.39 57.35 60.78 62.25 63.58 64.08 65.70

GFSSW_sfc_wetblb_060.txt.gz
Wetbulb
58.07 58.09 57.81 57.64 57.56 57.84 58.22 58.62 58.70 59.05 59.16 59.33 59.50 59.24 59.11 58.46 57.75 58.10 54.71 61.60 63.75 69.16 69.06 65.95 68.09 70.35 71.06 68.76 69.33 68.82 62.23 58.37 59.03 60.25 60.56 66.08 64.19 67.48 69.71 68.16 69.54 70.24 68.71 70.11 71.09
57.40 57.52 57.34 57.17 57.39 57.56 58.02 58.38 58.66 58.74 58.90 58.74 58.95 59.09 58.99 58.10 57.33 57.02 66.24 66.11 63.10 66.42 64.18 66.04 64.68 68.00 66.56 66.70 66.51 64.54 61.16 59.75 63.20 64.63 64.51 67.40 66.54 67.75 66.39 66.81 67.19 68.70 71.09 71.25 70.74
56.88 56.79 56.89 56.89 57.07 57.17 57.73 58.05 58.16 58.14 58.25 58.25 58.66 59.26 58.82 58.29 57.05 58.79 67.32 66.79 66.00 65.11 68.66 67.67 66.92 66.98 64.02 65.83 65.78 65.06 61.46 63.51 64.72 66.33 67.34 65.34 65.34 67.12 65.87 64.84 67.07 67.20 68.47 69.54 69.41
56.62 56.71 56.76 56.52 56.72 57.03 57.34 57.64 57.68 57.57 57.74 57.88 58.59 59.52 58.19 58.30 53.96 62.03 69.85 69.64 68.32 63.43 67.14 67.60 65.96 63.53 62.16 61.70 65.40 61.85 64.74 65.61 64.85 66.78 66.49 66.27 63.68 61.91 64.54 66.90 69.71 70.41 70.05 69.65 68.42
56.63 56.71 56.97 56.83 56.49 56.65 57.10 57.21 56.90 57.13 57.63 57.90 58.93 59.48 57.11 55.85 57.56 64.37 71.00 69.27 65.74 62.37 64.65 66.46 63.62 63.01 59.93 61.90 63.48 62.33 64.02 65.52 66.32 66.89 66.84 67.27 63.36 62.98 65.96 67.99 69.60 70.87 69.94 68.92 68.49
56.82 56.85 56.87 56.81 56.66 56.38 56.74 56.87 56.29 57.76 57.80 59.34 60.52 59.06 56.76 55.06 59.62 63.91 65.22 67.25 62.71 58.98 64.63 66.97 63.93 64.10 61.21 60.68 60.12 63.16 63.04 64.44 67.07 65.89 66.72 63.82 64.54 65.97 66.46 67.92 70.09 69.35 68.71 69.23 68.62
56.30 56.48 56.48 56.58 56.31 56.03 56.05 55.79 55.79 58.36 58.88 59.06 59.51 59.01 59.88 57.29 59.59 63.08 64.59 66.16 63.63 58.46 62.03 66.84 65.45 62.33 61.81 58.35 60.70 60.10 59.46 62.39 65.37 65.63 64.64 66.26 61.03 61.62 66.96 69.07 68.66 68.12 68.70 69.46 69.60
56.10 56.10 56.29 56.33 56.22 56.05 55.75 55.16 55.54 59.10 59.31 59.57 60.06 60.86 58.63 57.74 59.55 61.07 64.76 62.89 63.49 60.11 62.18 64.63 64.77 61.90 60.51 60.70 58.29 56.36 58.32 55.30 62.95 65.72 66.19 66.18 58.79 64.91 67.72 68.28 67.46 67.88 68.34 68.89 69.16
55.89 56.16 55.94 56.10 55.90 55.10 54.36 54.59 55.97 60.06 60.72 60.67 60.90 61.03 56.77 59.21 55.36 59.15 63.56 61.72 61.90 62.54 64.64 65.55 62.92 59.43 58.51 55.72 53.13 54.08 51.60 55.02 58.24 65.73 65.38 63.59 59.51 63.38 66.08 67.81 67.12 67.87 68.17 68.49 68.78
55.59 55.51 55.53 55.45 54.81 54.18 53.42 53.91 58.03 59.97 61.66 62.16 61.55 55.99 56.02 52.47 55.49 55.99 58.85 63.13 61.87 60.50 59.95 60.00 58.46 55.13 55.10 53.70 47.80 49.94 51.39 53.74 56.16 62.51 63.93 61.72 61.91 64.34 64.40 65.48 67.22 67.56 68.21 68.56 68.00
55.36 55.06 55.02 54.79 53.99 53.08 53.79 58.33 55.86 56.49 58.33 54.08 54.08 53.26 52.57 55.05 56.87 56.02 58.30 61.11 62.72 59.14 54.81 57.61 54.03 51.54 53.70 54.22 55.02 53.11 51.81 52.30 55.29 62.86 62.50 60.24 58.68 62.08 61.94 63.91 65.14 67.25 67.92 68.52 68.88
55.04 54.75 54.61 54.18 53.42 52.66 54.82 54.72 53.31 55.02 50.15 53.71 52.50 52.08 53.49 55.06 51.92 56.56 61.01 57.16 58.48 53.74 54.94 54.63 51.47 55.51 54.64 55.61 54.46 53.92 51.95 51.06 55.38 61.07 62.73 61.26 57.99 61.78 62.34 62.23 64.54 67.12 67.31 68.24 68.81
54.85 54.32 53.87 53.13 52.48 55.12 56.31 55.02 57.58 56.53 49.37 52.06 51.99 51.72 51.76 53.28 51.41 52.98 58.16 57.15 54.97 53.30 53.55 50.67 52.33 54.78 54.06 52.94 51.90 51.56 50.65 51.24 52.73 57.94 62.01 60.50 57.28 57.43 60.20 62.58 65.33 67.98 68.49 68.98 69.11
54.34 53.97 53.15 51.66 52.33 57.32 55.58 57.54 58.15 56.48 46.30 47.93 48.30 50.31 51.45 51.94 49.21 53.89 55.05 55.31 54.61 52.17 53.00 53.19 55.12 53.32 51.93 51.47 52.83 49.23 53.04 51.96 51.78 52.98 51.60 60.78 52.02 58.36 58.83 60.82 63.54 65.94 67.07 67.70 68.93
53.73 53.28 51.96 51.02 53.33 55.15 56.58 58.00 57.40 54.39 37.49 48.39 48.52 53.27 51.92 49.28 50.76 50.74 54.68 53.72 50.73 52.20 53.02 50.96 53.01 52.16 51.29 51.35 53.26 51.09 54.27 52.62 51.39 49.89 51.34 54.14 53.92 58.09 61.89 59.51 58.38 60.93 66.22 67.35 69.49
53.26 52.26 51.49 55.69 54.95 57.89 58.07 58.10 54.48 43.56 37.02 45.08 48.61 46.85 47.04 48.75 49.10 51.03 51.25 53.28 53.89 50.97 52.00 51.19 55.46 53.73 52.70 54.00 53.63 54.20 52.14 52.32 51.86 49.29 44.43 49.37 51.83 53.54 57.12 57.81 58.61 62.35 63.18 68.24 68.96
51.77 50.87 50.94 56.63 55.50 58.74 58.04 54.69 43.31 38.96 48.13 44.20 44.99 46.63 46.91 46.72 46.71 47.54 48.17 47.67 45.71 43.78 43.95 47.51 49.55 53.51 55.10 51.47 53.12 52.33 49.45 44.15 43.03 43.02 42.49 48.86 47.87 53.74 60.44 63.14 62.10 60.72 62.75 69.22 69.57
50.46 49.53 55.28 57.34 58.51 58.28 56.30 49.35 39.48 45.44 45.03 47.44 45.93 45.79 44.18 46.65 46.14 46.39 45.37 45.18 48.48 47.52 44.96 43.94 42.86 47.97 51.83 52.05 50.63 50.44 49.54 44.98 40.23 41.88 44.08 50.13 45.26 49.29 58.06 62.60 65.75 65.95 66.09 67.78 69.62
49.90 57.71 56.77 58.61 58.33 57.43 51.84 43.65 44.21 45.76 47.16 45.14 45.74 42.99 43.89 45.69 45.08 45.35 45.49 45.08 47.33 49.36 44.09 43.06 43.03 50.13 51.87 51.73 52.02 50.50 48.25 51.27 46.99 48.56 46.18 48.27 50.53 53.11 55.65 58.67 64.22 64.28 66.21 65.01 64.14
52.75 56.70 55.93 58.76 58.72 54.88 48.71 43.57 47.09 48.53 48.00 46.77 41.96 45.34 42.95 44.57 44.15 44.47 44.22 47.61 46.17 49.17 49.83 46.19 41.51 48.45 50.31 52.06 51.97 50.12 52.54 47.32 48.40 41.38 41.23 46.29 49.49 49.08 53.29 55.90 60.92 63.32 63.09 63.91 64.88
54.07 53.86 57.44 59.96 57.72 51.88 45.62 47.49 47.97 49.44 48.79 46.15 44.89 44.48 45.04 44.08 45.42 43.78 44.75 47.05 47.94 47.70 48.64 46.48 44.06 44.19 48.14 48.06 46.99 48.22 47.57 48.99 49.42 48.79 43.68 42.66 47.25 56.77 57.66 56.71 59.02 64.02 64.58 63.26 64.36
56.63 49.88 58.41 59.26 50.50 51.40 47.69 48.50 43.66 48.87 50.13 48.05 47.35 46.21 44.81 45.39 44.57 44.55 44.00 46.29 48.81 48.53 44.39 47.13 43.57 40.47 43.72 49.07 50.75 50.13 48.54 48.53 45.59 45.29 48.11 47.46 47.50 57.12 58.39 58.48 58.47 59.59 63.13 66.98 67.01
53.62 53.83 58.05 57.62 46.21 48.00 49.74 48.43 48.77 48.03 48.06 47.55 46.46 47.57 47.83 44.71 41.95 44.66 45.42 48.78 48.01 46.09 44.86 46.11 42.50 37.73 40.26 44.64 47.77 46.74 48.03 48.84 48.46 48.17 46.73 45.58 47.32 56.35 58.22 59.64 59.80 58.97 59.88 67.39 65.20
53.55 49.24 53.55 53.50 52.73 48.96 47.63 46.41 45.37 48.28 47.73 47.65 46.72 47.64 45.91 44.43 46.20 43.29 43.90 46.83 48.00 46.83 47.65 46.07 41.91 40.23 37.34 41.76 44.12 42.99 45.51 46.74 46.64 44.19 44.90 46.41 49.45 55.15 56.74 57.86 59.11 59.95 61.96 63.05 67.15
54.32 49.12 50.81 46.16 47.98 48.66 48.59 46.81 44.22 43.46 47.47 47.85 45.37 44.81 43.83 41.36 42.86 42.28 44.60 45.49 46.99 48.00 46.34 44.67 38.44 40.78 41.36 42.50 43.02 42.92 43.29 44.49 44.40 46.88 45.24 47.71 48.98 53.19 56.14 57.27 58.67 61.50 63.09 63.29 63.97
51.09 50.91 52.27 48.70 49.22 47.98 45.35 43.85 43.06 43.87 44.63 44.22 43.34 44.58 44.65 41.48 42.82 40.73 43.30 43.89 43.46 46.60 43.99 46.02 38.96 40.94 39.19 42.73 42.78 41.21 43.00 43.53 44.26 45.99 47.11 48.87 49.38 55.53 56.73 59.28 58.71 60.50 61.59 64.20 65.05
55.65 55.92 52.00 45.42 47.06 45.30 43.77 43.38 43.19 44.75 45.65 45.75 44.13 43.34 42.23 44.14 46.25 46.82 47.26 46.62 45.57 44.89 42.99 43.51 41.21 38.92 34.95 41.23 41.08 37.52 41.57 42.52 43.72 45.65 46.53 45.05 50.28 54.01 53.70 55.93 59.08 60.36 60.99 62.52 67.07

GFSSW_sfc_wetblb_063.txt.gz
Wetbulb
57.56 57.62 57.25 57.27 57.61 57.70 58.14 58.50 58.82 59.05 59.21 59.21 59.29 59.45 59.64 59.55 58.72 56.38 52.40 58.77 59.59 70.49 69.37 63.00 63.00 64.50 70.36 67.72 69.22 68.42 58.85 57.53 58.58 59.11 59.25 65.37 62.97 66.40 69.55 66.60 68.10 68.43 67.13 68.11 69.62
57.13 57.09 56.92 57.05 57.25 57.40 57.90 58.36 58.55 58.75 58.66 58.86 58.81 58.98 59.52 59.14 55.00 53.29 63.14 69.01 70.44 69.89 57.27 61.08 61.13 63.75 64.77 65.03 66.65 61.70 59.31 58.54 62.03 63.20 61.44 65.02 64.40 64.34 63.90 64.72 66.43 66.39 68.74 69.47 69.63
56.60 56.53 56.67 56.87 57.03 57.22 57.63 57.94 58.20 58.20 58.11 58.16 58.36 58.68 59.54 57.86 53.95 57.13 68.38 68.71 69.60 66.69 58.40 64.75 64.10 63.79 62.08 64.39 63.55 62.09 58.32 63.55 63.71 65.20 65.49 64.48 64.29 66.52 64.73 63.70 66.31 64.57 66.42 67.78 68.34
56.34 56.55 56.74 56.98 56.90 57.14 57.28 57.55 57.60 57.66 57.73 58.24 58.08 58.98 59.02 55.59 50.76 60.24 69.60 69.54 68.92 61.16 59.35 63.24 62.96 59.61 59.62 59.02 63.23 59.77 63.41 64.91 64.78 66.59 64.82 63.52 63.85 62.56 64.67 65.16 68.44 68.26 67.97 67.51 67.19
56.10 56.41 56.50 56.69 56.72 56.79 57.02 57.13 56.95 56.95 58.15 58.37 58.56 59.66 54.25 51.28 54.30 64.05 71.58 70.46 64.41 58.42 56.45 61.83 61.88 60.31 58.13 59.78 61.18 60.67 62.74 65.44 66.14 65.75 65.36 65.08 63.04 64.08 63.45 66.24 69.34 69.38 68.17 66.91 66.63
56.22 56.49 56.92 56.90 56.69 56.85 56.96 56.61 56.20 56.37 58.54 59.27 60.53 59.64 52.07 49.98 58.75 65.00 66.64 65.39 59.94 56.94 58.77 62.39 63.24 62.82 60.09 59.67 58.20 60.56 61.45 63.66 64.63 65.23 65.67 63.78 63.46 64.16 63.06 66.93 68.31 68.37 66.72 66.81 66.28
56.15 56.60 56.68 56.86 56.55 56.52 56.37 55.60 55.57 56.11 58.44 59.75 60.02 57.75 55.52 55.10 58.36 60.31 63.14 63.27 60.05 57.15 56.35 62.69 65.77 62.23 59.90 57.02 59.86 57.02 54.53 57.53 63.86 64.30 64.00 65.07 61.60 61.10 66.28 67.55 66.90 67.08 66.77 66.75 66.67
56.21 56.38 56.19 56.19 56.13 56.29 55.77 55.12 55.09 56.39 58.99 59.49 59.77 57.39 53.76 62.00 54.96 57.75 61.75 63.62 62.79 57.48 57.54 62.91 65.19 61.93 56.87 58.45 57.25 52.83 51.85 48.22 57.08 64.36 65.35 63.99 57.10 62.38 65.25 65.36 65.46 66.57 66.72 66.60 66.48
56.18 56.20 56.24 56.06 55.92 55.24 54.22 54.26 55.60 57.26 60.06 60.12 56.76 55.29 54.46 59.63 52.61 54.89 59.29 59.77 60.81 56.95 55.97 59.36 58.93 56.13 56.24 51.22 48.48 49.48 43.53 48.51 52.73 63.53 64.39 62.20 59.07 63.48 64.30 65.83 65.22 65.50 66.52 66.55 66.43
55.65 55.69 55.51 55.24 54.82 54.14 53.37 54.17 57.37 55.84 59.82 60.51 59.26 52.07 56.92 52.35 53.01 54.00 55.73 59.94 57.57 55.45 54.85 56.01 55.94 50.99 49.94 45.59 40.75 45.07 44.95 47.62 50.02 60.22 63.20 60.31 61.02 64.13 65.83 66.08 64.69 65.16 66.53 66.60 66.86
55.45 55.12 54.94 54.59 53.98 52.96 51.07 51.11 51.02 49.05 52.11 53.19 52.23 54.78 52.44 52.75 54.93 52.88 55.25 58.57 59.03 55.49 49.89 53.64 48.12 45.74 47.95 49.92 50.88 50.77 49.74 47.90 51.09 56.72 60.62 59.00 60.25 62.73 60.66 59.98 61.69 64.03 65.35 65.74 65.67
55.06 54.69 54.39 54.08 53.28 52.44 50.74 48.88 49.38 49.41 45.41 52.83 55.34 51.69 51.58 51.41 50.43 54.28 56.04 52.63 55.71 50.61 53.17 50.35 46.74 51.95 54.46 53.64 52.08 50.07 48.74 48.32 51.14 52.56 59.85 58.40 58.93 61.44 59.80 61.60 63.80 62.89 65.17 65.88 66.39
54.55 54.25 53.77 53.03 52.24 52.29 51.09 52.24 54.26 52.46 43.95 48.81 52.12 49.21 48.64 48.65 49.60 52.88 54.68 53.93 53.62 52.42 50.20 47.24 51.42 55.33 54.16 52.12 49.37 48.61 46.55 47.52 47.50 50.74 59.86 57.31 55.00 57.86 61.30 63.19 64.67 65.10 65.64 66.31 66.34
54.21 54.02 53.12 52.05 49.47 51.70 52.54 54.28 54.27 52.84 38.68 45.80 46.37 48.21 49.34 48.72 46.31 53.95 53.85 51.87 51.95 49.74 51.43 49.39 52.57 51.83 51.70 50.30 49.60 42.25 50.18 50.20 48.84 45.79 42.16 59.14 47.88 54.55 57.63 59.61 62.80 63.94 63.16 63.58 66.29
54.10 53.53 52.17 50.98 47.68 48.91 53.77 54.43 52.16 49.33 31.26 47.21 46.36 50.85 48.74 44.98 47.69 48.51 53.01 50.82 48.25 49.58 48.70 47.33 50.10 50.16 49.20 49.26 50.32 47.15 51.33 49.55 49.23 44.60 41.39 45.02 43.36 55.12 58.43 56.06 59.42 62.64 63.80 64.91 66.11
53.49 52.60 51.73 52.45 49.67 51.65 54.84 55.11 51.00 37.94 34.12 44.01 47.01 45.46 44.06 45.41 46.94 49.63 49.83 49.84 50.79 47.55 48.42 48.04 52.14 50.82 50.91 52.84 51.97 52.08 48.95 47.50 46.21 43.04 37.73 41.84 41.51 45.61 53.41 56.22 58.71 61.61 63.17 65.31 65.35
52.24 51.08 49.90 52.80 51.41 56.12 55.21 51.20 37.37 34.37 46.51 42.53 42.40 44.32 43.75 43.56 45.06 44.90 45.79 43.57 40.41 35.89 37.32 43.74 46.22 49.22 51.32 48.01 49.44 48.33 43.06 35.48 34.92 36.10 36.04 42.22 40.28 42.07 57.77 60.30 59.38 60.61 62.91 65.20 63.84
50.71 49.73 53.00 54.35 55.41 56.06 52.55 44.39 35.46 43.24 42.79 45.50 44.91 43.49 42.17 44.78 43.70 45.12 42.86 40.68 45.25 43.32 38.23 36.84 37.83 44.01 49.36 47.20 45.03 45.38 42.35 36.62 31.89 33.96 37.35 43.97 38.80 43.52 58.54 63.53 62.21 63.34 64.35 64.32 64.30
49.96 54.64 53.46 56.53 57.28 54.87 47.17 38.51 39.14 42.62 45.37 44.22 43.29 40.41 40.92 43.45 42.61 42.86 41.19 41.13 44.14 45.05 37.37 37.13 39.00 47.48 48.89 48.58 48.46 45.04 41.48 45.32 39.19 41.49 37.04 41.36 44.96 49.31 50.95 60.92 63.03 62.03 61.42 62.28 66.28
49.33 52.29 54.73 57.10 56.22 51.47 44.07 40.96 43.11 46.64 46.91 46.12 40.24 43.13 39.72 41.38 40.54 40.20 39.80 45.05 45.32 46.94 45.16 40.78 34.53 43.19 46.58 47.58 47.76 44.66 46.25 39.06 39.32 32.48 31.73 39.15 41.35 43.32 47.92 49.38 60.41 60.02 61.29 64.20 65.51
51.54 51.13 55.40 57.58 54.96 48.38 41.43 44.56 46.24 48.93 48.71 44.69 42.55 41.80 42.00 41.52 42.76 40.78 41.95 44.08 46.39 45.94 45.51 40.39 36.51 38.14 43.07 40.72 41.19 42.67 40.21 40.61 40.25 38.66 35.15 34.41 39.51 48.58 50.23 51.83 58.65 60.28 62.88 64.39 62.91
52.58 47.88 55.81 57.08 47.31 49.18 44.81 46.10 46.12 47.64 49.40 47.10 46.65 44.70 42.91 43.25 41.27 41.60 41.99 43.80 47.16 45.75 41.03 41.81 35.31 32.17 37.57 44.15 45.97 44.07 41.15 40.84 36.33 35.91 38.91 39.45 41.57 52.49 51.87 54.00 56.99 62.37 63.89 64.79 62.79
49.30 51.45 55.91 55.37 44.19 45.34 47.52 46.46 46.59 45.57 45.46 45.33 44.78 45.55 45.41 41.86 37.84 42.55 43.92 47.61 47.29 44.99 39.82 40.26 34.67 29.50 34.11 37.84 41.66 40.34 42.78 42.72 40.81 38.87 37.07 35.67 40.53 52.51 54.20 54.25 55.89 57.65 61.20 64.53 64.42
50.59 46.45 50.72 51.45 49.94 45.79 44.49 44.60 43.64 47.97 46.05 46.41 45.46 45.83 43.25 41.13 42.00 40.39 42.48 46.56 47.11 46.36 48.69 44.63 34.09 31.40 28.30 33.80 38.62 37.28 40.19 41.86 39.21 33.84 35.87 38.29 41.44 46.84 51.36 52.37 54.64 56.60 61.67 63.43 63.65
51.40 46.72 49.57 42.49 44.43 45.64 45.64 44.61 42.75 41.24 45.94 45.93 43.91 43.20 40.79 36.32 38.80 38.97 41.85 43.34 46.44 48.56 44.19 39.02 31.43 34.26 36.56 39.20 39.82 39.19 39.22 40.65 38.76 38.35 33.76 39.35 41.88 45.87 49.45 51.40 54.16 57.46 61.30 62.48 63.27
48.02 47.01 49.53 45.56 46.45 44.86 43.59 42.03 41.41 42.37 42.67 41.33 40.34 42.27 41.85 37.73 38.52 36.83 39.33 38.94 38.08 42.78 41.16 40.79 33.59 36.21 35.48 39.78 39.59 38.19 40.61 41.52 41.14 41.38 40.78 41.61 41.98 49.01 50.95 51.79 53.23 55.38 58.38 60.11 62.18
54.09 54.77 49.49 44.70 44.33 42.27 41.53 42.22 42.44 43.57 45.22 45.17 43.26 41.43 40.51 41.70 43.74 43.48 43.28 42.69 41.42 38.13 38.23 38.31 35.76 33.81 29.66 37.68 38.12 33.33 38.82 40.25 41.25 41.86 40.60 37.29 41.79 48.46 49.46 49.95 52.25 58.57 60.21 60.08 60.23

GFSSW_sfc_wetblb_066.txt.gz
Wetbulb
56.98 57.07 56.95 57.24 57.45 57.50 57.69 58.27 58.67 58.87 59.04 58.87 58.99 58.96 58.96 59.85 59.10 55.95 51.55 56.21 57.12 72.80 71.57 67.50 65.37 62.61 69.42 67.10 68.30 67.82 57.74 56.94 57.72 58.74 60.84 65.50 63.70 67.49 69.27 65.85 67.02 68.13 66.44 67.24 69.15
56.65 56.66 57.07 57.12 57.35 57.36 57.68 57.86 58.32 58.45 58.56 58.43 58.53 58.51 58.94 59.46 54.56 51.98 60.77 66.62 67.66 70.40 58.24 58.89 57.39 59.92 58.76 64.95 66.35 63.38 58.79 59.65 62.30 63.44 62.52 64.63 64.22 65.98 65.22 64.85 65.68 66.47 68.30 68.60 69.05
56.36 56.62 56.85 57.14 57.37 57.39 57.41 57.62 57.70 57.81 57.77 57.98 58.37 58.37 59.44 58.13 52.49 55.13 64.83 68.82 71.98 69.74 56.30 61.63 61.83 60.73 58.28 61.43 62.90 63.33 58.74 63.30 63.64 65.02 65.24 64.52 64.70 66.20 64.05 63.06 66.27 64.84 65.83 66.78 66.91
56.32 56.72 56.78 57.10 57.18 57.37 57.48 57.34 57.30 57.13 57.29 58.42 58.40 58.28 59.40 54.92 49.34 59.95 70.28 69.57 70.85 60.88 57.81 57.87 59.58 57.33 57.26 58.01 62.58 57.98 62.03 62.58 64.94 66.43 65.54 62.49 65.12 63.47 65.56 65.67 68.18 68.50 67.57 67.00 65.46
56.34 56.58 56.57 56.81 56.96 56.99 57.26 57.03 56.63 56.56 56.91 58.86 58.73 59.10 53.60 49.61 49.38 64.67 71.27 69.87 65.28 57.06 54.62 58.83 59.53 57.94 54.79 58.31 60.44 58.38 59.96 62.57 65.77 66.18 66.02 65.47 63.62 63.92 63.61 67.30 69.14 68.66 67.87 66.57 65.93
56.07 56.40 56.56 56.50 56.63 56.72 56.72 56.44 56.05 56.09 56.64 59.37 60.33 59.79 49.78 45.51 60.32 65.52 65.88 64.59 60.02 55.38 53.44 58.08 60.87 62.23 58.63 58.94 57.60 59.67 59.56 59.97 65.05 65.35 65.24 63.39 63.48 64.01 63.19 66.98 67.81 68.44 66.51 66.94 65.94
55.81 56.33 56.67 56.39 56.28 56.31 56.09 55.57 55.61 55.65 56.68 59.79 59.75 57.78 52.40 50.20 60.49 64.20 64.64 61.58 58.37 55.82 54.32 57.45 62.08 59.70 59.91 55.78 59.54 57.90 52.32 56.23 63.36 64.17 63.96 65.57 61.33 61.69 65.70 68.27 67.36 66.49 66.45 66.79 65.48
55.86 56.02 56.00 55.96 55.88 55.59 55.52 54.98 54.83 56.02 56.70 59.90 59.85 55.69 50.34 62.53 61.08 59.95 63.32 60.95 59.24 55.71 55.43 58.54 61.60 59.24 58.44 58.68 54.87 51.53 48.54 45.30 61.19 63.23 64.06 63.61 56.97 62.59 65.68 65.95 65.68 66.42 66.21 66.12 65.11
56.05 55.93 55.58 55.62 55.62 55.25 54.31 54.15 55.22 57.01 58.40 60.16 53.73 52.29 51.59 62.86 50.64 52.69 58.48 61.13 59.13 55.83 54.32 58.14 55.31 51.95 53.34 49.81 45.67 46.84 42.85 45.52 49.99 63.58 62.15 61.59 57.93 62.52 66.39 65.81 64.70 66.02 65.45 65.79 64.58
55.66 55.46 55.36 55.19 54.68 54.01 53.35 53.68 54.54 56.12 58.65 59.75 58.35 49.68 53.49 54.40 51.20 53.33 54.13 61.32 57.30 55.15 52.65 51.32 49.15 48.08 47.25 44.44 38.75 42.90 42.87 44.90 46.39 57.59 61.00 59.83 60.12 61.42 64.45 65.88 65.35 65.80 65.28 64.92 64.58
55.44 54.99 54.77 54.40 53.92 52.94 50.81 47.04 45.70 46.23 50.42 48.58 50.45 51.62 53.75 52.04 53.37 50.39 52.47 55.20 55.15 51.05 45.69 50.83 46.49 43.61 47.29 47.60 48.47 47.31 46.14 46.15 49.85 52.49 59.04 59.06 60.15 60.55 63.62 62.77 63.75 64.05 65.15 65.14 64.76
55.13 54.83 54.42 53.92 53.19 52.57 49.37 44.88 47.85 47.59 42.26 50.54 53.42 53.80 55.85 50.52 48.32 51.04 52.59 50.50 52.50 47.56 49.18 47.22 43.68 49.32 51.70 50.96 49.42 48.36 46.03 45.78 49.19 54.06 56.55 59.22 59.21 60.34 63.05 61.53 63.20 63.94 64.21 65.31 66.04
54.64 54.44 53.76 53.15 52.41 49.75 47.11 48.68 52.78 49.33 40.48 46.06 48.71 51.04 48.16 46.76 47.32 50.93 51.64 50.47 52.01 49.63 48.86 45.27 49.25 53.30 51.99 50.28 49.17 47.30 44.45 46.66 46.26 55.50 60.44 58.24 56.98 59.72 61.87 61.71 64.14 65.64 66.27 66.27 66.00
54.39 54.19 53.35 52.02 47.74 45.96 47.85 50.48 50.28 48.56 34.73 41.53 44.16 47.30 47.20 47.51 44.62 54.63 54.50 50.79 50.58 49.84 51.28 46.87 52.19 51.11 50.39 49.44 49.17 40.78 48.20 48.72 47.52 43.59 46.48 57.83 49.21 55.55 57.03 57.89 62.96 64.54 65.04 64.48 65.32
54.33 53.74 52.34 50.88 43.56 44.49 49.85 51.04 51.55 45.58 29.11 46.05 43.03 48.96 45.94 43.47 46.02 47.30 51.35 49.42 46.08 47.21 46.08 45.74 48.13 48.20 47.31 48.14 50.32 47.05 50.02 47.32 47.09 42.18 40.13 46.11 44.47 49.95 56.86 56.44 60.54 63.56 64.33 65.08 66.02
53.76 52.76 51.70 48.49 45.85 47.69 50.39 51.17 46.34 35.27 31.29 42.18 44.87 43.41 42.35 42.41 44.61 47.77 48.14 48.22 48.40 45.61 44.82 45.41 49.48 48.67 48.71 51.29 50.73 50.75 46.80 44.24 41.92 39.97 34.97 39.14 39.48 42.17 53.68 56.37 60.07 62.88 62.80 64.89 65.91
52.31 51.17 50.08 50.81 45.72 50.03 50.34 46.88 36.10 30.47 43.72 40.42 40.30 41.66 40.49 40.63 42.43 43.65 44.12 40.51 38.80 34.38 35.25 41.94 43.64 45.09 48.20 44.85 47.77 46.16 39.36 33.67 33.73 33.18 33.94 38.29 38.60 40.39 56.50 59.33 60.28 62.72 63.67 65.46 66.12
50.65 49.83 49.90 51.43 48.51 51.03 47.84 42.19 32.27 40.60 38.84 42.30 41.59 41.37 39.30 41.06 40.83 42.81 40.63 37.66 42.55 39.41 35.10 34.28 35.43 42.67 46.72 43.76 42.22 42.37 39.97 34.57 29.97 30.59 34.46 40.83 36.03 42.64 51.49 60.33 61.90 64.17 63.67 63.78 64.51
49.86 47.97 48.30 50.70 52.10 51.14 44.00 33.88 32.64 38.31 43.22 42.04 40.76 36.92 38.92 41.91 41.31 41.06 39.85 38.86 42.47 40.79 34.91 33.37 36.44 45.15 46.13 44.95 43.55 40.95 38.79 41.80 36.23 34.30 34.36 37.14 41.98 47.32 49.23 56.33 59.74 60.68 62.12 63.14 64.59
45.49 46.40 48.16 54.36 52.06 46.26 39.56 36.84 38.81 45.12 45.39 42.81 36.54 39.55 35.98 39.15 38.74 37.15 39.19 42.26 43.01 44.52 40.53 36.69 33.13 39.33 44.55 45.01 44.20 40.07 43.47 37.22 35.18 29.85 29.00 35.37 37.42 39.88 47.52 52.43 58.80 58.61 61.10 62.57 63.74
47.70 46.15 51.21 51.54 50.05 43.66 36.89 38.63 44.50 47.28 47.21 42.64 39.83 38.33 37.90 37.57 38.82 37.03 38.57 42.42 44.66 43.45 41.95 36.40 33.54 35.96 40.15 37.11 36.18 37.97 36.35 36.34 35.90 35.64 31.34 30.63 35.97 44.80 49.36 51.89 54.11 58.80 61.50 61.42 64.20
45.73 41.52 52.62 51.35 43.99 41.12 37.74 42.32 45.65 44.25 45.92 43.61 43.62 41.46 38.86 39.30 37.74 37.96 38.10 41.55 45.51 43.19 38.29 37.79 32.12 29.77 34.18 41.41 42.69 40.06 36.07 33.81 31.12 32.40 33.94 35.03 37.12 50.61 51.39 52.10 54.32 59.48 60.85 62.62 64.97
43.68 44.39 51.13 50.73 36.72 37.27 41.54 43.98 44.93 43.61 43.21 42.34 41.40 41.96 41.46 37.71 35.03 39.37 41.04 45.66 45.66 42.59 37.29 37.65 30.39 27.16 32.28 34.46 38.26 36.56 38.35 35.15 33.79 32.03 32.64 32.72 35.78 49.68 51.84 52.63 56.74 59.24 61.22 62.86 63.42
44.56 39.64 43.49 43.72 42.12 39.15 38.47 39.64 40.35 46.63 43.76 44.47 42.17 41.75 39.26 36.86 37.38 36.60 38.73 44.01 45.90 45.34 50.65 42.26 30.30 28.93 26.19 29.79 34.48 33.93 37.72 38.81 32.32 28.04 30.87 32.90 36.80 42.27 46.65 49.55 55.37 58.60 60.77 62.00 63.78
44.37 40.30 41.07 36.49 39.18 39.06 41.03 40.51 40.04 38.59 42.56 42.17 40.05 40.60 36.24 32.37 33.87 34.80 37.72 38.65 42.81 47.01 42.43 36.03 29.03 31.18 31.71 36.99 37.81 37.06 37.27 38.65 35.24 33.69 30.21 35.44 36.83 41.28 46.19 52.23 57.26 59.08 60.15 60.75 60.81
42.49 41.25 41.90 38.14 39.36 39.79 37.85 36.32 38.93 39.75 39.23 37.71 37.30 40.25 37.79 33.39 33.98 32.51 35.24 34.00 33.54 38.06 37.40 36.86 31.50 32.95 32.56 38.37 38.32 36.39 38.87 39.39 39.54 39.26 38.01 38.00 36.12 46.08 49.66 53.96 55.48 56.73 57.54 57.92 59.41
47.17 46.48 41.44 38.99 37.26 35.55 35.58 37.60 39.72 40.30 42.34 42.59 41.45 38.12 37.00 39.05 40.72 38.90 38.26 37.30 36.99 33.34 32.99 34.92 33.37 30.67 25.08 34.91 35.27 31.08 35.35 37.71 39.08 41.52 40.84 33.63 40.63 45.98 46.48 50.44 52.16 53.13 54.46 55.19 57.86

GFSSW_sfc_wetblb_069.txt.gz
Wetbulb
56.54 56.82 57.14 57.40 57.55 57.81 57.85 57.90 58.24 58.42 58.49 58.51 58.50 58.45 58.63 58.98 59.01 55.70 49.48 54.02 56.09 67.91 73.07 68.73 67.11 62.76 68.81 66.10 67.49 67.32 59.26 55.40 57.37 58.37 60.54 64.75 63.31 66.79 68.60 64.65 64.84 67.73 65.03 66.77 69.86
56.60 56.74 57.05 57.23 57.54 57.76 57.69 57.74 57.85 57.90 58.02 58.05 58.29 58.27 58.36 59.17 54.37 50.98 58.70 62.80 65.18 72.92 64.79 62.55 58.33 59.52 62.02 64.74 65.43 63.26 58.62 58.50 62.07 63.16 62.26 64.36 64.44 65.34 64.14 64.33 64.90 64.43 66.67 68.70 69.42
56.45 56.91 57.16 57.27 57.43 57.33 57.45 57.66 57.47 57.25 57.39 57.43 57.97 58.16 58.37 57.79 51.87 53.41 63.38 65.44 68.67 72.67 57.43 59.77 59.31 59.33 55.69 59.44 63.16 62.80 58.25 62.14 62.68 64.93 65.73 64.43 64.76 65.82 63.78 62.13 64.45 62.95 64.88 67.14 67.40
56.55 56.95 57.00 57.13 57.25 57.20 57.28 57.20 57.19 56.87 56.93 57.19 58.44 58.25 59.07 54.16 47.38 58.83 67.17 69.43 69.61 65.31 54.84 56.82 58.76 56.27 55.68 56.70 61.27 58.35 61.92 63.55 63.85 66.49 65.15 63.92 65.24 64.14 64.93 65.59 67.33 67.33 66.83 66.54 66.03
56.26 56.48 56.77 56.85 56.97 56.98 57.09 56.80 56.50 56.33 56.54 56.95 59.31 58.62 52.57 47.79 48.54 63.85 68.02 70.42 66.41 57.09 53.62 55.69 57.21 56.20 54.28 57.16 59.48 58.76 60.15 60.43 61.79 65.79 65.36 64.63 63.23 64.06 64.83 68.05 68.93 67.87 66.82 65.93 66.03
56.01 56.29 56.46 56.46 56.54 56.63 56.53 56.25 55.87 55.81 56.18 57.24 59.92 59.32 48.08 41.29 56.12 66.51 63.10 63.76 59.46 54.16 52.21 59.35 58.27 59.89 56.76 56.69 56.87 59.06 59.09 58.79 58.66 64.25 64.51 63.09 62.97 63.74 64.59 67.40 67.78 68.11 65.46 65.30 66.12
55.86 55.88 55.88 55.84 56.07 55.97 55.72 55.21 55.25 55.49 56.15 57.29 60.00 56.95 50.48 46.92 60.59 64.70 62.92 58.11 56.83 54.04 50.56 54.75 61.14 58.57 58.79 56.39 59.15 58.48 55.01 53.92 62.55 63.34 63.57 64.59 60.40 61.39 64.71 65.89 66.40 66.47 65.47 65.47 65.85
55.59 55.72 55.70 55.43 55.39 55.32 54.94 54.59 54.70 55.67 56.36 57.71 60.30 54.50 48.32 60.16 59.76 62.56 61.98 57.87 57.56 52.78 53.99 55.12 60.10 56.66 56.62 58.93 53.86 49.86 47.49 43.80 60.98 63.03 63.94 63.34 57.10 62.25 66.25 64.64 64.01 65.61 65.63 65.76 65.48
55.52 55.36 55.34 55.17 55.15 55.06 54.27 54.04 55.35 56.22 57.54 59.99 52.52 50.74 50.42 62.22 55.67 56.11 62.17 59.40 55.05 53.22 53.52 59.37 57.89 52.02 51.23 48.14 44.38 45.79 42.01 43.93 55.35 62.01 62.55 60.83 57.67 62.76 65.93 65.91 64.40 64.70 65.25 65.52 64.76
55.45 55.45 55.41 55.25 54.71 54.12 53.41 53.24 56.37 57.74 58.57 58.77 57.62 48.49 51.47 51.59 50.59 53.26 60.08 60.46 56.48 52.93 51.27 50.29 48.05 45.41 45.44 43.92 38.92 41.93 41.88 42.76 44.99 58.58 60.20 58.88 58.05 62.23 64.68 65.13 64.94 64.90 64.79 65.15 63.93
55.20 54.88 54.73 54.61 54.16 53.27 50.99 45.89 43.42 43.37 49.95 45.42 46.46 48.71 52.47 53.57 51.33 49.90 54.30 57.95 53.17 49.36 43.89 47.12 44.88 42.42 46.44 47.30 48.16 46.19 44.33 44.02 47.81 51.99 57.96 57.42 58.47 59.83 63.02 64.12 64.35 64.31 63.91 64.36 64.37
54.84 54.82 54.55 54.16 53.35 52.50 49.08 43.15 45.10 45.74 41.20 49.37 52.63 52.35 54.58 52.96 47.30 49.64 53.18 51.80 50.21 45.19 47.84 45.58 42.84 48.81 50.67 49.86 48.03 46.55 44.22 43.99 48.00 52.95 52.84 54.97 58.12 59.63 62.50 63.58 64.16 64.35 63.86 63.92 64.51
54.77 54.59 54.04 53.35 52.50 48.85 44.75 46.19 50.11 46.29 39.46 44.32 48.04 48.78 48.92 49.88 46.20 47.42 50.30 50.45 49.69 47.06 46.38 43.45 47.55 52.01 50.30 48.47 46.86 44.28 41.96 44.17 45.35 52.35 58.42 57.71 55.68 57.69 61.11 62.49 62.80 64.32 65.67 65.27 64.56
54.69 54.45 53.61 51.86 45.60 44.11 45.68 47.99 49.59 46.25 33.75 39.04 42.30 48.13 46.73 46.43 43.14 52.87 52.69 51.20 50.20 47.56 48.25 46.21 50.79 51.06 48.78 47.63 47.65 40.52 47.88 48.83 46.72 41.94 38.50 54.54 45.38 57.04 59.07 60.16 60.40 62.58 64.91 64.54 65.11
54.35 53.78 52.40 51.07 43.72 45.32 48.38 47.99 47.77 44.49 28.30 44.11 42.56 47.36 43.94 42.78 45.61 46.46 50.11 48.84 45.63 46.89 48.40 47.08 46.55 46.60 45.86 47.52 49.17 46.42 49.99 46.56 45.88 40.80 43.66 46.84 42.27 48.60 57.47 56.53 58.69 61.82 64.07 65.26 65.17
53.80 52.78 51.68 47.80 44.36 47.17 49.08 47.14 45.41 35.81 32.26 40.28 43.46 41.79 41.55 41.33 43.53 46.20 46.71 47.98 47.09 44.58 43.16 44.18 47.84 47.77 47.66 49.91 49.51 50.47 45.42 42.14 39.59 37.73 33.94 38.36 38.42 42.40 53.96 55.82 58.33 61.10 63.97 65.18 65.83
52.45 51.25 50.16 49.89 45.16 47.15 49.99 46.40 34.84 29.87 42.27 39.43 39.08 40.83 39.46 38.83 41.37 42.34 42.58 39.51 38.05 35.38 34.82 40.69 41.92 44.02 45.69 42.28 45.75 43.71 38.34 32.76 32.32 32.29 33.08 36.00 37.41 40.02 53.70 59.02 59.12 60.05 63.31 65.25 65.93
50.92 49.82 49.89 50.42 46.03 48.28 47.30 39.64 30.73 38.86 37.74 41.65 39.81 40.37 38.55 39.11 38.90 41.07 38.63 36.40 41.88 37.62 33.51 33.88 34.08 41.45 44.66 40.89 38.87 40.27 38.92 33.36 28.86 29.53 34.08 37.57 35.78 41.21 47.22 54.02 60.58 62.24 63.49 65.45 64.91
50.10 46.98 47.17 49.07 50.90 47.15 42.98 32.30 32.44 36.53 42.14 40.53 39.38 37.19 37.62 40.32 38.86 39.67 37.40 37.20 40.38 38.65 33.57 32.31 34.37 43.04 44.61 43.53 41.82 38.83 36.32 38.61 33.60 31.08 33.39 35.38 39.99 45.18 51.69 53.77 57.67 60.19 62.50 63.80 64.24
45.94 46.21 47.59 51.67 50.22 45.04 41.46 35.64 37.14 43.70 43.46 41.50 35.44 37.37 34.08 37.85 38.21 35.76 36.45 40.64 40.64 41.91 37.94 34.66 32.19 37.44 42.65 43.43 42.93 39.17 40.07 35.03 34.28 29.03 28.12 33.44 35.19 37.98 46.50 49.33 56.85 57.15 60.64 63.03 64.54
47.20 44.26 49.35 48.85 48.11 43.09 37.19 38.50 42.94 45.89 45.52 40.71 37.51 36.61 35.80 36.19 37.45 36.64 37.58 41.51 43.15 42.29 40.12 33.49 32.79 35.05 38.29 36.69 35.77 36.09 33.71 32.25 32.96 32.56 29.52 29.47 34.10 45.80 47.49 49.37 50.71 55.70 59.02 60.72 62.36
45.16 40.25 53.26 48.85 40.97 37.55 35.56 40.98 44.22 44.05 44.62 42.10 41.66 39.17 37.11 36.57 35.38 35.74 36.78 39.45 44.26 41.44 36.57 35.99 30.56 29.27 32.71 38.89 41.07 38.06 33.65 30.42 28.15 28.53 30.65 32.06 35.18 45.94 46.48 50.54 56.77 58.77 60.47 61.06 63.11
43.71 42.84 49.96 47.93 36.38 35.04 39.68 42.61 44.07 42.00 41.16 40.78 39.32 40.37 39.30 35.20 33.55 37.24 38.95 44.52 45.63 41.63 36.83 37.52 29.66 27.14 28.23 33.39 36.55 34.59 35.72 32.39 29.95 28.15 27.45 28.52 32.77 46.53 48.58 56.09 57.27 57.73 59.87 61.73 62.84
42.18 38.19 41.41 41.82 37.76 37.39 35.81 37.92 39.07 44.80 42.45 42.37 40.48 39.29 37.07 34.55 35.92 34.97 36.80 41.96 43.70 45.26 49.30 41.11 29.35 30.27 27.88 28.07 32.43 32.30 35.87 35.96 30.80 27.22 28.61 29.46 32.78 42.77 49.25 54.15 55.09 55.79 57.84 59.49 60.85
41.78 38.94 38.50 34.38 37.56 37.33 38.32 39.49 38.80 36.96 41.07 40.79 39.23 38.45 35.13 31.40 32.29 33.00 36.15 36.91 40.90 43.29 40.28 34.80 28.09 30.52 31.61 36.75 36.43 35.60 36.22 37.14 32.83 32.38 29.61 33.40 33.68 41.61 45.24 51.26 53.00 53.87 55.97 58.02 59.11
41.89 40.55 38.72 35.78 36.38 37.07 36.28 35.38 37.84 38.96 37.81 36.85 36.51 38.48 36.75 32.71 32.89 30.82 33.11 32.11 31.78 37.07 34.39 35.84 30.30 30.83 31.56 36.61 36.47 33.99 36.78 37.53 37.69 37.30 36.13 37.82 35.14 44.07 46.96 51.43 51.06 51.87 53.35 54.87 56.08
45.43 44.61 40.36 37.64 35.25 33.77 34.28 35.85 38.14 38.96 40.68 40.86 39.85 36.83 35.94 37.81 39.60 38.45 37.55 36.40 34.04 31.97 32.01 33.19 31.31 28.66 24.58 33.00 33.21 28.66 34.40 35.71 38.62 41.22 39.39 34.17 38.99 44.53 44.27 47.33 47.56 50.18 51.61 53.02 55.28

GFSSW_sfc_wetblb_072.txt.gz
Wetbulb
56.78 57.11 57.64 57.59 57.70 57.87 57.83 58.07 58.19 58.09 57.98 58.19 58.12 58.32 57.78 57.92 58.60 55.65 48.48 52.58 55.18 66.79 71.47 68.80 65.58 64.74 68.33 64.84 66.88 67.16 59.50 56.06 57.44 57.96 60.39 64.88 62.69 66.58 67.84 63.52 65.77 67.16 65.46 67.55 70.62
56.65 57.18 57.35 57.65 57.74 57.74 57.85 57.83 57.80 57.87 57.62 57.77 57.74 57.78 57.71 58.22 53.92 50.50 57.21 61.91 64.22 70.65 66.49 62.34 59.66 61.41 63.18 64.20 64.71 62.86 57.53 56.79 62.12 62.23 61.94 64.36 64.07 64.65 63.51 62.82 62.88 64.50 67.65 69.65 70.10
56.78 57.18 57.21 57.28 57.47 57.49 57.61 57.71 57.58 57.43 57.20 57.33 57.58 58.22 58.07 57.05 50.41 53.04 62.92 64.34 68.42 69.70 64.28 60.06 59.62 58.78 56.53 59.10 63.11 63.53 57.91 61.25 62.46 64.99 65.39 64.00 64.13 66.32 63.64 62.32 63.37 63.18 65.84 67.61 67.62
56.54 56.87 56.80 56.92 57.26 57.30 57.35 57.37 57.16 56.94 56.90 56.96 57.17 58.38 58.72 52.88 44.23 59.11 65.43 67.80 69.74 60.36 59.12 57.51 57.29 55.73 55.77 56.22 60.48 58.74 61.97 62.30 63.36 65.47 64.82 63.72 65.08 64.08 64.84 65.01 65.87 66.30 67.50 67.47 66.72
56.34 56.40 56.24 56.44 56.58 56.75 56.89 56.56 56.45 56.19 56.24 56.81 57.46 58.85 51.43 44.94 48.26 63.65 66.82 68.18 66.86 59.07 54.38 55.23 56.01 55.68 54.37 56.72 58.96 59.37 60.06 60.55 61.12 64.73 65.56 65.91 63.94 63.94 64.88 66.34 67.17 67.19 67.20 66.68 66.82
56.06 55.92 55.92 56.21 56.27 56.32 56.26 56.00 55.70 55.74 56.04 56.49 58.23 59.07 46.67 38.34 53.50 64.65 64.96 63.73 60.66 53.92 51.25 56.55 57.09 58.51 56.17 55.65 55.47 58.89 58.88 58.54 57.66 61.57 63.91 62.32 63.25 64.41 66.07 66.85 66.28 66.35 65.47 66.26 66.81
55.41 55.66 55.79 55.86 55.80 55.92 55.71 55.41 55.14 55.35 55.94 56.63 59.32 56.68 47.97 44.31 60.03 62.08 63.08 57.14 55.34 53.18 49.92 55.91 60.56 58.16 57.65 55.69 58.54 56.61 52.13 54.12 62.14 62.42 61.96 64.33 60.52 60.87 66.10 67.61 66.52 65.88 65.46 65.82 66.39
54.99 54.98 55.34 55.36 55.38 55.33 54.95 54.43 54.64 55.76 56.05 56.96 59.85 53.21 48.07 57.65 60.62 60.91 58.86 56.73 54.85 51.80 52.50 53.94 59.62 56.31 54.72 57.67 52.88 48.49 46.76 43.60 59.76 62.02 63.01 62.37 56.86 62.47 65.96 65.25 65.30 65.29 64.63 64.92 66.11
54.73 55.04 55.00 54.90 54.95 54.86 54.09 53.94 56.60 56.68 57.31 59.77 53.10 48.54 49.23 61.88 56.74 59.67 59.39 55.13 53.37 51.21 52.61 56.86 57.41 53.12 50.13 47.08 44.20 45.27 41.41 42.65 53.56 62.60 62.09 60.10 56.59 62.45 66.15 64.27 64.25 64.98 63.84 63.73 65.18
55.36 55.15 55.21 55.09 54.90 53.68 52.71 53.16 58.26 58.49 58.23 58.60 57.20 47.20 50.20 51.67 50.95 56.99 60.22 56.55 53.88 50.43 50.00 49.93 47.69 44.13 44.53 43.18 39.65 41.71 41.25 41.58 43.62 58.40 60.19 58.42 57.10 61.72 65.19 65.21 63.51 63.74 63.00 63.23 63.88
55.31 55.04 54.98 54.41 54.01 52.57 50.26 45.44 41.92 42.43 49.31 44.57 44.37 46.34 50.46 53.37 50.95 52.17 59.57 55.48 51.88 48.00 41.70 45.16 42.66 40.11 44.03 46.76 47.13 45.62 43.94 42.98 46.26 52.83 56.84 56.62 56.39 60.32 63.26 64.70 63.86 62.97 63.09 63.14 63.66
55.17 55.06 54.66 53.47 52.90 52.05 48.87 42.79 45.46 44.89 40.48 48.78 51.31 50.53 52.40 52.59 46.80 47.77 59.46 51.09 48.84 42.85 45.83 44.61 42.03 47.18 49.68 49.02 47.18 45.43 43.24 42.71 47.21 49.24 51.12 51.47 55.19 59.31 62.58 63.38 64.52 64.09 63.29 63.34 63.39
55.18 54.80 53.59 52.65 52.31 47.74 42.35 44.26 47.26 45.61 38.61 43.16 47.41 47.84 47.64 50.29 47.08 46.06 53.86 50.96 47.57 45.15 44.98 43.29 46.91 50.85 49.43 47.42 45.82 42.66 41.68 43.00 45.78 46.55 57.53 56.56 55.41 56.77 60.14 63.42 62.57 64.17 65.25 64.44 64.10
54.98 54.33 53.19 51.39 44.93 43.53 44.67 47.28 47.31 45.81 33.15 37.72 40.99 46.52 46.36 45.22 41.89 50.96 51.68 51.41 49.53 45.97 46.45 45.54 49.34 49.85 47.20 46.36 46.50 37.12 47.41 48.49 48.43 41.51 38.11 53.67 45.15 53.28 57.37 59.36 60.59 61.62 63.82 64.54 64.13
54.74 53.92 52.30 50.49 43.05 45.03 48.06 46.84 45.62 44.64 27.24 42.44 42.29 46.81 42.87 42.08 44.57 45.34 49.42 49.14 46.69 48.07 47.12 45.34 47.00 46.43 45.62 46.96 48.21 45.41 48.34 47.21 46.36 40.14 43.01 45.01 41.93 46.15 56.46 55.27 58.31 60.95 62.56 64.42 65.06
53.72 53.14 51.58 47.09 43.35 46.62 47.59 46.36 44.46 36.46 30.34 39.91 42.55 40.82 40.93 40.94 42.27 45.16 45.94 47.22 47.07 43.57 43.37 46.13 46.39 47.38 47.54 48.91 49.90 49.20 43.47 40.42 39.21 36.56 33.36 38.21 38.84 38.42 51.00 54.40 56.70 60.61 62.64 63.90 65.54
52.44 51.54 49.17 48.96 44.01 45.51 47.22 45.31 34.37 29.28 40.88 39.53 38.53 40.61 39.40 39.29 41.34 41.77 40.83 39.31 37.34 35.64 34.47 39.68 40.50 42.83 43.90 41.28 44.00 42.98 37.83 31.29 31.37 31.71 32.66 34.51 37.20 39.34 45.29 51.57 54.89 58.86 62.18 64.15 65.33
51.12 49.94 50.16 50.06 47.19 47.37 45.79 39.14 31.31 38.09 37.11 41.07 39.54 39.23 38.08 40.36 39.40 40.19 37.71 36.27 40.06 36.40 33.44 33.88 33.43 39.71 43.30 39.64 39.39 39.03 38.29 32.60 28.45 28.82 33.16 36.75 34.85 41.85 49.59 53.06 57.96 59.65 62.50 64.55 64.80
49.87 46.59 46.28 48.87 50.04 45.51 42.98 32.41 33.91 36.47 41.33 39.93 38.48 36.66 36.84 40.05 39.28 38.77 35.84 35.84 38.22 36.41 33.69 32.52 33.45 41.71 42.92 42.01 40.52 38.33 35.22 37.31 32.34 29.82 32.17 34.50 38.77 44.57 49.70 51.77 54.26 57.73 61.12 62.13 64.72
46.14 45.85 46.55 49.55 48.45 44.66 41.29 36.02 38.68 42.81 42.47 40.15 35.27 36.76 34.10 36.35 37.04 35.93 35.19 39.37 39.14 40.16 36.33 33.29 31.48 36.53 41.22 42.11 41.44 38.46 38.27 34.90 33.85 29.03 27.89 32.91 35.74 37.41 42.50 45.54 53.49 57.24 58.69 60.06 64.12
45.91 43.40 48.28 47.48 46.89 42.22 35.54 37.31 42.43 45.40 44.80 39.67 36.73 37.20 36.94 36.34 36.58 34.43 36.11 39.75 41.94 40.68 38.63 32.61 33.01 33.66 37.26 34.50 32.45 34.96 32.60 31.58 32.66 31.32 29.56 28.72 34.52 43.43 42.46 48.86 54.15 55.93 58.31 60.90 61.12
43.56 39.57 49.36 47.52 39.73 35.29 34.11 40.85 42.80 42.87 44.33 42.54 40.93 38.82 36.65 36.51 35.91 36.55 36.67 39.59 44.72 40.86 35.75 34.43 30.05 27.77 29.80 37.19 38.85 35.84 32.32 29.31 30.85 29.46 28.97 31.31 33.32 48.29 52.92 54.30 54.52 56.20 58.26 60.57 62.34
42.68 40.47 46.85 46.07 35.04 33.20 37.75 40.79 42.09 40.84 39.65 39.66 39.51 39.81 38.43 34.31 33.07 36.81 39.28 43.67 43.55 43.47 37.45 36.06 29.05 25.25 27.49 32.12 35.37 34.03 34.75 29.75 28.48 27.97 27.06 30.55 32.98 47.63 50.63 52.39 52.63 54.73 57.80 58.67 59.93
40.59 36.82 40.30 40.09 36.81 35.60 34.12 36.77 37.82 43.62 40.90 41.32 38.81 38.09 35.81 33.84 34.60 33.84 35.84 41.55 42.71 44.78 48.14 41.43 30.78 28.41 25.81 27.91 31.47 32.21 35.56 35.29 29.45 27.76 27.58 29.32 33.08 41.46 47.31 49.73 50.21 52.17 55.64 56.41 57.63
40.06 36.30 36.84 33.35 35.83 36.46 36.45 37.26 37.77 36.04 39.82 40.03 37.99 37.27 34.16 30.61 31.61 32.23 35.01 36.61 40.34 42.37 39.67 34.18 29.73 31.65 32.90 35.38 35.53 34.76 35.06 35.88 32.08 31.96 29.47 32.17 35.61 41.04 45.78 48.99 49.35 51.17 52.87 54.48 55.82
41.23 38.24 36.60 34.41 34.95 35.41 35.83 34.99 36.09 36.97 37.02 35.52 35.91 37.46 36.17 32.25 31.27 30.08 32.42 32.36 31.41 36.90 34.18 34.32 30.81 31.13 30.36 35.63 34.95 33.42 35.82 36.70 36.24 36.61 34.75 36.09 36.98 43.86 46.80 48.68 47.97 48.21 49.89 51.29 53.74
44.20 41.59 39.38 36.97 33.69 32.24 33.15 34.75 37.10 37.74 39.86 40.09 38.68 36.01 35.63 36.82 37.70 36.13 35.37 34.35 32.69 30.96 31.28 32.06 30.59 27.85 24.38 31.62 31.55 28.61 32.67 34.97 38.45 40.33 39.37 34.24 39.18 43.71 42.78 46.15 44.91 45.27 46.03 47.45 49.39

GFSSW_sfc_wetblb_075.txt.gz
Wetbulb
57.14 57.52 57.73 57.79 57.88 58.10 58.12 58.22 58.20 58.16 57.93 57.88 57.87 57.55 57.71 57.01 57.56 56.22 50.75 56.30 57.59 66.59 70.95 69.77 68.47 69.65 68.80 66.75 68.33 68.36 60.41 57.08 58.51 59.40 60.69 64.82 62.36 66.15 67.67 64.94 66.05 67.42 66.16 67.28 69.86
57.14 57.48 57.41 57.48 57.71 57.88 57.99 58.09 58.09 57.88 57.59 57.46 57.58 57.36 57.61 57.33 54.81 51.74 58.32 61.10 64.56 70.56 66.76 63.19 63.28 67.64 64.76 64.92 66.62 64.85 61.50 59.03 63.44 64.04 63.38 63.87 64.10 64.22 63.36 64.26 64.71 66.15 68.30 69.48 69.70
57.11 57.15 56.92 57.09 57.41 57.56 57.66 57.75 57.57 57.46 57.37 57.17 57.43 57.52 58.18 58.15 52.27 53.42 62.96 63.93 67.12 72.08 66.43 63.25 66.01 66.24 62.80 64.89 64.33 64.17 61.20 63.31 64.26 65.84 66.49 63.94 63.93 65.85 62.62 62.10 64.98 64.52 65.70 67.58 68.00
56.55 56.26 56.50 56.67 57.08 57.18 57.27 57.31 57.02 56.76 56.76 56.85 57.20 57.97 58.55 55.41 46.61 59.62 65.45 66.27 69.53 67.70 62.78 61.32 63.00 62.25 61.23 60.38 63.31 61.03 63.78 64.10 64.50 66.88 65.63 64.44 66.08 64.32 64.93 64.41 67.26 67.40 67.88 67.66 67.14
56.04 55.94 55.88 56.20 56.45 56.79 56.92 56.65 56.49 56.26 56.25 56.70 56.86 58.33 55.83 50.18 49.35 65.53 66.60 70.49 65.60 63.10 59.17 59.38 59.06 61.08 59.96 61.78 61.55 61.27 62.95 63.23 64.22 66.39 66.10 66.94 64.69 64.46 64.39 66.19 68.58 68.51 67.44 66.66 67.34
55.08 55.20 55.04 55.66 55.98 56.28 56.30 56.10 55.84 55.78 56.02 56.60 57.01 58.78 51.95 44.59 59.14 64.77 63.54 68.20 63.55 59.03 59.04 60.90 59.10 62.50 61.69 60.38 59.48 60.69 61.29 60.11 61.01 63.36 66.67 64.84 64.90 64.59 65.05 66.70 66.52 67.83 67.76 68.41 68.45
54.62 55.00 55.45 55.55 55.80 55.99 55.62 55.09 55.23 55.45 55.73 56.25 57.75 57.04 50.95 48.23 63.11 64.50 64.85 65.17 63.84 57.32 57.43 61.76 63.71 62.32 61.64 59.73 61.63 60.30 55.78 60.55 63.86 63.79 63.97 65.98 62.19 62.81 66.53 66.65 65.37 66.78 67.13 67.77 68.14
54.93 55.16 55.24 55.32 55.14 54.92 54.32 53.67 54.68 56.71 56.44 56.78 59.55 57.10 52.26 59.80 63.75 62.99 61.15 58.94 59.20 57.98 56.91 60.08 64.25 62.44 60.11 60.67 56.15 53.67 53.54 51.73 62.73 64.20 64.47 63.56 57.15 63.48 66.25 65.29 64.59 64.82 66.20 67.37 68.09
55.04 55.06 55.10 55.00 54.55 54.09 53.30 53.43 58.06 57.52 57.63 59.89 56.98 55.42 52.32 62.61 59.80 61.33 60.40 56.50 57.39 56.43 56.97 58.56 61.86 59.81 56.65 55.02 52.46 52.41 51.12 50.12 58.85 64.52 63.71 62.49 59.59 63.41 66.71 65.28 64.29 64.72 65.97 66.46 67.23
55.72 55.49 55.15 54.38 54.05 53.38 52.83 53.14 57.52 59.36 59.46 59.46 58.16 52.32 54.91 54.23 58.63 59.91 61.74 57.99 54.99 54.52 53.39 53.43 55.10 55.26 54.66 52.94 49.47 50.27 49.61 50.02 54.32 62.38 63.19 61.50 60.63 63.28 65.25 65.22 65.81 65.93 66.29 66.70 66.84
55.63 55.53 54.33 54.01 53.22 52.21 51.45 53.66 48.84 49.97 54.81 49.33 49.41 50.72 50.36 55.34 60.12 58.50 59.06 56.91 54.17 53.07 48.18 51.18 50.72 49.75 54.45 54.23 52.23 51.44 50.66 49.73 51.31 60.68 59.72 59.41 60.18 63.11 65.60 64.14 65.08 65.92 66.32 66.31 66.67
55.61 54.45 53.98 53.63 52.68 51.87 50.84 49.18 50.12 49.80 46.42 50.98 52.39 52.33 54.09 54.95 49.92 57.26 60.14 54.42 50.35 47.24 50.12 48.45 48.42 53.31 54.86 52.99 51.79 51.18 50.17 49.84 51.58 55.36 55.63 55.62 57.96 62.56 64.60 64.27 65.58 65.92 65.66 66.11 66.82
55.36 54.51 53.71 52.89 52.37 50.71 47.63 49.88 51.79 51.57 46.43 46.95 50.83 50.60 51.36 54.25 49.44 53.88 58.42 54.69 49.57 47.42 48.57 47.54 51.77 54.49 52.96 51.51 50.87 50.80 50.56 49.72 50.02 51.41 61.11 59.16 57.74 59.57 63.14 65.22 65.93 66.38 66.77 67.02 66.84
54.54 54.17 53.18 51.93 47.82 49.40 49.61 51.72 51.93 51.40 42.02 42.39 45.92 49.85 51.41 52.46 47.22 55.93 60.45 55.87 51.57 47.09 49.44 50.85 53.37 54.16 51.75 51.10 52.45 50.12 52.53 51.38 50.70 50.05 47.62 59.06 50.45 57.43 61.01 62.50 64.25 65.91 66.35 66.66 67.32
54.10 53.53 52.27 50.53 49.11 50.90 52.22 52.22 50.97 48.52 32.03 44.08 46.15 51.74 49.16 47.89 49.39 50.89 57.69 53.61 51.06 50.22 51.17 49.66 51.11 53.10 51.21 52.10 53.20 51.01 52.70 52.02 51.12 49.51 50.51 53.71 51.59 53.39 60.39 59.86 61.62 63.46 66.40 67.60 67.93
53.65 52.53 51.70 49.23 49.11 52.02 51.74 51.55 49.56 40.74 33.26 42.08 45.72 45.77 45.83 46.87 47.16 49.73 50.93 52.20 53.42 51.89 52.11 50.66 53.02 53.38 53.11 53.82 54.12 53.69 49.82 48.18 47.71 47.78 44.33 51.55 49.41 47.57 53.04 54.33 56.52 63.28 64.61 67.37 68.15
52.54 51.40 50.07 51.00 51.39 51.50 53.05 50.99 40.73 35.61 44.79 41.42 41.59 44.44 44.76 43.59 44.90 47.99 46.31 45.89 46.69 45.71 46.48 46.57 45.44 47.02 47.79 49.40 52.02 51.48 48.73 43.07 42.11 41.95 43.77 45.88 47.86 49.14 54.12 56.66 58.79 60.49 61.78 66.58 68.65
51.17 49.94 51.52 52.77 54.20 53.04 51.69 47.13 35.94 40.55 40.82 45.16 43.19 44.34 41.91 43.82 43.48 44.24 43.90 43.21 45.52 44.72 45.35 44.96 41.20 44.55 46.54 45.95 48.22 49.67 49.33 44.29 38.93 39.86 43.19 45.38 44.97 48.09 53.73 58.38 61.52 62.98 64.56 65.45 68.02
49.95 53.53 53.60 53.85 53.47 52.05 50.18 39.57 37.72 39.90 42.88 42.26 43.28 41.74 41.37 43.11 44.39 43.88 42.30 42.12 43.23 44.00 44.57 42.13 40.28 45.39 45.69 46.19 46.36 45.88 45.83 47.21 43.79 42.13 44.18 44.94 47.17 50.66 55.55 57.77 58.78 60.11 61.74 63.56 66.74
52.98 52.92 53.35 52.61 53.55 52.55 46.55 39.25 41.57 44.98 44.60 43.56 39.66 41.68 39.76 41.18 42.20 42.52 41.59 43.58 42.98 44.33 44.97 43.00 39.87 42.99 44.26 46.04 46.61 46.60 46.07 44.26 45.54 39.59 39.49 41.86 43.98 45.50 52.01 52.96 55.46 57.41 58.79 61.21 64.22
52.04 51.69 54.08 53.04 52.47 49.06 40.88 41.38 43.74 46.13 45.79 43.23 40.98 40.32 40.07 40.84 41.35 40.03 39.95 43.14 44.86 44.73 45.46 43.31 43.20 41.27 44.06 41.39 40.08 44.64 43.77 43.23 45.79 43.25 41.86 39.97 42.71 52.88 51.18 52.54 53.80 56.52 58.39 60.06 64.77
51.40 47.56 54.09 53.04 47.41 44.01 41.73 43.30 43.24 44.13 45.22 44.50 44.01 42.13 40.39 40.28 39.53 40.01 39.69 41.51 45.55 45.02 42.03 42.46 42.03 37.98 38.59 42.45 43.02 43.07 40.51 40.86 44.21 41.38 41.89 45.05 41.96 52.95 53.98 53.37 53.90 55.43 56.86 59.57 61.71
49.40 48.21 53.80 51.91 42.81 41.67 43.74 43.12 43.90 43.18 42.46 42.33 40.70 42.08 42.02 39.15 38.20 40.62 41.60 44.42 45.87 45.77 42.97 43.72 39.46 36.81 37.68 41.53 43.17 41.25 41.79 40.80 40.21 42.87 40.07 42.22 41.58 52.89 54.41 53.95 53.27 53.69 55.84 57.19 59.38
48.39 44.57 48.13 47.31 43.99 43.19 41.39 41.32 41.04 44.53 42.86 43.55 42.02 43.41 41.73 40.14 41.73 38.76 39.61 43.05 44.55 46.70 47.75 45.30 39.99 38.89 38.40 38.41 40.69 39.39 40.29 41.42 41.23 41.93 39.62 41.20 40.88 49.07 51.36 51.60 53.03 53.98 55.26 56.00 56.99
47.14 43.30 43.17 40.87 42.48 42.77 42.75 41.25 39.48 39.04 43.00 43.97 41.52 40.73 40.07 39.24 39.55 38.47 40.24 42.12 44.17 44.69 44.65 44.17 38.31 40.18 40.23 40.57 40.55 39.72 39.55 40.10 39.70 40.41 40.14 41.14 42.99 47.61 50.07 51.43 51.91 53.38 54.41 54.12 53.85
48.40 45.71 44.21 42.26 41.32 42.28 40.73 39.96 39.38 39.93 40.96 39.34 39.35 40.78 42.08 39.10 39.39 38.41 40.11 40.49 39.10 43.37 42.13 43.12 37.97 39.64 36.63 39.29 39.28 37.95 39.95 40.20 39.89 40.33 40.70 41.38 43.21 49.36 51.15 52.54 51.40 50.67 51.47 51.21 51.71
49.60 46.88 47.46 40.20 41.03 41.10 40.31 40.03 40.27 41.99 42.84 43.09 41.83 41.14 40.12 41.17 43.51 43.60 43.69 43.03 42.45 40.77 40.65 40.77 39.65 37.52 33.79 37.34 37.81 35.08 38.93 40.12 41.18 44.09 43.27 40.47 45.23 48.21 47.44 49.11 48.47 47.72 47.99 48.13 49.22

GFSSW_sfc_wetblb_078.txt.gz
Wetbulb
57.52 57.75 57.82 57.73 57.92 58.29 58.52 58.56 58.54 58.46 58.26 58.13 58.04 57.68 58.22 57.75 57.38 59.28 54.01 59.10 60.28 67.99 72.47 70.07 69.54 71.41 71.16 68.78 70.18 69.94 63.91 58.53 60.65 59.39 61.04 64.61 62.53 66.35 67.16 65.17 66.75 69.36 68.61 69.22 70.90
57.37 57.39 57.30 57.55 57.64 57.86 58.11 58.24 58.28 58.07 57.85 57.91 57.65 57.50 57.73 57.74 57.76 55.03 63.64 63.76 64.62 70.77 69.03 64.86 66.61 69.50 67.42 67.01 69.03 66.27 62.41 60.58 64.84 65.72 63.49 63.76 63.89 64.22 63.46 64.35 66.33 67.75 69.25 69.91 70.31
57.03 57.13 56.91 57.20 57.30 57.47 57.75 57.81 57.87 57.65 57.48 57.46 57.50 57.52 58.18 59.38 55.33 53.92 66.79 64.37 68.76 71.07 68.19 64.93 68.04 68.63 65.58 66.73 67.06 66.49 62.21 64.16 65.91 67.66 67.14 65.36 63.71 66.57 63.88 64.54 67.69 66.91 67.34 68.70 68.99
56.23 55.95 55.99 56.27 56.72 56.94 57.19 57.33 57.22 57.13 57.17 57.13 57.33 57.93 58.74 59.06 48.77 60.78 66.55 67.63 70.98 68.71 66.08 62.94 66.06 64.84 63.61 62.41 65.20 63.02 65.65 65.08 66.11 67.92 66.96 65.86 66.26 66.30 66.35 66.50 70.00 69.65 68.89 69.13 68.44
55.66 55.40 55.36 55.93 56.17 56.52 56.77 56.72 56.58 56.43 56.39 56.94 57.40 58.13 58.84 54.16 51.25 65.71 66.42 67.30 68.75 66.26 63.20 61.23 61.62 61.80 61.43 63.20 63.45 63.85 64.63 64.10 64.31 66.31 66.62 68.27 66.05 65.41 63.96 68.02 70.24 69.31 68.81 68.50 69.11
54.91 55.08 55.71 55.91 55.76 56.15 56.44 55.82 55.22 55.53 56.07 56.68 57.51 58.96 56.26 49.15 62.22 64.84 62.19 62.96 65.51 62.95 60.60 60.76 59.80 62.51 62.27 64.02 63.78 64.75 64.30 62.10 62.29 65.49 67.27 66.06 66.14 65.54 66.32 69.37 67.69 67.52 68.51 69.01 69.22
55.04 55.32 55.38 55.59 55.74 55.68 55.34 55.02 54.79 55.44 55.97 56.40 57.95 59.41 54.24 51.81 64.24 63.05 66.62 64.31 63.68 61.26 59.03 61.26 61.45 61.65 63.30 62.00 65.42 64.14 60.20 62.19 63.55 63.50 64.99 67.95 64.14 63.79 67.36 68.93 66.65 67.90 68.38 69.04 69.80
55.70 55.24 55.27 55.42 55.40 55.27 54.42 53.94 55.12 58.10 57.18 56.93 58.68 59.72 54.05 61.96 65.91 62.05 65.50 64.73 62.29 62.34 61.22 63.58 64.30 62.71 62.97 64.79 62.82 60.84 59.75 56.50 63.71 64.63 65.70 66.50 60.41 66.36 67.15 67.28 65.66 67.64 68.23 68.63 68.93
55.15 55.52 55.47 55.36 54.82 54.35 53.40 53.77 58.68 58.22 57.79 58.94 59.47 58.42 53.16 63.61 61.81 62.25 63.78 61.27 60.36 59.74 61.16 62.91 62.98 61.24 62.06 59.22 57.84 59.57 56.88 55.50 60.83 65.80 65.83 65.12 61.65 64.48 67.47 65.71 65.93 66.22 66.66 66.06 67.24
56.00 55.62 55.20 54.90 54.07 53.34 52.84 53.23 58.57 59.91 60.44 61.16 60.43 54.36 57.45 55.83 61.64 60.70 61.44 60.89 58.16 56.94 55.63 57.39 59.47 56.66 58.55 57.62 52.26 56.59 56.18 55.23 59.15 64.26 65.44 62.96 62.98 66.37 64.67 64.99 64.44 64.94 66.06 66.19 67.68
56.13 55.17 55.32 54.73 53.44 52.73 54.13 58.56 55.27 55.88 55.79 52.39 51.72 53.15 55.95 59.82 62.74 60.21 61.25 58.18 57.60 55.62 50.99 54.32 53.32 51.30 54.29 58.24 57.63 59.06 57.24 55.86 58.42 64.91 63.01 61.21 61.40 64.91 66.49 66.16 63.99 64.49 65.79 67.42 67.98
55.85 55.40 54.96 54.02 52.61 51.95 55.93 54.58 53.53 53.60 49.80 54.77 53.75 53.93 55.71 59.61 55.66 58.29 62.00 56.25 53.88 50.84 52.89 50.85 49.67 53.43 55.98 58.64 56.35 56.74 55.66 54.82 55.24 59.00 58.32 56.42 58.14 64.07 64.78 66.68 67.17 66.77 66.79 68.05 68.82
55.52 55.02 54.14 52.95 52.77 54.61 55.73 54.22 56.78 56.18 50.18 50.62 53.32 52.81 54.14 55.75 54.37 56.49 59.44 57.77 52.76 50.98 50.83 48.99 51.46 55.19 56.29 56.95 55.11 56.33 56.39 54.58 54.29 55.34 60.41 59.69 59.50 61.82 65.62 65.41 68.05 68.66 69.73 70.06 69.47
55.30 54.34 53.36 52.01 51.99 57.43 54.71 56.43 57.86 56.29 46.13 46.59 48.31 51.47 53.70 55.24 51.08 59.75 60.07 57.35 53.14 50.35 51.28 50.46 55.50 54.42 55.53 54.83 56.12 53.45 57.59 55.19 53.82 53.20 53.07 59.86 51.58 60.39 63.44 64.13 64.33 66.50 68.75 69.61 70.06
54.55 53.42 52.24 50.66 56.61 55.74 55.77 58.35 57.26 54.49 36.74 45.74 48.65 55.45 55.21 52.06 53.58 55.36 60.09 57.91 52.27 50.79 51.68 50.45 53.42 54.06 53.67 54.75 56.72 54.03 57.50 55.90 54.39 53.53 52.50 54.42 53.81 57.18 62.89 61.74 62.64 65.10 65.90 66.98 70.22
53.65 52.55 51.91 54.31 56.94 56.98 57.63 58.28 54.15 44.28 36.30 44.22 48.82 49.17 49.52 50.45 51.62 56.41 57.17 57.05 57.61 52.51 52.66 53.60 57.36 57.88 56.34 56.93 56.83 57.12 55.04 54.88 54.63 53.34 48.08 54.05 53.85 52.84 57.34 58.07 60.73 62.80 67.94 69.02 68.06
52.45 51.56 53.26 57.25 56.49 59.13 59.57 55.18 44.40 39.61 47.42 43.52 44.86 48.45 47.68 47.66 49.41 51.81 52.01 50.99 50.97 47.43 48.25 52.07 53.85 55.23 55.74 55.42 57.08 55.40 52.29 47.29 46.59 45.89 46.75 54.58 52.31 54.12 57.66 61.75 62.84 62.47 65.19 67.77 70.82
51.29 50.23 55.08 57.92 59.39 58.85 57.54 50.13 39.13 43.69 43.92 47.80 45.38 46.42 44.74 48.27 49.05 50.09 49.92 48.76 50.55 51.10 49.33 46.77 44.84 51.62 50.81 53.32 52.96 53.36 52.24 47.74 43.07 44.10 47.01 52.35 49.68 51.99 60.84 62.94 64.11 64.96 66.76 65.68 69.92
50.11 60.10 59.80 58.39 59.11 59.39 53.16 44.83 42.56 43.69 45.73 44.25 45.51 43.41 44.85 46.85 48.23 49.45 48.34 47.58 47.41 49.91 48.63 48.30 44.82 48.47 48.72 50.24 51.55 52.96 50.35 53.67 49.42 50.81 48.48 49.81 52.58 57.35 59.76 60.40 61.72 60.65 62.91 65.15 68.34
60.46 59.56 57.87 58.57 59.71 56.37 51.63 42.67 45.60 47.58 46.30 46.91 41.95 44.66 43.65 45.46 46.75 47.79 46.90 47.41 46.93 48.65 50.84 49.80 44.07 47.46 47.33 49.61 50.50 52.53 55.03 48.47 49.44 44.42 43.87 47.35 49.30 51.79 54.80 55.78 57.54 57.60 59.34 63.42 68.14
58.84 54.37 57.74 58.92 57.90 55.12 48.72 45.92 46.19 49.20 48.35 46.52 43.37 44.41 44.76 44.67 46.61 45.34 44.49 46.81 48.13 48.16 50.22 50.18 48.80 45.66 48.05 47.27 47.77 49.12 49.74 50.69 51.36 49.73 46.22 44.68 48.54 56.12 53.95 54.58 55.22 56.39 58.39 61.37 63.57
57.17 51.15 58.03 58.57 52.27 53.27 48.32 47.33 44.98 46.75 49.64 48.19 47.77 45.39 45.29 45.14 44.58 44.47 43.81 45.21 49.20 49.21 46.88 48.54 48.96 44.77 45.49 46.62 47.73 48.64 48.82 50.80 47.53 47.09 49.15 49.35 48.94 57.37 57.46 55.18 56.27 56.31 57.45 59.56 61.55
55.17 53.32 58.16 57.59 48.84 47.54 48.32 46.80 47.41 47.29 45.53 45.97 45.39 46.54 46.46 44.39 42.05 44.95 44.31 46.93 49.74 48.95 48.09 48.39 47.50 42.45 42.73 45.38 47.12 47.48 47.73 48.93 49.57 50.99 48.86 46.13 47.53 57.98 58.50 57.52 57.73 56.27 56.79 57.83 58.64
54.38 48.83 52.59 53.92 53.49 49.42 47.12 45.90 44.68 47.68 47.17 47.63 46.07 47.62 46.86 44.50 47.17 42.70 44.21 45.65 48.27 49.38 48.73 50.02 47.53 45.59 42.92 44.88 47.62 44.84 45.16 46.85 48.41 47.81 48.90 49.09 49.68 53.70 55.56 56.66 58.37 58.69 57.01 56.33 57.33
53.42 48.03 48.84 46.55 47.92 48.67 48.32 45.66 43.80 43.22 46.77 48.12 46.18 46.13 46.03 43.56 44.44 43.77 44.75 45.43 47.72 48.53 48.76 49.74 44.55 46.03 45.71 45.39 45.66 44.62 44.01 44.39 46.23 47.43 47.07 48.69 51.07 52.96 55.31 55.61 56.55 57.83 58.02 57.26 56.79
52.31 51.76 51.17 48.20 47.38 47.12 44.97 44.76 43.08 44.27 45.04 43.44 44.54 46.38 47.73 45.28 46.20 43.99 46.35 47.33 44.54 47.04 46.89 48.05 44.04 45.72 42.91 43.85 43.91 42.72 44.16 44.10 43.98 44.87 47.15 49.42 49.51 55.14 56.33 56.56 54.77 54.74 54.67 54.34 54.70
56.75 54.30 51.95 43.95 45.88 46.81 44.79 44.22 43.61 45.41 45.85 46.15 45.28 45.73 44.87 45.18 47.87 48.59 49.21 48.92 48.00 47.44 46.03 45.60 44.63 42.95 40.38 42.19 41.82 39.76 43.78 44.37 45.31 46.40 46.89 45.94 51.04 53.58 53.59 53.64 53.28 53.31 53.67 52.99 53.19

GFSSW_sfc_wetblb_081.txt.gz
Wetbulb
57.92 58.13 57.75 58.00 58.19 58.47 58.45 58.54 58.59 58.73 58.84 58.75 58.68 58.81 58.43 58.83 58.16 59.21 55.45 62.99 63.39 70.99 72.89 70.69 71.59 72.25 72.29 69.53 70.86 71.10 64.32 60.21 61.13 62.07 60.87 66.27 63.99 67.19 69.59 67.91 69.33 70.00 68.68 69.76 71.56
57.58 57.44 57.43 57.41 57.76 58.08 58.04 58.27 58.19 58.22 58.17 58.06 58.23 58.61 58.62 58.83 58.76 57.22 66.19 68.67 71.06 73.45 70.83 67.29 66.88 70.59 68.69 68.39 68.25 68.42 64.64 62.18 65.47 66.49 64.83 64.19 64.95 64.52 65.25 65.87 67.26 68.38 69.77 70.67 71.30
56.99 56.84 56.62 56.86 57.08 57.38 57.59 57.78 57.89 57.78 57.73 57.63 57.93 58.53 58.88 59.72 58.27 56.42 68.24 68.16 68.76 73.36 69.20 67.20 68.88 69.54 66.89 67.65 66.64 67.15 61.28 64.68 66.60 67.68 67.46 65.22 63.54 66.05 63.73 64.23 67.72 66.45 67.98 69.36 70.06
56.34 56.28 56.02 56.38 56.93 57.04 57.27 57.48 57.47 57.42 57.40 57.29 57.70 58.32 59.22 60.35 52.15 65.00 68.01 68.44 68.95 71.22 67.91 64.22 66.44 65.99 65.18 64.11 67.57 64.69 65.98 65.86 67.08 68.32 66.79 65.23 66.53 64.57 65.65 66.66 70.18 69.79 69.77 69.36 69.39
55.40 55.67 56.17 56.49 56.66 56.73 56.98 57.04 56.65 56.26 56.47 57.13 57.49 58.30 59.57 55.93 54.56 67.80 67.14 67.58 64.54 68.33 65.51 62.00 63.59 64.88 63.29 64.82 65.59 65.53 64.78 65.22 67.17 66.33 68.27 68.24 66.50 66.56 66.43 69.51 70.50 70.74 69.49 68.95 68.95
56.02 55.96 55.85 56.03 56.20 56.37 56.52 56.10 55.83 55.85 56.31 56.93 57.50 58.03 57.67 51.52 61.42 65.98 63.63 61.27 62.43 65.63 64.20 62.76 63.44 65.76 63.39 64.64 62.21 66.28 66.34 64.02 65.38 63.93 67.91 66.34 66.08 67.21 67.51 69.76 70.16 69.01 68.65 68.91 68.73
56.05 55.91 55.83 56.20 56.15 56.20 55.98 55.47 55.22 56.27 56.74 57.23 57.80 59.33 57.08 54.03 63.49 63.56 62.02 60.77 64.23 64.72 62.22 62.35 62.85 62.27 64.21 63.77 67.99 66.54 62.38 63.16 64.44 66.40 66.31 67.85 64.33 63.59 68.49 68.91 67.19 68.07 68.65 68.91 68.58
55.86 55.71 56.00 56.24 56.32 55.77 55.55 54.84 55.59 58.54 58.94 57.83 58.57 59.78 56.63 59.37 64.70 62.42 62.32 62.00 65.37 64.32 62.22 62.60 62.49 61.39 62.67 65.76 64.66 63.76 63.62 58.44 63.34 65.35 66.99 65.59 60.15 66.15 69.57 68.33 66.84 67.43 67.38 68.33 68.76
56.09 56.32 56.32 56.09 55.89 55.42 54.33 53.93 56.14 58.06 58.54 58.40 59.62 59.49 54.47 64.28 62.39 62.98 65.38 61.48 62.42 62.11 62.21 62.35 63.00 59.72 62.20 60.69 59.54 61.86 57.92 57.89 61.13 65.77 66.29 65.47 61.65 64.49 69.05 67.81 66.97 66.21 67.77 68.02 68.37
56.42 56.36 56.21 56.15 55.56 54.58 53.84 53.72 56.81 58.83 60.25 61.73 61.08 55.02 57.82 55.82 61.25 62.67 64.69 63.32 59.23 59.59 58.89 59.19 59.24 56.49 58.89 58.84 53.75 56.96 57.85 57.97 59.22 64.51 64.36 61.63 62.49 66.71 66.25 66.25 66.21 65.83 66.71 67.48 67.35
56.44 56.27 56.03 55.71 54.35 53.25 54.03 59.17 57.64 58.18 58.67 56.00 54.67 54.28 55.60 58.36 62.69 60.34 62.39 61.00 58.96 57.05 53.18 55.68 54.47 52.22 55.75 57.76 59.03 58.83 58.47 56.86 61.25 64.19 63.72 63.02 62.48 65.27 64.49 64.60 64.87 64.78 65.18 66.14 66.49
56.37 56.12 55.17 54.19 54.01 53.30 55.42 56.80 55.42 56.07 51.26 56.87 55.19 54.51 58.12 61.33 56.57 58.90 61.06 56.80 55.31 51.89 54.31 52.43 51.42 56.14 57.02 58.13 58.62 58.93 58.03 56.13 60.76 63.44 63.68 60.46 61.61 65.36 65.79 63.97 63.86 63.99 66.77 64.97 65.95
56.14 55.68 54.62 53.91 53.36 54.43 58.23 56.07 59.10 58.54 51.41 53.13 55.50 53.13 55.40 59.37 55.89 56.89 59.29 57.32 54.34 52.20 52.75 51.01 52.73 56.09 54.91 55.52 57.19 58.55 58.04 56.65 56.19 60.08 61.29 58.54 59.19 62.74 65.56 65.50 64.90 65.67 66.94 67.90 66.38
55.49 54.83 54.05 52.89 50.63 59.74 56.63 58.41 59.69 58.67 47.70 49.29 50.90 53.07 54.97 56.13 53.46 59.63 60.63 57.66 54.83 52.44 53.19 52.67 55.20 53.66 53.11 54.34 57.72 55.49 59.56 57.42 56.74 56.03 53.80 60.50 52.17 60.69 64.26 64.72 64.34 65.57 66.32 68.93 68.15
55.64 54.60 52.90 51.52 59.11 56.35 57.50 59.75 59.62 56.97 39.02 48.02 50.66 56.69 55.65 53.12 54.47 56.41 60.38 58.23 53.53 52.32 53.67 51.27 52.49 52.68 52.88 55.33 58.03 55.01 59.30 58.26 56.86 55.35 56.64 57.35 55.13 53.57 63.04 62.67 62.43 63.93 66.69 67.92 68.77
54.56 53.44 52.54 57.37 59.53 58.24 59.11 60.09 57.60 45.11 38.01 46.52 50.39 49.53 50.90 52.69 53.19 56.50 56.24 59.02 57.90 52.94 53.80 53.50 55.49 56.73 55.90 57.45 57.62 58.15 57.58 57.67 57.28 54.95 50.37 53.96 54.98 51.59 57.59 61.42 64.19 63.87 67.87 68.48 67.95
53.32 51.99 53.05 60.43 58.08 61.57 60.45 57.02 46.07 42.26 50.12 45.28 46.66 49.55 50.44 49.63 50.96 53.29 52.35 53.02 51.56 48.63 48.41 52.00 53.14 57.59 57.74 55.42 57.68 56.97 55.10 49.65 48.19 48.38 47.90 54.56 54.32 53.83 61.32 63.86 63.68 63.06 65.54 66.84 68.76
51.56 51.00 56.75 60.44 62.17 61.17 59.06 51.72 41.22 46.59 46.16 49.67 48.32 48.85 47.36 49.24 49.43 52.12 52.36 50.69 53.66 52.74 49.29 48.26 48.07 55.33 58.19 56.42 54.62 54.72 54.40 49.70 44.45 45.86 47.99 54.50 52.41 56.42 63.27 64.99 64.62 66.36 65.38 68.76 69.90
50.79 60.46 61.05 62.79 61.96 61.19 54.88 43.92 44.41 46.57 47.95 46.09 46.92 45.39 46.09 48.43 49.71 51.09 51.20 49.87 52.78 54.57 48.92 49.34 48.88 55.01 56.90 58.16 55.89 54.51 51.93 54.95 51.27 52.28 49.01 53.01 56.43 60.33 62.49 62.31 61.01 61.82 65.89 67.86 67.78
60.64 60.04 60.08 61.59 61.62 58.83 51.67 44.55 48.04 49.98 49.66 48.06 43.30 46.68 44.24 47.06 47.66 48.61 48.86 50.00 50.58 52.59 54.18 51.41 47.91 52.28 51.99 53.53 55.17 53.99 57.09 50.72 51.08 46.55 45.22 50.69 52.84 54.21 57.64 58.25 58.37 58.39 60.74 64.97 70.57
59.47 55.49 59.94 62.60 60.74 55.65 45.68 48.48 48.70 51.31 50.52 46.98 45.25 45.96 45.49 46.26 47.79 46.85 48.46 50.02 51.01 51.93 54.27 52.97 51.55 49.53 51.25 50.75 51.13 52.38 52.12 53.73 53.20 51.94 48.09 46.62 51.41 60.00 57.88 57.59 56.74 57.46 59.12 61.01 63.62
58.22 51.68 59.32 61.06 52.24 53.45 49.40 50.43 47.11 50.11 50.71 49.54 48.26 48.32 46.09 47.84 45.19 45.14 47.13 49.32 51.37 52.49 51.11 53.12 51.38 47.19 48.47 52.26 52.42 53.05 53.27 53.66 49.49 49.51 51.17 49.88 51.15 60.00 59.89 59.56 57.82 57.15 58.64 60.60 62.35
55.74 54.36 59.45 58.22 47.47 50.01 51.10 49.45 49.84 49.26 49.05 49.00 47.40 48.02 49.67 48.26 44.11 47.32 47.78 49.48 51.80 51.58 51.40 52.33 49.53 45.65 45.90 48.75 51.59 50.15 52.15 53.30 53.73 53.10 50.66 48.16 50.72 60.09 60.48 59.82 58.32 56.64 57.15 58.80 60.08
54.97 50.82 54.01 57.64 55.11 51.48 49.46 48.89 47.88 49.72 49.47 50.01 49.05 48.69 48.81 46.66 50.18 47.21 45.75 48.53 50.92 50.57 51.49 53.10 50.44 48.16 44.47 47.44 50.30 48.84 49.36 51.57 51.76 49.08 50.38 51.76 52.95 56.87 58.41 59.38 59.14 57.82 58.96 58.19 58.75
55.23 49.96 52.53 49.13 49.97 50.96 51.17 48.57 46.44 46.14 49.51 50.86 49.20 49.27 47.04 45.17 46.18 46.48 48.39 48.84 50.25 53.31 51.98 52.28 47.66 49.21 48.21 48.66 49.96 49.90 49.48 49.17 49.63 51.36 49.28 53.13 53.95 56.59 58.33 59.08 59.84 60.89 59.85 59.20 59.56
54.10 53.65 52.80 50.89 50.40 48.80 46.05 47.23 45.53 46.98 48.13 46.60 48.24 48.81 50.37 47.02 48.56 45.94 48.16 48.57 47.81 50.28 50.49 51.13 47.92 48.90 46.33 46.75 47.39 46.10 46.97 47.36 48.84 49.45 50.97 53.43 52.34 58.67 59.08 59.24 58.13 58.27 58.12 57.33 57.81
59.41 56.89 54.30 46.96 48.91 49.22 47.68 47.35 45.99 47.76 47.79 48.83 48.79 49.47 48.73 48.67 51.32 52.54 53.14 52.17 52.07 50.78 47.57 48.38 49.02 46.27 43.40 46.25 44.97 42.77 46.47 47.31 48.21 49.48 51.36 51.43 55.40 57.90 56.54 56.10 56.05 56.46 56.77 56.24 56.60

GFSSW_sfc_wetblb_084.txt.gz
Wetbulb
58.07 57.92 57.81 57.79 58.00 58.37 58.56 58.82 58.86 59.16 59.14 59.14 58.86 59.03 59.15 59.29 59.13 58.69 53.52 61.87 62.47 72.59 72.12 63.38 63.95 66.67 71.08 68.81 70.06 69.66 62.47 59.72 59.94 61.20 62.23 66.92 64.59 67.30 70.28 67.79 68.46 68.77 67.11 68.37 70.49
57.44 57.53 57.26 57.19 57.28 57.81 58.03 58.19 58.39 58.60 58.56 58.60 58.56 58.77 59.22 59.35 57.93 55.59 65.51 70.08 72.40 72.05 65.63 65.15 64.83 68.96 67.75 67.32 68.28 64.37 62.63 61.65 65.25 65.32 64.16 65.63 65.41 64.67 65.53 66.35 66.51 66.15 68.40 69.32 70.06
56.85 56.78 56.65 56.87 57.47 57.58 57.64 58.02 58.13 58.23 58.14 58.22 58.23 58.67 59.18 59.60 57.52 57.54 70.56 70.69 71.83 71.14 68.03 69.18 68.82 68.60 66.18 67.46 67.29 65.88 61.68 65.57 65.98 67.41 66.74 64.94 64.49 65.62 65.53 64.76 66.26 65.03 66.33 68.01 68.73
56.80 56.59 56.56 56.86 57.13 57.38 57.44 57.64 57.73 57.57 57.38 57.63 58.12 58.58 59.05 58.67 53.28 62.42 70.20 69.38 70.25 63.85 68.23 66.57 64.78 65.49 64.68 63.29 67.65 61.81 66.45 67.52 66.99 67.79 65.90 64.59 65.18 64.56 65.19 66.89 68.81 68.38 68.11 68.05 67.59
56.68 56.59 56.56 56.57 56.77 57.01 57.09 57.15 56.76 56.77 56.88 57.28 57.84 58.48 58.39 56.25 54.45 66.46 69.87 68.01 59.40 62.75 66.12 64.11 62.63 64.96 63.27 64.69 66.39 64.33 65.03 67.44 68.26 67.61 66.61 67.15 65.31 63.93 65.13 68.38 70.13 69.01 68.28 67.44 67.57
56.38 56.43 56.36 56.10 56.58 57.03 56.69 56.39 56.12 56.31 56.84 57.56 57.91 58.11 56.15 51.07 61.86 67.10 62.74 58.00 58.39 63.14 66.24 64.08 62.08 65.86 64.12 64.28 65.07 65.67 65.58 64.51 66.46 66.87 67.54 65.22 65.34 66.10 66.55 68.53 68.96 68.11 67.16 67.57 67.54
55.95 56.09 56.27 56.59 56.75 56.84 56.37 55.85 55.65 56.13 57.87 58.33 58.43 58.45 55.71 54.48 60.85 64.68 62.25 58.40 59.97 63.09 64.24 64.09 63.24 64.33 64.21 62.62 67.39 65.82 62.83 62.78 64.62 67.60 66.50 67.16 63.33 63.83 68.29 69.29 67.97 67.51 67.62 67.44 67.86
56.52 56.51 56.65 56.82 56.69 56.05 56.22 55.60 55.23 56.71 59.80 59.52 58.82 58.60 53.35 61.42 60.84 61.90 61.66 59.31 60.61 62.60 64.57 64.29 63.61 61.61 62.30 64.42 66.19 63.44 62.88 57.53 62.95 66.47 66.86 66.25 59.08 64.94 67.83 68.07 66.71 66.68 66.99 66.86 67.64
56.65 56.20 56.79 56.69 56.64 56.17 55.45 54.85 55.56 59.12 59.28 59.38 57.31 57.95 54.35 64.83 57.59 61.90 60.82 58.13 61.14 63.59 63.60 62.66 60.82 58.15 59.22 58.40 59.24 61.90 57.25 57.84 60.13 65.83 65.75 65.07 60.07 64.83 67.48 67.03 65.97 65.86 66.34 66.46 66.99
56.25 56.44 56.71 56.49 56.09 55.03 54.46 54.11 57.48 58.02 58.87 59.56 60.37 55.84 56.00 58.21 57.64 60.57 63.81 61.64 60.79 60.54 58.42 57.89 57.14 55.48 55.93 56.65 52.73 55.82 56.51 57.93 58.97 63.71 64.86 63.19 61.86 64.47 66.47 65.95 65.81 65.58 66.00 66.60 66.55
56.73 56.61 56.19 55.78 54.72 54.45 53.93 58.61 56.82 56.73 59.39 56.14 55.91 55.98 56.30 59.89 60.96 60.03 62.59 61.18 59.68 58.09 53.32 56.18 52.98 51.18 53.91 57.10 59.20 58.94 57.88 56.42 59.36 61.06 63.79 63.07 62.15 63.44 66.29 66.27 64.99 64.83 65.16 66.25 66.84
56.51 56.05 55.27 55.24 54.66 54.01 54.14 56.86 55.39 55.96 50.84 58.69 57.93 55.85 57.58 58.66 56.45 58.55 62.51 57.60 55.18 52.17 55.00 53.77 50.53 54.33 55.29 56.92 57.02 57.32 56.24 57.54 59.58 61.80 61.04 61.95 61.40 63.77 65.47 65.11 65.13 65.30 64.85 65.88 66.46
55.60 55.29 54.91 54.58 53.80 53.12 57.43 56.72 58.48 58.23 50.57 52.26 54.34 55.02 55.61 58.68 56.59 56.02 58.89 57.28 53.73 51.96 52.32 50.80 52.04 54.96 54.69 54.23 54.56 55.61 55.73 56.70 57.12 57.77 57.46 56.67 58.91 56.38 64.02 65.69 64.90 65.09 66.17 66.73 66.32
55.43 55.27 54.60 53.15 50.87 59.25 57.46 58.20 59.49 58.34 46.59 48.91 51.43 54.23 54.78 56.54 55.11 59.42 59.05 56.85 54.29 51.24 52.05 51.83 54.36 53.12 53.81 53.02 54.72 53.07 58.69 58.23 59.29 57.58 53.01 57.86 53.30 59.36 62.26 62.83 63.99 64.30 65.06 64.97 65.49
55.28 54.56 53.61 52.42 56.10 56.47 57.98 58.82 59.27 56.44 38.08 49.84 51.26 56.97 54.89 52.36 54.97 55.96 60.45 56.54 52.75 52.24 52.48 50.57 51.84 51.92 51.67 52.87 54.89 55.14 59.55 58.06 57.48 55.64 54.75 55.48 53.18 57.94 60.94 60.12 59.06 61.82 64.51 65.19 66.32
54.90 53.82 52.89 56.79 56.75 58.68 58.71 59.09 57.67 45.23 38.74 47.50 50.58 49.63 49.67 51.69 52.59 55.44 56.58 58.26 56.78 54.17 53.28 52.85 55.67 54.21 53.53 54.93 55.40 58.59 57.42 57.96 57.71 55.16 48.97 55.03 54.15 54.63 57.54 57.21 61.49 63.39 65.06 62.52 65.45
54.04 52.78 52.77 59.43 57.56 61.63 60.64 56.13 46.24 40.92 50.96 47.08 47.25 49.09 48.44 49.01 50.60 52.86 52.92 51.97 50.55 47.92 48.05 50.97 52.13 53.94 55.79 53.21 56.49 56.75 53.93 48.92 48.24 48.35 47.23 53.62 53.65 55.08 56.89 62.68 63.13 64.36 64.68 63.99 65.45
52.14 51.62 55.82 58.99 62.09 61.46 58.47 51.58 41.03 46.30 45.67 51.59 49.38 48.87 46.26 49.16 49.80 50.69 51.29 49.57 52.86 52.22 48.50 46.80 45.43 52.08 56.36 54.51 53.60 54.24 53.12 49.58 44.15 45.04 47.87 53.46 51.13 55.15 58.77 63.67 65.33 66.38 67.02 64.70 66.02
51.20 59.31 59.66 61.85 63.02 60.65 54.25 45.26 43.46 45.74 49.70 47.88 48.37 45.36 46.16 48.57 48.95 49.70 49.98 49.81 51.51 53.44 48.66 47.18 47.33 54.31 55.43 56.99 56.50 53.80 51.55 56.14 51.48 52.00 48.47 53.55 56.61 60.68 61.73 60.64 62.29 63.62 66.56 66.78 68.32
57.37 59.08 60.24 62.98 61.64 58.72 51.19 41.54 45.37 52.04 50.41 49.28 44.35 46.13 43.70 46.22 46.50 48.25 48.95 51.74 51.53 52.66 54.72 51.57 46.80 53.19 55.47 57.54 57.98 55.25 56.39 50.30 51.77 45.21 44.72 51.94 53.02 53.92 58.32 58.01 59.14 60.04 61.16 62.25 63.68
57.13 55.72 60.62 62.09 59.43 54.48 44.01 44.81 50.25 51.18 51.16 48.84 46.25 46.51 46.63 44.97 47.59 47.60 47.52 51.96 52.66 52.08 54.93 52.90 51.39 51.52 54.63 52.69 52.25 52.95 51.65 53.13 52.91 51.32 46.58 47.47 50.43 60.18 59.35 59.28 58.15 58.65 60.29 61.58 62.36
57.94 52.59 60.34 59.79 50.71 53.05 49.91 49.20 47.59 50.07 50.43 50.18 49.69 48.04 47.52 48.77 46.14 45.60 44.78 47.30 52.56 52.43 50.18 53.42 52.24 46.59 49.39 53.61 55.41 54.62 53.33 53.58 48.95 49.19 51.13 49.88 50.57 60.38 60.10 58.86 59.01 58.17 59.66 61.99 62.97
55.88 54.17 58.31 57.05 49.09 47.04 49.95 49.88 50.70 49.59 49.82 49.29 47.51 48.44 49.72 47.90 45.03 47.57 48.25 52.64 52.26 51.31 50.45 51.51 49.88 44.94 46.83 49.87 52.40 50.40 52.37 53.41 53.63 53.39 50.10 45.29 50.18 60.25 59.79 58.14 58.26 57.62 58.76 60.89 62.04
55.75 49.91 54.30 55.70 54.02 51.33 49.94 49.61 48.61 50.70 49.57 50.61 49.07 49.29 47.08 47.12 48.94 45.71 46.30 49.41 51.40 51.43 54.76 55.03 50.02 45.73 42.43 46.86 49.98 48.45 50.48 52.42 52.05 48.88 50.40 51.51 52.89 56.30 58.04 57.66 57.87 57.56 58.39 59.37 60.61
56.13 50.25 52.36 48.56 50.10 50.79 50.88 49.44 47.29 47.03 50.38 51.40 49.53 47.55 46.54 44.75 46.74 46.36 47.85 48.73 50.37 55.45 52.80 51.35 47.17 49.40 49.45 49.55 50.60 49.66 49.65 50.20 49.98 51.25 49.17 52.57 52.99 55.76 57.76 58.85 59.32 59.58 59.94 59.39 58.99
52.35 52.94 53.53 50.90 50.74 49.55 46.68 47.55 46.80 47.25 48.67 47.20 48.04 49.89 49.22 46.11 47.49 46.38 47.93 48.61 49.12 50.34 50.94 51.46 47.12 49.91 46.62 48.29 49.07 48.53 49.90 50.48 50.48 51.08 52.23 53.67 53.13 58.71 58.56 60.07 59.28 58.84 58.53 57.95 58.28
57.91 57.30 54.86 48.16 50.34 49.12 48.09 48.01 46.91 48.29 48.10 50.25 50.63 50.55 49.51 48.75 51.93 52.45 52.68 52.25 51.68 50.49 49.68 49.10 47.89 47.20 44.31 46.94 46.29 44.37 47.53 47.91 49.20 51.05 54.46 51.23 53.97 58.25 57.09 56.81 56.90 56.97 57.22 56.77 56.98

GFSSW_sfc_wetblb_087.txt.gz
Wetbulb
56.93 57.05 57.06 57.34 57.70 57.90 58.43 58.60 58.64 58.88 58.99 59.13 58.87 58.80 59.46 59.72 59.21 57.07 51.75 57.80 59.17 71.50 71.89 63.65 59.22 63.37 66.04 67.98 69.15 69.17 60.72 58.02 59.47 59.34 61.24 66.02 64.47 67.89 70.01 66.61 66.16 66.82 65.39 67.62 69.57
57.14 57.12 57.09 56.93 57.34 57.72 57.98 58.17 58.42 58.38 58.51 58.54 58.49 58.56 59.33 59.86 56.06 53.67 61.54 68.90 71.46 71.40 59.44 60.08 57.16 59.83 59.41 65.28 67.06 64.36 59.82 60.44 64.09 64.63 63.57 65.15 65.37 65.07 65.13 64.97 65.10 64.89 67.36 69.14 69.65
57.08 57.08 56.97 56.95 57.10 57.32 57.48 57.82 57.93 58.07 57.94 57.72 58.08 58.63 59.16 58.56 54.39 55.79 70.57 69.57 72.55 70.56 58.60 63.14 61.54 61.01 60.32 65.66 65.74 64.93 60.92 64.92 64.27 66.22 66.75 64.99 63.88 66.14 64.55 63.23 63.19 62.73 64.90 67.62 67.49
56.79 56.74 56.33 56.44 57.03 57.20 57.41 57.54 57.59 57.46 57.45 57.48 57.68 58.24 59.25 55.87 50.08 61.02 72.77 69.90 72.14 62.80 57.74 61.75 63.98 61.96 61.93 62.50 66.25 62.45 64.95 65.50 66.10 66.64 65.42 63.99 65.61 64.41 66.14 65.91 67.02 66.03 66.46 67.92 66.76
56.45 56.44 56.27 56.32 56.55 56.82 57.28 57.08 56.40 56.34 57.06 57.45 57.86 58.27 56.00 51.73 51.87 64.80 71.27 70.41 63.00 58.46 57.32 62.36 61.06 60.16 60.36 63.01 64.05 60.03 62.93 66.17 66.75 65.70 65.43 65.20 64.21 64.69 64.44 67.92 69.02 66.80 66.34 67.09 67.51
55.90 55.81 55.95 56.39 56.52 56.67 56.50 56.54 55.90 56.25 56.65 57.35 58.52 58.15 53.21 44.96 63.30 64.62 60.08 57.75 54.72 55.77 58.56 63.60 62.55 61.72 63.03 62.80 63.92 65.26 64.85 65.99 65.70 64.39 65.46 63.46 63.85 64.81 64.76 64.98 67.20 65.77 64.62 64.63 65.07
56.49 56.23 56.09 56.22 56.25 56.69 56.29 55.96 56.06 56.07 56.64 57.97 58.70 57.30 52.40 50.72 62.37 64.12 58.85 52.51 53.26 55.71 61.70 64.98 65.13 58.92 62.75 60.51 65.69 64.68 61.91 63.76 65.42 64.68 64.33 65.17 61.41 62.52 65.50 65.64 66.38 65.19 65.19 64.96 65.97
56.64 56.34 55.93 56.40 56.93 56.73 56.49 56.09 55.75 56.11 57.46 60.35 59.32 55.05 49.17 57.46 58.95 60.32 59.14 55.38 54.23 56.85 63.50 64.95 63.44 58.03 56.96 60.35 63.02 61.69 61.35 57.02 62.79 64.85 65.27 64.21 57.88 64.67 66.54 65.29 66.03 65.16 65.05 65.06 65.35
56.36 55.99 55.97 57.05 56.70 56.29 55.39 55.29 55.79 57.27 60.15 59.86 54.43 52.49 50.47 62.65 56.23 56.84 58.93 55.82 54.26 56.95 59.11 63.35 60.23 54.67 54.88 51.71 52.71 58.67 53.57 56.39 58.99 66.02 64.57 62.49 59.24 64.23 66.57 66.73 64.66 64.71 65.12 64.47 64.71
55.78 55.76 56.26 56.27 55.26 54.40 54.41 54.46 55.66 56.07 57.84 58.13 56.62 50.20 55.18 55.62 57.02 56.57 57.88 57.60 54.47 56.68 56.39 57.18 52.43 48.66 48.81 45.91 44.27 51.78 54.10 56.72 56.79 62.92 63.18 60.32 58.91 62.88 65.76 65.31 64.78 64.40 64.48 64.60 64.52
56.54 55.88 55.22 55.21 55.31 54.38 52.83 53.94 51.59 50.93 55.90 50.59 50.74 55.12 56.37 57.35 58.07 56.14 58.97 56.24 56.90 56.19 49.82 52.25 45.56 43.41 48.09 50.52 52.45 54.73 54.71 55.40 58.97 61.44 62.01 58.83 59.90 62.85 64.32 64.59 63.36 63.71 64.21 63.94 64.06
56.01 55.65 55.21 55.01 54.80 53.97 51.57 52.02 55.30 51.21 46.21 56.05 56.12 55.91 57.84 56.26 53.10 56.06 59.69 54.55 53.72 49.43 51.53 48.04 44.62 50.66 53.64 53.65 53.05 52.47 53.53 55.13 59.24 61.36 59.46 54.15 57.79 62.65 63.94 63.67 63.89 64.08 63.26 64.06 64.13
55.45 55.26 54.97 54.54 53.95 50.92 51.34 54.63 59.05 53.89 45.74 49.77 52.15 55.46 54.90 53.74 53.62 53.99 56.36 55.97 51.48 49.42 50.16 46.71 49.86 54.03 52.95 51.03 50.52 50.56 51.46 52.90 56.17 58.52 57.79 55.26 55.59 59.35 63.43 64.37 64.56 65.61 65.62 65.96 64.80
55.36 54.77 54.17 53.30 50.77 54.65 53.99 57.29 58.41 55.11 40.31 46.01 47.36 50.94 54.04 53.83 52.00 58.61 58.07 55.73 52.40 48.14 49.67 48.78 52.75 52.15 50.77 49.22 50.10 45.33 53.17 55.02 55.25 54.35 49.27 57.19 49.34 54.90 59.89 61.52 62.60 63.54 64.81 65.17 66.27
55.99 55.03 53.27 52.77 49.96 51.71 55.00 54.57 54.66 51.76 32.27 49.05 48.79 55.56 52.75 49.41 51.43 55.04 57.90 54.69 50.27 49.57 48.40 46.76 49.09 49.00 48.49 49.70 52.11 49.16 54.76 56.80 57.34 53.62 53.00 52.03 50.43 53.66 59.28 59.01 60.72 61.60 63.93 64.57 65.95
55.55 54.73 53.58 52.34 51.98 53.93 57.71 57.49 53.34 40.56 35.79 48.12 49.35 48.32 47.81 48.54 49.68 53.01 54.49 54.91 54.18 50.64 50.16 49.36 52.61 50.96 49.97 52.39 52.60 54.06 51.48 55.21 54.74 52.94 44.62 52.15 49.20 53.33 56.35 59.31 61.26 61.81 64.09 64.94 65.63
54.04 53.12 51.92 56.03 53.04 58.34 59.25 52.86 40.56 36.09 49.49 47.08 47.31 49.10 46.13 45.57 47.23 48.42 50.55 48.90 46.32 40.40 42.51 48.83 49.13 51.60 52.77 48.08 50.90 50.00 45.15 43.51 42.61 44.26 43.16 47.77 50.00 52.38 58.93 62.29 60.92 60.47 63.32 63.45 64.58
52.43 51.85 52.38 55.94 57.91 58.65 57.19 46.89 38.40 45.55 44.47 49.69 49.28 48.91 45.67 45.52 46.17 47.94 48.30 46.19 49.88 48.31 43.81 42.29 40.60 48.42 52.08 48.18 46.60 46.83 46.92 41.89 40.26 40.60 42.11 48.28 47.04 52.15 60.09 62.60 63.71 62.52 64.35 63.25 63.31
51.33 54.26 54.84 57.94 59.14 57.92 51.05 42.09 41.63 45.01 48.99 47.03 46.56 43.36 43.89 45.68 46.63 46.08 47.35 46.98 49.32 49.58 42.73 41.10 42.79 50.90 51.89 52.52 50.71 47.37 46.10 49.82 43.68 46.61 41.31 49.24 52.83 57.17 59.76 60.21 62.68 63.12 63.13 61.40 62.24
51.14 54.47 55.38 60.61 61.12 56.54 48.52 40.51 45.72 50.72 50.64 48.47 42.20 45.61 41.29 43.97 44.57 45.01 46.71 49.48 49.17 51.35 48.85 46.42 41.26 48.63 51.48 52.99 53.47 50.00 51.54 44.56 42.88 38.23 36.79 48.54 49.54 51.77 55.73 55.80 58.99 59.58 60.91 62.36 64.67
53.65 51.34 58.18 60.26 60.23 52.98 43.35 44.55 47.79 51.60 51.50 46.75 45.30 44.59 44.08 44.15 44.76 43.75 45.59 48.96 51.00 51.28 50.52 48.78 44.75 45.97 50.16 46.93 47.92 48.47 46.12 46.63 45.54 44.68 39.12 43.01 48.43 57.26 55.44 56.62 56.40 58.98 60.60 62.04 62.92
53.91 49.50 59.73 59.00 49.56 49.34 44.88 47.95 48.76 49.39 49.45 48.91 48.26 47.10 45.66 46.14 45.35 45.33 44.64 46.41 51.29 50.85 45.94 50.18 43.10 41.48 45.85 52.23 53.75 51.05 48.44 46.39 40.85 40.70 44.63 47.44 48.32 58.67 57.16 57.34 57.98 58.94 61.10 61.54 62.95
51.23 54.05 56.66 53.94 45.77 46.17 49.10 48.90 51.11 49.04 48.21 48.16 46.76 47.37 48.98 46.19 42.66 45.65 47.38 50.39 51.53 50.14 44.45 48.64 41.75 38.76 41.62 47.88 49.49 45.61 47.79 46.52 46.18 44.65 43.29 43.95 48.39 57.55 58.12 57.43 58.42 58.74 59.87 61.25 61.13
52.80 49.06 52.15 53.30 52.93 48.59 46.86 48.25 48.06 50.32 49.25 49.72 48.78 48.31 45.70 45.39 47.00 44.50 46.11 49.76 50.59 51.68 56.84 52.51 44.15 43.51 38.81 40.92 43.65 43.33 47.39 47.78 44.40 39.83 44.86 49.12 50.18 54.13 55.49 55.41 56.60 57.59 59.19 60.11 60.50
55.08 48.69 50.24 44.31 46.88 47.17 47.64 48.00 46.36 46.12 49.68 49.94 48.92 48.49 45.24 40.95 43.49 44.42 46.38 47.18 49.45 54.93 51.31 47.99 41.45 44.14 46.54 48.20 48.19 46.68 46.93 48.20 44.18 49.47 47.97 49.66 50.97 54.42 55.24 55.30 56.15 57.17 57.87 58.43 57.57
50.31 48.67 52.28 47.02 49.80 49.25 45.78 44.98 45.20 45.54 46.00 45.79 46.96 48.63 47.02 42.95 43.84 43.69 45.96 44.59 45.22 48.83 47.36 47.29 42.09 45.63 44.61 47.99 46.76 45.11 48.11 48.98 47.87 52.61 51.68 52.27 51.48 56.90 57.54 57.54 57.25 57.12 57.07 56.96 57.73
57.40 57.01 54.78 49.84 48.26 46.02 44.97 46.03 46.00 48.83 47.62 47.90 48.62 49.02 46.48 47.20 49.33 48.67 48.27 47.75 46.38 44.94 44.42 45.75 43.39 41.96 37.55 45.12 44.46 41.68 46.11 46.22 47.93 53.93 52.88 48.56 52.61 57.39 55.82 54.87 54.72 53.99 54.33 54.17 55.56

GFSSW_sfc_wetblb_090.txt.gz
Wetbulb
57.15 57.59 57.46 57.37 57.39 57.80 58.09 58.29 58.61 58.71 58.95 59.07 58.92 58.73 58.88 59.48 59.28 57.11 50.28 54.93 56.34 71.08 70.50 64.67 64.47 59.92 64.75 65.26 68.41 68.73 60.56 57.14 58.75 58.59 60.51 65.61 63.74 68.03 67.52 64.17 65.38 66.27 66.25 67.53 70.17
56.99 57.03 57.20 56.60 57.23 57.45 57.73 57.81 58.09 58.19 58.30 58.26 58.22 58.28 58.68 59.29 55.57 52.78 59.69 66.16 67.54 71.31 62.65 57.66 55.90 56.63 57.20 60.01 65.35 63.84 59.79 58.58 63.27 62.39 62.69 65.12 65.50 65.77 63.50 62.68 63.55 64.85 67.83 68.85 69.75
56.84 56.76 56.56 56.28 56.49 56.91 57.39 57.72 57.80 57.73 57.73 57.77 57.97 58.20 58.36 58.39 52.71 54.88 67.41 68.18 69.85 70.76 58.58 57.17 58.99 57.56 54.43 60.07 65.04 63.70 60.45 62.23 62.92 65.89 66.76 64.91 64.58 66.49 64.03 62.68 62.88 62.93 65.15 67.32 67.89
56.55 56.49 56.21 56.26 56.67 56.65 56.99 57.06 57.40 56.85 56.51 57.44 57.82 58.29 58.50 55.12 48.52 60.52 72.42 67.97 71.11 66.53 57.26 54.80 58.68 55.05 56.80 57.02 65.68 61.43 64.83 65.37 64.32 67.09 65.35 64.34 65.99 65.05 65.33 64.05 65.89 66.51 67.31 67.30 66.63
56.19 56.13 56.01 55.85 56.01 56.31 56.53 56.47 56.46 56.46 56.51 57.09 57.25 58.47 54.32 48.89 49.61 61.30 72.64 69.73 68.01 58.37 54.07 54.36 57.79 58.24 55.80 60.65 64.44 63.17 63.55 65.86 65.95 65.65 65.65 66.07 64.89 64.88 64.28 68.06 67.19 67.43 67.04 66.53 66.50
56.56 56.25 55.92 55.94 56.09 56.28 56.38 56.21 55.91 55.94 56.40 56.59 57.68 58.26 50.69 41.96 56.83 66.07 64.20 61.32 57.47 54.88 53.58 57.29 60.92 61.54 58.07 60.77 61.92 63.78 65.28 65.51 65.03 63.67 63.89 63.68 64.27 64.35 65.03 66.98 65.83 66.28 65.68 65.74 65.92
56.46 56.29 56.38 56.17 56.31 56.56 56.22 56.03 56.32 56.18 56.40 57.05 58.40 56.95 51.29 47.46 59.32 61.54 56.38 52.53 50.63 53.60 55.92 56.29 61.95 60.14 58.56 56.45 66.17 64.76 60.60 62.85 63.61 64.11 63.00 64.57 60.98 61.86 65.65 65.19 64.13 65.71 66.23 65.97 65.89
56.12 56.09 56.06 55.90 56.30 56.03 55.48 56.01 55.75 56.19 57.00 58.75 59.89 53.85 46.32 56.65 55.61 56.22 56.65 52.40 51.07 52.33 54.66 61.47 63.31 59.66 56.32 56.56 56.57 60.54 61.69 56.12 61.78 63.21 64.01 62.10 56.22 62.97 65.85 64.59 64.72 64.19 65.00 65.19 66.52
56.07 55.90 55.76 55.78 55.73 54.80 54.10 55.08 55.79 56.86 58.11 59.87 51.08 49.18 46.93 61.29 55.13 55.25 57.24 53.56 49.47 51.09 54.20 59.64 58.21 54.43 53.33 49.15 46.56 54.71 52.64 55.25 58.77 64.46 62.87 61.85 56.60 62.88 65.62 64.53 64.03 63.24 63.78 63.70 66.56
55.85 55.81 55.38 54.92 54.60 54.83 54.23 54.67 54.87 55.46 57.30 58.25 55.86 48.28 52.64 53.79 53.20 54.64 56.85 56.04 51.45 51.15 53.49 53.22 51.56 47.90 45.68 44.29 39.65 44.97 50.88 55.00 55.78 61.32 62.13 59.34 58.59 63.56 63.78 64.46 64.40 63.27 63.50 62.93 64.61
55.81 55.32 55.13 54.64 54.39 54.01 50.57 49.93 49.74 48.94 50.79 46.49 47.56 51.79 55.20 55.68 57.47 53.41 55.78 53.94 51.59 51.42 46.37 50.81 44.43 41.98 45.22 46.90 48.77 48.53 48.10 50.26 58.08 61.47 56.95 57.87 58.50 60.77 64.17 64.33 63.73 62.85 63.24 61.67 64.01
55.72 55.25 54.78 54.41 53.61 53.45 49.07 47.39 52.18 49.19 42.88 54.03 53.34 53.60 56.11 55.16 51.92 53.27 55.65 49.89 49.52 46.79 49.61 46.23 42.31 47.49 50.72 50.81 49.81 49.12 49.50 53.76 58.94 58.52 57.47 56.39 56.46 58.19 62.32 63.22 64.20 63.62 63.39 62.28 63.38
56.25 55.12 54.39 53.81 52.94 49.57 47.62 50.00 54.65 52.96 42.85 46.88 52.67 52.69 53.17 53.00 51.59 51.18 53.84 52.91 49.97 47.99 47.52 43.19 46.63 51.35 51.15 49.24 48.40 46.51 48.07 49.81 56.37 56.47 57.35 55.63 52.67 55.65 61.51 63.21 63.75 65.05 65.01 64.28 63.30
56.16 55.36 54.32 52.98 49.23 49.97 50.04 53.43 53.58 52.18 36.59 42.69 43.55 48.92 50.61 52.15 48.93 56.28 56.28 54.35 50.42 47.43 47.54 46.14 51.20 50.63 49.00 48.20 48.11 39.74 50.76 50.74 56.49 53.59 48.83 54.52 46.50 54.74 59.60 61.27 62.46 63.68 64.69 64.82 64.14
55.92 55.32 53.96 52.56 47.27 48.14 52.13 52.05 53.84 47.49 28.89 49.54 45.15 52.31 49.77 47.53 49.79 52.19 56.55 53.33 49.72 47.53 46.31 44.76 48.19 48.10 47.22 48.85 49.70 46.51 51.49 50.75 56.75 52.81 50.77 51.45 50.18 52.74 58.61 58.89 59.96 62.31 64.02 64.65 65.26
55.20 54.40 53.54 50.18 48.97 51.17 53.58 53.83 48.50 37.94 31.97 46.53 48.59 48.44 45.27 45.20 47.93 49.49 52.33 53.26 52.73 48.43 47.50 47.13 50.78 48.85 48.71 50.70 50.00 51.32 50.35 52.35 54.60 51.32 45.38 48.87 49.18 51.36 54.06 58.49 60.88 62.02 63.50 64.77 65.25
53.81 52.85 51.66 53.60 48.41 52.64 52.50 47.98 37.71 32.89 47.41 45.22 44.63 46.87 43.99 43.26 45.02 45.04 46.63 45.99 43.71 38.61 38.51 45.50 47.28 49.68 50.09 45.12 47.63 46.66 43.42 38.63 38.97 41.52 42.19 49.96 48.84 51.93 57.64 61.55 62.16 62.16 63.27 64.27 65.13
51.96 51.27 50.20 52.91 51.60 52.87 50.47 43.91 35.05 43.39 42.39 46.76 46.48 44.32 41.63 43.68 43.12 44.64 44.21 43.21 46.24 44.17 39.74 38.43 38.81 46.35 49.57 46.70 44.43 43.41 44.29 39.07 35.97 38.11 44.45 51.05 45.67 52.93 60.09 62.61 63.76 64.28 64.49 64.44 64.68
51.16 47.48 48.83 52.05 53.35 52.13 46.95 37.57 37.96 41.17 47.13 46.01 44.38 40.02 40.87 44.55 45.19 44.77 43.89 43.49 46.99 46.12 40.54 38.02 40.09 49.35 49.70 49.31 48.09 43.83 41.78 46.61 42.58 46.02 39.91 49.42 51.92 56.61 59.52 60.32 60.66 60.62 63.57 63.29 63.89
47.32 48.09 49.49 55.97 56.40 51.26 42.49 37.90 41.32 48.54 48.42 46.64 37.31 42.16 38.41 41.48 41.57 42.75 44.32 48.37 46.91 48.89 46.66 43.13 39.08 45.72 50.35 48.88 49.41 47.16 48.85 41.96 40.12 38.06 35.30 45.97 48.02 48.61 55.50 58.07 59.71 60.58 59.90 62.35 64.17
49.12 45.74 52.08 55.27 55.02 46.08 38.73 39.46 46.37 49.44 49.42 44.27 40.75 41.02 40.38 40.82 42.09 40.96 44.21 48.98 49.54 48.02 47.12 43.57 41.40 43.05 47.49 43.06 43.83 44.81 43.45 43.43 43.03 40.49 38.35 41.87 46.64 56.77 55.44 57.30 58.21 59.54 60.90 62.27 63.21
46.91 43.50 54.08 54.89 44.88 42.59 39.29 44.69 47.71 48.38 49.45 46.47 44.98 44.52 42.70 44.63 41.01 43.60 44.76 47.39 51.30 48.98 43.41 44.85 39.47 37.50 43.04 49.96 50.28 47.71 46.16 44.28 39.50 38.96 41.41 46.49 48.62 57.67 57.35 58.22 59.31 60.07 60.96 62.10 62.80
45.34 45.80 53.47 52.52 39.74 39.95 43.94 47.26 49.12 47.64 46.49 44.97 43.51 44.54 45.60 42.49 38.53 45.43 46.60 51.50 51.14 47.35 42.47 43.47 38.88 34.84 39.89 43.83 46.61 43.56 45.24 42.70 41.98 41.27 40.16 43.03 46.91 57.89 57.83 57.72 58.78 59.60 61.16 61.05 62.06
46.04 43.47 45.52 46.22 44.90 42.63 41.93 44.75 45.99 50.93 47.86 48.81 46.67 44.04 42.87 40.91 43.25 41.87 44.51 50.13 51.48 49.48 56.06 49.44 38.81 37.42 34.05 38.10 43.09 43.72 45.47 43.99 40.66 37.90 44.77 46.21 50.87 54.63 55.66 56.32 57.90 59.13 60.07 60.49 60.99
47.60 42.99 42.32 38.69 40.62 40.79 42.78 44.62 44.09 42.79 45.54 46.36 44.65 46.81 43.58 38.63 41.23 42.38 45.43 45.51 48.57 54.95 49.10 44.07 37.87 39.44 41.38 45.00 46.53 45.39 44.73 45.18 42.54 44.98 43.91 49.83 50.21 53.49 54.86 55.40 57.23 58.56 58.58 58.11 58.24
46.11 45.39 47.21 42.58 41.22 41.90 40.09 38.31 42.17 42.00 41.51 41.59 45.21 46.42 44.13 40.92 40.09 39.67 41.76 43.31 43.58 45.19 44.45 43.50 38.94 40.92 40.00 45.61 44.74 43.08 45.56 46.11 49.82 52.32 51.69 51.65 51.30 55.49 55.60 56.38 56.31 57.41 56.79 55.89 56.58
51.91 50.80 48.54 45.02 39.86 40.24 38.86 41.28 43.96 45.51 44.71 46.83 47.46 46.68 43.02 45.24 47.09 45.34 44.35 44.43 44.66 44.47 42.72 42.87 39.38 40.43 36.81 41.90 41.06 37.73 41.98 45.47 51.67 53.62 53.12 49.10 52.44 54.76 54.55 54.89 55.48 55.76 56.34 56.01 55.21

GFSSW_sfc_wetblb_093.txt.gz
Wetbulb
56.84 56.88 56.84 56.62 56.40 57.27 57.58 57.63 57.90 58.07 58.09 58.47 58.38 58.49 58.35 58.72 58.75 56.92 49.39 53.09 55.43 68.10 72.23 68.58 66.93 63.32 63.44 63.08 67.42 68.35 59.75 56.22 58.12 58.21 59.84 65.06 61.49 66.14 66.73 63.85 64.82 66.32 64.84 66.03 68.58
56.88 56.92 56.51 56.30 56.09 56.15 56.50 56.94 57.45 57.72 57.30 57.41 57.87 58.36 58.48 58.70 55.04 51.72 57.92 62.40 65.48 72.83 61.27 59.59 57.04 57.09 57.59 59.90 65.05 63.07 59.19 58.36 62.60 62.41 61.52 63.84 62.94 62.55 62.57 62.52 62.93 63.80 66.19 67.65 68.31
56.70 56.43 56.01 56.03 56.01 56.24 56.42 56.85 56.64 56.72 56.86 56.29 57.25 58.21 58.50 57.91 50.37 50.43 65.99 66.52 68.18 71.53 58.61 57.95 56.77 56.30 53.56 57.54 62.10 63.61 59.81 62.04 62.17 63.92 64.92 64.16 63.98 64.56 61.43 60.49 62.81 62.28 64.71 66.58 66.82
56.40 56.10 55.97 55.95 55.97 56.10 56.22 56.19 56.18 56.11 56.41 56.34 56.84 57.67 58.65 54.46 41.63 58.49 71.39 68.31 70.04 67.13 56.50 54.43 56.53 53.35 55.64 55.33 64.21 60.82 63.15 63.42 64.14 64.86 65.33 64.04 65.50 62.15 63.52 63.24 66.30 66.30 67.19 66.98 66.37
56.29 56.36 55.91 56.05 55.98 55.90 56.09 56.13 56.04 55.69 55.57 56.48 56.73 57.59 53.11 46.00 47.19 55.06 71.20 68.88 66.92 61.28 54.49 52.44 55.83 56.39 54.78 56.96 64.01 62.12 63.50 65.56 65.66 65.90 65.66 65.78 64.60 63.57 64.62 65.66 67.00 67.13 67.28 66.68 66.63
56.27 56.10 56.35 56.06 55.93 56.04 56.25 56.11 55.82 55.57 55.92 56.50 56.48 57.52 49.33 38.61 50.00 64.36 63.20 64.17 61.61 54.96 52.22 53.89 57.62 59.41 57.61 56.87 61.67 64.55 63.67 64.40 64.69 64.42 64.76 63.71 63.33 64.06 63.98 66.17 65.60 65.94 65.84 66.19 66.20
56.37 55.96 55.90 55.93 55.81 55.95 55.78 55.57 55.33 55.63 55.87 56.11 57.00 56.38 49.64 44.58 58.03 62.22 60.33 55.73 53.59 53.64 50.28 53.35 59.77 60.10 58.62 55.91 62.98 65.09 61.59 62.77 62.67 62.76 63.31 64.46 61.20 60.80 65.06 65.53 64.52 64.94 65.71 65.95 65.67
56.08 55.97 55.81 55.66 55.31 55.17 54.67 54.55 54.75 55.93 56.31 57.01 58.76 52.48 43.60 53.79 54.99 56.39 54.59 50.98 50.83 49.83 53.40 56.21 57.45 59.02 57.50 58.22 54.07 61.26 61.37 56.18 62.08 63.44 63.44 61.60 55.94 62.96 65.04 64.18 63.56 64.47 64.91 64.81 64.48
55.60 55.66 55.53 55.28 54.81 54.49 54.76 54.88 55.60 56.67 57.06 59.36 50.64 47.22 44.28 58.82 53.73 52.76 55.94 51.91 47.83 48.56 51.69 58.14 58.70 54.14 53.27 47.74 45.55 54.29 54.32 55.42 58.49 63.02 62.20 59.98 56.29 62.55 65.14 63.98 63.02 63.93 64.48 63.98 64.73
55.79 55.71 55.25 54.93 54.57 53.86 54.30 54.13 54.91 55.00 56.97 58.11 55.56 46.52 51.39 52.25 53.07 53.41 54.74 53.79 49.43 49.08 50.94 51.63 49.96 47.50 44.56 43.22 39.86 44.61 50.85 55.56 56.05 60.67 61.30 58.75 55.96 61.45 63.61 63.45 63.75 63.10 64.18 63.61 64.69
56.37 55.39 54.97 54.83 53.99 53.02 50.13 48.88 47.63 45.77 49.59 45.01 46.09 50.16 53.41 55.35 56.10 51.99 55.17 53.05 50.39 49.64 44.66 48.58 44.99 42.31 45.37 46.34 47.56 47.70 48.72 52.43 58.79 60.42 58.09 56.93 57.61 60.33 62.58 63.40 63.02 62.42 61.43 62.60 64.68
56.60 55.66 54.89 54.15 53.29 52.49 49.18 45.03 48.33 49.21 43.31 50.99 52.29 51.44 54.04 53.83 51.16 51.63 54.43 48.94 47.14 43.48 47.74 45.38 41.85 47.43 48.75 48.50 48.32 48.26 48.39 55.12 57.35 59.54 58.78 57.36 56.53 59.28 61.69 62.16 63.48 62.89 61.77 63.70 64.29
56.40 56.13 54.60 53.95 53.50 49.42 46.43 47.78 51.83 49.51 41.68 46.19 51.14 50.91 51.10 52.91 50.85 50.74 51.98 49.49 46.30 44.74 46.07 43.36 46.18 49.97 49.26 47.42 46.82 44.05 47.27 54.04 54.17 56.43 58.01 55.64 53.08 54.96 60.15 63.14 63.82 63.58 64.46 63.68 63.12
56.03 55.79 54.54 52.91 48.23 48.60 48.71 49.77 51.02 49.47 35.92 42.10 43.00 48.15 51.31 51.18 47.30 53.71 53.98 51.89 48.86 45.07 46.80 45.34 49.80 49.25 46.50 46.55 46.88 40.37 50.15 51.00 55.49 51.95 48.44 55.57 45.76 53.09 56.41 60.03 62.24 62.72 63.40 62.10 63.07
55.83 55.33 53.77 52.46 46.95 47.88 52.48 51.96 50.48 46.69 30.40 48.23 45.56 50.65 46.56 46.35 47.89 50.41 55.08 52.37 48.15 46.97 46.11 44.51 46.19 46.26 45.73 46.74 48.46 46.19 51.90 49.34 55.35 49.80 49.23 51.04 48.80 51.58 58.12 58.02 60.10 62.62 63.73 64.17 63.32
55.21 54.43 53.33 49.93 49.74 50.69 52.79 51.17 47.37 37.62 32.78 45.56 48.63 47.68 43.78 44.60 46.54 48.62 51.50 52.96 52.14 48.07 45.64 46.50 48.89 48.20 47.46 49.62 49.93 50.86 49.25 50.73 51.21 48.94 42.08 48.03 49.11 50.29 54.47 57.87 60.28 62.17 63.52 63.75 63.20
53.58 52.68 51.34 52.67 48.50 51.44 50.78 47.08 37.61 31.94 45.96 43.69 43.68 45.41 43.02 42.57 43.56 44.21 45.05 44.23 43.23 38.39 37.34 43.74 45.04 47.13 48.59 43.43 45.27 44.60 40.60 38.47 38.96 40.51 40.77 49.16 48.10 50.76 56.94 60.45 61.72 61.70 63.18 63.73 64.82
51.66 50.57 49.95 52.42 50.59 52.05 48.90 43.26 33.65 42.23 40.72 45.06 45.46 42.89 41.53 43.76 43.23 44.76 42.36 40.73 44.30 42.66 38.13 37.40 37.37 45.64 48.13 45.84 42.79 41.30 40.84 37.37 35.37 36.42 40.40 48.37 43.62 49.57 58.84 60.57 63.17 63.73 63.79 63.91 63.84
50.24 46.56 47.90 49.65 51.73 49.70 45.92 36.45 37.48 40.10 45.49 44.57 42.16 39.77 40.44 43.07 43.34 44.21 42.92 40.89 44.22 42.08 39.31 36.23 38.97 47.31 48.79 47.84 46.76 41.57 39.06 44.21 41.70 38.76 39.08 45.04 49.62 54.99 60.03 59.64 60.85 61.78 63.01 62.94 63.93
46.74 47.09 47.77 53.06 53.10 48.72 41.88 37.21 39.55 46.48 46.36 44.77 36.75 40.37 36.69 40.61 40.42 41.64 42.44 46.57 44.54 46.97 43.36 40.38 37.05 43.51 49.06 47.93 46.50 44.61 46.03 40.39 38.14 35.53 34.57 41.77 44.62 47.45 54.84 57.63 59.11 59.63 60.36 61.59 63.13
46.69 46.84 50.82 52.44 51.61 45.28 38.05 37.44 44.11 48.11 48.31 43.10 39.35 39.51 39.69 39.30 40.43 39.30 41.98 46.86 47.60 46.34 46.15 41.28 39.04 41.07 45.11 41.67 41.10 42.71 41.44 40.43 40.37 39.10 36.65 38.87 43.54 54.50 55.67 58.03 58.71 58.97 60.99 61.17 62.98
44.55 43.94 51.73 51.71 44.54 40.34 38.30 43.00 46.62 45.68 47.66 44.82 44.42 42.85 41.63 43.12 39.89 40.15 42.25 44.95 49.17 46.91 42.53 42.00 37.86 36.17 40.92 47.68 48.19 44.94 43.36 42.47 38.33 36.82 41.26 43.57 44.42 57.09 57.54 57.99 58.97 59.43 60.62 62.29 63.54
43.36 43.86 52.38 50.09 38.41 38.32 41.18 45.91 46.90 45.91 45.41 43.05 41.76 43.36 43.72 41.64 37.02 42.35 44.53 49.83 50.72 46.10 41.50 42.56 37.46 34.34 38.24 41.74 44.60 41.99 42.78 39.90 39.97 39.57 43.06 42.12 43.29 57.14 57.79 57.03 59.21 58.70 59.39 61.30 62.66
45.07 39.94 43.06 44.94 41.50 40.56 40.24 42.37 43.36 49.11 45.99 45.56 43.83 42.78 42.07 39.36 40.77 39.40 41.58 48.74 49.98 50.54 55.57 48.77 36.83 36.63 33.64 36.41 40.14 40.05 43.73 43.83 38.33 37.11 40.30 42.34 49.87 53.22 55.35 56.13 58.64 59.84 59.86 59.95 61.71
43.68 39.99 41.32 37.12 38.61 39.73 40.43 43.06 41.98 40.17 43.55 44.61 44.27 43.99 42.68 36.77 39.93 39.77 42.36 42.74 47.65 54.93 47.41 44.13 37.55 38.32 39.12 41.76 42.82 43.12 43.62 42.58 40.20 40.93 42.89 47.00 49.91 53.52 54.84 56.05 58.52 59.04 59.26 59.47 60.10
44.64 43.86 45.35 41.39 39.65 38.95 37.57 37.62 40.11 40.15 40.55 41.28 43.08 44.89 44.12 38.99 40.10 38.81 40.38 39.80 40.04 44.85 43.26 41.85 37.80 39.60 39.39 44.19 42.84 41.00 42.87 43.59 48.96 51.11 50.32 50.67 50.84 56.07 56.30 58.09 57.64 56.59 56.96 57.71 58.46
49.07 47.92 46.66 42.02 37.49 38.29 37.34 39.30 42.50 42.55 42.76 44.76 45.99 44.48 41.79 44.68 46.80 44.77 43.99 42.42 41.99 42.77 40.20 39.65 38.02 37.69 34.82 41.32 40.25 36.13 40.37 41.13 48.28 51.98 51.67 47.60 50.64 54.32 54.80 56.16 56.24 55.33 54.89 55.86 56.65

GFSSW_sfc_wetblb_096.txt.gz
Wetbulb
56.73 56.75 56.77 56.46 56.25 56.00 55.98 56.87 57.11 57.66 57.66 57.05 57.47 57.72 58.31 58.42 58.05 56.14 47.90 52.04 55.10 65.37 69.23 68.51 66.34 64.57 65.43 63.06 67.03 67.94 59.44 56.25 57.40 58.07 59.22 64.39 61.25 65.24 65.80 62.35 64.39 65.35 64.05 65.53 68.31
56.54 56.56 56.41 56.13 56.10 56.10 56.27 56.46 56.72 56.52 56.81 56.97 56.55 57.24 58.23 58.46 54.06 50.37 57.01 61.39 63.94 70.95 65.70 61.06 58.42 57.80 57.56 60.72 64.45 63.06 57.98 58.84 62.23 62.50 61.58 62.44 62.25 62.47 61.13 61.85 61.67 63.02 66.20 68.05 67.94
56.52 56.35 56.02 55.98 55.99 56.05 56.03 56.06 56.04 55.76 56.06 56.60 56.81 57.00 58.41 57.33 48.17 46.94 64.34 64.02 67.15 69.59 61.66 59.06 57.64 56.18 53.82 55.66 61.08 63.28 59.01 61.82 62.56 62.82 64.15 62.59 61.90 64.21 61.18 59.61 61.20 61.54 64.22 66.45 66.49
56.60 56.60 56.22 56.34 56.24 56.29 56.11 56.26 55.97 56.00 55.65 55.77 56.76 57.28 58.45 53.01 38.53 58.02 67.70 67.11 69.90 68.12 55.63 56.35 54.05 55.48 56.20 54.61 61.38 60.26 63.40 63.83 63.51 64.10 64.15 62.96 65.08 62.18 63.29 62.49 64.44 64.96 65.79 65.99 65.57
56.33 56.37 56.22 56.13 55.88 55.97 56.32 56.17 56.04 55.57 55.50 55.77 56.77 57.38 52.50 43.25 46.05 55.57 71.50 67.11 65.36 63.18 52.84 53.41 54.38 57.59 55.15 57.06 61.03 61.55 62.84 64.93 65.85 64.93 65.04 65.81 63.23 62.28 63.49 65.09 65.85 66.20 65.82 65.19 65.50
56.41 56.10 56.02 55.81 55.67 55.73 55.98 56.17 55.73 55.32 55.54 55.77 56.47 57.58 48.00 38.51 49.05 63.61 63.37 63.33 61.93 56.43 52.10 52.92 57.90 59.63 56.71 56.69 60.30 64.15 63.77 64.50 65.44 64.42 65.11 63.28 62.50 62.90 63.98 65.98 65.23 65.70 64.91 65.26 65.70
56.21 56.00 55.65 55.61 55.45 55.19 55.18 54.73 54.26 54.19 55.12 55.67 56.14 56.03 48.04 43.97 54.67 61.16 60.09 56.71 56.64 53.23 50.07 51.96 60.59 58.42 58.11 55.17 59.22 64.65 60.63 62.53 63.32 64.15 63.05 64.41 59.90 60.63 64.29 65.27 64.02 64.87 65.24 65.73 66.19
56.03 55.99 55.68 55.37 55.53 55.20 54.71 54.41 54.84 54.93 55.67 56.18 57.46 51.31 40.74 51.15 53.49 56.74 53.21 50.29 52.83 49.95 52.73 53.25 54.56 57.58 56.63 57.45 52.48 60.12 60.32 56.02 61.34 62.69 63.34 62.34 56.52 62.62 64.86 64.29 63.37 64.10 64.94 65.39 65.17
55.93 55.64 55.37 55.04 54.83 54.39 53.72 54.03 55.46 56.16 56.16 58.07 49.47 45.65 42.45 58.22 53.35 52.61 53.53 50.40 48.32 48.34 49.97 57.02 54.35 54.26 53.30 46.90 44.33 51.02 52.19 55.49 58.35 63.16 61.65 59.78 57.34 62.10 64.40 63.89 62.96 63.29 64.10 64.62 63.38
56.43 55.95 55.38 54.74 54.22 53.50 52.78 53.93 56.51 56.58 56.94 57.65 55.47 45.32 50.51 51.21 52.72 51.36 54.27 49.46 47.07 47.45 49.22 49.11 48.35 46.76 44.81 42.90 39.81 44.54 51.13 55.15 55.78 60.60 60.98 58.24 56.96 60.95 62.97 63.32 63.01 63.39 63.43 63.46 63.57
56.04 55.49 55.04 54.41 53.77 52.93 49.48 48.87 45.01 43.16 49.68 44.61 44.02 47.69 50.52 54.31 54.19 50.60 53.96 52.28 49.69 47.11 42.40 46.68 44.49 42.67 45.39 45.95 47.37 47.10 49.83 53.68 57.73 60.78 58.79 57.86 57.39 60.11 62.03 62.32 62.26 62.15 62.31 62.17 63.92
56.56 55.57 55.12 54.32 53.40 52.72 49.11 44.12 46.54 48.31 42.73 49.26 50.78 49.77 51.96 52.03 48.97 49.55 54.02 48.44 45.87 42.05 45.76 44.32 42.33 47.57 48.49 47.80 47.53 46.89 52.28 55.09 57.61 59.86 57.85 57.14 56.65 59.72 62.03 61.70 62.32 62.82 61.31 62.67 63.16
56.34 56.04 54.60 53.87 53.46 49.21 45.39 47.23 50.78 47.68 40.45 45.24 49.08 49.26 49.07 51.40 48.48 49.64 51.67 47.97 44.38 44.05 44.21 43.29 45.81 50.36 48.01 46.20 46.26 43.46 45.26 54.34 54.49 56.35 57.77 55.10 53.12 56.08 60.23 62.45 63.48 64.07 64.32 63.10 63.57
55.98 55.82 54.78 53.02 47.86 48.16 48.16 50.68 50.95 49.43 36.30 42.39 42.68 47.05 50.61 49.74 45.82 53.25 52.66 50.42 46.38 43.60 46.26 44.82 48.80 48.01 47.13 45.83 45.74 41.08 50.90 56.68 54.97 51.16 45.45 54.14 43.44 53.03 56.22 59.79 61.68 62.51 62.94 62.90 64.07
55.74 55.09 53.42 52.30 47.10 48.01 51.10 52.00 50.51 45.24 29.86 47.69 45.20 49.04 45.76 44.37 46.41 48.21 53.26 50.53 46.24 45.40 45.71 44.35 45.61 45.40 44.43 45.86 47.45 45.62 52.08 55.14 55.00 49.43 47.62 49.51 47.69 51.04 55.92 55.01 59.52 62.05 63.11 63.51 63.26
54.87 53.96 52.53 48.99 47.80 50.40 52.25 49.84 46.44 37.05 32.83 44.63 47.49 46.28 42.69 44.06 45.20 48.58 50.34 51.49 50.71 46.59 44.75 46.60 47.95 47.24 47.29 48.59 49.25 50.07 50.03 50.96 50.94 46.74 42.15 47.28 47.75 47.91 53.53 54.77 58.65 62.14 63.36 63.94 62.20
53.50 51.95 50.87 51.59 46.35 50.80 50.72 47.49 37.34 32.69 44.92 42.99 42.69 43.62 41.60 42.80 42.98 43.81 46.16 43.60 42.60 38.29 37.97 42.79 43.70 45.64 47.65 42.57 44.42 44.18 44.81 38.98 41.55 41.31 39.86 45.21 47.63 49.12 56.50 59.60 60.20 61.57 62.78 63.90 63.11
51.65 50.18 49.40 50.96 49.59 49.80 49.57 43.24 32.91 40.96 39.24 45.11 44.63 42.52 41.40 43.09 42.81 44.23 41.10 39.60 43.05 41.79 37.32 37.17 36.08 44.18 46.65 44.83 41.77 40.58 42.01 37.77 34.88 36.95 40.04 47.81 44.26 48.41 58.90 61.23 63.10 63.94 64.09 64.36 62.48
50.17 45.27 45.72 48.68 50.87 48.91 45.10 34.76 35.54 39.08 44.26 43.54 42.11 39.45 39.94 42.58 42.23 42.19 40.51 39.82 42.46 41.47 38.33 35.79 37.89 45.98 47.05 46.53 45.76 39.61 37.54 42.45 38.54 38.41 40.19 43.87 47.88 54.68 59.32 59.83 61.52 62.15 62.45 62.83 64.07
46.15 45.50 46.47 51.26 51.09 46.98 40.86 36.27 38.78 45.23 45.17 43.21 36.64 39.24 36.76 40.10 39.18 40.32 40.15 44.15 44.25 46.01 42.02 39.54 35.81 41.64 47.69 46.95 44.91 43.47 44.63 38.59 36.43 33.48 34.02 38.95 44.75 45.28 55.37 57.26 59.54 60.76 60.99 62.27 63.91
45.04 45.69 49.08 51.09 49.26 44.82 37.32 36.49 42.32 46.73 46.90 41.32 38.42 37.96 38.28 38.25 39.58 38.24 39.79 44.71 46.12 45.45 44.62 40.56 38.29 40.28 43.33 40.34 40.45 41.53 39.08 38.74 38.99 38.56 35.63 35.50 40.82 52.86 54.77 58.63 58.92 60.04 61.08 61.68 63.12
43.59 43.24 49.63 49.87 44.08 38.53 37.13 41.20 45.49 44.86 46.11 43.51 43.12 41.69 39.88 41.60 38.76 39.19 40.66 43.43 47.97 45.50 40.80 41.37 37.35 35.48 40.53 44.06 46.26 43.22 39.63 40.15 37.07 35.66 38.38 39.58 41.30 56.98 58.20 59.94 59.51 59.79 61.46 62.44 63.20
43.53 42.72 49.87 48.71 38.75 36.63 39.67 44.31 45.69 44.39 43.00 41.27 40.40 42.23 43.23 40.13 36.06 40.58 42.94 48.49 49.31 45.30 42.44 43.04 36.36 33.14 36.80 40.20 43.19 41.20 41.38 38.92 37.69 40.53 41.64 39.58 41.08 57.84 58.83 58.99 59.73 59.39 60.58 62.43 63.60
44.41 40.07 42.82 43.23 39.75 39.25 38.34 40.37 41.65 47.04 43.37 43.80 43.05 41.82 41.01 39.03 39.66 39.16 39.74 47.20 48.12 47.33 55.06 47.01 36.77 36.23 33.22 35.57 38.87 39.44 42.02 42.23 37.61 36.14 38.48 41.60 46.81 54.30 56.24 56.80 58.59 59.35 60.30 61.90 62.78
42.04 39.71 40.56 37.72 38.44 38.62 38.67 38.89 40.18 38.83 41.60 43.60 41.57 42.32 39.67 34.73 37.16 37.70 40.06 41.32 47.16 51.56 44.53 42.61 37.25 39.05 38.76 40.97 41.53 41.19 40.62 41.29 38.04 38.52 40.76 43.51 47.12 52.22 55.44 56.65 58.95 59.81 59.79 60.28 61.13
44.38 43.12 43.31 39.52 37.52 36.68 37.31 36.46 38.37 39.32 39.85 39.78 40.94 44.61 40.68 37.88 38.86 37.02 38.05 37.89 39.81 42.35 40.59 40.09 37.69 40.27 39.35 42.61 42.14 39.86 41.94 43.83 43.55 48.50 48.99 48.33 47.58 54.29 57.27 58.89 58.41 58.05 58.79 58.94 60.11
47.14 46.25 43.02 40.45 36.01 37.26 36.39 37.88 40.92 41.03 41.23 42.76 43.16 43.15 40.39 42.35 45.33 42.14 42.89 40.95 41.35 39.26 39.29 38.28 38.66 37.58 34.92 39.89 39.70 35.03 40.46 41.23 42.05 50.41 50.04 46.45 49.63 55.48 55.88 56.40 55.94 55.58 57.86 58.17 59.60

GFSSW_sfc_wetblb_099.txt.gz
Wetbulb
56.55 56.55 56.53 56.39 56.40 56.29 55.89 56.36 56.59 56.63 56.82 57.22 57.36 57.30 57.80 58.23 57.87 56.65 49.65 55.52 57.02 67.29 70.74 66.39 69.00 69.21 68.38 65.55 67.91 67.78 60.84 57.54 58.78 57.12 60.14 65.07 62.61 65.86 66.81 64.45 65.45 66.44 65.86 67.87 69.84
56.29 56.36 56.26 56.28 56.02 56.10 56.26 55.77 56.14 56.41 56.03 56.35 56.88 57.59 57.77 58.39 54.26 51.62 58.65 60.60 63.58 70.45 65.21 62.12 62.55 64.94 63.62 62.57 64.41 63.85 60.83 59.10 62.52 62.60 62.33 64.38 63.80 63.04 63.04 63.38 63.64 64.93 67.84 69.13 69.94
56.62 56.78 56.77 56.28 56.22 56.20 56.06 55.97 56.08 56.11 55.88 55.78 55.93 57.46 57.80 58.69 50.68 48.76 66.21 63.60 66.39 69.93 65.74 61.43 64.00 62.68 60.02 61.41 63.80 64.03 60.40 62.49 63.04 63.82 65.35 63.67 63.46 64.21 62.99 61.17 63.81 63.68 65.91 67.76 68.39
56.63 56.43 56.62 56.51 56.56 56.24 56.03 55.95 55.84 56.12 55.94 55.74 55.94 57.44 58.25 55.87 43.62 60.17 66.32 65.65 69.33 65.54 62.03 58.74 59.93 60.11 59.83 57.37 61.75 61.02 63.74 63.59 62.36 64.42 64.47 63.07 64.76 62.55 63.45 63.57 66.11 66.84 67.72 67.63 66.37
56.70 56.27 56.00 55.96 55.86 55.89 56.02 55.86 55.87 55.73 55.45 55.87 56.13 57.32 55.27 49.51 48.67 55.40 71.08 66.82 70.08 60.01 58.66 56.60 57.98 60.51 59.42 60.00 60.49 61.51 63.52 64.31 64.07 64.49 64.92 65.15 63.41 62.73 64.01 65.57 67.48 67.62 67.36 66.41 66.43
56.39 56.35 55.87 55.83 55.60 55.54 55.41 55.21 54.91 54.73 55.27 55.83 56.26 57.35 53.05 45.78 56.00 65.61 63.67 65.02 65.75 58.57 56.15 58.51 59.80 63.00 60.39 59.34 60.05 64.36 64.22 64.38 64.93 64.50 64.49 62.68 62.68 63.76 64.69 66.45 66.11 66.41 66.60 67.42 67.86
56.23 56.07 55.59 55.47 55.20 55.13 54.74 54.19 54.21 54.41 54.64 55.56 56.43 56.75 51.19 49.76 56.17 65.27 62.89 60.95 63.14 58.11 54.86 57.46 62.89 61.31 61.38 58.66 61.73 64.95 61.39 63.38 63.05 64.31 62.46 63.23 58.66 60.72 65.55 66.04 65.34 65.90 66.92 67.44 68.02
56.29 56.07 55.62 55.34 55.00 54.77 54.21 53.74 54.14 54.77 54.92 55.91 57.26 55.73 47.13 52.87 57.60 62.41 58.35 57.31 57.13 56.91 56.33 57.37 60.29 61.62 60.55 61.31 57.31 62.27 61.77 57.15 62.05 63.55 63.37 61.98 55.45 61.76 65.67 65.13 64.78 65.85 66.43 66.99 68.10
55.97 56.00 55.44 54.95 54.51 53.97 53.32 53.24 54.56 55.60 55.82 57.28 54.91 52.18 47.48 59.89 55.49 58.62 57.39 55.07 57.75 55.28 54.96 57.25 55.38 58.69 57.78 53.97 53.08 58.64 55.14 56.90 59.15 63.37 62.43 58.73 55.77 62.40 65.23 64.90 64.62 65.68 66.43 66.98 67.89
55.88 56.08 55.34 54.86 54.24 53.30 52.94 53.86 57.11 58.01 58.06 58.09 56.27 50.50 54.46 53.08 55.68 57.45 56.93 55.20 52.72 52.77 52.56 53.45 54.86 55.68 54.74 52.93 49.62 52.40 54.14 57.18 56.75 60.67 60.02 57.04 56.92 61.82 63.90 63.72 64.33 64.39 66.32 66.88 67.14
56.07 55.54 55.06 54.87 54.10 52.92 51.77 54.87 51.53 50.37 54.18 50.92 50.30 49.82 52.02 56.36 55.56 53.83 55.73 52.92 52.42 51.48 49.37 52.45 52.79 52.91 54.53 53.13 52.66 52.44 53.31 56.31 59.56 61.06 59.13 57.92 59.06 60.97 63.19 63.25 62.44 64.23 65.55 66.06 67.08
56.60 55.80 54.72 54.47 53.61 52.56 50.73 50.74 53.00 53.76 48.86 52.18 52.33 51.73 53.88 55.02 51.10 52.86 57.01 51.63 49.04 46.20 50.52 50.87 49.87 54.69 54.01 51.81 51.67 55.04 56.25 56.00 58.93 60.52 59.42 58.06 57.86 61.87 63.21 63.31 63.05 63.60 64.68 65.15 65.73
56.21 55.85 54.62 53.61 53.21 50.96 50.62 51.95 54.65 54.35 48.45 48.99 51.65 51.84 52.72 54.08 51.29 51.78 55.24 51.86 48.45 48.39 49.15 47.76 51.20 54.15 50.92 50.23 50.07 50.60 51.95 56.45 56.31 57.98 58.09 56.74 54.52 56.99 62.47 63.33 63.99 64.28 65.75 66.09 65.07
56.09 55.77 53.74 52.57 50.42 51.78 51.94 54.32 54.69 54.07 45.16 48.30 48.24 51.36 54.00 53.83 50.86 55.32 56.49 52.94 50.06 47.60 50.72 51.32 52.28 53.08 49.85 48.42 50.20 47.12 52.91 58.64 56.38 54.78 50.09 57.23 49.60 55.39 59.22 61.06 61.92 62.43 64.22 65.90 66.63
55.73 54.80 52.59 51.53 51.41 51.63 53.89 55.47 54.17 50.40 36.09 49.94 49.72 53.30 52.88 50.26 51.98 51.48 55.75 54.21 49.27 49.69 50.80 48.87 50.59 50.73 48.93 49.85 51.10 49.12 53.62 57.22 57.34 54.00 53.70 52.81 51.33 53.94 59.53 58.25 60.50 62.72 64.20 66.24 67.29
55.02 53.16 52.09 51.10 51.48 54.11 55.10 53.95 50.90 43.23 36.11 46.23 50.17 48.48 47.56 49.87 48.91 52.65 53.00 55.60 54.20 50.76 51.43 51.00 52.46 52.97 52.60 51.53 52.68 54.12 55.21 56.20 54.69 53.78 47.80 51.26 51.51 53.71 55.71 58.44 59.89 62.34 63.90 65.68 67.14
53.35 51.41 50.82 53.20 52.04 54.16 54.51 52.27 43.67 39.07 47.47 44.76 45.71 46.96 47.57 46.49 47.96 49.24 49.62 49.59 48.49 45.55 45.84 48.47 48.98 51.11 52.05 49.78 50.44 50.83 50.00 45.18 43.64 45.22 45.28 51.80 51.37 54.24 59.44 61.06 60.75 62.43 64.16 65.23 67.29
51.31 50.02 51.12 52.76 53.90 53.64 55.24 50.08 39.00 43.39 44.10 48.61 47.04 46.94 45.37 47.24 47.82 47.47 48.71 47.40 48.63 49.65 46.88 44.33 41.76 49.15 51.28 50.34 48.50 49.33 48.70 47.29 40.84 42.81 46.71 52.67 49.61 55.04 60.43 63.54 64.21 64.12 65.86 66.18 66.73
50.27 51.34 52.05 53.90 53.41 53.48 52.47 42.73 42.55 44.42 47.65 46.23 46.29 44.41 44.50 46.73 47.38 47.35 45.99 47.32 49.12 50.11 46.55 44.75 44.22 50.02 50.53 51.83 51.59 47.19 45.95 51.82 48.58 48.94 48.56 51.39 53.39 57.14 61.49 61.87 63.73 63.56 65.29 65.40 66.05
52.18 52.68 52.92 54.75 54.72 54.41 49.19 40.87 44.80 48.26 48.87 47.21 43.41 45.01 42.50 44.87 44.94 46.49 46.07 48.90 48.03 49.59 50.43 48.16 43.69 48.58 50.72 51.97 49.98 49.81 51.64 45.38 47.06 42.29 42.28 47.60 49.83 52.40 57.94 59.67 62.81 63.73 63.99 64.94 66.33
52.00 52.75 54.02 55.55 55.09 52.94 45.42 44.41 46.34 50.00 49.98 46.88 45.36 44.49 44.75 44.28 45.57 44.76 45.77 48.68 49.51 49.08 50.46 49.50 47.71 47.04 49.82 49.06 48.52 48.30 47.36 48.45 48.65 47.97 44.37 43.87 48.46 57.89 59.02 60.57 62.12 63.97 65.27 65.28 65.77
51.84 51.02 55.20 54.81 51.04 46.83 46.73 46.64 45.97 49.36 50.39 48.75 48.85 47.59 46.33 46.30 45.29 45.07 44.79 47.84 50.75 50.00 48.17 49.32 48.29 44.55 46.56 50.03 50.83 51.14 49.11 49.71 45.40 44.41 47.60 47.83 49.04 59.93 60.76 62.16 62.54 63.62 64.18 65.98 66.52
51.57 51.79 55.50 53.56 47.52 46.44 47.37 48.38 49.51 48.93 47.60 46.92 46.18 48.14 48.72 46.69 43.89 45.61 46.95 51.01 51.76 50.38 48.18 49.91 46.60 42.48 44.24 48.15 49.85 48.57 48.97 49.23 47.91 50.33 47.85 45.32 48.09 58.26 59.97 61.14 62.21 61.67 62.99 64.56 65.65
50.74 48.43 50.84 50.96 48.19 48.08 47.39 46.37 46.20 49.43 47.39 48.22 47.86 48.53 47.52 46.15 47.74 45.40 45.45 49.37 50.20 51.18 53.77 52.54 46.94 45.78 41.68 44.50 47.44 46.61 46.52 47.61 47.67 46.13 47.29 49.23 51.44 55.52 57.69 59.19 59.96 61.97 62.98 64.10 65.25
50.38 47.84 46.93 47.85 46.67 46.70 47.13 44.64 43.75 43.46 46.66 49.13 47.62 47.08 45.97 43.93 45.01 44.74 45.85 47.23 50.78 52.29 50.43 50.30 45.62 46.13 46.31 46.89 46.40 45.76 44.73 47.57 45.68 48.84 47.33 49.75 52.99 56.91 58.59 58.89 60.02 61.06 62.30 63.24 63.71
52.29 51.12 48.85 46.25 44.35 45.75 43.65 44.78 43.85 44.90 45.86 44.47 44.30 46.52 46.85 45.26 46.46 44.73 45.69 46.48 46.22 50.08 49.31 48.59 45.93 46.51 44.83 46.45 46.59 44.34 45.82 48.44 49.49 48.06 48.43 53.00 53.06 59.04 60.60 60.55 59.91 60.44 61.18 61.65 62.53
53.01 52.87 50.47 43.45 44.21 46.20 45.56 45.21 45.25 46.18 46.41 46.97 45.85 46.06 46.24 46.62 48.62 49.40 49.10 48.11 48.27 47.50 47.23 47.63 47.51 45.33 42.10 45.05 44.89 42.38 45.42 46.95 49.17 51.60 52.68 51.36 55.75 60.16 57.93 58.77 59.16 59.19 60.27 60.65 61.87

GFSSW_sfc_wetblb_102.txt.gz
Wetbulb
56.68 56.90 56.82 56.63 56.45 56.54 56.55 56.43 56.38 56.61 56.61 56.71 56.92 57.82 58.29 58.28 58.58 58.94 52.68 57.25 59.11 66.89 69.41 70.73 70.74 70.45 69.37 66.20 68.95 67.56 61.74 59.20 61.04 61.43 63.05 67.20 65.15 67.58 68.89 66.73 67.02 67.77 67.43 69.72 71.80
57.31 57.01 56.89 56.79 56.92 56.89 56.42 56.29 56.39 56.42 56.71 56.42 56.30 57.05 58.10 58.46 58.07 54.85 61.29 62.45 64.69 69.88 65.87 65.69 67.13 68.35 66.06 65.87 66.15 65.33 61.68 60.71 64.88 63.94 65.00 66.26 66.21 66.10 65.98 65.88 65.65 66.52 69.30 70.57 71.64
57.22 57.09 57.21 57.03 57.03 56.96 56.76 56.40 56.10 56.08 56.29 56.75 56.56 56.59 58.12 59.31 55.20 52.65 66.21 64.20 66.12 71.32 65.00 64.71 67.23 67.47 64.77 64.57 65.91 65.55 61.87 65.11 63.38 64.82 67.68 66.34 65.57 66.74 65.42 63.92 66.36 65.81 67.51 69.48 70.23
57.02 56.89 56.76 56.60 56.54 56.54 56.49 56.43 56.06 56.21 56.26 56.13 56.76 57.00 58.23 59.19 47.53 60.53 65.73 65.70 68.13 67.91 64.42 61.41 63.65 63.51 63.18 62.57 65.15 62.18 65.53 64.50 64.47 66.46 66.98 65.62 66.56 64.50 64.54 65.60 68.52 68.80 68.98 69.01 68.22
56.92 56.64 56.29 56.15 55.78 55.61 55.74 55.88 55.72 55.65 55.68 55.93 56.40 57.22 58.77 55.09 52.63 60.46 69.42 66.93 63.58 64.30 61.34 59.22 60.99 64.35 63.42 64.03 63.82 63.41 65.16 64.36 64.96 66.23 67.12 67.07 64.89 64.26 64.78 67.75 69.03 68.63 68.19 67.60 67.73
56.56 56.54 56.18 56.10 55.82 55.53 55.57 55.27 54.76 54.67 54.76 55.67 56.48 57.22 56.58 50.91 58.58 66.44 63.91 63.42 63.57 61.87 59.33 58.96 60.65 67.09 65.71 63.40 62.60 65.12 65.52 64.45 63.88 64.76 65.85 65.11 64.97 65.10 65.75 68.07 67.46 66.95 66.84 67.32 66.97
56.47 56.48 56.28 55.89 55.72 55.33 55.11 54.44 54.26 54.49 54.84 55.71 56.76 58.59 54.75 53.41 59.50 65.73 63.57 63.74 63.16 61.89 59.08 60.16 62.17 66.32 64.88 61.33 63.02 65.65 62.99 63.58 63.74 65.74 62.03 65.14 62.41 63.08 66.38 66.98 65.87 66.48 67.29 67.53 68.35
56.22 56.44 56.02 55.70 55.43 55.09 54.32 53.48 53.65 54.67 55.31 56.50 57.51 58.51 52.09 56.07 63.68 61.82 61.76 63.08 64.38 61.32 60.48 62.05 65.21 66.68 63.94 63.66 60.98 62.48 63.81 58.70 62.65 64.71 63.04 61.84 58.65 63.98 66.86 65.67 65.77 66.67 67.03 67.95 68.90
56.15 56.14 55.89 55.55 54.91 54.35 53.54 53.64 54.63 55.63 56.36 57.55 58.67 55.60 51.33 59.43 57.38 59.59 58.35 58.19 60.36 58.90 58.73 60.64 61.83 64.01 63.02 58.86 58.85 61.95 57.87 57.55 59.61 63.12 60.82 58.13 58.01 61.91 67.05 65.74 65.77 66.96 67.57 67.96 69.16
56.64 56.20 55.49 55.51 54.82 53.84 53.23 54.40 56.53 57.97 58.83 60.08 58.45 54.51 56.55 54.99 57.67 58.37 58.84 58.74 56.62 56.17 54.97 55.87 58.37 60.07 61.05 58.25 52.28 57.40 56.66 58.05 58.37 59.92 57.87 55.89 57.00 61.09 64.99 65.55 65.46 66.95 67.64 67.81 68.41
56.83 56.56 55.73 55.16 54.68 53.22 55.00 59.39 57.50 56.33 57.72 54.55 53.65 53.05 54.91 57.95 60.41 58.47 58.37 56.30 55.38 53.58 50.99 53.58 52.94 56.25 60.43 60.00 57.06 58.77 57.80 56.55 58.80 59.59 56.16 55.90 57.25 60.24 63.09 64.48 65.37 66.52 67.17 67.96 68.61
56.64 56.44 55.21 54.19 53.62 53.47 55.65 56.15 56.37 56.75 52.34 55.58 55.33 55.05 56.32 57.05 53.79 57.57 57.73 53.04 52.02 49.07 52.88 51.04 50.31 59.32 60.88 57.95 55.82 59.56 58.52 57.20 58.85 60.49 59.81 57.97 57.53 60.29 61.99 62.24 64.51 65.81 66.92 67.53 68.37
56.40 56.19 54.56 53.25 53.11 54.12 57.23 56.58 59.31 58.62 52.97 52.41 53.92 53.89 55.40 56.49 53.65 54.90 56.74 54.18 50.66 49.09 50.99 49.71 50.41 58.72 58.45 56.35 54.10 56.20 56.48 58.29 57.60 59.09 60.01 56.33 54.05 58.24 61.81 62.62 63.67 64.94 67.79 68.50 68.69
56.28 55.55 53.74 52.54 52.22 58.94 56.92 58.81 59.21 58.14 49.43 49.08 50.95 53.84 55.71 56.15 52.70 57.12 58.10 54.70 50.89 48.92 50.25 50.94 54.53 55.79 56.72 53.94 53.62 52.10 57.56 58.92 59.20 56.42 52.11 59.23 48.94 54.45 60.13 61.36 61.51 61.71 65.35 67.92 68.92
55.65 53.98 52.67 51.15 57.38 56.36 58.36 59.76 60.03 56.58 39.94 50.74 50.62 56.19 56.55 53.81 55.14 54.35 58.60 55.40 50.66 49.51 51.74 49.88 52.24 53.97 53.42 54.55 54.87 51.39 56.35 56.51 57.76 56.91 56.05 56.46 52.93 56.10 59.48 60.02 62.56 63.34 65.63 66.27 68.92
54.78 53.01 52.14 54.32 57.67 58.64 60.03 59.43 57.20 46.67 39.16 47.73 51.60 50.86 50.95 52.07 53.16 55.13 54.73 57.12 55.62 51.28 52.29 52.47 56.15 56.16 56.03 55.49 55.27 57.72 57.52 56.76 56.01 54.67 50.29 54.61 54.44 54.58 56.60 59.83 62.76 64.13 65.35 66.27 67.52
52.95 51.44 52.73 58.11 57.06 59.97 59.30 56.91 46.82 44.11 49.97 46.64 47.94 50.41 50.34 49.15 51.19 52.82 51.74 51.62 50.72 47.28 46.91 50.76 51.93 55.32 56.28 54.43 55.18 55.75 51.12 47.69 46.66 47.90 48.56 56.22 54.29 56.51 61.94 63.79 65.41 65.35 65.01 66.99 67.60
50.95 50.56 53.65 58.25 59.93 59.58 59.06 52.56 41.92 45.70 47.09 50.95 49.91 50.27 48.14 50.00 50.32 51.12 50.98 49.57 52.52 52.14 48.89 46.38 45.14 51.80 54.26 54.40 53.48 53.97 51.01 46.34 44.31 44.29 49.09 55.46 51.78 57.36 63.48 65.51 66.42 67.94 67.78 67.70 67.60
50.34 58.92 59.79 61.00 60.11 58.93 55.91 48.19 45.99 47.51 49.65 48.70 49.36 46.96 47.47 49.36 49.80 50.24 50.60 49.96 51.96 53.33 49.08 47.37 46.55 52.28 53.48 54.16 54.26 53.08 51.28 55.43 49.59 53.36 49.98 53.34 55.89 60.94 62.81 64.24 65.20 65.79 66.61 67.12 66.86
60.95 60.48 59.26 60.50 61.07 59.09 52.91 44.46 48.61 51.53 51.50 50.61 45.86 48.25 45.22 47.43 47.57 48.35 48.89 51.49 50.92 53.12 55.29 51.50 46.79 51.17 52.24 53.92 53.97 52.55 54.22 49.97 51.56 45.76 44.88 50.92 52.44 55.76 60.25 62.18 64.55 64.64 66.04 66.44 66.64
59.63 56.29 60.02 61.99 60.94 56.71 48.42 48.52 50.08 53.14 53.01 50.16 47.84 47.45 47.94 47.27 48.73 47.97 48.44 51.40 52.20 52.27 54.50 53.23 50.76 49.73 52.18 50.22 49.71 50.44 49.69 50.73 51.32 50.76 46.42 46.43 50.58 61.51 61.43 63.87 64.70 65.60 67.10 67.28 66.75
59.10 53.24 61.53 60.01 53.55 55.42 50.53 51.10 47.71 51.79 53.25 51.35 51.19 49.55 48.81 48.72 48.45 48.25 48.16 51.02 53.18 53.49 50.47 53.42 51.33 47.82 49.02 53.28 54.21 53.72 51.07 51.57 46.90 47.06 50.24 50.43 53.71 63.22 63.80 64.73 65.72 67.05 67.57 68.13 67.99
59.09 57.48 62.05 58.99 49.45 50.21 52.30 51.13 52.11 51.02 50.48 50.00 49.01 50.58 51.01 49.05 46.57 48.43 49.45 53.21 53.62 53.36 52.04 54.07 49.51 45.47 47.10 50.71 53.12 51.03 52.38 53.06 52.40 51.75 49.27 46.78 49.30 62.76 64.24 64.63 65.27 66.33 68.18 69.01 68.64
57.63 52.26 56.37 59.51 57.53 51.87 50.32 49.37 48.75 50.70 51.49 51.64 50.51 51.34 49.68 48.80 51.06 48.59 48.61 51.76 52.76 53.76 53.22 53.45 51.11 48.35 45.10 47.57 51.28 49.45 50.88 52.67 51.73 48.01 48.79 49.86 51.50 59.73 61.36 63.26 64.93 64.95 65.92 67.63 68.17
58.26 53.16 53.30 50.96 51.04 51.60 51.20 49.13 46.87 46.99 50.12 51.51 50.42 49.52 48.98 47.28 48.31 48.09 49.55 50.72 52.58 54.55 54.04 53.68 48.96 50.32 49.94 49.94 49.67 50.48 50.18 50.80 50.54 51.18 48.82 50.70 51.92 55.62 62.28 63.83 65.19 65.08 64.89 65.68 66.13
57.12 56.29 56.42 52.97 51.41 50.44 47.20 48.28 46.40 47.33 47.74 46.25 46.21 48.16 50.36 48.56 49.46 47.77 49.65 51.00 50.94 53.50 53.05 53.05 49.49 50.49 47.93 49.88 50.39 48.64 49.94 50.50 51.92 52.28 51.57 52.29 52.90 61.25 64.41 65.57 64.63 64.22 63.89 63.98 65.54
60.77 60.13 55.91 47.23 50.50 49.64 49.52 48.56 47.44 48.63 49.14 49.22 48.09 46.98 49.20 50.23 52.17 52.98 52.92 52.76 53.21 52.30 50.52 50.71 49.97 48.54 44.74 49.46 49.20 46.34 50.06 50.14 51.43 54.44 54.15 50.76 55.87 62.18 62.71 63.31 63.74 64.18 64.48 64.37 64.65

GFSSW_sfc_wetblb_105.txt.gz
Wetbulb
57.76 57.43 57.09 57.47 57.15 57.17 57.02 57.11 57.11 57.00 57.30 57.42 57.18 57.28 58.27 58.87 58.77 60.71 55.67 60.48 62.14 70.53 70.40 71.98 72.08 71.77 70.66 64.92 68.96 68.00 61.08 60.72 60.87 61.31 62.67 66.43 65.04 68.15 69.09 67.61 67.80 68.81 68.10 70.26 71.50
57.73 57.55 57.49 57.32 57.38 57.30 57.15 57.21 57.00 57.23 57.21 57.23 57.25 57.26 57.51 58.89 59.81 58.78 65.71 65.65 66.14 71.20 69.34 68.74 68.81 69.90 67.31 65.94 68.12 66.71 61.78 61.90 65.24 65.87 65.39 67.08 66.86 67.20 66.40 66.06 66.37 67.29 69.95 70.79 71.43
57.54 57.79 57.58 57.23 57.09 57.05 57.34 57.42 56.83 56.87 57.04 57.14 57.33 57.52 57.90 59.50 59.18 57.46 66.04 68.29 67.98 69.50 67.72 67.97 70.85 69.14 64.70 66.78 66.04 66.72 62.88 64.27 66.26 66.84 66.92 66.47 66.63 67.76 65.62 63.96 66.54 66.63 68.33 69.98 69.89
57.63 57.17 56.96 56.84 56.74 56.59 56.51 56.51 56.60 56.60 56.83 57.05 56.95 57.58 58.16 59.99 51.54 63.06 66.58 68.50 68.77 66.58 65.53 64.84 66.12 66.64 63.73 62.83 66.44 62.80 66.28 65.61 66.44 66.96 66.44 66.02 67.65 64.82 65.39 66.32 69.28 69.56 69.54 69.51 68.72
56.97 57.03 56.90 56.72 56.46 56.27 56.11 56.11 56.25 56.27 56.31 56.48 57.25 57.65 59.64 57.46 56.42 67.91 67.05 65.68 62.32 65.99 63.61 61.88 62.49 65.89 62.64 64.54 65.84 64.26 65.38 65.42 65.81 66.76 66.97 67.31 65.62 65.46 65.34 68.64 69.89 69.77 69.27 68.34 67.89
56.92 57.10 56.86 56.61 56.40 56.24 56.03 55.78 55.45 55.39 55.67 56.14 57.03 57.57 58.56 54.08 59.92 65.50 64.72 59.43 58.90 64.25 62.75 61.79 62.30 66.31 65.32 64.81 64.21 65.71 66.01 65.58 66.02 67.29 67.02 64.94 64.83 65.33 66.08 68.87 68.46 68.26 67.44 67.33 67.51
56.88 56.84 56.91 56.41 56.27 56.06 55.81 55.25 54.98 54.99 55.51 56.61 57.76 59.26 57.51 56.28 60.89 65.62 62.55 58.68 60.13 63.09 60.42 61.45 61.78 65.55 66.99 64.51 66.41 66.26 63.10 64.45 63.37 64.85 64.43 65.29 62.17 62.03 66.61 68.02 66.95 66.60 66.08 67.04 67.35
56.87 56.67 56.73 56.62 56.08 55.56 55.05 54.59 54.63 55.10 55.98 56.77 58.29 60.45 56.22 58.72 64.01 63.25 63.74 62.32 62.94 63.52 61.62 61.60 62.39 64.20 67.20 66.11 63.99 63.63 62.03 57.93 62.04 64.03 64.77 65.54 58.04 63.47 67.12 66.46 64.89 65.19 65.84 66.48 67.65
57.33 56.61 56.38 56.26 56.05 55.08 54.45 54.00 55.16 56.29 57.25 57.95 59.93 60.08 53.38 58.15 60.44 61.86 62.79 61.39 61.28 61.84 61.78 61.50 62.07 64.94 66.57 61.98 59.13 59.63 56.29 56.96 59.25 62.74 61.98 61.90 59.68 64.83 66.33 65.27 64.92 65.58 66.07 66.79 68.05
57.49 57.07 56.57 55.85 55.12 54.72 54.28 54.43 56.71 57.06 58.96 61.82 61.13 56.11 57.04 55.46 60.48 59.15 59.71 61.08 59.94 58.08 56.71 56.96 58.69 62.40 63.09 60.36 51.90 53.52 55.16 58.03 57.35 58.58 59.61 57.94 58.90 64.10 65.26 64.76 63.83 64.83 66.28 66.24 67.16
57.01 57.16 56.66 55.80 54.56 54.55 54.87 61.14 59.67 58.91 60.97 57.11 54.99 55.20 55.91 59.29 61.28 58.75 59.59 57.93 57.70 56.12 52.02 54.11 53.28 57.00 60.83 60.74 59.34 58.29 57.45 57.33 58.58 59.16 57.59 57.35 58.53 60.20 64.01 65.49 63.64 64.30 65.29 65.98 66.62
56.91 56.86 56.51 54.92 54.41 54.12 56.42 58.42 57.56 58.26 54.40 56.54 55.90 56.20 58.03 59.11 56.16 57.71 60.12 54.68 53.20 50.69 53.67 51.77 50.42 56.96 61.77 61.82 58.64 58.41 58.88 56.45 57.92 58.95 58.26 57.33 56.78 59.32 61.48 65.05 64.81 64.29 64.57 66.35 66.95
56.74 56.63 55.32 54.14 53.86 55.17 59.93 59.10 61.39 60.47 55.04 52.92 54.96 55.19 56.42 57.62 55.06 55.72 57.22 55.64 52.59 50.46 51.54 51.31 52.05 55.59 60.88 60.23 57.44 58.44 56.00 55.91 54.85 58.09 58.75 57.13 53.48 56.60 60.26 62.61 65.00 65.56 66.01 67.99 67.73
56.53 56.01 54.30 53.51 52.40 60.66 58.21 61.55 61.57 60.90 51.48 49.98 52.74 55.60 56.83 57.03 53.64 59.26 58.12 55.66 52.46 50.07 51.63 52.47 54.85 52.98 58.57 58.36 58.81 53.87 61.64 58.83 55.02 56.55 49.94 57.51 47.21 54.16 58.19 59.56 61.31 63.30 65.02 66.50 67.07
56.11 54.53 53.13 51.61 58.54 57.06 60.43 61.64 61.97 60.21 40.95 51.31 51.89 59.00 57.91 55.04 55.59 55.00 58.71 56.13 51.99 50.61 51.47 50.17 52.04 52.26 54.34 57.49 59.34 55.19 58.81 58.33 57.51 56.29 54.75 54.58 51.95 53.82 59.18 57.85 58.91 60.88 64.63 66.49 66.01
55.04 53.72 53.01 56.14 59.20 60.83 62.12 61.68 60.27 48.48 41.27 49.18 53.01 52.34 53.02 53.80 54.45 55.71 55.09 57.72 57.45 52.45 52.17 52.76 55.69 55.51 56.39 57.67 58.50 59.22 57.83 57.75 58.34 55.92 50.78 54.98 55.47 52.87 55.30 59.71 60.70 61.45 62.84 64.46 67.38
53.43 51.84 53.24 60.97 58.54 62.29 61.64 59.00 49.05 44.17 51.16 48.11 49.27 51.76 51.44 49.95 52.14 53.56 52.84 52.05 51.22 48.34 48.33 51.00 52.74 55.72 57.44 55.10 57.82 59.04 57.25 51.20 49.39 49.96 49.31 55.79 54.39 56.80 60.73 62.59 64.32 64.46 63.30 64.99 68.23
51.39 50.86 56.55 61.50 62.31 61.67 61.63 54.90 44.49 47.72 48.96 51.67 50.73 50.85 49.03 50.64 51.09 52.52 51.86 50.56 53.89 53.01 50.03 46.68 46.69 53.23 56.28 56.66 54.25 56.02 56.15 51.83 45.37 46.75 50.60 57.25 51.40 56.19 64.11 65.58 67.45 68.04 66.55 66.01 66.99
50.79 60.66 61.43 62.92 62.72 62.00 56.97 49.39 47.69 48.96 50.86 49.57 50.28 48.68 48.70 49.73 50.50 50.60 51.39 50.74 52.84 54.50 50.33 48.47 48.28 54.35 55.09 55.98 57.07 54.28 53.28 57.68 53.42 50.22 49.07 53.05 57.71 60.02 64.56 64.21 65.75 67.24 67.88 66.94 68.35
62.09 60.56 60.49 63.17 64.25 61.08 54.70 45.54 49.85 52.67 52.49 52.07 46.84 49.42 46.50 48.50 48.12 49.05 50.17 52.45 51.92 54.18 56.31 53.64 48.53 52.71 53.40 54.86 54.89 54.70 56.72 51.32 52.73 45.85 45.43 50.44 52.84 55.31 59.41 62.22 64.38 66.02 67.28 68.48 69.02
61.07 57.75 61.00 63.70 63.37 58.21 50.85 49.90 51.16 53.70 54.44 51.68 48.83 47.92 49.04 47.99 49.04 48.88 49.37 52.42 53.07 53.43 55.11 54.64 52.04 50.56 52.95 51.31 50.85 51.17 50.98 52.56 53.72 52.21 47.52 46.92 51.00 61.24 62.12 63.89 64.93 66.22 67.38 68.63 67.61
60.68 55.33 61.52 63.02 55.19 55.83 51.45 51.98 49.18 52.46 53.40 52.32 52.14 51.26 49.85 50.26 49.33 48.36 48.20 51.88 54.94 54.43 51.36 54.11 51.89 49.00 50.86 54.18 54.12 53.70 51.67 52.05 48.39 48.83 51.20 50.54 51.44 64.20 64.70 65.23 66.29 66.77 67.58 69.46 68.95
58.91 56.76 61.53 60.49 52.05 51.73 53.12 51.80 53.09 52.12 51.73 51.42 50.49 51.98 52.35 50.77 48.03 49.83 50.45 54.70 54.86 53.69 53.10 54.54 50.11 46.93 48.44 51.81 53.50 51.32 53.33 53.15 52.33 52.02 49.98 47.88 52.22 64.14 65.68 66.16 67.03 66.85 68.33 69.53 70.09
58.13 53.32 56.53 57.59 56.43 53.68 51.85 51.17 50.37 52.13 51.93 52.58 51.67 52.42 51.09 50.06 52.33 50.25 50.46 52.92 54.32 54.45 57.32 56.80 51.66 49.55 44.11 48.14 51.53 50.54 51.04 52.84 52.40 49.32 49.66 50.53 53.97 61.18 62.62 64.54 66.76 68.04 69.17 69.24 69.46
57.86 55.50 56.21 52.67 52.09 52.44 52.49 50.45 48.55 48.76 51.22 52.03 51.89 50.10 49.98 48.82 49.61 49.83 50.84 52.03 53.69 54.91 54.60 53.64 49.24 50.32 51.03 51.49 52.34 51.31 51.02 51.34 51.31 52.25 50.04 51.87 52.47 56.08 62.68 64.43 66.50 68.05 68.36 69.16 68.65
57.76 56.39 55.40 53.50 51.71 51.88 47.93 49.75 47.79 48.60 48.89 48.30 47.55 48.51 50.47 50.24 51.21 48.60 51.13 51.94 51.43 54.98 53.67 54.32 49.10 50.97 49.64 50.74 51.19 49.98 51.92 52.42 52.12 52.28 52.06 52.58 52.74 60.05 65.71 67.21 67.47 66.62 65.59 66.05 66.79
63.21 61.14 57.13 49.72 51.76 51.08 50.93 49.75 48.97 49.49 50.53 49.89 49.17 48.43 48.84 52.02 53.88 54.94 54.76 54.99 54.81 53.40 52.69 51.88 49.97 49.32 45.96 49.47 50.02 46.59 50.56 51.68 52.11 53.43 53.43 50.89 54.72 62.20 63.09 64.45 66.29 66.06 65.15 65.17 67.17

GFSSW_sfc_wetblb_108.txt.gz
Wetbulb
58.01 58.01 57.95 57.73 57.65 57.74 57.82 57.82 57.71 57.97 57.97 58.07 58.11 58.17 58.29 58.41 58.81 59.12 56.00 61.21 63.26 72.24 72.12 65.74 69.75 72.10 70.66 67.86 69.34 67.76 61.27 58.89 59.99 60.67 61.48 64.61 64.92 67.63 68.94 66.28 66.53 67.77 67.22 68.77 70.06
58.21 58.13 57.93 57.54 57.42 57.50 57.78 57.76 57.78 57.59 57.73 57.84 58.13 58.23 58.44 58.65 58.06 57.71 66.30 69.02 71.81 72.51 68.38 68.30 68.26 70.15 66.72 64.88 67.64 65.41 60.27 60.84 65.27 64.84 63.15 65.25 65.88 66.48 64.97 65.25 65.49 66.38 68.35 69.42 69.54
57.92 57.79 57.56 57.32 57.37 57.39 57.23 57.29 57.46 57.50 57.56 57.80 57.83 57.94 58.40 58.76 58.16 58.64 70.12 69.39 68.41 68.64 68.44 70.13 70.95 69.34 64.57 65.77 65.36 64.92 60.68 63.03 65.34 66.45 66.75 65.64 65.26 67.35 64.84 63.37 65.49 65.38 66.30 67.90 68.23
57.61 57.72 57.59 57.34 57.14 57.10 56.95 57.06 57.12 57.22 57.43 57.47 57.64 57.94 58.83 58.03 52.86 61.90 69.42 69.36 69.31 58.35 66.29 65.88 67.58 65.77 63.78 62.47 66.02 62.32 65.06 63.12 65.04 67.28 66.26 64.49 65.72 64.68 64.98 65.21 68.45 68.76 68.00 67.96 67.37
57.39 57.20 57.17 57.13 57.08 57.01 57.02 56.70 56.64 56.57 56.41 56.81 57.24 58.04 58.41 57.29 56.85 65.97 70.66 68.23 58.54 56.84 63.06 63.12 63.09 65.73 62.03 63.87 64.68 62.92 65.07 65.26 66.29 67.66 66.49 66.12 64.06 65.06 65.40 68.27 69.39 69.40 68.35 66.97 67.14
57.52 57.18 57.50 57.19 57.21 57.07 56.90 56.58 56.17 56.16 56.38 56.55 57.39 57.99 56.57 53.67 60.82 68.53 63.50 59.38 56.53 59.39 62.16 63.04 61.94 65.97 64.51 64.76 62.47 65.19 65.75 65.63 66.16 66.34 65.61 64.33 64.94 64.41 66.28 68.43 67.81 67.83 67.01 67.16 66.59
57.57 57.46 57.38 57.29 57.09 57.05 56.58 56.22 55.90 55.70 55.95 56.97 57.77 58.94 57.15 56.93 61.12 64.15 63.07 55.88 57.06 60.40 61.76 63.52 63.25 63.28 65.56 63.63 66.80 66.67 63.29 64.56 64.72 66.03 65.05 66.34 61.96 61.30 66.04 67.52 66.32 66.52 66.26 66.50 66.65
57.88 57.66 57.24 57.07 56.99 56.74 56.17 55.46 55.34 55.88 56.38 57.34 57.92 58.94 56.41 60.63 62.31 63.90 62.53 58.56 57.85 61.04 62.77 63.21 62.33 59.96 61.44 66.27 64.71 63.69 62.95 58.17 62.28 64.49 64.80 64.38 57.44 63.01 66.31 66.12 64.78 65.29 64.98 66.03 66.62
57.74 57.69 57.35 57.11 56.48 55.98 55.60 54.97 55.95 57.14 57.79 58.48 58.43 58.19 55.81 59.53 56.80 62.91 62.96 59.12 60.83 61.74 62.23 61.70 59.86 58.57 61.82 60.29 58.90 61.01 54.26 57.16 58.34 62.75 62.30 62.82 59.29 63.69 65.95 65.33 64.10 63.80 64.49 65.22 66.46
58.01 57.65 57.17 56.98 56.13 55.64 55.19 55.03 58.88 56.96 58.77 61.39 60.94 56.67 58.49 54.96 58.58 60.96 62.46 62.11 59.01 59.55 58.28 57.55 57.01 55.51 59.57 59.07 51.92 53.81 52.96 54.17 56.48 59.83 60.43 60.45 59.98 62.80 64.66 64.29 63.31 63.58 64.42 65.15 66.13
57.77 57.34 57.22 56.97 55.60 54.82 54.69 59.38 59.00 57.66 60.85 57.99 56.39 56.47 56.32 59.01 61.22 57.90 59.10 59.82 59.65 56.81 52.08 54.75 51.78 52.16 59.12 61.47 59.60 57.96 55.88 55.28 57.22 59.45 58.39 58.20 58.34 61.29 63.85 63.82 62.96 63.88 63.96 65.18 65.90
57.34 57.07 56.77 56.08 54.87 54.20 54.98 57.63 57.31 58.35 53.99 60.28 55.41 56.05 58.32 58.83 55.42 57.09 59.23 54.81 54.66 51.01 53.48 51.92 48.28 54.05 59.95 61.15 59.38 59.45 56.17 55.27 56.51 59.62 58.42 57.43 57.59 59.79 61.88 63.05 64.65 64.60 64.84 65.53 66.62
57.01 56.83 55.98 54.95 54.21 54.39 57.84 59.18 61.64 60.59 54.77 53.32 55.12 54.84 55.63 57.09 55.49 55.36 57.33 55.09 52.00 49.96 51.24 50.14 51.75 53.76 54.47 58.16 57.16 56.30 54.86 54.69 54.12 57.30 58.38 56.57 53.70 56.86 60.06 61.89 63.52 65.24 66.66 66.29 67.21
56.69 56.57 54.77 53.65 52.67 59.62 58.36 61.22 61.19 61.34 50.68 50.23 51.87 55.40 56.43 56.34 53.49 59.01 58.06 55.52 53.11 50.08 50.47 50.82 54.55 52.95 52.51 55.76 58.98 54.15 59.59 57.86 55.70 54.62 50.26 57.02 47.86 53.00 56.36 58.37 61.01 63.30 65.25 65.65 66.10
56.57 55.01 53.70 52.94 55.79 57.76 60.56 60.64 60.96 59.44 40.71 51.91 52.35 59.43 57.50 54.37 55.18 55.48 58.54 55.52 51.71 50.70 51.15 49.51 51.15 52.33 50.96 56.62 59.36 55.38 60.55 58.59 57.34 54.69 53.38 52.95 50.87 54.26 57.00 55.31 58.43 61.73 64.65 66.11 65.77
55.27 54.13 52.82 55.58 57.05 58.78 61.17 61.00 59.37 48.60 39.29 49.60 52.97 52.45 52.34 54.31 54.66 55.49 55.48 57.03 56.40 53.16 51.81 51.22 54.94 53.84 53.52 56.62 58.99 60.64 59.03 57.14 54.96 53.82 48.86 52.97 52.61 50.47 53.86 56.27 58.70 61.21 63.01 65.59 67.32
53.69 52.61 52.96 60.16 59.42 61.19 61.31 58.34 48.92 43.67 52.92 48.28 49.81 51.05 51.74 50.14 52.44 53.10 51.05 51.28 50.18 47.85 47.64 50.01 51.71 54.46 56.01 54.48 58.29 57.57 55.61 50.25 47.33 48.19 47.40 55.06 52.71 53.50 58.02 60.57 60.52 60.11 62.39 63.75 66.51
52.10 51.20 56.63 59.15 62.97 61.89 60.35 55.03 45.12 49.76 48.57 51.53 50.48 51.00 49.21 50.34 51.05 51.75 51.06 49.53 52.55 52.13 49.35 46.57 44.89 52.31 55.11 54.58 53.70 54.37 54.17 49.99 43.36 45.45 46.06 52.39 50.76 56.22 60.47 63.26 63.62 63.55 64.10 63.94 64.50
51.04 59.77 61.24 62.67 61.98 61.98 57.02 48.44 47.57 49.83 51.05 49.61 49.82 47.94 49.06 50.19 50.77 50.13 50.96 49.93 52.02 53.70 49.36 48.84 47.17 53.69 55.32 56.25 56.65 53.93 51.93 56.57 50.73 50.14 49.04 51.18 54.80 60.80 61.15 62.47 63.62 64.41 64.35 64.53 66.05
58.47 61.56 59.97 62.05 63.03 60.99 54.93 47.42 49.93 52.43 52.04 51.78 47.77 50.47 46.79 48.70 47.41 48.44 49.69 52.49 52.03 54.73 55.38 52.74 48.98 52.87 54.03 55.22 55.59 54.81 56.52 50.43 51.50 45.57 44.50 48.25 49.28 51.82 59.50 61.71 64.95 64.19 64.57 65.66 66.06
58.78 57.95 58.89 62.82 63.05 58.06 51.04 49.89 50.96 53.24 54.07 51.54 49.53 49.51 49.71 48.32 49.74 49.41 49.11 52.83 54.46 54.28 55.16 53.95 51.78 51.11 52.99 51.04 50.18 50.71 51.04 52.60 52.60 51.05 46.15 44.20 48.05 59.16 59.28 63.32 63.97 66.12 65.48 66.19 65.87
58.91 54.56 60.01 62.98 55.37 55.70 51.76 51.99 50.46 52.37 52.90 52.55 51.96 51.07 50.88 50.56 48.79 48.66 49.11 51.95 55.02 54.37 51.14 53.82 51.57 48.01 50.39 54.14 54.50 53.24 51.29 52.29 48.16 48.70 50.42 49.52 50.74 60.89 60.46 61.41 63.65 65.82 66.60 66.49 67.96
57.31 58.46 60.05 60.10 50.94 52.21 53.01 51.74 53.54 52.88 51.91 52.12 51.27 52.16 52.75 50.44 48.43 51.09 51.55 54.76 54.62 52.51 53.01 54.36 50.79 45.80 48.56 52.12 53.75 50.56 52.08 52.16 51.20 51.44 49.89 46.58 51.32 59.88 58.90 60.53 66.62 66.12 68.41 69.65 69.95
58.43 53.96 56.98 57.09 56.39 53.43 52.12 51.68 50.98 52.47 52.17 52.78 52.11 52.45 51.26 50.59 52.21 49.61 50.77 52.50 54.15 52.85 59.88 57.28 51.63 49.20 44.29 47.14 52.16 50.42 50.03 51.64 51.85 47.22 48.17 49.05 56.49 60.47 62.20 63.02 64.78 66.77 68.45 69.36 70.06
57.93 55.25 56.88 52.28 52.50 53.05 53.35 51.63 49.44 49.33 51.73 52.11 51.41 50.34 50.09 48.71 50.30 50.84 52.27 51.73 53.83 56.66 54.39 52.16 48.18 50.18 50.61 51.89 51.95 51.73 51.59 52.15 50.21 51.32 48.92 51.44 52.53 59.82 62.41 63.53 65.32 68.18 69.01 69.20 69.28
57.72 56.95 56.79 53.35 52.92 52.51 48.57 50.18 48.63 49.56 49.28 49.08 48.19 49.45 48.87 49.30 51.42 49.52 51.81 52.38 51.97 54.06 52.42 53.09 48.35 50.59 49.28 51.53 51.59 50.00 51.17 52.60 52.19 51.52 52.00 52.64 52.72 61.98 64.58 65.55 66.68 67.93 68.73 68.49 67.90
62.10 61.30 57.12 51.03 52.18 51.30 51.40 50.66 49.55 50.08 51.15 50.41 49.45 48.83 47.60 52.07 54.56 54.59 55.00 54.53 54.63 53.68 52.11 52.75 49.85 48.80 45.32 49.99 49.11 46.32 50.35 51.43 52.86 53.89 52.83 50.09 56.31 58.95 61.76 63.53 61.86 65.64 66.78 67.93 68.42

GFSSW_sfc_wetblb_111.txt.gz
Wetbulb
58.01 57.99 57.78 57.53 57.51 57.57 57.91 58.27 58.23 58.08 58.14 58.35 58.48 58.43 58.94 59.16 58.69 57.40 53.73 58.72 60.69 69.77 70.60 63.89 62.01 65.09 69.84 67.04 68.24 67.64 58.65 56.74 57.89 58.29 59.24 64.61 63.36 67.79 67.62 64.09 65.00 66.55 65.08 66.29 69.65
57.90 57.82 57.82 57.43 57.50 57.69 57.89 57.82 57.84 58.01 58.03 58.03 58.17 58.29 58.63 59.21 55.53 54.11 62.67 70.42 71.56 72.03 61.15 63.30 61.73 65.73 65.95 64.25 65.94 63.92 58.96 58.89 62.98 63.35 62.48 64.28 64.45 64.13 64.09 63.83 64.13 64.50 66.65 68.37 69.38
57.69 57.59 57.70 57.81 57.88 57.57 57.50 57.44 57.50 57.52 57.75 57.79 57.93 58.10 58.64 58.11 54.27 57.35 71.56 70.67 70.88 70.46 61.70 66.74 67.70 67.95 64.21 63.35 64.66 64.36 58.79 60.48 61.66 64.47 65.69 64.65 64.75 65.96 64.31 61.30 63.95 62.62 64.58 65.33 66.20
58.03 57.73 57.80 57.71 57.54 57.72 57.61 57.49 57.36 57.34 57.21 57.36 57.55 57.85 58.88 55.70 49.90 60.28 69.64 70.16 69.53 59.16 56.95 62.83 63.42 63.48 62.93 61.14 65.33 61.52 63.39 62.63 61.80 64.10 62.88 64.68 66.72 64.06 64.94 63.92 66.43 65.82 66.22 65.60 63.79
58.10 57.73 57.65 57.67 57.62 57.68 57.53 57.60 57.27 57.03 56.94 56.98 57.32 57.88 55.82 52.54 53.85 62.66 71.07 69.20 61.40 53.37 52.23 60.17 60.17 62.61 61.92 62.78 64.42 62.43 61.06 61.43 61.86 63.29 64.10 66.69 64.43 64.92 64.76 66.65 66.90 66.50 66.24 64.74 63.34
58.05 58.00 58.00 57.81 57.68 57.57 57.62 57.50 57.01 56.65 56.65 56.99 57.58 58.18 53.12 48.16 63.55 65.47 65.76 61.60 54.08 51.23 53.18 59.95 60.37 63.54 63.65 63.13 62.60 64.67 63.17 62.82 64.02 64.73 66.25 63.65 63.29 65.22 65.56 67.34 66.04 65.76 64.01 64.78 64.01
58.37 58.37 58.11 57.78 57.43 57.51 57.43 56.93 56.55 56.33 56.57 57.00 57.96 57.51 53.19 53.27 60.25 66.30 59.56 54.74 51.73 52.67 55.25 60.68 61.94 58.99 62.58 62.65 66.27 64.81 62.10 63.82 63.97 65.23 63.49 65.21 60.61 61.54 65.78 66.83 65.02 64.87 64.25 64.81 64.52
58.21 58.21 58.11 57.82 57.55 57.12 56.75 56.43 55.84 56.31 56.88 57.57 58.05 55.70 50.83 60.88 59.79 59.92 58.93 53.45 52.77 55.14 58.03 60.95 61.55 57.79 56.30 65.84 64.30 62.56 61.76 56.42 61.63 64.17 63.08 63.31 57.06 62.12 65.34 64.87 63.48 63.95 64.46 64.21 64.87
58.21 58.13 58.02 57.68 57.42 56.75 55.86 55.64 56.38 58.18 58.46 58.16 54.97 52.02 52.32 61.60 54.64 57.51 60.26 55.68 51.84 53.08 56.65 61.52 58.01 52.87 54.48 55.85 56.68 57.44 52.83 52.55 56.35 62.88 60.24 60.85 56.78 62.88 64.77 64.09 62.48 62.58 63.07 63.34 64.86
57.85 57.67 57.46 57.32 56.97 55.70 54.77 54.89 57.08 57.57 58.29 58.94 58.65 51.87 56.85 55.90 54.75 55.83 60.01 58.88 54.31 55.66 56.32 55.93 51.99 47.93 50.06 51.89 48.55 52.78 52.57 53.65 53.40 59.45 60.53 59.32 59.10 62.76 63.13 62.66 62.14 60.34 61.31 62.07 63.78
57.53 57.08 56.96 56.89 56.20 54.67 53.52 53.95 53.98 53.06 55.31 54.41 54.39 55.77 55.97 57.29 59.29 56.45 58.59 57.89 56.61 53.73 48.59 51.26 45.68 43.94 48.75 54.03 59.13 56.61 55.06 54.91 56.93 60.35 58.75 57.75 58.46 60.35 62.31 62.25 60.68 59.17 60.36 62.39 63.36
57.20 56.77 56.59 56.36 55.09 54.18 51.88 51.36 55.52 53.64 49.34 58.32 58.93 54.31 56.41 55.85 53.78 55.02 55.97 52.37 53.32 47.93 50.16 46.81 43.46 49.29 52.93 60.25 58.35 57.47 54.45 52.98 56.94 59.14 57.93 57.02 56.78 59.93 61.34 61.36 62.79 62.74 61.78 62.27 64.70
56.77 56.57 56.02 54.85 54.26 51.56 53.06 54.98 58.86 57.00 48.97 54.58 57.14 52.60 52.95 52.68 53.13 52.97 53.87 52.14 50.59 48.20 47.93 45.12 48.11 51.31 50.54 58.51 57.27 56.06 54.22 54.00 53.75 56.38 57.34 56.77 53.50 56.06 60.60 61.52 62.43 63.05 65.26 64.26 64.64
56.71 56.19 54.54 53.30 51.72 56.27 55.60 58.70 58.52 57.63 44.72 48.62 47.98 52.95 54.32 53.68 50.82 57.09 56.34 53.05 50.34 46.38 47.23 46.22 51.10 50.93 48.82 52.27 56.52 52.77 58.05 56.91 54.67 52.46 48.56 55.82 46.70 52.44 56.67 57.76 59.40 61.47 62.80 63.29 63.95
56.21 54.48 53.52 53.13 50.08 53.11 57.87 57.53 56.25 54.50 36.98 52.99 50.36 56.97 55.32 50.19 51.99 53.72 56.67 53.12 48.99 48.73 46.64 45.04 47.39 47.79 48.44 54.02 58.80 54.07 57.09 56.98 55.36 52.04 52.66 51.85 49.46 52.13 55.27 54.57 57.16 59.13 62.19 64.84 65.20
54.77 53.72 52.74 52.54 51.78 54.91 56.70 56.72 54.96 43.54 39.16 50.01 51.55 50.29 49.64 51.58 53.12 54.10 53.61 53.40 53.18 50.19 49.83 47.39 51.26 49.53 49.88 58.47 59.23 60.35 57.48 56.29 55.03 52.30 46.27 50.81 50.67 48.82 53.01 54.66 57.46 59.56 61.49 63.99 64.91
53.98 52.94 51.58 55.52 56.47 60.10 57.40 55.41 44.84 40.11 52.04 48.52 47.79 49.67 49.08 48.85 50.68 50.65 49.70 46.91 44.60 40.02 42.27 46.99 47.24 50.31 52.72 54.30 59.00 56.75 52.30 44.67 44.21 44.76 44.49 51.71 50.63 52.50 56.43 58.28 59.31 59.30 60.44 63.36 65.14
52.11 51.43 52.76 55.47 57.78 58.34 57.26 50.20 42.03 49.02 48.65 49.65 48.51 48.67 48.24 49.92 49.48 50.55 47.35 44.18 48.89 47.10 44.11 40.82 39.35 48.58 52.02 51.68 53.62 53.75 51.88 45.71 39.69 42.36 45.78 53.13 48.88 52.94 57.97 60.87 60.53 61.84 61.70 63.23 64.79
51.18 55.88 55.41 59.31 58.37 56.55 52.51 45.08 44.93 47.40 49.81 49.16 48.63 47.11 46.85 49.73 48.28 48.55 47.86 46.06 48.45 48.31 42.07 43.45 44.71 50.85 52.43 52.48 52.15 49.28 47.96 52.97 47.33 48.48 43.13 49.15 52.28 58.81 59.94 59.10 60.72 60.59 61.48 62.00 64.20
54.49 56.38 57.80 62.72 61.09 57.12 50.82 45.78 46.84 50.65 51.11 51.47 45.66 48.71 45.28 47.08 46.19 45.65 47.81 51.27 51.02 52.68 51.27 47.83 43.11 50.79 51.36 52.63 52.07 52.08 52.23 43.56 44.71 41.33 40.83 46.76 48.23 50.92 55.22 57.89 59.77 60.29 59.63 61.33 63.41
56.89 53.85 59.45 61.21 60.21 54.67 47.30 48.08 50.63 51.23 52.39 49.29 47.79 47.92 47.66 47.55 47.49 46.76 47.72 51.90 53.32 51.84 51.32 49.02 46.28 47.39 50.42 45.64 45.03 46.04 44.54 45.50 45.55 44.61 42.01 43.09 46.17 55.74 55.54 58.25 58.57 60.92 62.59 62.32 62.45
57.99 52.16 58.43 60.03 52.17 53.38 48.35 49.68 49.90 50.16 51.55 50.71 50.04 49.41 49.12 49.49 46.88 47.54 47.66 51.14 53.49 51.17 47.71 50.39 46.35 40.75 45.53 51.38 51.60 48.20 45.14 45.66 40.81 40.48 44.17 44.96 46.98 57.41 58.21 59.64 60.43 59.57 62.24 64.15 64.25
53.93 54.65 61.01 57.52 47.03 48.97 50.21 50.73 52.00 50.94 50.05 50.19 49.92 49.95 49.92 46.62 44.44 49.23 50.20 53.85 54.27 50.19 47.97 48.28 44.57 39.62 43.70 47.66 51.63 45.05 46.80 45.91 44.33 41.84 39.78 39.47 45.64 58.34 58.01 56.96 61.26 60.82 63.23 64.92 65.35
55.07 51.84 55.55 55.40 53.57 50.87 49.98 51.44 49.76 52.25 51.13 51.03 50.97 50.32 48.92 47.58 49.95 48.25 48.75 52.77 53.22 51.78 60.13 52.99 45.47 44.29 37.07 42.43 48.32 46.66 49.70 49.38 44.44 38.23 40.12 41.46 50.93 53.93 55.69 56.17 57.77 57.77 59.36 65.59 64.83
56.65 53.18 56.09 50.10 49.96 50.53 50.09 50.59 48.50 48.68 51.11 51.34 49.29 49.96 46.39 43.28 46.64 46.64 49.79 50.72 53.21 55.81 50.92 47.43 40.84 45.78 46.22 49.32 50.28 48.63 49.05 49.79 46.41 45.84 41.48 46.96 52.96 54.62 57.21 58.36 60.30 59.85 63.44 64.86 64.36
53.98 54.55 56.80 52.34 51.94 50.40 47.80 48.84 48.00 48.20 48.63 47.35 46.63 47.91 46.95 42.63 48.20 46.79 48.63 47.76 47.42 50.69 49.41 49.07 42.65 43.74 44.04 49.26 49.67 48.65 50.21 50.42 50.13 50.69 47.95 52.86 52.77 56.99 59.58 62.56 61.06 61.04 64.49 64.89 65.16
61.70 61.92 57.78 51.85 51.11 48.32 49.65 49.11 48.48 50.54 51.69 50.82 49.70 47.63 46.28 50.54 52.50 50.58 47.93 49.02 48.62 47.95 47.87 46.89 46.30 43.94 39.56 47.04 47.42 42.58 49.58 50.54 50.39 53.81 53.11 51.35 55.71 58.88 55.90 56.56 59.21 57.79 62.60 63.78 64.16

GFSSW_sfc_wetblb_114.txt.gz
Wetbulb
57.67 58.01 58.01 57.56 57.65 57.80 57.86 58.03 58.05 58.22 58.45 58.41 58.40 58.44 58.79 58.92 58.95 56.99 52.18 57.12 58.97 66.79 70.72 60.88 60.72 60.03 63.81 65.35 68.04 67.17 58.51 55.85 57.90 58.83 59.62 63.75 61.10 66.02 65.98 63.98 65.19 66.40 65.01 66.69 68.92
58.07 57.84 57.56 57.60 57.82 57.86 57.63 57.66 57.77 57.83 57.96 58.08 58.14 58.30 58.49 59.05 55.10 52.99 60.78 68.13 70.16 69.67 59.11 60.31 58.33 60.86 60.41 64.32 65.52 63.29 58.03 58.15 61.88 61.90 61.73 62.20 63.95 63.62 62.07 62.02 63.33 63.66 66.55 68.12 68.03
58.11 58.11 57.98 57.86 58.09 57.77 57.64 57.72 57.78 57.52 57.69 57.65 57.75 57.89 58.19 58.05 52.76 55.59 68.95 69.02 71.98 71.22 59.05 62.24 63.66 63.21 61.46 61.62 64.25 63.46 58.25 59.72 60.60 62.42 63.92 62.72 61.48 65.15 62.29 60.56 62.40 62.19 64.82 66.59 66.53
58.34 58.05 58.11 58.31 58.03 57.90 57.81 57.71 57.63 57.48 57.24 57.25 57.41 57.88 58.37 55.14 48.21 59.47 70.28 69.40 72.04 63.27 55.44 59.56 61.27 59.08 61.42 60.64 65.25 59.94 61.10 60.46 61.39 62.54 62.69 62.24 65.35 62.96 64.01 62.85 65.39 65.64 66.69 66.76 66.68
58.42 58.30 58.15 58.00 57.95 57.89 58.03 57.86 57.51 57.33 57.16 57.12 57.39 58.23 54.33 49.70 52.38 61.66 72.03 70.54 61.43 53.51 50.61 55.66 58.82 58.98 60.33 62.00 63.48 60.00 61.51 61.63 63.16 62.78 63.42 64.23 64.98 63.89 63.77 65.50 66.33 66.58 66.95 66.49 66.23
58.35 58.54 58.30 58.11 58.00 57.93 57.76 57.62 57.28 57.01 56.98 57.16 57.67 58.38 51.09 44.87 59.60 64.99 63.02 60.30 55.78 49.97 48.97 52.02 58.91 60.31 61.99 62.76 61.62 63.01 62.29 61.29 62.19 63.16 65.36 63.65 63.62 63.71 63.94 65.68 64.89 64.55 63.29 64.41 65.40
58.38 58.39 58.47 58.10 57.73 57.74 57.34 56.69 56.49 56.48 56.89 57.30 57.52 56.95 50.80 49.14 61.60 64.76 61.08 56.52 50.58 49.39 50.71 53.57 56.15 56.84 58.32 63.29 66.18 63.06 59.69 61.32 62.78 63.73 63.63 64.84 60.54 60.48 64.19 64.72 63.13 63.23 63.02 63.93 66.60
58.13 58.03 58.18 57.75 57.39 57.21 56.69 55.90 55.89 56.86 57.44 57.60 58.13 53.56 46.90 58.40 57.91 57.74 57.42 51.00 51.08 49.49 51.84 56.30 57.84 55.20 53.87 64.74 63.52 58.79 60.98 56.91 60.91 62.67 63.48 63.09 55.39 61.96 64.52 63.77 62.48 62.15 63.07 65.06 66.21
57.66 57.74 57.58 57.30 57.19 56.64 55.55 55.19 56.14 57.75 59.60 57.98 52.07 50.28 49.42 62.75 54.35 56.23 56.17 51.79 47.93 48.92 52.22 58.07 55.65 52.73 51.65 55.84 56.95 57.03 53.11 53.46 56.24 62.41 60.93 61.00 57.07 62.35 64.72 63.23 61.83 61.22 61.82 63.98 65.07
57.44 57.21 57.07 56.99 56.68 55.45 54.46 55.07 55.31 56.41 57.89 58.14 57.63 49.19 53.47 55.17 52.46 54.01 54.63 55.47 49.56 48.97 50.44 50.84 50.15 45.72 46.42 47.54 47.91 52.34 52.12 53.51 53.34 59.16 60.43 58.54 57.54 61.91 62.92 62.90 61.75 60.76 61.10 61.77 64.57
57.29 56.79 56.52 56.50 55.65 54.31 51.14 49.84 50.19 49.24 52.24 51.56 52.08 53.15 55.71 56.61 56.49 53.41 55.09 55.87 51.70 50.49 45.92 49.50 44.83 42.24 44.97 49.42 56.69 56.22 55.01 54.50 56.76 60.08 58.59 57.61 57.36 59.44 62.05 62.31 59.74 58.14 60.41 62.04 63.62
56.81 56.60 56.30 55.23 53.77 53.23 50.41 46.31 51.31 53.33 46.44 54.54 56.66 56.27 57.97 55.12 52.54 54.25 55.63 51.32 50.60 46.27 48.06 45.27 42.31 47.53 52.41 58.66 58.09 57.16 53.88 52.81 56.56 59.82 58.66 57.24 56.94 59.01 60.60 61.61 60.82 62.54 59.12 61.25 60.79
56.66 55.94 54.52 53.78 53.33 50.15 48.53 51.48 55.05 53.53 44.85 51.49 55.33 54.87 53.73 50.92 50.88 51.67 51.79 50.15 49.86 47.03 45.86 42.68 46.13 51.06 56.56 57.36 54.78 55.93 53.97 53.10 53.88 55.96 57.44 56.20 54.28 56.05 58.97 61.74 62.14 62.04 62.78 62.26 62.05
56.30 55.01 53.54 52.68 50.64 50.92 51.40 54.53 54.71 53.42 41.13 47.16 45.65 50.89 51.24 51.56 48.35 55.05 53.57 51.43 48.16 47.07 46.96 44.05 49.42 49.08 48.48 56.10 55.99 52.36 57.65 56.65 54.56 51.98 46.67 55.80 46.29 52.79 55.52 57.17 59.74 60.49 60.95 63.02 62.58
56.08 55.31 53.10 52.55 47.46 48.17 54.24 50.77 52.35 51.84 34.91 51.96 48.18 55.02 52.16 48.07 49.09 51.42 55.07 51.25 47.37 46.98 43.85 43.05 45.11 45.52 45.67 56.10 56.31 52.31 58.71 56.30 54.72 52.47 51.01 51.11 47.81 50.91 55.65 54.64 57.94 58.69 61.18 62.89 63.01
55.33 54.32 52.87 49.58 47.44 50.49 52.65 52.57 50.66 41.56 37.11 48.74 49.37 47.61 46.84 48.13 49.91 52.33 51.90 51.57 51.15 47.50 46.91 46.72 49.13 46.81 47.98 58.57 57.27 58.01 56.75 55.69 53.97 51.91 45.00 49.55 50.05 49.53 50.81 54.66 58.11 60.09 60.55 62.65 63.58
53.82 52.77 50.75 53.44 52.02 54.32 53.49 51.10 42.26 36.69 49.41 47.51 46.07 45.67 45.02 45.95 49.24 48.86 48.53 45.19 42.67 39.61 38.93 45.35 46.39 51.40 59.82 54.22 57.90 56.37 50.19 45.63 43.83 44.23 43.34 51.27 49.61 51.18 55.22 56.99 57.83 59.06 60.74 61.94 64.57
51.83 50.90 50.24 53.09 50.70 52.96 51.03 46.85 38.40 47.19 46.04 49.32 45.74 46.97 44.29 46.93 47.63 48.64 45.58 43.50 45.78 43.24 39.90 38.38 38.70 49.74 54.72 55.48 52.97 52.87 48.56 45.84 41.02 42.41 45.49 52.67 47.50 51.84 59.16 59.19 60.33 60.81 62.37 62.56 63.68
50.87 48.35 49.05 52.98 53.85 52.18 48.10 40.03 39.80 41.58 46.94 47.71 46.25 43.93 44.72 46.99 46.87 47.30 44.01 42.59 46.65 45.27 40.18 39.23 42.11 50.76 53.55 55.13 57.03 51.66 47.57 52.85 44.92 46.99 44.08 47.96 51.02 56.45 58.67 57.68 58.23 59.63 61.60 61.48 62.69
49.74 49.96 50.66 56.75 56.27 50.99 45.57 42.20 42.74 47.10 48.85 47.67 41.72 44.90 41.13 44.47 44.28 44.39 44.41 49.29 49.41 50.03 46.48 44.11 39.99 46.95 51.76 51.34 56.49 52.00 52.59 42.61 42.92 39.93 39.11 45.55 47.59 49.19 54.55 56.37 57.68 57.82 59.58 60.92 63.48
51.49 48.06 54.26 56.27 54.88 48.40 41.70 43.59 47.17 48.09 49.67 45.65 43.95 43.68 46.13 44.17 43.92 42.47 44.87 50.43 50.98 49.04 48.81 43.10 42.69 44.65 46.57 43.16 43.97 44.29 42.44 42.06 43.64 45.09 40.41 40.65 45.13 55.40 55.75 57.66 58.83 59.35 59.99 60.34 63.02
49.72 45.57 56.72 55.11 46.49 44.40 42.41 45.09 48.98 47.69 48.85 48.15 47.45 46.78 44.90 46.17 44.28 44.74 45.98 48.75 53.62 48.05 45.22 45.33 41.01 38.47 43.04 48.59 50.43 45.52 42.25 41.61 38.59 38.91 41.35 43.07 43.27 56.98 57.70 58.52 60.01 61.23 62.79 60.55 63.15
45.76 47.22 54.45 52.82 41.38 40.64 45.40 47.04 48.95 46.61 46.24 46.63 46.59 46.25 46.17 44.84 41.24 45.90 47.93 52.75 53.85 49.77 44.05 45.36 42.69 36.53 40.96 44.48 48.46 45.60 46.84 43.51 40.54 37.89 37.31 36.96 40.31 56.58 56.49 55.78 58.49 58.71 61.93 64.08 62.56
47.92 44.74 49.65 48.69 44.99 45.03 42.99 45.57 45.71 50.24 48.46 47.71 46.53 46.75 43.87 43.71 44.20 44.78 46.62 52.03 52.38 50.88 58.84 51.69 40.57 41.19 35.71 40.69 45.03 44.26 47.04 46.53 40.24 35.79 36.20 39.62 43.55 52.77 56.97 57.99 59.97 62.42 58.26 61.72 64.31
49.24 45.46 49.04 45.43 45.31 44.19 43.61 45.26 45.52 45.23 47.19 46.08 44.31 44.36 40.67 37.14 42.60 44.55 47.25 48.10 50.79 54.33 49.32 45.68 38.50 42.97 47.11 46.86 48.82 48.12 47.01 48.24 42.83 43.83 39.59 44.96 50.33 53.33 58.19 57.28 57.52 60.37 60.60 61.88 62.99
46.83 49.77 51.52 48.65 44.88 44.47 43.39 41.30 44.27 44.85 44.33 43.28 42.58 44.93 42.66 40.75 42.57 41.27 42.92 41.04 42.22 48.07 46.93 46.66 41.96 41.37 40.80 47.53 47.40 47.48 49.71 52.38 52.34 51.77 52.67 53.31 52.73 57.37 59.03 59.57 58.42 60.89 60.60 59.38 60.81
52.84 54.82 52.05 48.10 48.22 46.13 42.29 43.94 46.69 47.12 48.36 48.25 46.62 43.38 42.70 46.06 46.80 46.12 44.34 43.08 44.11 43.98 43.72 42.80 41.71 40.36 36.82 45.67 44.36 41.95 49.10 51.75 51.89 54.63 53.52 49.94 53.59 56.05 55.35 58.57 60.01 60.64 60.89 59.79 60.35

GFSSW_sfc_wetblb_117.txt.gz
Wetbulb
58.14 58.14 57.87 57.57 57.50 57.60 57.72 57.39 57.38 57.46 57.55 57.88 58.01 58.08 58.45 58.41 58.50 56.38 50.00 55.80 58.09 67.09 70.50 59.30 61.52 58.44 61.78 63.45 67.67 66.48 57.39 54.95 56.46 57.44 59.20 62.57 60.70 64.22 66.19 63.50 64.63 65.85 64.49 66.20 68.80
57.71 57.69 57.78 57.78 57.82 57.67 57.07 56.97 57.06 57.33 57.20 57.28 57.89 57.90 58.21 58.33 54.58 51.93 58.76 65.90 67.36 68.77 58.89 57.43 56.62 59.61 59.51 63.10 64.23 62.40 56.14 58.15 61.42 61.62 60.96 61.54 61.45 62.43 62.21 61.79 62.38 63.37 66.49 68.08 68.61
58.68 58.31 58.10 57.42 57.49 57.62 57.44 57.33 57.00 57.04 57.25 57.28 57.45 57.55 58.02 57.62 51.08 52.34 67.41 68.45 69.99 70.44 56.50 60.21 62.25 61.15 57.89 63.46 64.01 63.10 56.67 60.38 61.19 62.50 63.20 62.97 62.13 63.39 60.94 59.99 62.18 62.12 64.27 66.45 65.51
58.65 58.49 58.34 58.11 58.09 57.48 57.38 57.30 57.34 57.38 56.97 57.11 57.32 57.73 58.51 54.39 44.63 57.84 70.06 68.96 71.77 61.98 54.35 58.94 60.52 57.66 57.61 58.37 64.39 59.32 61.97 61.33 61.82 62.85 62.64 61.54 64.08 61.37 61.87 62.40 65.36 65.54 65.72 65.72 64.71
58.36 58.35 58.25 58.07 58.04 58.07 57.95 57.53 57.40 57.31 56.82 57.24 57.51 58.05 52.96 46.69 49.95 60.55 73.11 68.99 64.84 53.76 50.96 55.53 58.41 58.24 55.44 61.01 62.75 60.88 60.83 61.47 62.65 62.97 62.54 63.54 62.91 62.86 62.48 64.43 66.18 66.35 65.55 64.88 64.98
57.99 58.10 57.98 57.96 57.73 57.66 57.84 57.34 56.89 56.73 56.87 57.15 57.62 58.30 49.85 40.56 55.59 63.77 64.64 60.45 54.66 49.00 47.65 55.54 58.94 59.27 56.34 60.11 61.83 62.54 61.99 61.53 61.94 62.18 63.10 63.02 63.68 64.60 63.78 65.13 64.95 65.21 64.64 65.02 65.56
57.68 57.72 57.70 57.58 57.47 57.47 57.40 56.68 56.26 56.45 56.99 57.18 57.63 56.80 49.31 45.52 60.80 61.51 58.07 53.64 50.39 48.74 47.22 51.52 55.75 55.61 54.83 58.73 64.59 63.18 59.66 60.42 61.74 62.50 61.28 63.80 59.97 59.99 63.89 64.52 63.77 64.36 64.76 65.48 65.98
57.43 57.40 57.34 57.24 57.10 57.02 56.45 55.84 55.84 56.58 57.67 57.68 57.83 52.81 46.12 54.97 57.05 55.51 59.51 51.28 50.20 47.94 49.25 55.83 54.96 53.75 52.39 62.81 61.55 59.20 59.51 54.95 60.03 61.24 62.17 61.65 54.43 61.18 63.58 62.50 62.14 62.90 64.42 64.37 64.84
57.54 57.18 57.02 56.90 56.65 56.08 55.21 55.01 56.12 56.79 58.98 57.81 51.34 49.03 49.58 61.56 55.33 56.29 58.69 49.64 46.94 47.26 50.47 55.22 54.10 50.95 52.19 55.08 54.11 56.72 52.24 52.83 55.90 59.54 61.11 60.36 56.72 61.20 63.38 62.17 61.30 60.78 61.36 62.50 64.60
57.29 56.95 56.83 56.48 55.29 53.85 53.16 54.79 57.35 56.64 57.70 57.95 56.83 47.80 51.53 53.58 52.92 54.35 54.82 51.98 47.68 47.16 48.66 48.82 47.88 44.43 44.19 45.37 44.59 51.09 52.51 53.58 53.84 57.35 59.83 57.83 57.96 61.48 62.10 61.70 60.28 59.36 61.96 63.09 63.52
57.05 56.68 55.80 54.64 53.89 52.87 50.53 48.11 48.04 46.83 51.69 48.35 48.44 51.19 54.48 55.70 54.53 51.34 53.02 53.00 50.12 48.89 43.68 48.11 43.89 40.90 43.73 47.13 54.83 55.98 54.75 53.85 55.78 58.75 58.33 57.03 57.43 59.69 61.37 62.19 59.62 57.67 59.62 61.88 62.78
56.70 55.76 54.95 53.99 53.27 52.71 50.07 45.17 47.90 50.29 45.88 52.58 54.75 54.69 56.82 55.68 51.04 52.19 55.17 50.30 48.29 43.86 46.38 44.37 41.02 46.50 49.26 53.81 57.04 55.53 53.90 53.09 56.15 59.16 57.71 56.68 56.20 59.71 60.20 61.28 60.41 60.19 57.75 61.38 60.73
56.44 56.22 54.62 53.49 53.01 49.68 46.77 48.50 51.69 51.12 43.61 49.29 53.02 53.50 53.18 51.76 49.40 49.44 52.30 50.03 47.57 45.16 44.15 41.98 45.72 49.66 57.57 56.61 55.12 54.37 53.50 53.03 53.27 55.97 57.15 56.36 54.32 56.90 59.56 61.11 62.04 61.14 61.37 62.80 62.56
56.02 55.79 54.34 52.67 49.94 49.51 49.32 53.00 50.97 50.65 40.55 46.40 45.11 51.43 49.53 49.75 47.12 53.47 51.94 49.97 47.02 46.35 46.02 43.51 48.27 48.41 55.79 54.17 54.32 51.24 56.84 55.58 54.13 51.76 47.12 55.75 45.82 53.33 57.20 56.78 58.79 60.03 60.60 59.99 62.60
55.65 54.80 53.16 52.21 45.62 46.34 50.83 50.20 50.30 50.10 32.51 49.25 48.42 52.73 48.77 46.98 47.60 50.28 52.73 50.08 45.39 45.59 43.25 42.96 43.58 44.49 44.92 54.98 54.92 50.77 57.56 55.27 53.87 51.73 49.55 50.72 47.74 49.92 56.52 55.68 57.22 58.41 60.05 60.59 62.62
54.99 53.99 52.47 48.79 46.24 49.44 52.38 50.68 49.79 41.40 35.36 47.20 48.91 46.28 45.57 46.71 47.98 50.04 50.44 50.53 50.12 46.49 44.52 45.08 48.71 45.66 45.98 53.42 56.61 58.48 54.87 54.07 53.72 49.53 43.30 48.38 49.12 48.33 52.00 55.34 57.54 58.28 60.81 61.33 62.21
53.31 52.39 50.42 51.82 50.26 51.16 50.97 51.03 41.29 36.51 47.67 46.19 44.79 44.06 43.35 44.63 47.02 46.76 46.62 43.63 42.17 38.62 38.12 43.79 44.66 55.85 58.27 54.40 57.07 55.68 50.65 43.54 42.31 43.35 42.44 51.44 48.42 48.87 54.80 56.83 58.61 58.70 60.51 61.86 62.23
51.45 50.63 50.31 52.10 48.84 51.41 50.52 46.36 37.10 45.21 44.53 47.30 45.00 44.43 43.67 46.50 46.14 46.86 44.25 42.42 44.70 43.64 39.63 37.74 40.82 52.99 57.27 53.62 51.92 51.33 48.57 43.90 39.39 41.65 44.45 52.18 46.92 50.13 58.03 58.95 59.57 61.50 62.42 62.60 63.20
50.45 48.21 47.94 50.86 51.86 49.76 47.97 39.45 37.74 40.72 45.05 45.67 45.37 42.60 42.33 45.34 44.60 45.40 42.72 41.27 45.07 43.63 39.09 37.91 40.27 48.74 57.06 56.83 55.38 51.04 45.87 49.59 46.16 43.57 43.30 48.29 51.51 55.05 58.23 57.54 57.77 57.64 61.08 61.65 62.86
49.17 48.79 48.97 53.53 53.08 50.40 44.69 40.49 42.95 45.56 46.89 45.89 40.15 42.83 39.08 42.74 43.36 43.87 42.77 47.60 47.38 47.82 44.92 41.76 37.95 45.67 50.78 57.27 56.66 51.40 52.52 44.43 44.00 38.05 37.74 44.65 46.92 48.19 53.04 54.60 56.07 57.27 59.03 61.06 63.05
49.80 48.02 52.18 53.61 52.88 46.97 41.04 41.38 47.14 47.23 47.74 44.38 42.69 42.64 42.15 42.11 41.76 41.81 45.39 48.63 49.82 48.24 47.60 42.53 40.75 42.39 44.94 43.16 49.36 43.70 42.10 41.13 42.97 42.22 38.36 39.21 43.69 54.02 53.52 56.23 55.75 57.07 59.70 61.50 62.31
46.57 43.11 53.30 51.67 45.69 40.73 40.77 45.25 47.73 45.05 47.41 46.93 45.81 43.83 42.25 43.94 42.49 43.05 44.75 48.41 52.19 48.81 44.63 43.88 39.61 37.33 41.20 46.82 47.78 46.99 40.86 39.84 38.22 37.41 38.30 39.97 39.60 54.57 57.04 57.61 59.73 59.69 61.27 61.20 62.81
44.05 45.16 52.49 51.44 41.74 39.81 42.63 46.56 47.14 44.75 43.92 44.80 44.88 45.14 45.00 42.40 40.55 44.47 46.24 51.72 52.22 48.64 43.37 43.94 40.05 37.17 39.04 42.40 46.61 45.35 44.67 41.05 37.49 35.79 34.77 35.55 39.00 58.20 58.99 60.28 61.58 59.95 60.05 62.15 62.94
45.73 43.05 47.96 47.30 43.25 41.85 40.77 44.26 43.87 48.28 46.44 45.69 43.34 43.16 41.72 40.59 42.76 42.75 45.15 50.15 51.27 51.14 56.88 49.77 40.00 40.30 38.15 38.40 42.41 44.16 45.90 44.47 38.82 37.11 36.84 37.28 47.25 54.88 55.22 57.47 57.43 60.17 61.62 61.46 62.84
47.31 44.14 46.98 44.31 46.65 43.46 40.25 43.71 44.75 42.55 45.11 43.88 42.02 42.52 39.47 37.98 40.76 42.48 44.51 45.00 48.42 52.80 49.33 43.38 37.90 38.98 44.99 45.20 44.95 46.01 48.52 50.17 45.75 43.79 39.21 45.88 50.91 54.17 57.06 56.34 58.40 58.70 60.55 60.99 61.62
45.80 49.42 50.58 48.01 46.01 44.94 40.44 38.93 42.74 43.13 43.05 41.94 41.36 43.06 43.09 40.53 42.56 39.63 40.76 38.19 40.29 45.58 44.36 43.60 38.21 41.16 42.23 47.25 48.02 48.49 50.70 50.88 51.38 51.99 51.97 52.48 51.40 54.93 59.25 59.69 59.33 59.56 59.06 58.31 60.30
47.84 51.09 50.75 46.48 46.39 44.01 43.32 43.12 44.45 46.54 46.71 46.18 45.20 41.88 42.21 44.34 45.28 42.59 43.20 43.29 43.21 42.39 42.26 41.49 40.24 38.28 35.89 42.58 46.14 41.65 47.16 50.04 50.61 53.68 51.78 45.74 50.45 55.92 56.67 56.26 57.15 57.80 59.31 59.20 59.88

GFSSW_sfc_wetblb_123.txt.gz
Wetbulb
58.19 57.93 58.15 57.46 57.62 57.69 57.62 57.24 57.15 57.27 57.23 57.61 57.65 57.87 58.16 58.42 58.17 56.58 50.56 58.05 59.78 67.69 68.80 64.49 60.54 61.88 65.85 67.81 68.37 66.81 60.03 56.39 56.26 57.09 58.34 63.49 62.16 65.17 66.72 63.74 64.90 66.26 65.29 67.58 70.47
58.71 58.61 58.50 58.37 58.38 58.25 57.92 57.76 57.70 57.46 56.85 57.21 57.61 57.73 58.07 58.62 54.84 52.97 61.13 61.94 65.40 71.57 61.16 58.02 58.95 64.31 66.05 65.76 66.51 61.97 58.95 58.48 60.96 62.23 60.58 62.54 62.47 62.62 62.02 62.61 63.31 65.04 67.91 69.33 70.06
58.72 58.61 58.60 58.61 58.47 58.41 58.45 58.54 57.97 57.31 57.24 56.73 57.79 57.99 58.24 58.75 53.52 54.24 68.52 65.55 68.88 67.58 58.50 63.32 64.28 65.00 63.20 65.86 65.03 62.63 58.35 61.27 62.02 63.29 64.53 62.62 62.81 64.03 61.30 60.50 63.59 63.39 66.03 67.87 68.21
58.42 58.45 58.33 58.47 58.57 58.33 58.27 58.31 57.95 57.40 56.76 56.90 57.88 58.22 59.05 55.86 49.07 58.14 70.80 69.33 69.90 64.86 57.21 63.93 64.23 62.79 62.13 61.24 64.84 60.91 63.03 62.63 62.49 63.50 63.98 62.44 64.26 62.63 62.72 63.29 66.35 66.88 67.78 67.80 67.64
58.08 58.09 58.05 57.99 58.04 58.07 58.19 57.94 57.46 56.87 56.54 56.93 57.93 58.40 55.51 49.24 50.77 61.68 71.27 69.39 64.75 58.39 57.80 63.01 63.76 62.06 59.59 61.27 63.66 61.83 62.15 63.07 63.28 63.53 64.27 64.54 63.15 61.89 62.98 65.92 67.06 67.83 67.71 67.29 67.98
57.91 57.82 57.80 57.78 57.81 57.96 57.89 56.71 56.21 56.49 57.00 57.57 58.10 58.64 53.95 48.94 58.55 65.50 65.81 58.63 55.97 54.45 53.30 63.53 63.43 63.21 58.50 60.52 62.36 62.60 62.64 61.65 62.68 62.93 63.92 62.48 63.28 63.58 64.48 66.26 66.27 66.70 66.76 67.26 67.53
57.72 57.62 57.64 57.62 57.17 56.32 55.38 54.97 54.82 55.25 56.93 57.60 57.96 57.67 51.09 51.13 62.05 63.58 60.85 58.52 55.66 53.87 51.92 57.16 61.12 59.04 57.47 62.66 65.51 63.54 59.74 61.19 61.71 62.11 61.34 63.74 60.98 61.11 65.38 66.17 65.34 65.98 66.65 66.95 67.35
57.63 57.51 57.11 55.99 55.48 55.13 54.70 54.07 54.80 55.85 57.12 57.52 58.25 56.19 51.84 55.21 59.36 59.65 60.26 54.99 54.84 54.05 53.35 54.69 60.82 57.69 59.44 65.70 62.83 59.83 59.19 56.19 58.43 61.24 61.68 62.60 57.05 63.55 65.87 64.74 64.30 65.50 65.93 66.45 67.29
57.10 56.82 55.78 55.19 54.62 54.30 53.72 54.25 56.93 56.85 58.07 58.53 56.52 54.38 52.64 61.68 57.96 59.15 61.37 52.10 53.58 52.84 53.72 55.89 56.14 55.38 63.60 59.39 57.13 58.26 52.72 54.56 55.61 59.77 60.27 60.94 57.89 62.28 65.34 64.32 63.53 65.02 65.66 66.26 66.97
57.17 56.87 55.66 55.55 54.05 53.16 52.79 55.34 58.57 58.87 59.38 58.54 57.47 53.29 55.31 54.84 56.36 57.44 60.21 52.51 50.60 50.91 51.66 52.99 52.68 52.84 56.82 55.74 50.76 52.76 53.29 53.71 53.41 56.46 59.44 58.35 58.13 61.66 64.07 62.74 63.30 64.76 65.60 66.04 66.45
56.93 56.30 55.17 55.17 53.84 52.53 52.34 54.08 54.12 53.07 55.36 52.62 53.01 52.77 54.47 58.50 56.37 56.06 57.99 55.58 52.86 51.52 49.49 51.18 52.02 49.89 51.20 54.46 53.04 55.51 55.05 53.41 54.54 57.51 56.81 57.03 58.56 60.74 62.84 63.34 63.44 64.39 65.05 65.78 66.43
56.42 55.56 54.75 54.01 53.35 53.32 51.82 53.63 53.30 53.51 50.35 52.87 54.18 54.96 56.81 58.30 52.70 53.68 57.37 53.81 52.16 48.72 51.54 51.54 49.86 51.94 51.15 51.59 55.90 56.70 55.24 54.09 56.73 58.02 56.88 56.92 56.82 60.37 61.85 62.06 63.42 64.09 64.79 65.64 66.66
56.00 54.81 53.99 53.56 53.28 53.00 53.72 53.52 54.93 54.89 50.81 52.02 54.27 54.95 55.82 57.42 52.60 53.13 55.19 54.02 51.68 49.60 49.87 51.20 50.08 51.04 52.17 52.98 55.15 56.35 54.68 54.34 54.51 57.56 57.77 56.49 54.29 56.86 60.35 62.23 63.03 64.34 65.21 66.23 66.35
55.81 54.40 53.56 52.47 52.75 52.49 54.03 56.17 55.14 54.17 49.29 50.31 51.30 54.37 54.52 53.16 50.86 54.92 56.54 53.49 51.01 49.43 49.91 50.08 50.58 52.89 53.84 52.15 56.71 52.63 57.66 56.74 55.44 54.49 50.63 56.36 48.14 54.15 57.92 59.52 61.53 62.58 63.19 64.71 65.92
55.35 53.99 52.72 51.58 52.74 51.82 53.51 55.11 53.44 53.49 39.09 51.91 52.61 55.13 52.77 51.73 52.05 52.32 54.77 53.37 50.00 49.61 50.16 48.63 47.49 50.98 51.70 52.48 58.06 53.96 58.85 57.01 55.70 53.89 53.22 52.85 50.29 53.30 57.31 57.61 60.49 62.55 63.42 64.10 65.97
54.52 53.35 52.59 51.49 52.09 54.64 56.20 54.03 54.08 47.94 38.99 48.95 52.88 49.67 50.57 50.95 51.20 52.51 52.82 54.12 52.59 49.56 49.29 49.27 50.48 49.87 51.07 58.13 59.18 59.78 56.98 55.80 54.93 53.39 47.46 52.00 51.14 51.00 54.62 58.38 59.87 62.31 63.88 64.61 65.10
52.78 51.42 51.58 53.10 54.55 54.64 54.61 56.46 47.33 42.27 49.43 47.51 48.25 48.98 48.90 49.19 49.57 50.58 49.88 49.49 47.93 44.95 45.49 47.75 48.33 56.82 57.60 55.18 59.21 57.08 54.43 48.55 46.37 46.56 46.62 52.06 50.25 52.62 57.02 60.06 62.24 62.02 63.09 65.08 65.60
51.05 50.63 52.46 53.93 55.18 54.81 56.80 51.15 41.97 45.28 46.32 49.67 48.93 49.27 48.40 49.64 48.97 48.86 48.77 47.80 48.94 47.85 46.48 44.40 44.91 54.95 58.79 55.32 53.79 54.73 52.31 48.02 41.16 44.33 47.67 53.27 49.20 54.30 59.65 60.51 62.85 65.04 63.86 65.54 65.75
50.34 53.35 54.61 56.10 55.05 54.83 54.69 45.58 44.56 45.80 47.47 47.77 49.19 47.72 47.60 48.93 48.83 48.66 47.56 47.47 48.78 49.25 45.92 44.80 45.23 56.54 58.35 59.25 58.31 53.78 50.59 54.52 48.99 50.31 47.43 49.91 53.96 57.96 59.77 59.41 61.40 62.62 63.05 63.52 64.96
54.99 54.75 55.54 56.35 55.72 56.51 52.69 44.09 48.55 50.11 48.30 49.70 46.06 47.48 45.73 47.19 47.50 48.70 48.46 51.20 49.82 50.20 50.12 48.16 44.96 51.32 57.42 59.49 57.07 56.28 57.10 49.92 50.71 42.86 40.36 46.95 49.48 52.16 56.45 58.13 59.95 60.67 61.90 63.26 64.98
53.71 55.58 55.84 56.47 55.81 54.97 49.13 48.72 49.75 52.28 49.88 48.86 47.78 46.97 46.84 46.49 47.61 47.66 48.08 50.92 52.26 50.96 51.27 50.21 48.00 48.05 55.38 54.61 53.82 53.40 52.99 51.24 50.64 48.88 44.59 43.99 46.40 57.23 57.39 59.10 59.83 60.10 63.04 64.83 64.64
51.76 52.52 56.33 55.91 52.90 48.20 50.00 49.35 47.66 50.03 50.68 50.06 49.88 48.49 48.09 47.65 48.06 47.87 47.76 49.90 52.89 52.53 48.24 49.79 49.10 47.31 47.47 50.97 51.09 54.05 53.29 53.66 48.46 45.28 49.08 47.69 47.71 58.92 59.42 60.25 61.36 61.27 62.44 64.11 65.59
50.91 51.75 57.20 56.09 49.40 49.95 49.26 48.70 50.38 49.45 48.51 49.17 47.91 49.87 49.61 48.48 47.10 48.33 48.91 51.99 51.93 51.41 49.61 50.73 48.10 45.31 46.46 49.73 50.77 50.46 51.13 48.96 46.94 47.57 46.64 44.43 47.13 59.73 60.04 60.05 61.66 61.95 63.48 64.10 64.22
51.47 50.09 55.26 53.76 49.86 49.81 47.86 47.78 47.64 48.93 47.78 47.69 46.82 48.46 47.47 48.16 48.97 47.10 48.16 50.33 50.98 53.29 54.11 55.76 49.26 46.87 43.94 46.80 49.27 47.98 51.12 50.04 47.60 45.67 46.60 46.41 50.46 56.80 58.31 58.60 59.91 61.33 63.42 64.17 65.44
51.74 50.14 51.15 51.43 51.44 51.46 49.68 46.94 47.16 46.55 48.12 48.14 47.39 46.55 47.46 46.85 47.33 46.89 48.20 48.50 50.26 53.74 52.81 50.77 46.74 47.54 48.43 49.42 48.50 51.59 52.16 53.62 51.18 51.82 45.99 49.32 52.28 56.45 57.90 58.47 59.20 60.78 62.35 62.94 64.91
52.92 53.46 54.60 53.33 51.29 50.77 44.63 47.04 46.70 47.05 47.93 46.71 46.92 47.97 48.67 47.18 48.40 46.67 47.51 47.40 47.56 51.90 51.66 51.59 47.74 48.63 45.83 48.59 49.81 50.06 51.78 52.23 53.75 53.33 52.99 53.72 52.90 58.46 58.99 60.15 59.31 57.94 58.60 59.33 60.18
50.60 53.18 54.06 49.69 50.78 49.94 49.91 50.13 47.31 48.77 48.93 48.93 49.04 48.68 47.22 48.57 50.65 49.33 50.19 49.91 50.66 50.35 49.66 49.75 49.50 47.38 43.23 46.80 48.60 46.05 49.90 50.78 53.15 54.76 54.73 51.37 55.57 59.00 57.02 56.23 56.42 57.39 57.70 57.94 58.70